﻿<?xml version="1.0" encoding="UTF-8" standalone="no"?>
<gpx xmlns="http://www.topografix.com/GPX/1/1" xmlns:gpxtpx="http://www.garmin.com/xmlschemas/TrackPointExtension/v1" xmlns:xsi="http://www.w3.org/2001/XMLSchema-instance" creator="Hribi.net" version="1.1" xsi:schemaLocation="http://www.topografix.com/GPX/1/1 http://www.topografix.com/GPX/1/1/gpx.xsd http://www.garmin.com/xmlschemas/TrackPointExtension/v1 http://www.garmin.com/xmlschemas/TrackPointExtensionv1.xsd">
  <metadata>
    <name>GPS sled</name>
    <desc>www.hribi.net</desc>
    <author>
      <name>hribi.net</name>
    </author>
    <link href="http://www.hribi.net">
      <text>Hribi.net</text>
    </link>
  </metadata>
  <trk>
    <trkseg>
      <trkpt lat="46.510403" lon="15.082875">
        <time>2019-07-10T05:58:06Z</time>
      </trkpt>
      <trkpt lat="46.510403" lon="15.082875">
        <ele>460.299</ele>
        <time>2019-07-10T05:58:07Z</time>
      </trkpt>
      <trkpt lat="46.510446" lon="15.08304">
        <ele>463.364</ele>
        <time>2019-07-10T05:58:17Z</time>
      </trkpt>
      <trkpt lat="46.51058" lon="15.083278">
        <ele>460.151</ele>
        <time>2019-07-10T05:58:34Z</time>
      </trkpt>
      <trkpt lat="46.510631" lon="15.083408">
        <ele>461.772</ele>
        <time>2019-07-10T05:58:45Z</time>
      </trkpt>
      <trkpt lat="46.510627" lon="15.083615">
        <ele>459.49</ele>
        <time>2019-07-10T05:58:56Z</time>
      </trkpt>
      <trkpt lat="46.510601" lon="15.083876">
        <ele>463.873</ele>
        <time>2019-07-10T05:59:11Z</time>
      </trkpt>
      <trkpt lat="46.510734" lon="15.084057">
        <ele>462.849</ele>
        <time>2019-07-10T05:59:25Z</time>
      </trkpt>
      <trkpt lat="46.510744" lon="15.08428">
        <ele>463.206</ele>
        <time>2019-07-10T05:59:39Z</time>
      </trkpt>
      <trkpt lat="46.51066" lon="15.084495">
        <ele>464.165</ele>
        <time>2019-07-10T05:59:54Z</time>
      </trkpt>
      <trkpt lat="46.510578" lon="15.084657">
        <ele>466.334</ele>
        <time>2019-07-10T06:00:05Z</time>
      </trkpt>
      <trkpt lat="46.51049" lon="15.084793">
        <ele>463.081</ele>
        <time>2019-07-10T06:00:15Z</time>
      </trkpt>
      <trkpt lat="46.51047" lon="15.085009">
        <ele>465.527</ele>
        <time>2019-07-10T06:00:31Z</time>
      </trkpt>
      <trkpt lat="46.510534" lon="15.085112">
        <ele>467.765</ele>
        <time>2019-07-10T06:00:39Z</time>
      </trkpt>
      <trkpt lat="46.51053" lon="15.085061">
        <ele>469.088</ele>
        <time>2019-07-10T06:00:47Z</time>
      </trkpt>
      <trkpt lat="46.510692" lon="15.085421">
        <ele>470.451</ele>
        <time>2019-07-10T06:02:12Z</time>
      </trkpt>
      <trkpt lat="46.510714" lon="15.085565">
        <ele>471.98</ele>
        <time>2019-07-10T06:02:18Z</time>
      </trkpt>
      <trkpt lat="46.510812" lon="15.085773">
        <ele>472.776</ele>
        <time>2019-07-10T06:02:35Z</time>
      </trkpt>
      <trkpt lat="46.510849" lon="15.08591">
        <ele>476.334</ele>
        <time>2019-07-10T06:02:40Z</time>
      </trkpt>
      <trkpt lat="46.510856" lon="15.085945">
        <ele>476.672</ele>
        <time>2019-07-10T06:02:42Z</time>
      </trkpt>
      <trkpt lat="46.510921" lon="15.086053">
        <ele>476.373</ele>
        <time>2019-07-10T06:02:52Z</time>
      </trkpt>
      <trkpt lat="46.511057" lon="15.086234">
        <ele>476.833</ele>
        <time>2019-07-10T06:03:06Z</time>
      </trkpt>
      <trkpt lat="46.511162" lon="15.086442">
        <ele>479.292</ele>
        <time>2019-07-10T06:03:17Z</time>
      </trkpt>
      <trkpt lat="46.51128" lon="15.086598">
        <ele>478.453</ele>
        <time>2019-07-10T06:03:27Z</time>
      </trkpt>
      <trkpt lat="46.511343" lon="15.0867">
        <ele>478.319</ele>
        <time>2019-07-10T06:03:37Z</time>
      </trkpt>
      <trkpt lat="46.511422" lon="15.086853">
        <ele>480.582</ele>
        <time>2019-07-10T06:03:47Z</time>
      </trkpt>
      <trkpt lat="46.511473" lon="15.086928">
        <ele>481.14</ele>
        <time>2019-07-10T06:03:55Z</time>
      </trkpt>
      <trkpt lat="46.51152" lon="15.087023">
        <ele>480.115</ele>
        <time>2019-07-10T06:04:05Z</time>
      </trkpt>
      <trkpt lat="46.511599" lon="15.087249">
        <ele>478.119</ele>
        <time>2019-07-10T06:04:13Z</time>
      </trkpt>
      <trkpt lat="46.511622" lon="15.087326">
        <ele>478.302</ele>
        <time>2019-07-10T06:04:18Z</time>
      </trkpt>
      <trkpt lat="46.51165" lon="15.087415">
        <ele>474.541</ele>
        <time>2019-07-10T06:04:29Z</time>
      </trkpt>
      <trkpt lat="46.511682" lon="15.08775">
        <ele>476.283</ele>
        <time>2019-07-10T06:04:45Z</time>
      </trkpt>
      <trkpt lat="46.511684" lon="15.087829">
        <ele>476.246</ele>
        <time>2019-07-10T06:04:49Z</time>
      </trkpt>
      <trkpt lat="46.511695" lon="15.087925">
        <ele>475.875</ele>
        <time>2019-07-10T06:05:00Z</time>
      </trkpt>
      <trkpt lat="46.511693" lon="15.088399">
        <ele>477.348</ele>
        <time>2019-07-10T06:05:20Z</time>
      </trkpt>
      <trkpt lat="46.511732" lon="15.088684">
        <ele>477.5</ele>
        <time>2019-07-10T06:05:36Z</time>
      </trkpt>
      <trkpt lat="46.511714" lon="15.089053">
        <ele>479.167</ele>
        <time>2019-07-10T06:05:49Z</time>
      </trkpt>
      <trkpt lat="46.511714" lon="15.089053">
        <ele>479.167</ele>
        <time>2019-07-10T06:05:56Z</time>
      </trkpt>
      <trkpt lat="46.511729" lon="15.08917">
        <ele>478.776</ele>
        <time>2019-07-10T06:06:02Z</time>
      </trkpt>
      <trkpt lat="46.511725" lon="15.089497">
        <ele>475.579</ele>
        <time>2019-07-10T06:06:18Z</time>
      </trkpt>
      <trkpt lat="46.511708" lon="15.089813">
        <ele>478.573</ele>
        <time>2019-07-10T06:06:29Z</time>
      </trkpt>
      <trkpt lat="46.511696" lon="15.089981">
        <ele>478.654</ele>
        <time>2019-07-10T06:06:42Z</time>
      </trkpt>
      <trkpt lat="46.511675" lon="15.090345">
        <ele>483.04</ele>
        <time>2019-07-10T06:06:56Z</time>
      </trkpt>
      <trkpt lat="46.511675" lon="15.090345">
        <ele>483.04</ele>
        <time>2019-07-10T06:07:01Z</time>
      </trkpt>
      <trkpt lat="46.511675" lon="15.090345">
        <ele>483.04</ele>
        <time>2019-07-10T06:07:02Z</time>
      </trkpt>
      <trkpt lat="46.511713" lon="15.090531">
        <ele>476.185</ele>
        <time>2019-07-10T06:07:14Z</time>
      </trkpt>
      <trkpt lat="46.511704" lon="15.090759">
        <ele>478.896</ele>
        <time>2019-07-10T06:07:22Z</time>
      </trkpt>
      <trkpt lat="46.511692" lon="15.090925">
        <ele>480.338</ele>
        <time>2019-07-10T06:07:30Z</time>
      </trkpt>
      <trkpt lat="46.511777" lon="15.091128">
        <ele>475.482</ele>
        <time>2019-07-10T06:07:43Z</time>
      </trkpt>
      <trkpt lat="46.511945" lon="15.091372">
        <ele>477.112</ele>
        <time>2019-07-10T06:07:57Z</time>
      </trkpt>
      <trkpt lat="46.512085" lon="15.091611">
        <ele>473.61</ele>
        <time>2019-07-10T06:08:07Z</time>
      </trkpt>
      <trkpt lat="46.512121" lon="15.091665">
        <ele>470.52</ele>
        <time>2019-07-10T06:08:11Z</time>
      </trkpt>
      <trkpt lat="46.512149" lon="15.091709">
        <ele>466.661</ele>
        <time>2019-07-10T06:08:18Z</time>
      </trkpt>
      <trkpt lat="46.512292" lon="15.091854">
        <ele>469.851</ele>
        <time>2019-07-10T06:08:37Z</time>
      </trkpt>
      <trkpt lat="46.512428" lon="15.091988">
        <ele>471.563</ele>
        <time>2019-07-10T06:08:45Z</time>
      </trkpt>
      <trkpt lat="46.512506" lon="15.092102">
        <ele>468.771</ele>
        <time>2019-07-10T06:08:57Z</time>
      </trkpt>
      <trkpt lat="46.512678" lon="15.092284">
        <ele>470.529</ele>
        <time>2019-07-10T06:09:09Z</time>
      </trkpt>
      <trkpt lat="46.512744" lon="15.092375">
        <ele>471.383</ele>
        <time>2019-07-10T06:09:13Z</time>
      </trkpt>
      <trkpt lat="46.512784" lon="15.092435">
        <ele>471.337</ele>
        <time>2019-07-10T06:09:23Z</time>
      </trkpt>
      <trkpt lat="46.51291" lon="15.092572">
        <ele>471.112</ele>
        <time>2019-07-10T06:09:37Z</time>
      </trkpt>
      <trkpt lat="46.513016" lon="15.092724">
        <ele>472.745</ele>
        <time>2019-07-10T06:09:45Z</time>
      </trkpt>
      <trkpt lat="46.513036" lon="15.092764">
        <ele>474.329</ele>
        <time>2019-07-10T06:09:47Z</time>
      </trkpt>
      <trkpt lat="46.51305" lon="15.092831">
        <ele>473.76</ele>
        <time>2019-07-10T06:09:55Z</time>
      </trkpt>
      <trkpt lat="46.513096" lon="15.09307">
        <ele>476.812</ele>
        <time>2019-07-10T06:10:03Z</time>
      </trkpt>
      <trkpt lat="46.513096" lon="15.09307">
        <ele>476.812</ele>
        <time>2019-07-10T06:10:09Z</time>
      </trkpt>
      <trkpt lat="46.513096" lon="15.09307">
        <ele>476.812</ele>
        <time>2019-07-10T06:10:10Z</time>
      </trkpt>
      <trkpt lat="46.513162" lon="15.093298">
        <ele>473.333</ele>
        <time>2019-07-10T06:10:20Z</time>
      </trkpt>
      <trkpt lat="46.513189" lon="15.093402">
        <ele>473.954</ele>
        <time>2019-07-10T06:10:25Z</time>
      </trkpt>
      <trkpt lat="46.513202" lon="15.093504">
        <ele>474.051</ele>
        <time>2019-07-10T06:10:35Z</time>
      </trkpt>
      <trkpt lat="46.513217" lon="15.093781">
        <ele>472.768</ele>
        <time>2019-07-10T06:10:44Z</time>
      </trkpt>
      <trkpt lat="46.513215" lon="15.093936">
        <ele>474.714</ele>
        <time>2019-07-10T06:10:56Z</time>
      </trkpt>
      <trkpt lat="46.513235" lon="15.094004">
        <ele>475.033</ele>
        <time>2019-07-10T06:11:00Z</time>
      </trkpt>
      <trkpt lat="46.513238" lon="15.094148">
        <ele>473.938</ele>
        <time>2019-07-10T06:11:13Z</time>
      </trkpt>
      <trkpt lat="46.513316" lon="15.09438">
        <ele>476.949</ele>
        <time>2019-07-10T06:11:30Z</time>
      </trkpt>
      <trkpt lat="46.513335" lon="15.094653">
        <ele>478.562</ele>
        <time>2019-07-10T06:11:43Z</time>
      </trkpt>
      <trkpt lat="46.513335" lon="15.094653">
        <ele>478.562</ele>
        <time>2019-07-10T06:11:52Z</time>
      </trkpt>
      <trkpt lat="46.513335" lon="15.094653">
        <ele>478.562</ele>
        <time>2019-07-10T06:11:54Z</time>
      </trkpt>
      <trkpt lat="46.513365" lon="15.094978">
        <ele>475.287</ele>
        <time>2019-07-10T06:12:47Z</time>
      </trkpt>
      <trkpt lat="46.513365" lon="15.094978">
        <ele>475.287</ele>
        <time>2019-07-10T06:12:54Z</time>
      </trkpt>
      <trkpt lat="46.513361" lon="15.095115">
        <ele>466.628</ele>
        <time>2019-07-10T06:13:00Z</time>
      </trkpt>
      <trkpt lat="46.513373" lon="15.095372">
        <ele>471.98</ele>
        <time>2019-07-10T06:13:10Z</time>
      </trkpt>
      <trkpt lat="46.513367" lon="15.095475">
        <ele>469.413</ele>
        <time>2019-07-10T06:13:15Z</time>
      </trkpt>
      <trkpt lat="46.513342" lon="15.095613">
        <ele>468.433</ele>
        <time>2019-07-10T06:13:26Z</time>
      </trkpt>
      <trkpt lat="46.513336" lon="15.095887">
        <ele>468.752</ele>
        <time>2019-07-10T06:13:36Z</time>
      </trkpt>
      <trkpt lat="46.513342" lon="15.096084">
        <ele>471.705</ele>
        <time>2019-07-10T06:13:49Z</time>
      </trkpt>
      <trkpt lat="46.51332" lon="15.09618">
        <ele>471.742</ele>
        <time>2019-07-10T06:13:52Z</time>
      </trkpt>
      <trkpt lat="46.513314" lon="15.096329">
        <ele>474.477</ele>
        <time>2019-07-10T06:14:02Z</time>
      </trkpt>
      <trkpt lat="46.513309" lon="15.096395">
        <ele>474.323</ele>
        <time>2019-07-10T06:14:04Z</time>
      </trkpt>
      <trkpt lat="46.513326" lon="15.09657">
        <ele>477.071</ele>
        <time>2019-07-10T06:14:15Z</time>
      </trkpt>
      <trkpt lat="46.513315" lon="15.09681">
        <ele>482.504</ele>
        <time>2019-07-10T06:14:31Z</time>
      </trkpt>
      <trkpt lat="46.513369" lon="15.097156">
        <ele>486.484</ele>
        <time>2019-07-10T06:14:52Z</time>
      </trkpt>
      <trkpt lat="46.513491" lon="15.097294">
        <ele>490.317</ele>
        <time>2019-07-10T06:15:07Z</time>
      </trkpt>
      <trkpt lat="46.513669" lon="15.097387">
        <ele>494.55</ele>
        <time>2019-07-10T06:15:24Z</time>
      </trkpt>
      <trkpt lat="46.513757" lon="15.097431">
        <ele>496.557</ele>
        <time>2019-07-10T06:15:35Z</time>
      </trkpt>
      <trkpt lat="46.513802" lon="15.097435">
        <ele>493.75</ele>
        <time>2019-07-10T06:15:38Z</time>
      </trkpt>
      <trkpt lat="46.513896" lon="15.09749">
        <ele>496.269</ele>
        <time>2019-07-10T06:15:50Z</time>
      </trkpt>
      <trkpt lat="46.514056" lon="15.097596">
        <ele>496.345</ele>
        <time>2019-07-10T06:16:07Z</time>
      </trkpt>
      <trkpt lat="46.514177" lon="15.097724">
        <ele>498.831</ele>
        <time>2019-07-10T06:16:23Z</time>
      </trkpt>
      <trkpt lat="46.51424" lon="15.097811">
        <ele>499.027</ele>
        <time>2019-07-10T06:16:32Z</time>
      </trkpt>
      <trkpt lat="46.514314" lon="15.097914">
        <ele>498.043</ele>
        <time>2019-07-10T06:16:44Z</time>
      </trkpt>
      <trkpt lat="46.514433" lon="15.098055">
        <ele>492.627</ele>
        <time>2019-07-10T06:16:58Z</time>
      </trkpt>
      <trkpt lat="46.514477" lon="15.098122">
        <ele>492.348</ele>
        <time>2019-07-10T06:17:03Z</time>
      </trkpt>
      <trkpt lat="46.514483" lon="15.098166">
        <ele>500.418</ele>
        <time>2019-07-10T06:17:12Z</time>
      </trkpt>
      <trkpt lat="46.514589" lon="15.098545">
        <ele>512.288</ele>
        <time>2019-07-10T06:17:59Z</time>
      </trkpt>
      <trkpt lat="46.514688" lon="15.098726">
        <ele>511.476</ele>
        <time>2019-07-10T06:18:18Z</time>
      </trkpt>
      <trkpt lat="46.514688" lon="15.098726">
        <ele>511.476</ele>
        <time>2019-07-10T06:18:25Z</time>
      </trkpt>
      <trkpt lat="46.514688" lon="15.098726">
        <ele>511.476</ele>
        <time>2019-07-10T06:18:26Z</time>
      </trkpt>
      <trkpt lat="46.514812" lon="15.099116">
        <ele>516.174</ele>
        <time>2019-07-10T06:19:07Z</time>
      </trkpt>
      <trkpt lat="46.514738" lon="15.09945">
        <ele>526.717</ele>
        <time>2019-07-10T06:19:34Z</time>
      </trkpt>
      <trkpt lat="46.514814" lon="15.099689">
        <ele>521.107</ele>
        <time>2019-07-10T06:19:49Z</time>
      </trkpt>
      <trkpt lat="46.514844" lon="15.09975">
        <ele>525.708</ele>
        <time>2019-07-10T06:19:55Z</time>
      </trkpt>
      <trkpt lat="46.514871" lon="15.099867">
        <ele>531.577</ele>
        <time>2019-07-10T06:20:06Z</time>
      </trkpt>
      <trkpt lat="46.514959" lon="15.099957">
        <ele>528.595</ele>
        <time>2019-07-10T06:20:15Z</time>
      </trkpt>
      <trkpt lat="46.515066" lon="15.100109">
        <ele>533.447</ele>
        <time>2019-07-10T06:20:30Z</time>
      </trkpt>
      <trkpt lat="46.515316" lon="15.100348">
        <ele>546.725</ele>
        <time>2019-07-10T06:21:11Z</time>
      </trkpt>
      <trkpt lat="46.51556" lon="15.100548">
        <ele>549.725</ele>
        <time>2019-07-10T06:21:59Z</time>
      </trkpt>
      <trkpt lat="46.515673" lon="15.100668">
        <ele>547.815</ele>
        <time>2019-07-10T06:22:14Z</time>
      </trkpt>
      <trkpt lat="46.515673" lon="15.100668">
        <ele>547.815</ele>
        <time>2019-07-10T06:22:23Z</time>
      </trkpt>
      <trkpt lat="46.515774" lon="15.100767">
        <ele>534.755</ele>
        <time>2019-07-10T06:22:30Z</time>
      </trkpt>
      <trkpt lat="46.515822" lon="15.100777">
        <ele>541.061</ele>
        <time>2019-07-10T06:22:35Z</time>
      </trkpt>
      <trkpt lat="46.515885" lon="15.100745">
        <ele>548.812</ele>
        <time>2019-07-10T06:22:52Z</time>
      </trkpt>
      <trkpt lat="46.516052" lon="15.100869">
        <ele>545.527</ele>
        <time>2019-07-10T06:23:08Z</time>
      </trkpt>
      <trkpt lat="46.516052" lon="15.100869">
        <ele>545.527</ele>
        <time>2019-07-10T06:23:16Z</time>
      </trkpt>
      <trkpt lat="46.516052" lon="15.100869">
        <ele>545.527</ele>
        <time>2019-07-10T06:23:18Z</time>
      </trkpt>
      <trkpt lat="46.516172" lon="15.100881">
        <ele>571.348</ele>
        <time>2019-07-10T06:26:08Z</time>
      </trkpt>
      <trkpt lat="46.516299" lon="15.100972">
        <ele>580.559</ele>
        <time>2019-07-10T06:26:24Z</time>
      </trkpt>
      <trkpt lat="46.516337" lon="15.101013">
        <ele>581.739</ele>
        <time>2019-07-10T06:26:30Z</time>
      </trkpt>
      <trkpt lat="46.516384" lon="15.101071">
        <ele>576.912</ele>
        <time>2019-07-10T06:26:41Z</time>
      </trkpt>
      <trkpt lat="46.516439" lon="15.101127">
        <ele>575.985</ele>
        <time>2019-07-10T06:26:48Z</time>
      </trkpt>
      <trkpt lat="46.516485" lon="15.101195">
        <ele>571.187</ele>
        <time>2019-07-10T06:27:03Z</time>
      </trkpt>
      <trkpt lat="46.516676" lon="15.101546">
        <ele>568.019</ele>
        <time>2019-07-10T06:27:45Z</time>
      </trkpt>
      <trkpt lat="46.516778" lon="15.101636">
        <ele>570.94</ele>
        <time>2019-07-10T06:27:56Z</time>
      </trkpt>
      <trkpt lat="46.516953" lon="15.101647">
        <ele>572.978</ele>
        <time>2019-07-10T06:28:16Z</time>
      </trkpt>
      <trkpt lat="46.517218" lon="15.101821">
        <ele>581.243</ele>
        <time>2019-07-10T06:28:57Z</time>
      </trkpt>
      <trkpt lat="46.517353" lon="15.101924">
        <ele>582.021</ele>
        <time>2019-07-10T06:29:18Z</time>
      </trkpt>
      <trkpt lat="46.517636" lon="15.101984">
        <ele>595.341</ele>
        <time>2019-07-10T06:30:05Z</time>
      </trkpt>
      <trkpt lat="46.517895" lon="15.102179">
        <ele>612.245</ele>
        <time>2019-07-10T06:31:05Z</time>
      </trkpt>
      <trkpt lat="46.518145" lon="15.102365">
        <ele>624.962</ele>
        <time>2019-07-10T06:32:01Z</time>
      </trkpt>
      <trkpt lat="46.518273" lon="15.10249">
        <ele>624.328</ele>
        <time>2019-07-10T06:32:18Z</time>
      </trkpt>
      <trkpt lat="46.518406" lon="15.1025">
        <ele>624.838</ele>
        <time>2019-07-10T06:32:32Z</time>
      </trkpt>
      <trkpt lat="46.51843" lon="15.102491">
        <ele>627.675</ele>
        <time>2019-07-10T06:32:40Z</time>
      </trkpt>
      <trkpt lat="46.518713" lon="15.102688">
        <ele>633.836</ele>
        <time>2019-07-10T06:33:54Z</time>
      </trkpt>
      <trkpt lat="46.518983" lon="15.10279">
        <ele>642.292</ele>
        <time>2019-07-10T06:34:44Z</time>
      </trkpt>
      <trkpt lat="46.519272" lon="15.102937">
        <ele>626.515</ele>
        <time>2019-07-10T06:35:46Z</time>
      </trkpt>
      <trkpt lat="46.519551" lon="15.102891">
        <ele>650.508</ele>
        <time>2019-07-10T06:36:25Z</time>
      </trkpt>
      <trkpt lat="46.519845" lon="15.102848">
        <ele>651.68</ele>
        <time>2019-07-10T06:37:11Z</time>
      </trkpt>
      <trkpt lat="46.519949" lon="15.102898">
        <ele>605.546</ele>
        <time>2019-07-10T06:37:23Z</time>
      </trkpt>
      <trkpt lat="46.520044" lon="15.103077">
        <ele>626.325</ele>
        <time>2019-07-10T06:37:38Z</time>
      </trkpt>
      <trkpt lat="46.520105" lon="15.103185">
        <ele>646.995</ele>
        <time>2019-07-10T06:37:48Z</time>
      </trkpt>
      <trkpt lat="46.520198" lon="15.103412">
        <ele>654.523</ele>
        <time>2019-07-10T06:38:03Z</time>
      </trkpt>
      <trkpt lat="46.520231" lon="15.103598">
        <ele>650.39</ele>
        <time>2019-07-10T06:38:18Z</time>
      </trkpt>
      <trkpt lat="46.520231" lon="15.103598">
        <ele>650.39</ele>
        <time>2019-07-10T06:38:25Z</time>
      </trkpt>
      <trkpt lat="46.520253" lon="15.103764">
        <ele>655.893</ele>
        <time>2019-07-10T06:38:32Z</time>
      </trkpt>
      <trkpt lat="46.520233" lon="15.103832">
        <ele>656.599</ele>
        <time>2019-07-10T06:38:37Z</time>
      </trkpt>
      <trkpt lat="46.52023" lon="15.103873">
        <ele>660.83</ele>
        <time>2019-07-10T06:38:45Z</time>
      </trkpt>
      <trkpt lat="46.520175" lon="15.104047">
        <ele>663.409</ele>
        <time>2019-07-10T06:39:15Z</time>
      </trkpt>
      <trkpt lat="46.520071" lon="15.104245">
        <ele>665.784</ele>
        <time>2019-07-10T06:39:32Z</time>
      </trkpt>
      <trkpt lat="46.520008" lon="15.104357">
        <ele>675.255</ele>
        <time>2019-07-10T06:39:45Z</time>
      </trkpt>
      <trkpt lat="46.519934" lon="15.104464">
        <ele>678.222</ele>
        <time>2019-07-10T06:39:59Z</time>
      </trkpt>
      <trkpt lat="46.519819" lon="15.104662">
        <ele>683.655</ele>
        <time>2019-07-10T06:40:18Z</time>
      </trkpt>
      <trkpt lat="46.519719" lon="15.10496">
        <ele>685.029</ele>
        <time>2019-07-10T06:40:39Z</time>
      </trkpt>
      <trkpt lat="46.519711" lon="15.105155">
        <ele>682.076</ele>
        <time>2019-07-10T06:40:52Z</time>
      </trkpt>
      <trkpt lat="46.519637" lon="15.105262">
        <ele>686.355</ele>
        <time>2019-07-10T06:41:03Z</time>
      </trkpt>
      <trkpt lat="46.519618" lon="15.105333">
        <ele>643.384</ele>
        <time>2019-07-10T06:41:11Z</time>
      </trkpt>
      <trkpt lat="46.519453" lon="15.105643">
        <ele>692.201</ele>
        <time>2019-07-10T06:41:41Z</time>
      </trkpt>
      <trkpt lat="46.519437" lon="15.105884">
        <ele>689.665</ele>
        <time>2019-07-10T06:41:56Z</time>
      </trkpt>
      <trkpt lat="46.519412" lon="15.105975">
        <ele>678.523</ele>
        <time>2019-07-10T06:42:06Z</time>
      </trkpt>
      <trkpt lat="46.519372" lon="15.106079">
        <ele>687.635</ele>
        <time>2019-07-10T06:42:18Z</time>
      </trkpt>
      <trkpt lat="46.519372" lon="15.106079">
        <ele>687.635</ele>
        <time>2019-07-10T06:42:26Z</time>
      </trkpt>
      <trkpt lat="46.519415" lon="15.106248">
        <ele>693.842</ele>
        <time>2019-07-10T06:42:35Z</time>
      </trkpt>
      <trkpt lat="46.519467" lon="15.106554">
        <ele>699.032</ele>
        <time>2019-07-10T06:42:55Z</time>
      </trkpt>
      <trkpt lat="46.519467" lon="15.106741">
        <ele>664.936</ele>
        <time>2019-07-10T06:43:10Z</time>
      </trkpt>
      <trkpt lat="46.51948" lon="15.106992">
        <ele>692.203</ele>
        <time>2019-07-10T06:43:28Z</time>
      </trkpt>
      <trkpt lat="46.51945" lon="15.107158">
        <ele>695.417</ele>
        <time>2019-07-10T06:43:39Z</time>
      </trkpt>
      <trkpt lat="46.519486" lon="15.107461">
        <ele>702.896</ele>
        <time>2019-07-10T06:43:58Z</time>
      </trkpt>
      <trkpt lat="46.519522" lon="15.107534">
        <ele>704.199</ele>
        <time>2019-07-10T06:44:06Z</time>
      </trkpt>
      <trkpt lat="46.519582" lon="15.107576">
        <ele>707.204</ele>
        <time>2019-07-10T06:44:18Z</time>
      </trkpt>
      <trkpt lat="46.519718" lon="15.107951">
        <ele>715.797</ele>
        <time>2019-07-10T06:45:16Z</time>
      </trkpt>
      <trkpt lat="46.519723" lon="15.108119">
        <ele>654.889</ele>
        <time>2019-07-10T06:45:32Z</time>
      </trkpt>
      <trkpt lat="46.519723" lon="15.108119">
        <ele>654.889</ele>
        <time>2019-07-10T06:45:40Z</time>
      </trkpt>
      <trkpt lat="46.519784" lon="15.108292">
        <ele>659.757</ele>
        <time>2019-07-10T06:45:49Z</time>
      </trkpt>
      <trkpt lat="46.519826" lon="15.108461">
        <ele>700.576</ele>
        <time>2019-07-10T06:46:02Z</time>
      </trkpt>
      <trkpt lat="46.519755" lon="15.108626">
        <ele>715.718</ele>
        <time>2019-07-10T06:46:15Z</time>
      </trkpt>
      <trkpt lat="46.519763" lon="15.108695">
        <ele>720.191</ele>
        <time>2019-07-10T06:46:21Z</time>
      </trkpt>
      <trkpt lat="46.519742" lon="15.108757">
        <ele>725.913</ele>
        <time>2019-07-10T06:46:29Z</time>
      </trkpt>
      <trkpt lat="46.519763" lon="15.109047">
        <ele>730.28</ele>
        <time>2019-07-10T06:46:52Z</time>
      </trkpt>
      <trkpt lat="46.51983" lon="15.109243">
        <ele>727.067</ele>
        <time>2019-07-10T06:47:09Z</time>
      </trkpt>
      <trkpt lat="46.51983" lon="15.109243">
        <ele>727.067</ele>
        <time>2019-07-10T06:47:17Z</time>
      </trkpt>
      <trkpt lat="46.51983" lon="15.109243">
        <ele>727.067</ele>
        <time>2019-07-10T06:47:18Z</time>
      </trkpt>
      <trkpt lat="46.519869" lon="15.109665">
        <ele>732.76</ele>
        <time>2019-07-10T06:48:02Z</time>
      </trkpt>
      <trkpt lat="46.519918" lon="15.109798">
        <ele>732.858</ele>
        <time>2019-07-10T06:48:13Z</time>
      </trkpt>
      <trkpt lat="46.519947" lon="15.109929">
        <ele>733.63</ele>
        <time>2019-07-10T06:48:20Z</time>
      </trkpt>
      <trkpt lat="46.519935" lon="15.110033">
        <ele>712.197</ele>
        <time>2019-07-10T06:48:34Z</time>
      </trkpt>
      <trkpt lat="46.519935" lon="15.110033">
        <ele>712.197</ele>
        <time>2019-07-10T06:48:41Z</time>
      </trkpt>
      <trkpt lat="46.519908" lon="15.110174">
        <ele>747.201</ele>
        <time>2019-07-10T06:48:49Z</time>
      </trkpt>
      <trkpt lat="46.51983" lon="15.110376">
        <ele>752.706</ele>
        <time>2019-07-10T06:49:06Z</time>
      </trkpt>
      <trkpt lat="46.519809" lon="15.110643">
        <ele>754.768</ele>
        <time>2019-07-10T06:49:27Z</time>
      </trkpt>
      <trkpt lat="46.519945" lon="15.110847">
        <ele>758.093</ele>
        <time>2019-07-10T06:49:47Z</time>
      </trkpt>
      <trkpt lat="46.519918" lon="15.111155">
        <ele>760.345</ele>
        <time>2019-07-10T06:50:08Z</time>
      </trkpt>
      <trkpt lat="46.519913" lon="15.111372">
        <ele>761.948</ele>
        <time>2019-07-10T06:50:25Z</time>
      </trkpt>
      <trkpt lat="46.520018" lon="15.111539">
        <ele>738.951</ele>
        <time>2019-07-10T06:50:42Z</time>
      </trkpt>
      <trkpt lat="46.520044" lon="15.111757">
        <ele>761.333</ele>
        <time>2019-07-10T06:50:56Z</time>
      </trkpt>
      <trkpt lat="46.520093" lon="15.112008">
        <ele>754.941</ele>
        <time>2019-07-10T06:51:13Z</time>
      </trkpt>
      <trkpt lat="46.520066" lon="15.112141">
        <ele>763.739</ele>
        <time>2019-07-10T06:51:22Z</time>
      </trkpt>
      <trkpt lat="46.520018" lon="15.112261">
        <ele>772.501</ele>
        <time>2019-07-10T06:51:36Z</time>
      </trkpt>
      <trkpt lat="46.519971" lon="15.112497">
        <ele>771.391</ele>
        <time>2019-07-10T06:51:54Z</time>
      </trkpt>
      <trkpt lat="46.519958" lon="15.112633">
        <ele>774.823</ele>
        <time>2019-07-10T06:52:02Z</time>
      </trkpt>
      <trkpt lat="46.519981" lon="15.112683">
        <ele>778.318</ele>
        <time>2019-07-10T06:52:10Z</time>
      </trkpt>
      <trkpt lat="46.520169" lon="15.113007">
        <ele>774.2</ele>
        <time>2019-07-10T06:52:59Z</time>
      </trkpt>
      <trkpt lat="46.520231" lon="15.113186">
        <ele>735.886</ele>
        <time>2019-07-10T06:53:15Z</time>
      </trkpt>
      <trkpt lat="46.520306" lon="15.113425">
        <ele>776.185</ele>
        <time>2019-07-10T06:53:33Z</time>
      </trkpt>
      <trkpt lat="46.520371" lon="15.113614">
        <ele>774.328</ele>
        <time>2019-07-10T06:53:43Z</time>
      </trkpt>
      <trkpt lat="46.520403" lon="15.113761">
        <ele>780.401</ele>
        <time>2019-07-10T06:53:54Z</time>
      </trkpt>
      <trkpt lat="46.520394" lon="15.113711">
        <ele>780.927</ele>
        <time>2019-07-10T06:54:04Z</time>
      </trkpt>
      <trkpt lat="46.520308" lon="15.113329">
        <ele>778.12</ele>
        <time>2019-07-10T06:54:35Z</time>
      </trkpt>
      <trkpt lat="46.520269" lon="15.113069">
        <ele>781.186</ele>
        <time>2019-07-10T06:54:46Z</time>
      </trkpt>
      <trkpt lat="46.520135" lon="15.112732">
        <ele>772.287</ele>
        <time>2019-07-10T06:54:59Z</time>
      </trkpt>
      <trkpt lat="46.520172" lon="15.112593">
        <ele>773.354</ele>
        <time>2019-07-10T06:55:09Z</time>
      </trkpt>
      <trkpt lat="46.520175" lon="15.112462">
        <ele>725.381</ele>
        <time>2019-07-10T06:55:25Z</time>
      </trkpt>
      <trkpt lat="46.520217" lon="15.112277">
        <ele>763.838</ele>
        <time>2019-07-10T06:55:35Z</time>
      </trkpt>
      <trkpt lat="46.520204" lon="15.112124">
        <ele>738.877</ele>
        <time>2019-07-10T06:55:41Z</time>
      </trkpt>
      <trkpt lat="46.520193" lon="15.112012">
        <ele>763.98</ele>
        <time>2019-07-10T06:55:54Z</time>
      </trkpt>
      <trkpt lat="46.520154" lon="15.111777">
        <ele>764.624</ele>
        <time>2019-07-10T06:56:05Z</time>
      </trkpt>
      <trkpt lat="46.520091" lon="15.111449">
        <ele>765.278</ele>
        <time>2019-07-10T06:56:17Z</time>
      </trkpt>
      <trkpt lat="46.520073" lon="15.111373">
        <ele>767.549</ele>
        <time>2019-07-10T06:56:21Z</time>
      </trkpt>
      <trkpt lat="46.520155" lon="15.111277">
        <ele>749.143</ele>
        <time>2019-07-10T06:56:34Z</time>
      </trkpt>
      <trkpt lat="46.520205" lon="15.11113">
        <ele>751.616</ele>
        <time>2019-07-10T06:56:45Z</time>
      </trkpt>
      <trkpt lat="46.52035" lon="15.110824">
        <ele>769.032</ele>
        <time>2019-07-10T06:57:05Z</time>
      </trkpt>
      <trkpt lat="46.52035" lon="15.110824">
        <ele>769.032</ele>
        <time>2019-07-10T06:57:12Z</time>
      </trkpt>
      <trkpt lat="46.52035" lon="15.110824">
        <ele>769.032</ele>
        <time>2019-07-10T06:57:13Z</time>
      </trkpt>
      <trkpt lat="46.520188" lon="15.110751">
        <ele>766.3</ele>
        <time>2019-07-10T06:57:20Z</time>
      </trkpt>
      <trkpt lat="46.520111" lon="15.110726">
        <ele>762.563</ele>
        <time>2019-07-10T06:57:27Z</time>
      </trkpt>
      <trkpt lat="46.519986" lon="15.110784">
        <ele>758.251</ele>
        <time>2019-07-10T06:57:38Z</time>
      </trkpt>
      <trkpt lat="46.520047" lon="15.110843">
        <ele>756.775</ele>
        <time>2019-07-10T06:57:46Z</time>
      </trkpt>
      <trkpt lat="46.520142" lon="15.111078">
        <ele>757.183</ele>
        <time>2019-07-10T06:58:03Z</time>
      </trkpt>
      <trkpt lat="46.520142" lon="15.111078">
        <ele>757.183</ele>
        <time>2019-07-10T06:58:12Z</time>
      </trkpt>
      <trkpt lat="46.520142" lon="15.111078">
        <ele>757.183</ele>
        <time>2019-07-10T06:58:13Z</time>
      </trkpt>
      <trkpt lat="46.5201" lon="15.111289">
        <ele>761.836</ele>
        <time>2019-07-10T06:58:29Z</time>
      </trkpt>
      <trkpt lat="46.520091" lon="15.111499">
        <ele>772.707</ele>
        <time>2019-07-10T06:58:44Z</time>
      </trkpt>
      <trkpt lat="46.520122" lon="15.111631">
        <ele>774.34</ele>
        <time>2019-07-10T06:58:52Z</time>
      </trkpt>
      <trkpt lat="46.52014" lon="15.111788">
        <ele>777.149</ele>
        <time>2019-07-10T06:59:05Z</time>
      </trkpt>
      <trkpt lat="46.520171" lon="15.112031">
        <ele>772.212</ele>
        <time>2019-07-10T06:59:17Z</time>
      </trkpt>
      <trkpt lat="46.52015" lon="15.112253">
        <ele>773.936</ele>
        <time>2019-07-10T06:59:28Z</time>
      </trkpt>
      <trkpt lat="46.520114" lon="15.112397">
        <ele>778.642</ele>
        <time>2019-07-10T06:59:40Z</time>
      </trkpt>
      <trkpt lat="46.520111" lon="15.112596">
        <ele>781.4</ele>
        <time>2019-07-10T06:59:52Z</time>
      </trkpt>
      <trkpt lat="46.520076" lon="15.112734">
        <ele>787.42</ele>
        <time>2019-07-10T07:00:03Z</time>
      </trkpt>
      <trkpt lat="46.520079" lon="15.113">
        <ele>785.746</ele>
        <time>2019-07-10T07:00:17Z</time>
      </trkpt>
      <trkpt lat="46.520177" lon="15.113188">
        <ele>693.802</ele>
        <time>2019-07-10T07:00:30Z</time>
      </trkpt>
      <trkpt lat="46.520279" lon="15.113408">
        <ele>771.81</ele>
        <time>2019-07-10T07:00:49Z</time>
      </trkpt>
      <trkpt lat="46.520355" lon="15.113564">
        <ele>773.979</ele>
        <time>2019-07-10T07:01:03Z</time>
      </trkpt>
      <trkpt lat="46.520464" lon="15.113807">
        <ele>780.578</ele>
        <time>2019-07-10T07:01:20Z</time>
      </trkpt>
      <trkpt lat="46.520644" lon="15.113971">
        <ele>780.385</ele>
        <time>2019-07-10T07:01:36Z</time>
      </trkpt>
      <trkpt lat="46.520793" lon="15.114162">
        <ele>782.592</ele>
        <time>2019-07-10T07:01:55Z</time>
      </trkpt>
      <trkpt lat="46.520933" lon="15.11436">
        <ele>784.839</ele>
        <time>2019-07-10T07:02:10Z</time>
      </trkpt>
      <trkpt lat="46.521022" lon="15.114401">
        <ele>786.95</ele>
        <time>2019-07-10T07:02:21Z</time>
      </trkpt>
      <trkpt lat="46.521242" lon="15.114655">
        <ele>794.845</ele>
        <time>2019-07-10T07:02:51Z</time>
      </trkpt>
      <trkpt lat="46.521317" lon="15.114836">
        <ele>797.845</ele>
        <time>2019-07-10T07:03:06Z</time>
      </trkpt>
      <trkpt lat="46.521402" lon="15.115071">
        <ele>797.608</ele>
        <time>2019-07-10T07:03:22Z</time>
      </trkpt>
      <trkpt lat="46.521511" lon="15.11529">
        <ele>798.944</ele>
        <time>2019-07-10T07:03:39Z</time>
      </trkpt>
      <trkpt lat="46.521573" lon="15.115343">
        <ele>796.524</ele>
        <time>2019-07-10T07:03:45Z</time>
      </trkpt>
      <trkpt lat="46.521616" lon="15.115405">
        <ele>796.218</ele>
        <time>2019-07-10T07:03:53Z</time>
      </trkpt>
      <trkpt lat="46.521693" lon="15.115493">
        <ele>794.808</ele>
        <time>2019-07-10T07:04:05Z</time>
      </trkpt>
      <trkpt lat="46.521807" lon="15.115645">
        <ele>802.405</ele>
        <time>2019-07-10T07:04:17Z</time>
      </trkpt>
      <trkpt lat="46.521906" lon="15.115769">
        <ele>809.386</ele>
        <time>2019-07-10T07:04:30Z</time>
      </trkpt>
      <trkpt lat="46.522043" lon="15.115936">
        <ele>806.583</ele>
        <time>2019-07-10T07:04:46Z</time>
      </trkpt>
      <trkpt lat="46.522072" lon="15.116092">
        <ele>809.736</ele>
        <time>2019-07-10T07:05:00Z</time>
      </trkpt>
      <trkpt lat="46.522123" lon="15.116328">
        <ele>815.694</ele>
        <time>2019-07-10T07:05:17Z</time>
      </trkpt>
      <trkpt lat="46.522206" lon="15.116638">
        <ele>816.198</ele>
        <time>2019-07-10T07:05:42Z</time>
      </trkpt>
      <trkpt lat="46.52234" lon="15.116855">
        <ele>814.957</ele>
        <time>2019-07-10T07:06:00Z</time>
      </trkpt>
      <trkpt lat="46.522518" lon="15.11697">
        <ele>818.858</ele>
        <time>2019-07-10T07:06:18Z</time>
      </trkpt>
      <trkpt lat="46.52262" lon="15.117095">
        <ele>825.906</ele>
        <time>2019-07-10T07:06:33Z</time>
      </trkpt>
      <trkpt lat="46.522641" lon="15.117124">
        <ele>825.954</ele>
        <time>2019-07-10T07:06:38Z</time>
      </trkpt>
      <trkpt lat="46.522726" lon="15.117158">
        <ele>823.74</ele>
        <time>2019-07-10T07:06:49Z</time>
      </trkpt>
      <trkpt lat="46.52287" lon="15.117245">
        <ele>819.439</ele>
        <time>2019-07-10T07:07:00Z</time>
      </trkpt>
      <trkpt lat="46.522986" lon="15.117393">
        <ele>826.683</ele>
        <time>2019-07-10T07:07:16Z</time>
      </trkpt>
      <trkpt lat="46.523143" lon="15.117553">
        <ele>830.197</ele>
        <time>2019-07-10T07:07:36Z</time>
      </trkpt>
      <trkpt lat="46.523314" lon="15.117693">
        <ele>829.442</ele>
        <time>2019-07-10T07:07:51Z</time>
      </trkpt>
      <trkpt lat="46.523418" lon="15.117779">
        <ele>831.05</ele>
        <time>2019-07-10T07:08:00Z</time>
      </trkpt>
      <trkpt lat="46.52349" lon="15.117877">
        <ele>829.114</ele>
        <time>2019-07-10T07:08:08Z</time>
      </trkpt>
      <trkpt lat="46.523551" lon="15.118125">
        <ele>839.197</ele>
        <time>2019-07-10T07:08:24Z</time>
      </trkpt>
      <trkpt lat="46.523654" lon="15.118302">
        <ele>836.259</ele>
        <time>2019-07-10T07:08:37Z</time>
      </trkpt>
      <trkpt lat="46.523777" lon="15.118508">
        <ele>839.714</ele>
        <time>2019-07-10T07:08:58Z</time>
      </trkpt>
      <trkpt lat="46.523788" lon="15.118092">
        <ele>852.034</ele>
        <time>2019-07-10T07:09:50Z</time>
      </trkpt>
      <trkpt lat="46.523757" lon="15.117938">
        <ele>856.764</ele>
        <time>2019-07-10T07:10:01Z</time>
      </trkpt>
      <trkpt lat="46.523708" lon="15.117863">
        <ele>853.377</ele>
        <time>2019-07-10T07:10:14Z</time>
      </trkpt>
      <trkpt lat="46.523618" lon="15.117608">
        <ele>859.22</ele>
        <time>2019-07-10T07:10:33Z</time>
      </trkpt>
      <trkpt lat="46.523618" lon="15.117608">
        <ele>859.22</ele>
        <time>2019-07-10T07:10:41Z</time>
      </trkpt>
      <trkpt lat="46.523618" lon="15.117608">
        <ele>859.22</ele>
        <time>2019-07-10T07:10:42Z</time>
      </trkpt>
      <trkpt lat="46.52375" lon="15.117735">
        <ele>861.549</ele>
        <time>2019-07-10T07:11:25Z</time>
      </trkpt>
      <trkpt lat="46.523997" lon="15.118042">
        <ele>874.694</ele>
        <time>2019-07-10T07:12:08Z</time>
      </trkpt>
      <trkpt lat="46.52402" lon="15.118099">
        <ele>876.698</ele>
        <time>2019-07-10T07:12:14Z</time>
      </trkpt>
      <trkpt lat="46.524083" lon="15.118183">
        <ele>881.391</ele>
        <time>2019-07-10T07:12:28Z</time>
      </trkpt>
      <trkpt lat="46.524147" lon="15.118405">
        <ele>884.289</ele>
        <time>2019-07-10T07:12:44Z</time>
      </trkpt>
      <trkpt lat="46.52416" lon="15.118546">
        <ele>890.85</ele>
        <time>2019-07-10T07:13:02Z</time>
      </trkpt>
      <trkpt lat="46.524194" lon="15.118971">
        <ele>883.611</ele>
        <time>2019-07-10T07:13:34Z</time>
      </trkpt>
      <trkpt lat="46.524197" lon="15.119041">
        <ele>882.24</ele>
        <time>2019-07-10T07:13:38Z</time>
      </trkpt>
      <trkpt lat="46.524181" lon="15.119091">
        <ele>872.575</ele>
        <time>2019-07-10T07:13:49Z</time>
      </trkpt>
      <trkpt lat="46.524209" lon="15.119407">
        <ele>882.776</ele>
        <time>2019-07-10T07:14:13Z</time>
      </trkpt>
      <trkpt lat="46.524256" lon="15.119589">
        <ele>883.329</ele>
        <time>2019-07-10T07:14:30Z</time>
      </trkpt>
      <trkpt lat="46.524327" lon="15.119972">
        <ele>899.328</ele>
        <time>2019-07-10T07:15:07Z</time>
      </trkpt>
      <trkpt lat="46.524327" lon="15.119972">
        <ele>899.328</ele>
        <time>2019-07-10T07:15:14Z</time>
      </trkpt>
      <trkpt lat="46.524342" lon="15.120106">
        <ele>905.368</ele>
        <time>2019-07-10T07:15:23Z</time>
      </trkpt>
      <trkpt lat="46.524434" lon="15.120264">
        <ele>901.328</ele>
        <time>2019-07-10T07:15:38Z</time>
      </trkpt>
      <trkpt lat="46.524447" lon="15.120334">
        <ele>901.132</ele>
        <time>2019-07-10T07:15:46Z</time>
      </trkpt>
      <trkpt lat="46.524462" lon="15.120344">
        <ele>901.91</ele>
        <time>2019-07-10T07:15:54Z</time>
      </trkpt>
      <trkpt lat="46.524431" lon="15.120715">
        <ele>905.454</ele>
        <time>2019-07-10T07:16:32Z</time>
      </trkpt>
      <trkpt lat="46.524588" lon="15.121063">
        <ele>778.679</ele>
        <time>2019-07-10T07:17:39Z</time>
      </trkpt>
      <trkpt lat="46.524588" lon="15.121063">
        <ele>778.679</ele>
        <time>2019-07-10T07:17:47Z</time>
      </trkpt>
      <trkpt lat="46.524588" lon="15.121063">
        <ele>778.679</ele>
        <time>2019-07-10T07:17:49Z</time>
      </trkpt>
      <trkpt lat="46.524703" lon="15.121434">
        <ele>926.04</ele>
        <time>2019-07-10T07:18:32Z</time>
      </trkpt>
      <trkpt lat="46.524744" lon="15.121539">
        <ele>929.631</ele>
        <time>2019-07-10T07:18:44Z</time>
      </trkpt>
      <trkpt lat="46.52481" lon="15.121668">
        <ele>929.406</ele>
        <time>2019-07-10T07:19:01Z</time>
      </trkpt>
      <trkpt lat="46.525087" lon="15.121797">
        <ele>921.769</ele>
        <time>2019-07-10T07:19:59Z</time>
      </trkpt>
      <trkpt lat="46.525087" lon="15.121797">
        <ele>921.769</ele>
        <time>2019-07-10T07:20:06Z</time>
      </trkpt>
      <trkpt lat="46.52518" lon="15.121959">
        <ele>925.279</ele>
        <time>2019-07-10T07:20:19Z</time>
      </trkpt>
      <trkpt lat="46.525209" lon="15.122114">
        <ele>927.623</ele>
        <time>2019-07-10T07:20:32Z</time>
      </trkpt>
      <trkpt lat="46.525266" lon="15.122204">
        <ele>931.04</ele>
        <time>2019-07-10T07:20:48Z</time>
      </trkpt>
      <trkpt lat="46.525232" lon="15.122615">
        <ele>937.39</ele>
        <time>2019-07-10T07:21:42Z</time>
      </trkpt>
      <trkpt lat="46.525167" lon="15.122792">
        <ele>945.529</ele>
        <time>2019-07-10T07:21:54Z</time>
      </trkpt>
      <trkpt lat="46.52514" lon="15.122838">
        <ele>948.716</ele>
        <time>2019-07-10T07:21:59Z</time>
      </trkpt>
      <trkpt lat="46.525099" lon="15.122929">
        <ele>949.948</ele>
        <time>2019-07-10T07:22:11Z</time>
      </trkpt>
      <trkpt lat="46.525099" lon="15.122929">
        <ele>949.948</ele>
        <time>2019-07-10T07:22:18Z</time>
      </trkpt>
      <trkpt lat="46.525064" lon="15.122981">
        <ele>954.943</ele>
        <time>2019-07-10T07:22:19Z</time>
      </trkpt>
      <trkpt lat="46.524976" lon="15.123395">
        <ele>964.274</ele>
        <time>2019-07-10T07:23:07Z</time>
      </trkpt>
      <trkpt lat="46.525013" lon="15.123609">
        <ele>966.819</ele>
        <time>2019-07-10T07:23:24Z</time>
      </trkpt>
      <trkpt lat="46.525013" lon="15.123609">
        <ele>966.819</ele>
        <time>2019-07-10T07:23:32Z</time>
      </trkpt>
      <trkpt lat="46.525013" lon="15.123609">
        <ele>966.819</ele>
        <time>2019-07-10T07:23:33Z</time>
      </trkpt>
      <trkpt lat="46.525153" lon="15.123859">
        <ele>970.375</ele>
        <time>2019-07-10T07:24:22Z</time>
      </trkpt>
      <trkpt lat="46.52522" lon="15.124002">
        <ele>974.58</ele>
        <time>2019-07-10T07:24:37Z</time>
      </trkpt>
      <trkpt lat="46.525342" lon="15.124126">
        <ele>979.489</ele>
        <time>2019-07-10T07:24:56Z</time>
      </trkpt>
      <trkpt lat="46.525362" lon="15.124152">
        <ele>980.51</ele>
        <time>2019-07-10T07:25:00Z</time>
      </trkpt>
      <trkpt lat="46.525417" lon="15.124245">
        <ele>982.832</ele>
        <time>2019-07-10T07:25:15Z</time>
      </trkpt>
      <trkpt lat="46.525654" lon="15.124443">
        <ele>982.923</ele>
        <time>2019-07-10T07:25:49Z</time>
      </trkpt>
      <trkpt lat="46.525744" lon="15.124498">
        <ele>985.356</ele>
        <time>2019-07-10T07:26:01Z</time>
      </trkpt>
      <trkpt lat="46.525756" lon="15.124496">
        <ele>988.813</ele>
        <time>2019-07-10T07:26:10Z</time>
      </trkpt>
      <trkpt lat="46.525875" lon="15.124619">
        <ele>994.304</ele>
        <time>2019-07-10T07:26:40Z</time>
      </trkpt>
      <trkpt lat="46.526151" lon="15.124769">
        <ele>998.083</ele>
        <time>2019-07-10T07:27:16Z</time>
      </trkpt>
      <trkpt lat="46.526367" lon="15.125021">
        <ele>1018.63</ele>
        <time>2019-07-10T07:28:18Z</time>
      </trkpt>
      <trkpt lat="46.526515" lon="15.124965">
        <ele>1015.57</ele>
        <time>2019-07-10T07:28:33Z</time>
      </trkpt>
      <trkpt lat="46.526655" lon="15.12491">
        <ele>1015.46</ele>
        <time>2019-07-10T07:28:52Z</time>
      </trkpt>
      <trkpt lat="46.526814" lon="15.124938">
        <ele>1011.96</ele>
        <time>2019-07-10T07:29:04Z</time>
      </trkpt>
      <trkpt lat="46.526975" lon="15.124972">
        <ele>1013.62</ele>
        <time>2019-07-10T07:29:18Z</time>
      </trkpt>
      <trkpt lat="46.527079" lon="15.125084">
        <ele>1015.04</ele>
        <time>2019-07-10T07:29:35Z</time>
      </trkpt>
      <trkpt lat="46.527322" lon="15.125268">
        <ele>1022.14</ele>
        <time>2019-07-10T07:30:44Z</time>
      </trkpt>
      <trkpt lat="46.527472" lon="15.125645">
        <ele>1028.83</ele>
        <time>2019-07-10T07:31:37Z</time>
      </trkpt>
      <trkpt lat="46.527472" lon="15.125645">
        <ele>1028.83</ele>
        <time>2019-07-10T07:31:45Z</time>
      </trkpt>
      <trkpt lat="46.527472" lon="15.125645">
        <ele>1028.83</ele>
        <time>2019-07-10T07:31:46Z</time>
      </trkpt>
      <trkpt lat="46.527692" lon="15.125841">
        <ele>1040.87</ele>
        <time>2019-07-10T07:32:42Z</time>
      </trkpt>
      <trkpt lat="46.527726" lon="15.125942">
        <ele>1037.42</ele>
        <time>2019-07-10T07:32:54Z</time>
      </trkpt>
      <trkpt lat="46.52773" lon="15.125942">
        <ele>1038.4</ele>
        <time>2019-07-10T07:33:03Z</time>
      </trkpt>
      <trkpt lat="46.527954" lon="15.126076">
        <ele>1037.53</ele>
        <time>2019-07-10T07:34:07Z</time>
      </trkpt>
      <trkpt lat="46.528235" lon="15.126269">
        <ele>1059.66</ele>
        <time>2019-07-10T07:35:19Z</time>
      </trkpt>
      <trkpt lat="46.528488" lon="15.126445">
        <ele>1072.86</ele>
        <time>2019-07-10T07:36:18Z</time>
      </trkpt>
      <trkpt lat="46.528679" lon="15.126798">
        <ele>1082.81</ele>
        <time>2019-07-10T07:37:16Z</time>
      </trkpt>
      <trkpt lat="46.528679" lon="15.126798">
        <ele>1082.81</ele>
        <time>2019-07-10T07:37:24Z</time>
      </trkpt>
      <trkpt lat="46.528679" lon="15.126798">
        <ele>1082.81</ele>
        <time>2019-07-10T07:37:26Z</time>
      </trkpt>
      <trkpt lat="46.52889" lon="15.127121">
        <ele>1094.59</ele>
        <time>2019-07-10T07:38:50Z</time>
      </trkpt>
      <trkpt lat="46.529118" lon="15.127349">
        <ele>1109.48</ele>
        <time>2019-07-10T07:39:59Z</time>
      </trkpt>
      <trkpt lat="46.529229" lon="15.127715">
        <ele>1118.94</ele>
        <time>2019-07-10T07:40:45Z</time>
      </trkpt>
      <trkpt lat="46.528959" lon="15.127867">
        <ele>1130.52</ele>
        <time>2019-07-10T07:42:06Z</time>
      </trkpt>
      <trkpt lat="46.528703" lon="15.128045">
        <ele>1133.18</ele>
        <time>2019-07-10T07:43:24Z</time>
      </trkpt>
      <trkpt lat="46.528426" lon="15.12811">
        <ele>1098.59</ele>
        <time>2019-07-10T07:44:25Z</time>
      </trkpt>
      <trkpt lat="46.528336" lon="15.12825">
        <ele>1127.64</ele>
        <time>2019-07-10T07:44:40Z</time>
      </trkpt>
      <trkpt lat="46.528184" lon="15.1286">
        <ele>1143.74</ele>
        <time>2019-07-10T07:45:44Z</time>
      </trkpt>
      <trkpt lat="46.528184" lon="15.1286">
        <time>2019-07-10T07:47:28Z</time>
      </trkpt>
    </trkseg>
    <trkseg>
      <trkpt lat="46.528184" lon="15.1286">
        <time>2019-07-10T08:00:08Z</time>
      </trkpt>
      <trkpt lat="46.52826" lon="15.128349">
        <ele>1150.76</ele>
        <time>2019-07-10T08:00:08Z</time>
      </trkpt>
      <trkpt lat="46.528235" lon="15.128775">
        <ele>1148.53</ele>
        <time>2019-07-10T08:00:52Z</time>
      </trkpt>
      <trkpt lat="46.528306" lon="15.129126">
        <ele>1144.38</ele>
        <time>2019-07-10T08:01:05Z</time>
      </trkpt>
      <trkpt lat="46.528362" lon="15.129403">
        <ele>1147.16</ele>
        <time>2019-07-10T08:01:15Z</time>
      </trkpt>
      <trkpt lat="46.528451" lon="15.129702">
        <ele>1147.75</ele>
        <time>2019-07-10T08:01:35Z</time>
      </trkpt>
      <trkpt lat="46.528496" lon="15.129889">
        <ele>1144.73</ele>
        <time>2019-07-10T08:01:48Z</time>
      </trkpt>
      <trkpt lat="46.52848" lon="15.130017">
        <ele>1147.17</ele>
        <time>2019-07-10T08:01:59Z</time>
      </trkpt>
      <trkpt lat="46.528487" lon="15.130131">
        <ele>1146.92</ele>
        <time>2019-07-10T08:02:14Z</time>
      </trkpt>
      <trkpt lat="46.528487" lon="15.130131">
        <ele>1146.92</ele>
        <time>2019-07-10T08:02:21Z</time>
      </trkpt>
      <trkpt lat="46.528487" lon="15.130131">
        <ele>1146.92</ele>
        <time>2019-07-10T08:02:23Z</time>
      </trkpt>
      <trkpt lat="46.528469" lon="15.130408">
        <ele>1156.05</ele>
        <time>2019-07-10T08:02:37Z</time>
      </trkpt>
      <trkpt lat="46.528497" lon="15.130567">
        <ele>1158.31</ele>
        <time>2019-07-10T08:02:45Z</time>
      </trkpt>
      <trkpt lat="46.528493" lon="15.130697">
        <ele>1159.46</ele>
        <time>2019-07-10T08:02:52Z</time>
      </trkpt>
      <trkpt lat="46.528493" lon="15.130697">
        <ele>1159.46</ele>
        <time>2019-07-10T08:03:00Z</time>
      </trkpt>
      <trkpt lat="46.528524" lon="15.130831">
        <ele>1159.7</ele>
        <time>2019-07-10T08:03:07Z</time>
      </trkpt>
      <trkpt lat="46.528621" lon="15.13094">
        <ele>1164.12</ele>
        <time>2019-07-10T08:03:22Z</time>
      </trkpt>
      <trkpt lat="46.528763" lon="15.131317">
        <ele>1164.92</ele>
        <time>2019-07-10T08:03:59Z</time>
      </trkpt>
      <trkpt lat="46.528801" lon="15.131461">
        <ele>1162.75</ele>
        <time>2019-07-10T08:04:09Z</time>
      </trkpt>
      <trkpt lat="46.528797" lon="15.131507">
        <ele>1161.35</ele>
        <time>2019-07-10T08:04:18Z</time>
      </trkpt>
      <trkpt lat="46.529009" lon="15.131851">
        <ele>1173.2</ele>
        <time>2019-07-10T08:04:59Z</time>
      </trkpt>
      <trkpt lat="46.529036" lon="15.131865">
        <ele>1174.57</ele>
        <time>2019-07-10T08:05:03Z</time>
      </trkpt>
      <trkpt lat="46.529009" lon="15.131851">
        <ele>1173.2</ele>
        <time>2019-07-10T08:05:11Z</time>
      </trkpt>
      <trkpt lat="46.529057" lon="15.132014">
        <ele>1176.0</ele>
        <time>2019-07-10T08:05:24Z</time>
      </trkpt>
      <trkpt lat="46.529097" lon="15.132443">
        <ele>1186.45</ele>
        <time>2019-07-10T08:06:04Z</time>
      </trkpt>
      <trkpt lat="46.529163" lon="15.13288">
        <ele>1194.63</ele>
        <time>2019-07-10T08:06:42Z</time>
      </trkpt>
      <trkpt lat="46.529158" lon="15.133101">
        <ele>1192.73</ele>
        <time>2019-07-10T08:06:58Z</time>
      </trkpt>
      <trkpt lat="46.529205" lon="15.133278">
        <ele>1191.41</ele>
        <time>2019-07-10T08:07:11Z</time>
      </trkpt>
      <trkpt lat="46.529208" lon="15.133489">
        <ele>1188.77</ele>
        <time>2019-07-10T08:07:25Z</time>
      </trkpt>
      <trkpt lat="46.529238" lon="15.13364">
        <ele>1192.41</ele>
        <time>2019-07-10T08:07:39Z</time>
      </trkpt>
      <trkpt lat="46.529197" lon="15.134044">
        <ele>1193.15</ele>
        <time>2019-07-10T08:07:58Z</time>
      </trkpt>
      <trkpt lat="46.529212" lon="15.134254">
        <ele>1195.36</ele>
        <time>2019-07-10T08:08:12Z</time>
      </trkpt>
      <trkpt lat="46.529223" lon="15.134445">
        <ele>1193.25</ele>
        <time>2019-07-10T08:08:30Z</time>
      </trkpt>
      <trkpt lat="46.529018" lon="15.13473">
        <ele>1191.28</ele>
        <time>2019-07-10T08:09:12Z</time>
      </trkpt>
      <trkpt lat="46.52892" lon="15.134934">
        <ele>1183.01</ele>
        <time>2019-07-10T08:09:31Z</time>
      </trkpt>
      <trkpt lat="46.528805" lon="15.135168">
        <ele>1180.91</ele>
        <time>2019-07-10T08:09:45Z</time>
      </trkpt>
      <trkpt lat="46.528692" lon="15.135355">
        <ele>1181.26</ele>
        <time>2019-07-10T08:10:01Z</time>
      </trkpt>
      <trkpt lat="46.528651" lon="15.135497">
        <ele>1173.66</ele>
        <time>2019-07-10T08:10:17Z</time>
      </trkpt>
      <trkpt lat="46.52851" lon="15.135779">
        <ele>1167.89</ele>
        <time>2019-07-10T08:10:43Z</time>
      </trkpt>
      <trkpt lat="46.528459" lon="15.135892">
        <ele>1166.18</ele>
        <time>2019-07-10T08:10:50Z</time>
      </trkpt>
      <trkpt lat="46.528328" lon="15.136249">
        <ele>1165.54</ele>
        <time>2019-07-10T08:11:05Z</time>
      </trkpt>
      <trkpt lat="46.528328" lon="15.136249">
        <ele>1165.54</ele>
        <time>2019-07-10T08:11:11Z</time>
      </trkpt>
      <trkpt lat="46.528328" lon="15.136249">
        <ele>1165.54</ele>
        <time>2019-07-10T08:11:13Z</time>
      </trkpt>
      <trkpt lat="46.528226" lon="15.13644">
        <ele>1159.83</ele>
        <time>2019-07-10T08:11:25Z</time>
      </trkpt>
      <trkpt lat="46.52815" lon="15.136647">
        <ele>1157.94</ele>
        <time>2019-07-10T08:11:37Z</time>
      </trkpt>
      <trkpt lat="46.528104" lon="15.136827">
        <ele>1160.68</ele>
        <time>2019-07-10T08:11:44Z</time>
      </trkpt>
      <trkpt lat="46.528113" lon="15.136955">
        <ele>1152.79</ele>
        <time>2019-07-10T08:11:55Z</time>
      </trkpt>
      <trkpt lat="46.528089" lon="15.137185">
        <ele>1152.87</ele>
        <time>2019-07-10T08:12:13Z</time>
      </trkpt>
      <trkpt lat="46.528065" lon="15.137314">
        <ele>1153.85</ele>
        <time>2019-07-10T08:12:21Z</time>
      </trkpt>
      <trkpt lat="46.52799" lon="15.137604">
        <ele>1159.42</ele>
        <time>2019-07-10T08:12:38Z</time>
      </trkpt>
      <trkpt lat="46.527935" lon="15.137933">
        <ele>1153.61</ele>
        <time>2019-07-10T08:12:58Z</time>
      </trkpt>
      <trkpt lat="46.527857" lon="15.138077">
        <ele>1160.84</ele>
        <time>2019-07-10T08:13:12Z</time>
      </trkpt>
      <trkpt lat="46.52773" lon="15.138175">
        <ele>1164.02</ele>
        <time>2019-07-10T08:13:23Z</time>
      </trkpt>
      <trkpt lat="46.527535" lon="15.138334">
        <ele>1164.14</ele>
        <time>2019-07-10T08:13:34Z</time>
      </trkpt>
      <trkpt lat="46.527365" lon="15.138614">
        <ele>1152.45</ele>
        <time>2019-07-10T08:14:03Z</time>
      </trkpt>
      <trkpt lat="46.527156" lon="15.138712">
        <ele>1153.95</ele>
        <time>2019-07-10T08:14:18Z</time>
      </trkpt>
      <trkpt lat="46.527003" lon="15.138751">
        <ele>1147.64</ele>
        <time>2019-07-10T08:14:35Z</time>
      </trkpt>
      <trkpt lat="46.526759" lon="15.138972">
        <ele>1137.14</ele>
        <time>2019-07-10T08:15:10Z</time>
      </trkpt>
      <trkpt lat="46.526759" lon="15.138972">
        <ele>1137.14</ele>
        <time>2019-07-10T08:15:18Z</time>
      </trkpt>
      <trkpt lat="46.526759" lon="15.138972">
        <ele>1137.14</ele>
        <time>2019-07-10T08:15:19Z</time>
      </trkpt>
      <trkpt lat="46.526648" lon="15.139105">
        <ele>1129.19</ele>
        <time>2019-07-10T08:15:34Z</time>
      </trkpt>
      <trkpt lat="46.526545" lon="15.139243">
        <ele>1125.26</ele>
        <time>2019-07-10T08:15:51Z</time>
      </trkpt>
      <trkpt lat="46.526545" lon="15.139243">
        <ele>1125.26</ele>
        <time>2019-07-10T08:15:58Z</time>
      </trkpt>
      <trkpt lat="46.526545" lon="15.139243">
        <ele>1125.26</ele>
        <time>2019-07-10T08:15:59Z</time>
      </trkpt>
      <trkpt lat="46.526423" lon="15.139418">
        <ele>1119.49</ele>
        <time>2019-07-10T08:16:09Z</time>
      </trkpt>
      <trkpt lat="46.526201" lon="15.139516">
        <ele>1121.29</ele>
        <time>2019-07-10T08:16:20Z</time>
      </trkpt>
      <trkpt lat="46.526009" lon="15.139506">
        <ele>1119.55</ele>
        <time>2019-07-10T08:16:30Z</time>
      </trkpt>
      <trkpt lat="46.525891" lon="15.139491">
        <ele>1119.25</ele>
        <time>2019-07-10T08:16:38Z</time>
      </trkpt>
      <trkpt lat="46.525891" lon="15.139491">
        <ele>1119.25</ele>
        <time>2019-07-10T08:16:46Z</time>
      </trkpt>
      <trkpt lat="46.525891" lon="15.139491">
        <ele>1119.25</ele>
        <time>2019-07-10T08:16:47Z</time>
      </trkpt>
      <trkpt lat="46.525716" lon="15.139554">
        <ele>1122.89</ele>
        <time>2019-07-10T08:17:03Z</time>
      </trkpt>
      <trkpt lat="46.525501" lon="15.139522">
        <ele>1124.3</ele>
        <time>2019-07-10T08:17:12Z</time>
      </trkpt>
      <trkpt lat="46.525446" lon="15.139522">
        <ele>1126.19</ele>
        <time>2019-07-10T08:17:15Z</time>
      </trkpt>
      <trkpt lat="46.525436" lon="15.139546">
        <ele>1123.07</ele>
        <time>2019-07-10T08:17:22Z</time>
      </trkpt>
      <trkpt lat="46.525174" lon="15.139544">
        <ele>1122.84</ele>
        <time>2019-07-10T08:17:51Z</time>
      </trkpt>
      <trkpt lat="46.524979" lon="15.139684">
        <ele>1121.42</ele>
        <time>2019-07-10T08:18:05Z</time>
      </trkpt>
      <trkpt lat="46.524833" lon="15.13975">
        <ele>1120.22</ele>
        <time>2019-07-10T08:18:12Z</time>
      </trkpt>
      <trkpt lat="46.524752" lon="15.139773">
        <ele>1118.63</ele>
        <time>2019-07-10T08:18:19Z</time>
      </trkpt>
      <trkpt lat="46.524702" lon="15.139882">
        <ele>1112.86</ele>
        <time>2019-07-10T08:18:33Z</time>
      </trkpt>
      <trkpt lat="46.524531" lon="15.140083">
        <ele>1111.85</ele>
        <time>2019-07-10T08:18:47Z</time>
      </trkpt>
      <trkpt lat="46.524441" lon="15.140507">
        <ele>1106.71</ele>
        <time>2019-07-10T08:19:06Z</time>
      </trkpt>
      <trkpt lat="46.524488" lon="15.14073">
        <ele>1100.0</ele>
        <time>2019-07-10T08:19:25Z</time>
      </trkpt>
      <trkpt lat="46.524445" lon="15.141138">
        <ele>1086.07</ele>
        <time>2019-07-10T08:20:20Z</time>
      </trkpt>
      <trkpt lat="46.524445" lon="15.141138">
        <ele>1086.07</ele>
        <time>2019-07-10T08:20:28Z</time>
      </trkpt>
      <trkpt lat="46.524445" lon="15.141138">
        <ele>1086.07</ele>
        <time>2019-07-10T08:20:29Z</time>
      </trkpt>
      <trkpt lat="46.524407" lon="15.141357">
        <ele>1086.2</ele>
        <time>2019-07-10T08:20:43Z</time>
      </trkpt>
      <trkpt lat="46.524408" lon="15.141441">
        <ele>1084.45</ele>
        <time>2019-07-10T08:20:51Z</time>
      </trkpt>
      <trkpt lat="46.524399" lon="15.141542">
        <ele>1081.35</ele>
        <time>2019-07-10T08:21:04Z</time>
      </trkpt>
      <trkpt lat="46.524339" lon="15.14178">
        <ele>1077.92</ele>
        <time>2019-07-10T08:21:21Z</time>
      </trkpt>
      <trkpt lat="46.524325" lon="15.141898">
        <ele>1077.26</ele>
        <time>2019-07-10T08:21:32Z</time>
      </trkpt>
      <trkpt lat="46.52426" lon="15.142038">
        <ele>1071.84</ele>
        <time>2019-07-10T08:21:43Z</time>
      </trkpt>
      <trkpt lat="46.524278" lon="15.14215">
        <ele>1061.85</ele>
        <time>2019-07-10T08:21:56Z</time>
      </trkpt>
      <trkpt lat="46.524257" lon="15.142375">
        <ele>1066.62</ele>
        <time>2019-07-10T08:22:10Z</time>
      </trkpt>
      <trkpt lat="46.524256" lon="15.142535">
        <ele>1064.23</ele>
        <time>2019-07-10T08:22:19Z</time>
      </trkpt>
      <trkpt lat="46.524243" lon="15.142713">
        <ele>1055.42</ele>
        <time>2019-07-10T08:22:34Z</time>
      </trkpt>
      <trkpt lat="46.524108" lon="15.143008">
        <ele>1055.8</ele>
        <time>2019-07-10T08:23:00Z</time>
      </trkpt>
      <trkpt lat="46.524045" lon="15.143252">
        <ele>1052.76</ele>
        <time>2019-07-10T08:23:14Z</time>
      </trkpt>
      <trkpt lat="46.524149" lon="15.143496">
        <ele>1047.23</ele>
        <time>2019-07-10T08:23:30Z</time>
      </trkpt>
      <trkpt lat="46.524168" lon="15.143616">
        <ele>1042.11</ele>
        <time>2019-07-10T08:23:43Z</time>
      </trkpt>
      <trkpt lat="46.524072" lon="15.14398">
        <ele>1039.37</ele>
        <time>2019-07-10T08:24:00Z</time>
      </trkpt>
      <trkpt lat="46.523999" lon="15.144187">
        <ele>1036.35</ele>
        <time>2019-07-10T08:24:09Z</time>
      </trkpt>
      <trkpt lat="46.523994" lon="15.144253">
        <ele>1034.46</ele>
        <time>2019-07-10T08:24:12Z</time>
      </trkpt>
      <trkpt lat="46.523988" lon="15.144268">
        <ele>1037.78</ele>
        <time>2019-07-10T08:24:20Z</time>
      </trkpt>
      <trkpt lat="46.523903" lon="15.144478">
        <ele>1041.08</ele>
        <time>2019-07-10T08:24:34Z</time>
      </trkpt>
      <trkpt lat="46.52389" lon="15.14471">
        <ele>1039.5</ele>
        <time>2019-07-10T08:24:45Z</time>
      </trkpt>
      <trkpt lat="46.523946" lon="15.145063">
        <ele>1041.37</ele>
        <time>2019-07-10T08:25:03Z</time>
      </trkpt>
      <trkpt lat="46.523957" lon="15.145416">
        <ele>1040.54</ele>
        <time>2019-07-10T08:25:22Z</time>
      </trkpt>
      <trkpt lat="46.523982" lon="15.145618">
        <ele>1039.43</ele>
        <time>2019-07-10T08:25:37Z</time>
      </trkpt>
      <trkpt lat="46.524007" lon="15.145762">
        <ele>1039.93</ele>
        <time>2019-07-10T08:25:52Z</time>
      </trkpt>
      <trkpt lat="46.524023" lon="15.145951">
        <ele>1040.63</ele>
        <time>2019-07-10T08:25:59Z</time>
      </trkpt>
      <trkpt lat="46.524045" lon="15.146102">
        <ele>1040.4</ele>
        <time>2019-07-10T08:26:03Z</time>
      </trkpt>
      <trkpt lat="46.524048" lon="15.146297">
        <ele>1037.51</ele>
        <time>2019-07-10T08:26:08Z</time>
      </trkpt>
      <trkpt lat="46.524067" lon="15.146481">
        <ele>1040.3</ele>
        <time>2019-07-10T08:26:18Z</time>
      </trkpt>
      <trkpt lat="46.524165" lon="15.146778">
        <ele>1040.61</ele>
        <time>2019-07-10T08:26:32Z</time>
      </trkpt>
      <trkpt lat="46.524209" lon="15.146936">
        <ele>1042.16</ele>
        <time>2019-07-10T08:26:40Z</time>
      </trkpt>
      <trkpt lat="46.524234" lon="15.147086">
        <ele>1038.86</ele>
        <time>2019-07-10T08:26:46Z</time>
      </trkpt>
      <trkpt lat="46.524221" lon="15.147179">
        <ele>1034.52</ele>
        <time>2019-07-10T08:26:58Z</time>
      </trkpt>
      <trkpt lat="46.524203" lon="15.147254">
        <ele>1034.69</ele>
        <time>2019-07-10T08:27:01Z</time>
      </trkpt>
      <trkpt lat="46.524164" lon="15.147324">
        <ele>1034.71</ele>
        <time>2019-07-10T08:27:13Z</time>
      </trkpt>
      <trkpt lat="46.524127" lon="15.147582">
        <ele>1032.71</ele>
        <time>2019-07-10T08:27:28Z</time>
      </trkpt>
      <trkpt lat="46.524116" lon="15.147644">
        <ele>1032.37</ele>
        <time>2019-07-10T08:27:37Z</time>
      </trkpt>
      <trkpt lat="46.524124" lon="15.147724">
        <ele>1023.46</ele>
        <time>2019-07-10T08:27:49Z</time>
      </trkpt>
      <trkpt lat="46.524098" lon="15.148056">
        <ele>1018.01</ele>
        <time>2019-07-10T08:28:06Z</time>
      </trkpt>
      <trkpt lat="46.523928" lon="15.148385">
        <ele>1028.26</ele>
        <time>2019-07-10T08:28:24Z</time>
      </trkpt>
      <trkpt lat="46.523878" lon="15.148571">
        <ele>1027.55</ele>
        <time>2019-07-10T08:28:32Z</time>
      </trkpt>
      <trkpt lat="46.523777" lon="15.148808">
        <ele>1031.62</ele>
        <time>2019-07-10T08:28:43Z</time>
      </trkpt>
      <trkpt lat="46.523707" lon="15.148988">
        <ele>1034.17</ele>
        <time>2019-07-10T08:28:51Z</time>
      </trkpt>
      <trkpt lat="46.523555" lon="15.149178">
        <ele>1042.31</ele>
        <time>2019-07-10T08:29:02Z</time>
      </trkpt>
      <trkpt lat="46.523431" lon="15.149325">
        <ele>1043.27</ele>
        <time>2019-07-10T08:29:15Z</time>
      </trkpt>
      <trkpt lat="46.523277" lon="15.149507">
        <ele>1040.6</ele>
        <time>2019-07-10T08:29:30Z</time>
      </trkpt>
      <trkpt lat="46.523033" lon="15.14961">
        <ele>1042.47</ele>
        <time>2019-07-10T08:29:46Z</time>
      </trkpt>
      <trkpt lat="46.522872" lon="15.149709">
        <ele>1042.25</ele>
        <time>2019-07-10T08:30:01Z</time>
      </trkpt>
      <trkpt lat="46.522664" lon="15.149782">
        <ele>1034.99</ele>
        <time>2019-07-10T08:30:19Z</time>
      </trkpt>
      <trkpt lat="46.522437" lon="15.149753">
        <ele>1036.93</ele>
        <time>2019-07-10T08:30:39Z</time>
      </trkpt>
      <trkpt lat="46.522235" lon="15.149667">
        <ele>1041.44</ele>
        <time>2019-07-10T08:30:54Z</time>
      </trkpt>
      <trkpt lat="46.522129" lon="15.149754">
        <ele>1035.3</ele>
        <time>2019-07-10T08:31:08Z</time>
      </trkpt>
      <trkpt lat="46.521914" lon="15.149816">
        <ele>1039.71</ele>
        <time>2019-07-10T08:31:20Z</time>
      </trkpt>
      <trkpt lat="46.521808" lon="15.149889">
        <ele>1041.08</ele>
        <time>2019-07-10T08:31:29Z</time>
      </trkpt>
      <trkpt lat="46.521675" lon="15.15003">
        <ele>1040.03</ele>
        <time>2019-07-10T08:31:43Z</time>
      </trkpt>
      <trkpt lat="46.521494" lon="15.150194">
        <ele>1036.77</ele>
        <time>2019-07-10T08:32:01Z</time>
      </trkpt>
      <trkpt lat="46.521281" lon="15.150259">
        <ele>1041.61</ele>
        <time>2019-07-10T08:32:13Z</time>
      </trkpt>
      <trkpt lat="46.521281" lon="15.150259">
        <ele>1041.61</ele>
        <time>2019-07-10T08:32:20Z</time>
      </trkpt>
      <trkpt lat="46.521281" lon="15.150259">
        <ele>1041.61</ele>
        <time>2019-07-10T08:32:21Z</time>
      </trkpt>
      <trkpt lat="46.521127" lon="15.1503">
        <ele>1039.32</ele>
        <time>2019-07-10T08:32:31Z</time>
      </trkpt>
      <trkpt lat="46.520883" lon="15.150188">
        <ele>1045.41</ele>
        <time>2019-07-10T08:32:43Z</time>
      </trkpt>
      <trkpt lat="46.520883" lon="15.150188">
        <ele>1045.41</ele>
        <time>2019-07-10T08:32:48Z</time>
      </trkpt>
      <trkpt lat="46.520883" lon="15.150188">
        <ele>1045.41</ele>
        <time>2019-07-10T08:32:50Z</time>
      </trkpt>
      <trkpt lat="46.520723" lon="15.150196">
        <ele>1041.57</ele>
        <time>2019-07-10T08:33:03Z</time>
      </trkpt>
      <trkpt lat="46.520391" lon="15.150241">
        <ele>1046.83</ele>
        <time>2019-07-10T08:33:21Z</time>
      </trkpt>
      <trkpt lat="46.520391" lon="15.150241">
        <ele>1046.83</ele>
        <time>2019-07-10T08:33:29Z</time>
      </trkpt>
      <trkpt lat="46.520443" lon="15.150423">
        <ele>1040.4</ele>
        <time>2019-07-10T08:33:34Z</time>
      </trkpt>
      <trkpt lat="46.52045" lon="15.150527">
        <ele>1042.12</ele>
        <time>2019-07-10T08:33:38Z</time>
      </trkpt>
      <trkpt lat="46.520402" lon="15.150658">
        <ele>1040.7</ele>
        <time>2019-07-10T08:33:53Z</time>
      </trkpt>
      <trkpt lat="46.520393" lon="15.151025">
        <ele>1049.44</ele>
        <time>2019-07-10T08:34:13Z</time>
      </trkpt>
      <trkpt lat="46.520365" lon="15.151335">
        <ele>1049.32</ele>
        <time>2019-07-10T08:34:30Z</time>
      </trkpt>
      <trkpt lat="46.520322" lon="15.151528">
        <ele>1050.85</ele>
        <time>2019-07-10T08:34:41Z</time>
      </trkpt>
      <trkpt lat="46.520274" lon="15.151792">
        <ele>1052.38</ele>
        <time>2019-07-10T08:34:52Z</time>
      </trkpt>
      <trkpt lat="46.520252" lon="15.151959">
        <ele>1055.25</ele>
        <time>2019-07-10T08:35:02Z</time>
      </trkpt>
      <trkpt lat="46.520294" lon="15.152302">
        <ele>1044.91</ele>
        <time>2019-07-10T08:35:17Z</time>
      </trkpt>
      <trkpt lat="46.520213" lon="15.152414">
        <ele>1046.3</ele>
        <time>2019-07-10T08:35:27Z</time>
      </trkpt>
      <trkpt lat="46.520225" lon="15.152564">
        <ele>1050.76</ele>
        <time>2019-07-10T08:35:42Z</time>
      </trkpt>
      <trkpt lat="46.520251" lon="15.152824">
        <ele>1045.51</ele>
        <time>2019-07-10T08:35:58Z</time>
      </trkpt>
      <trkpt lat="46.520225" lon="15.153163">
        <ele>1049.94</ele>
        <time>2019-07-10T08:36:14Z</time>
      </trkpt>
      <trkpt lat="46.520225" lon="15.153552">
        <ele>1047.69</ele>
        <time>2019-07-10T08:36:31Z</time>
      </trkpt>
      <trkpt lat="46.520167" lon="15.153865">
        <ele>1051.24</ele>
        <time>2019-07-10T08:36:47Z</time>
      </trkpt>
      <trkpt lat="46.520145" lon="15.153897">
        <ele>1052.09</ele>
        <time>2019-07-10T08:36:51Z</time>
      </trkpt>
      <trkpt lat="46.520167" lon="15.153865">
        <ele>1051.24</ele>
        <time>2019-07-10T08:36:59Z</time>
      </trkpt>
      <trkpt lat="46.52" lon="15.154141">
        <ele>1053.22</ele>
        <time>2019-07-10T08:37:42Z</time>
      </trkpt>
      <trkpt lat="46.52" lon="15.154141">
        <ele>1053.22</ele>
        <time>2019-07-10T08:37:49Z</time>
      </trkpt>
      <trkpt lat="46.52" lon="15.154141">
        <ele>1053.22</ele>
        <time>2019-07-10T08:37:50Z</time>
      </trkpt>
      <trkpt lat="46.519751" lon="15.154276">
        <ele>1064.26</ele>
        <time>2019-07-10T08:38:34Z</time>
      </trkpt>
      <trkpt lat="46.519751" lon="15.154276">
        <ele>1064.26</ele>
        <time>2019-07-10T08:38:40Z</time>
      </trkpt>
      <trkpt lat="46.519751" lon="15.154276">
        <ele>1064.26</ele>
        <time>2019-07-10T08:38:41Z</time>
      </trkpt>
      <trkpt lat="46.519588" lon="15.154586">
        <ele>1067.13</ele>
        <time>2019-07-10T08:39:24Z</time>
      </trkpt>
      <trkpt lat="46.519369" lon="15.154902">
        <ele>1080.31</ele>
        <time>2019-07-10T08:40:48Z</time>
      </trkpt>
      <trkpt lat="46.519133" lon="15.155176">
        <ele>1094.51</ele>
        <time>2019-07-10T08:42:02Z</time>
      </trkpt>
      <trkpt lat="46.519017" lon="15.155342">
        <ele>1102.7</ele>
        <time>2019-07-10T08:42:20Z</time>
      </trkpt>
      <trkpt lat="46.518967" lon="15.155569">
        <ele>1100.09</ele>
        <time>2019-07-10T08:42:34Z</time>
      </trkpt>
      <trkpt lat="46.518938" lon="15.155786">
        <ele>1100.79</ele>
        <time>2019-07-10T08:42:48Z</time>
      </trkpt>
      <trkpt lat="46.518868" lon="15.15609">
        <ele>1099.83</ele>
        <time>2019-07-10T08:43:09Z</time>
      </trkpt>
      <trkpt lat="46.518851" lon="15.156304">
        <ele>1103.04</ele>
        <time>2019-07-10T08:43:24Z</time>
      </trkpt>
      <trkpt lat="46.51887" lon="15.156478">
        <ele>1105.91</ele>
        <time>2019-07-10T08:43:42Z</time>
      </trkpt>
      <trkpt lat="46.518896" lon="15.15684">
        <ele>1116.62</ele>
        <time>2019-07-10T08:44:22Z</time>
      </trkpt>
      <trkpt lat="46.518785" lon="15.157249">
        <ele>1122.5</ele>
        <time>2019-07-10T08:45:59Z</time>
      </trkpt>
      <trkpt lat="46.518794" lon="15.157635">
        <ele>1142.83</ele>
        <time>2019-07-10T08:47:52Z</time>
      </trkpt>
      <trkpt lat="46.518649" lon="15.15793">
        <ele>1153.72</ele>
        <time>2019-07-10T08:49:10Z</time>
      </trkpt>
      <trkpt lat="46.518649" lon="15.15793">
        <ele>1153.72</ele>
        <time>2019-07-10T08:51:12Z</time>
      </trkpt>
      <trkpt lat="46.518598" lon="15.158374">
        <ele>1165.73</ele>
        <time>2019-07-10T08:51:51Z</time>
      </trkpt>
      <trkpt lat="46.518527" lon="15.158814">
        <ele>1179.08</ele>
        <time>2019-07-10T08:53:48Z</time>
      </trkpt>
      <trkpt lat="46.518527" lon="15.158814">
        <ele>1179.08</ele>
        <time>2019-07-10T08:53:55Z</time>
      </trkpt>
      <trkpt lat="46.518527" lon="15.158814">
        <ele>1179.08</ele>
        <time>2019-07-10T08:53:56Z</time>
      </trkpt>
      <trkpt lat="46.518501" lon="15.159228">
        <ele>1197.17</ele>
        <time>2019-07-10T08:55:37Z</time>
      </trkpt>
      <trkpt lat="46.518501" lon="15.159228">
        <ele>1197.17</ele>
        <time>2019-07-10T08:58:08Z</time>
      </trkpt>
      <trkpt lat="46.518446" lon="15.159584">
        <ele>1215.58</ele>
        <time>2019-07-10T08:58:18Z</time>
      </trkpt>
      <trkpt lat="46.518382" lon="15.159998">
        <ele>1224.07</ele>
        <time>2019-07-10T08:59:41Z</time>
      </trkpt>
      <trkpt lat="46.518291" lon="15.160143">
        <ele>1225.26</ele>
        <time>2019-07-10T08:59:51Z</time>
      </trkpt>
      <trkpt lat="46.518291" lon="15.160143">
        <ele>1225.26</ele>
        <time>2019-07-10T08:59:58Z</time>
      </trkpt>
      <trkpt lat="46.518291" lon="15.160143">
        <ele>1225.26</ele>
        <time>2019-07-10T09:00:00Z</time>
      </trkpt>
      <trkpt lat="46.518158" lon="15.160253">
        <ele>1227.02</ele>
        <time>2019-07-10T09:00:33Z</time>
      </trkpt>
      <trkpt lat="46.518166" lon="15.160661">
        <ele>1237.36</ele>
        <time>2019-07-10T09:01:33Z</time>
      </trkpt>
      <trkpt lat="46.518299" lon="15.161025">
        <ele>1241.28</ele>
        <time>2019-07-10T09:02:12Z</time>
      </trkpt>
      <trkpt lat="46.518401" lon="15.161228">
        <ele>1247.52</ele>
        <time>2019-07-10T09:02:31Z</time>
      </trkpt>
      <trkpt lat="46.518582" lon="15.161605">
        <ele>1249.2</ele>
        <time>2019-07-10T09:03:12Z</time>
      </trkpt>
      <trkpt lat="46.518684" lon="15.161756">
        <ele>1248.73</ele>
        <time>2019-07-10T09:03:24Z</time>
      </trkpt>
      <trkpt lat="46.518905" lon="15.161952">
        <ele>1248.47</ele>
        <time>2019-07-10T09:03:40Z</time>
      </trkpt>
      <trkpt lat="46.518942" lon="15.162009">
        <ele>1250.75</ele>
        <time>2019-07-10T09:03:45Z</time>
      </trkpt>
      <trkpt lat="46.519024" lon="15.162125">
        <ele>1252.71</ele>
        <time>2019-07-10T09:03:59Z</time>
      </trkpt>
      <trkpt lat="46.519117" lon="15.162286">
        <ele>1254.03</ele>
        <time>2019-07-10T09:04:12Z</time>
      </trkpt>
      <trkpt lat="46.519207" lon="15.162454">
        <ele>1257.68</ele>
        <time>2019-07-10T09:04:25Z</time>
      </trkpt>
      <trkpt lat="46.519306" lon="15.162696">
        <ele>1251.71</ele>
        <time>2019-07-10T09:04:40Z</time>
      </trkpt>
      <trkpt lat="46.519396" lon="15.162941">
        <ele>1253.89</ele>
        <time>2019-07-10T09:04:56Z</time>
      </trkpt>
      <trkpt lat="46.519379" lon="15.163057">
        <ele>1254.58</ele>
        <time>2019-07-10T09:05:08Z</time>
      </trkpt>
      <trkpt lat="46.519428" lon="15.163311">
        <ele>1258.9</ele>
        <time>2019-07-10T09:05:21Z</time>
      </trkpt>
      <trkpt lat="46.519427" lon="15.163512">
        <ele>1260.19</ele>
        <time>2019-07-10T09:05:31Z</time>
      </trkpt>
      <trkpt lat="46.519446" lon="15.163693">
        <ele>1257.55</ele>
        <time>2019-07-10T09:05:43Z</time>
      </trkpt>
      <trkpt lat="46.519511" lon="15.163918">
        <ele>1248.45</ele>
        <time>2019-07-10T09:05:56Z</time>
      </trkpt>
      <trkpt lat="46.519582" lon="15.164079">
        <ele>1246.66</ele>
        <time>2019-07-10T09:06:04Z</time>
      </trkpt>
      <trkpt lat="46.519676" lon="15.164283">
        <ele>1245.71</ele>
        <time>2019-07-10T09:06:18Z</time>
      </trkpt>
      <trkpt lat="46.519779" lon="15.164557">
        <ele>1247.03</ele>
        <time>2019-07-10T09:06:37Z</time>
      </trkpt>
      <trkpt lat="46.519907" lon="15.16482">
        <ele>1246.83</ele>
        <time>2019-07-10T09:06:57Z</time>
      </trkpt>
      <trkpt lat="46.520009" lon="15.165079">
        <ele>1247.97</ele>
        <time>2019-07-10T09:07:13Z</time>
      </trkpt>
      <trkpt lat="46.520164" lon="15.165218">
        <ele>1246.09</ele>
        <time>2019-07-10T09:07:27Z</time>
      </trkpt>
      <trkpt lat="46.520207" lon="15.165365">
        <ele>1246.61</ele>
        <time>2019-07-10T09:07:35Z</time>
      </trkpt>
      <trkpt lat="46.520217" lon="15.165538">
        <ele>1249.62</ele>
        <time>2019-07-10T09:07:46Z</time>
      </trkpt>
      <trkpt lat="46.520263" lon="15.165827">
        <ele>1253.5</ele>
        <time>2019-07-10T09:08:00Z</time>
      </trkpt>
      <trkpt lat="46.520263" lon="15.165827">
        <ele>1253.5</ele>
        <time>2019-07-10T09:08:05Z</time>
      </trkpt>
      <trkpt lat="46.520263" lon="15.165827">
        <ele>1253.5</ele>
        <time>2019-07-10T09:08:06Z</time>
      </trkpt>
      <trkpt lat="46.520359" lon="15.166024">
        <ele>1253.25</ele>
        <time>2019-07-10T09:08:15Z</time>
      </trkpt>
      <trkpt lat="46.520444" lon="15.166152">
        <ele>1248.5</ele>
        <time>2019-07-10T09:08:27Z</time>
      </trkpt>
      <trkpt lat="46.520549" lon="15.166351">
        <ele>1246.3</ele>
        <time>2019-07-10T09:08:40Z</time>
      </trkpt>
      <trkpt lat="46.52066" lon="15.166618">
        <ele>1244.18</ele>
        <time>2019-07-10T09:08:59Z</time>
      </trkpt>
      <trkpt lat="46.520802" lon="15.166835">
        <ele>1244.66</ele>
        <time>2019-07-10T09:09:12Z</time>
      </trkpt>
      <trkpt lat="46.520896" lon="15.167078">
        <ele>1251.08</ele>
        <time>2019-07-10T09:09:26Z</time>
      </trkpt>
      <trkpt lat="46.520985" lon="15.167233">
        <ele>1251.81</ele>
        <time>2019-07-10T09:09:40Z</time>
      </trkpt>
      <trkpt lat="46.521103" lon="15.167478">
        <ele>1253.26</ele>
        <time>2019-07-10T09:09:56Z</time>
      </trkpt>
      <trkpt lat="46.521133" lon="15.167841">
        <ele>1249.05</ele>
        <time>2019-07-10T09:10:14Z</time>
      </trkpt>
      <trkpt lat="46.521193" lon="15.168142">
        <ele>1257.15</ele>
        <time>2019-07-10T09:10:32Z</time>
      </trkpt>
      <trkpt lat="46.521185" lon="15.168318">
        <ele>1255.93</ele>
        <time>2019-07-10T09:10:44Z</time>
      </trkpt>
      <trkpt lat="46.521194" lon="15.16853">
        <ele>1248.85</ele>
        <time>2019-07-10T09:10:57Z</time>
      </trkpt>
      <trkpt lat="46.52121" lon="15.168871">
        <ele>1252.41</ele>
        <time>2019-07-10T09:11:13Z</time>
      </trkpt>
      <trkpt lat="46.5212" lon="15.169173">
        <ele>1251.87</ele>
        <time>2019-07-10T09:11:31Z</time>
      </trkpt>
      <trkpt lat="46.521187" lon="15.169414">
        <ele>1244.74</ele>
        <time>2019-07-10T09:11:44Z</time>
      </trkpt>
      <trkpt lat="46.521155" lon="15.169667">
        <ele>1252.11</ele>
        <time>2019-07-10T09:11:56Z</time>
      </trkpt>
      <trkpt lat="46.521158" lon="15.169846">
        <ele>1245.55</ele>
        <time>2019-07-10T09:12:11Z</time>
      </trkpt>
      <trkpt lat="46.521046" lon="15.170077">
        <ele>1248.26</ele>
        <time>2019-07-10T09:12:30Z</time>
      </trkpt>
      <trkpt lat="46.521013" lon="15.170175">
        <ele>1246.67</ele>
        <time>2019-07-10T09:12:37Z</time>
      </trkpt>
      <trkpt lat="46.520971" lon="15.170285">
        <ele>1250.13</ele>
        <time>2019-07-10T09:12:50Z</time>
      </trkpt>
      <trkpt lat="46.52092" lon="15.170324">
        <ele>1248.67</ele>
        <time>2019-07-10T09:12:53Z</time>
      </trkpt>
      <trkpt lat="46.520915" lon="15.170339">
        <ele>1248.03</ele>
        <time>2019-07-10T09:13:02Z</time>
      </trkpt>
      <trkpt lat="46.520782" lon="15.170578">
        <ele>1254.4</ele>
        <time>2019-07-10T09:15:32Z</time>
      </trkpt>
      <trkpt lat="46.520782" lon="15.170578">
        <ele>1254.4</ele>
        <time>2019-07-10T09:15:39Z</time>
      </trkpt>
      <trkpt lat="46.520782" lon="15.170578">
        <ele>1254.4</ele>
        <time>2019-07-10T09:15:40Z</time>
      </trkpt>
      <trkpt lat="46.52064" lon="15.170622">
        <ele>1251.9</ele>
        <time>2019-07-10T09:16:20Z</time>
      </trkpt>
      <trkpt lat="46.52047" lon="15.170724">
        <ele>1260.11</ele>
        <time>2019-07-10T09:16:38Z</time>
      </trkpt>
      <trkpt lat="46.520357" lon="15.170861">
        <ele>1257.51</ele>
        <time>2019-07-10T09:16:58Z</time>
      </trkpt>
      <trkpt lat="46.520286" lon="15.17101">
        <ele>1253.42</ele>
        <time>2019-07-10T09:17:14Z</time>
      </trkpt>
      <trkpt lat="46.520286" lon="15.17101">
        <ele>1253.42</ele>
        <time>2019-07-10T09:17:21Z</time>
      </trkpt>
      <trkpt lat="46.520286" lon="15.17101">
        <ele>1253.42</ele>
        <time>2019-07-10T09:17:22Z</time>
      </trkpt>
      <trkpt lat="46.520038" lon="15.171224">
        <ele>1259.65</ele>
        <time>2019-07-10T09:18:17Z</time>
      </trkpt>
      <trkpt lat="46.519803" lon="15.171462">
        <ele>1267.78</ele>
        <time>2019-07-10T09:19:03Z</time>
      </trkpt>
      <trkpt lat="46.519537" lon="15.171688">
        <ele>1276.27</ele>
        <time>2019-07-10T09:20:18Z</time>
      </trkpt>
      <trkpt lat="46.519503" lon="15.17173">
        <ele>1276.42</ele>
        <time>2019-07-10T09:20:23Z</time>
      </trkpt>
      <trkpt lat="46.519458" lon="15.171779">
        <ele>1277.43</ele>
        <time>2019-07-10T09:20:37Z</time>
      </trkpt>
      <trkpt lat="46.519411" lon="15.171807">
        <ele>1280.11</ele>
        <time>2019-07-10T09:20:43Z</time>
      </trkpt>
      <trkpt lat="46.519337" lon="15.171893">
        <ele>1278.52</ele>
        <time>2019-07-10T09:20:57Z</time>
      </trkpt>
      <trkpt lat="46.51915" lon="15.172237">
        <ele>1291.69</ele>
        <time>2019-07-10T09:22:03Z</time>
      </trkpt>
      <trkpt lat="46.518936" lon="15.172517">
        <ele>1304.17</ele>
        <time>2019-07-10T09:23:07Z</time>
      </trkpt>
      <trkpt lat="46.518689" lon="15.17272">
        <ele>1302.62</ele>
        <time>2019-07-10T09:23:44Z</time>
      </trkpt>
      <trkpt lat="46.518627" lon="15.172783">
        <ele>1301.68</ele>
        <time>2019-07-10T09:23:54Z</time>
      </trkpt>
      <trkpt lat="46.5184" lon="15.173004">
        <ele>1310.16</ele>
        <time>2019-07-10T09:24:29Z</time>
      </trkpt>
      <trkpt lat="46.518159" lon="15.173241">
        <ele>1319.93</ele>
        <time>2019-07-10T09:25:07Z</time>
      </trkpt>
      <trkpt lat="46.518013" lon="15.173404">
        <ele>1315.73</ele>
        <time>2019-07-10T09:25:27Z</time>
      </trkpt>
      <trkpt lat="46.517796" lon="15.173711">
        <ele>1325.28</ele>
        <time>2019-07-10T09:26:13Z</time>
      </trkpt>
      <trkpt lat="46.517796" lon="15.173711">
        <ele>1325.28</ele>
        <time>2019-07-10T09:26:20Z</time>
      </trkpt>
      <trkpt lat="46.517796" lon="15.173711">
        <ele>1325.28</ele>
        <time>2019-07-10T09:26:21Z</time>
      </trkpt>
      <trkpt lat="46.517604" lon="15.173815">
        <ele>1333.21</ele>
        <time>2019-07-10T09:27:09Z</time>
      </trkpt>
      <trkpt lat="46.517408" lon="15.174085">
        <ele>1337.4</ele>
        <time>2019-07-10T09:28:03Z</time>
      </trkpt>
      <trkpt lat="46.517234" lon="15.174381">
        <ele>1345.29</ele>
        <time>2019-07-10T09:28:37Z</time>
      </trkpt>
      <trkpt lat="46.517151" lon="15.174495">
        <ele>1347.85</ele>
        <time>2019-07-10T09:28:51Z</time>
      </trkpt>
      <trkpt lat="46.517143" lon="15.174551">
        <ele>1348.46</ele>
        <time>2019-07-10T09:29:00Z</time>
      </trkpt>
      <trkpt lat="46.516994" lon="15.17499">
        <ele>1351.14</ele>
        <time>2019-07-10T09:30:23Z</time>
      </trkpt>
      <trkpt lat="46.516809" lon="15.175315">
        <ele>1362.53</ele>
        <time>2019-07-10T09:31:13Z</time>
      </trkpt>
      <trkpt lat="46.516642" lon="15.175686">
        <ele>1368.56</ele>
        <time>2019-07-10T09:32:07Z</time>
      </trkpt>
      <trkpt lat="46.516642" lon="15.175686">
        <ele>1368.56</ele>
        <time>2019-07-10T09:32:14Z</time>
      </trkpt>
      <trkpt lat="46.516642" lon="15.175686">
        <ele>1368.56</ele>
        <time>2019-07-10T09:32:15Z</time>
      </trkpt>
      <trkpt lat="46.516556" lon="15.175878">
        <ele>1372.9</ele>
        <time>2019-07-10T09:32:56Z</time>
      </trkpt>
      <trkpt lat="46.516374" lon="15.176205">
        <ele>1383.9</ele>
        <time>2019-07-10T09:34:05Z</time>
      </trkpt>
      <trkpt lat="46.51622" lon="15.176594">
        <ele>1396.91</ele>
        <time>2019-07-10T09:35:33Z</time>
      </trkpt>
      <trkpt lat="46.516036" lon="15.176955">
        <ele>1406.34</ele>
        <time>2019-07-10T09:36:55Z</time>
      </trkpt>
      <trkpt lat="46.515989" lon="15.177338">
        <ele>1407.63</ele>
        <time>2019-07-10T09:37:41Z</time>
      </trkpt>
      <trkpt lat="46.515989" lon="15.177338">
        <ele>1407.63</ele>
        <time>2019-07-10T09:37:46Z</time>
      </trkpt>
      <trkpt lat="46.515989" lon="15.177338">
        <ele>1407.63</ele>
        <time>2019-07-10T09:37:48Z</time>
      </trkpt>
      <trkpt lat="46.51592" lon="15.177604">
        <ele>1413.68</ele>
        <time>2019-07-10T09:38:34Z</time>
      </trkpt>
      <trkpt lat="46.515898" lon="15.177661">
        <ele>1412.41</ele>
        <time>2019-07-10T09:38:39Z</time>
      </trkpt>
      <trkpt lat="46.515845" lon="15.177813">
        <ele>1415.46</ele>
        <time>2019-07-10T09:38:53Z</time>
      </trkpt>
      <trkpt lat="46.515828" lon="15.177884">
        <ele>1417.24</ele>
        <time>2019-07-10T09:38:59Z</time>
      </trkpt>
      <trkpt lat="46.515786" lon="15.177959">
        <ele>1417.56</ele>
        <time>2019-07-10T09:39:14Z</time>
      </trkpt>
      <trkpt lat="46.515646" lon="15.1783">
        <ele>1414.07</ele>
        <time>2019-07-10T09:39:49Z</time>
      </trkpt>
      <trkpt lat="46.51559" lon="15.178472">
        <ele>1416.95</ele>
        <time>2019-07-10T09:40:03Z</time>
      </trkpt>
      <trkpt lat="46.515543" lon="15.17858">
        <ele>1422.76</ele>
        <time>2019-07-10T09:40:15Z</time>
      </trkpt>
      <trkpt lat="46.515539" lon="15.178597">
        <ele>1422.71</ele>
        <time>2019-07-10T09:40:23Z</time>
      </trkpt>
      <trkpt lat="46.515371" lon="15.178982">
        <ele>1425.71</ele>
        <time>2019-07-10T09:41:14Z</time>
      </trkpt>
      <trkpt lat="46.515208" lon="15.179334">
        <ele>1439.47</ele>
        <time>2019-07-10T09:42:05Z</time>
      </trkpt>
      <trkpt lat="46.51516" lon="15.179392">
        <ele>1437.21</ele>
        <time>2019-07-10T09:42:12Z</time>
      </trkpt>
      <trkpt lat="46.515147" lon="15.179437">
        <ele>1436.74</ele>
        <time>2019-07-10T09:42:29Z</time>
      </trkpt>
      <trkpt lat="46.514939" lon="15.179731">
        <ele>1444.53</ele>
        <time>2019-07-10T09:43:05Z</time>
      </trkpt>
      <trkpt lat="46.514835" lon="15.179863">
        <ele>1445.11</ele>
        <time>2019-07-10T09:43:21Z</time>
      </trkpt>
      <trkpt lat="46.514651" lon="15.180179">
        <ele>1453.19</ele>
        <time>2019-07-10T09:44:20Z</time>
      </trkpt>
      <trkpt lat="46.51443" lon="15.180501">
        <ele>1462.75</ele>
        <time>2019-07-10T09:45:19Z</time>
      </trkpt>
      <trkpt lat="46.514361" lon="15.180579">
        <ele>1467.03</ele>
        <time>2019-07-10T09:45:27Z</time>
      </trkpt>
      <trkpt lat="46.514358" lon="15.180585">
        <ele>1469.37</ele>
        <time>2019-07-10T09:45:36Z</time>
      </trkpt>
      <trkpt lat="46.51425" lon="15.180678">
        <ele>1469.76</ele>
        <time>2019-07-10T09:46:01Z</time>
      </trkpt>
      <trkpt lat="46.514208" lon="15.180749">
        <ele>1468.77</ele>
        <time>2019-07-10T09:46:06Z</time>
      </trkpt>
      <trkpt lat="46.51415" lon="15.180751">
        <ele>1472.55</ele>
        <time>2019-07-10T09:46:18Z</time>
      </trkpt>
      <trkpt lat="46.514128" lon="15.180773">
        <ele>1476.52</ele>
        <time>2019-07-10T09:46:24Z</time>
      </trkpt>
      <trkpt lat="46.514116" lon="15.180797">
        <ele>1474.88</ele>
        <time>2019-07-10T09:46:32Z</time>
      </trkpt>
      <trkpt lat="46.513949" lon="15.181133">
        <ele>1477.92</ele>
        <time>2019-07-10T09:47:14Z</time>
      </trkpt>
      <trkpt lat="46.513954" lon="15.181419">
        <ele>1484.31</ele>
        <time>2019-07-10T09:47:35Z</time>
      </trkpt>
      <trkpt lat="46.513966" lon="15.181719">
        <ele>1494.9</ele>
        <time>2019-07-10T09:47:55Z</time>
      </trkpt>
      <trkpt lat="46.513978" lon="15.18192">
        <ele>1499.03</ele>
        <time>2019-07-10T09:48:13Z</time>
      </trkpt>
      <trkpt lat="46.513978" lon="15.18192">
        <time>2019-07-10T09:49:02Z</time>
      </trkpt>
    </trkseg>
    <trkseg>
      <trkpt lat="46.513978" lon="15.18192">
        <time>2019-07-10T10:05:32Z</time>
      </trkpt>
      <trkpt lat="46.513865" lon="15.182833">
        <ele>1486.7</ele>
        <time>2019-07-10T10:05:33Z</time>
      </trkpt>
      <trkpt lat="46.513815" lon="15.183233">
        <ele>1493.63</ele>
        <time>2019-07-10T10:06:40Z</time>
      </trkpt>
      <trkpt lat="46.513817" lon="15.18343">
        <ele>1493.95</ele>
        <time>2019-07-10T10:06:53Z</time>
      </trkpt>
      <trkpt lat="46.51384" lon="15.183633">
        <ele>1499.53</ele>
        <time>2019-07-10T10:07:08Z</time>
      </trkpt>
      <trkpt lat="46.513839" lon="15.183771">
        <ele>1497.18</ele>
        <time>2019-07-10T10:07:19Z</time>
      </trkpt>
      <trkpt lat="46.51384" lon="15.184034">
        <ele>1499.86</ele>
        <time>2019-07-10T10:07:35Z</time>
      </trkpt>
      <trkpt lat="46.51384" lon="15.184034">
        <ele>1499.86</ele>
        <time>2019-07-10T10:07:43Z</time>
      </trkpt>
      <trkpt lat="46.51384" lon="15.184034">
        <ele>1499.86</ele>
        <time>2019-07-10T10:07:44Z</time>
      </trkpt>
      <trkpt lat="46.513812" lon="15.184244">
        <ele>1500.4</ele>
        <time>2019-07-10T10:07:52Z</time>
      </trkpt>
      <trkpt lat="46.51373" lon="15.184506">
        <ele>1500.92</ele>
        <time>2019-07-10T10:08:10Z</time>
      </trkpt>
      <trkpt lat="46.513674" lon="15.184723">
        <ele>1505.14</ele>
        <time>2019-07-10T10:08:23Z</time>
      </trkpt>
      <trkpt lat="46.513649" lon="15.184954">
        <ele>1504.41</ele>
        <time>2019-07-10T10:08:35Z</time>
      </trkpt>
      <trkpt lat="46.513642" lon="15.185255">
        <ele>1510.54</ele>
        <time>2019-07-10T10:08:52Z</time>
      </trkpt>
      <trkpt lat="46.51365" lon="15.185463">
        <ele>1511.7</ele>
        <time>2019-07-10T10:09:01Z</time>
      </trkpt>
      <trkpt lat="46.513619" lon="15.18557">
        <ele>1512.61</ele>
        <time>2019-07-10T10:09:10Z</time>
      </trkpt>
      <trkpt lat="46.513503" lon="15.185859">
        <ele>1519.04</ele>
        <time>2019-07-10T10:09:34Z</time>
      </trkpt>
      <trkpt lat="46.513409" lon="15.186068">
        <ele>1514.33</ele>
        <time>2019-07-10T10:09:51Z</time>
      </trkpt>
      <trkpt lat="46.513306" lon="15.186228">
        <ele>1513.35</ele>
        <time>2019-07-10T10:10:05Z</time>
      </trkpt>
      <trkpt lat="46.513159" lon="15.186464">
        <ele>1519.47</ele>
        <time>2019-07-10T10:10:24Z</time>
      </trkpt>
      <trkpt lat="46.513117" lon="15.186496">
        <ele>1526.21</ele>
        <time>2019-07-10T10:10:31Z</time>
      </trkpt>
      <trkpt lat="46.513076" lon="15.18657">
        <ele>1518.3</ele>
        <time>2019-07-10T10:10:46Z</time>
      </trkpt>
      <trkpt lat="46.512874" lon="15.186858">
        <ele>1527.18</ele>
        <time>2019-07-10T10:11:32Z</time>
      </trkpt>
      <trkpt lat="46.512794" lon="15.187055">
        <ele>1527.92</ele>
        <time>2019-07-10T10:11:48Z</time>
      </trkpt>
      <trkpt lat="46.512773" lon="15.187079">
        <ele>1525.5</ele>
        <time>2019-07-10T10:11:54Z</time>
      </trkpt>
      <trkpt lat="46.512765" lon="15.187129">
        <ele>1525.26</ele>
        <time>2019-07-10T10:12:02Z</time>
      </trkpt>
      <trkpt lat="46.512539" lon="15.187473">
        <ele>1534.1</ele>
        <time>2019-07-10T10:13:04Z</time>
      </trkpt>
      <trkpt lat="46.51242" lon="15.187688">
        <ele>1531.4</ele>
        <time>2019-07-10T10:13:25Z</time>
      </trkpt>
      <trkpt lat="46.51231" lon="15.18787">
        <ele>1536.59</ele>
        <time>2019-07-10T10:13:42Z</time>
      </trkpt>
      <trkpt lat="46.512141" lon="15.188199">
        <ele>1547.25</ele>
        <time>2019-07-10T10:14:14Z</time>
      </trkpt>
      <trkpt lat="46.512114" lon="15.18824">
        <ele>1549.67</ele>
        <time>2019-07-10T10:14:18Z</time>
      </trkpt>
      <trkpt lat="46.51208" lon="15.188323">
        <ele>1550.46</ele>
        <time>2019-07-10T10:14:29Z</time>
      </trkpt>
      <trkpt lat="46.51197" lon="15.18844">
        <ele>1554.01</ele>
        <time>2019-07-10T10:14:42Z</time>
      </trkpt>
      <trkpt lat="46.511823" lon="15.188699">
        <ele>1549.2</ele>
        <time>2019-07-10T10:14:59Z</time>
      </trkpt>
      <trkpt lat="46.511802" lon="15.188775">
        <ele>1550.29</ele>
        <time>2019-07-10T10:15:03Z</time>
      </trkpt>
      <trkpt lat="46.511802" lon="15.188881">
        <ele>1550.58</ele>
        <time>2019-07-10T10:15:11Z</time>
      </trkpt>
      <trkpt lat="46.511755" lon="15.189007">
        <ele>1550.31</ele>
        <time>2019-07-10T10:15:20Z</time>
      </trkpt>
      <trkpt lat="46.51165" lon="15.189316">
        <ele>1547.72</ele>
        <time>2019-07-10T10:15:39Z</time>
      </trkpt>
      <trkpt lat="46.511487" lon="15.189507">
        <ele>1550.26</ele>
        <time>2019-07-10T10:15:51Z</time>
      </trkpt>
      <trkpt lat="46.511439" lon="15.189582">
        <ele>1545.56</ele>
        <time>2019-07-10T10:16:03Z</time>
      </trkpt>
      <trkpt lat="46.511267" lon="15.189811">
        <ele>1545.94</ele>
        <time>2019-07-10T10:16:16Z</time>
      </trkpt>
      <trkpt lat="46.511159" lon="15.189877">
        <ele>1547.13</ele>
        <time>2019-07-10T10:16:25Z</time>
      </trkpt>
      <trkpt lat="46.511039" lon="15.190048">
        <ele>1546.18</ele>
        <time>2019-07-10T10:16:40Z</time>
      </trkpt>
      <trkpt lat="46.510928" lon="15.190092">
        <ele>1546.02</ele>
        <time>2019-07-10T10:16:50Z</time>
      </trkpt>
      <trkpt lat="46.510752" lon="15.190133">
        <ele>1547.62</ele>
        <time>2019-07-10T10:17:00Z</time>
      </trkpt>
      <trkpt lat="46.510752" lon="15.190133">
        <ele>1547.62</ele>
        <time>2019-07-10T10:17:06Z</time>
      </trkpt>
      <trkpt lat="46.510659" lon="15.190165">
        <ele>1545.88</ele>
        <time>2019-07-10T10:17:10Z</time>
      </trkpt>
      <trkpt lat="46.510555" lon="15.190194">
        <ele>1547.21</ele>
        <time>2019-07-10T10:17:16Z</time>
      </trkpt>
      <trkpt lat="46.510495" lon="15.190171">
        <ele>1548.77</ele>
        <time>2019-07-10T10:17:26Z</time>
      </trkpt>
      <trkpt lat="46.510315" lon="15.190218">
        <ele>1548.3</ele>
        <time>2019-07-10T10:17:42Z</time>
      </trkpt>
      <trkpt lat="46.51009" lon="15.190221">
        <ele>1554.38</ele>
        <time>2019-07-10T10:18:01Z</time>
      </trkpt>
      <trkpt lat="46.509968" lon="15.190283">
        <ele>1550.38</ele>
        <time>2019-07-10T10:18:07Z</time>
      </trkpt>
      <trkpt lat="46.509881" lon="15.190313">
        <ele>1550.91</ele>
        <time>2019-07-10T10:18:20Z</time>
      </trkpt>
      <trkpt lat="46.509567" lon="15.190406">
        <ele>1548.48</ele>
        <time>2019-07-10T10:18:39Z</time>
      </trkpt>
      <trkpt lat="46.509341" lon="15.190534">
        <ele>1549.1</ele>
        <time>2019-07-10T10:18:52Z</time>
      </trkpt>
      <trkpt lat="46.50924" lon="15.190634">
        <ele>1548.21</ele>
        <time>2019-07-10T10:18:58Z</time>
      </trkpt>
      <trkpt lat="46.509187" lon="15.190663">
        <ele>1548.84</ele>
        <time>2019-07-10T10:19:02Z</time>
      </trkpt>
      <trkpt lat="46.509121" lon="15.190729">
        <ele>1546.93</ele>
        <time>2019-07-10T10:19:15Z</time>
      </trkpt>
      <trkpt lat="46.509024" lon="15.190901">
        <ele>1551.18</ele>
        <time>2019-07-10T10:19:24Z</time>
      </trkpt>
      <trkpt lat="46.509024" lon="15.190901">
        <ele>1551.18</ele>
        <time>2019-07-10T10:19:29Z</time>
      </trkpt>
      <trkpt lat="46.509024" lon="15.190901">
        <ele>1551.18</ele>
        <time>2019-07-10T10:19:30Z</time>
      </trkpt>
      <trkpt lat="46.508943" lon="15.191049">
        <ele>1552.01</ele>
        <time>2019-07-10T10:19:43Z</time>
      </trkpt>
      <trkpt lat="46.508793" lon="15.191338">
        <ele>1556.98</ele>
        <time>2019-07-10T10:19:56Z</time>
      </trkpt>
      <trkpt lat="46.508708" lon="15.191408">
        <ele>1560.26</ele>
        <time>2019-07-10T10:20:02Z</time>
      </trkpt>
      <trkpt lat="46.508646" lon="15.191444">
        <ele>1558.01</ele>
        <time>2019-07-10T10:20:13Z</time>
      </trkpt>
      <trkpt lat="46.508513" lon="15.191641">
        <ele>1553.53</ele>
        <time>2019-07-10T10:20:23Z</time>
      </trkpt>
      <trkpt lat="46.508513" lon="15.191641">
        <ele>1553.53</ele>
        <time>2019-07-10T10:20:28Z</time>
      </trkpt>
      <trkpt lat="46.508513" lon="15.191641">
        <ele>1553.53</ele>
        <time>2019-07-10T10:20:29Z</time>
      </trkpt>
      <trkpt lat="46.508414" lon="15.191817">
        <ele>1548.5</ele>
        <time>2019-07-10T10:20:42Z</time>
      </trkpt>
      <trkpt lat="46.508341" lon="15.191978">
        <ele>1551.32</ele>
        <time>2019-07-10T10:20:50Z</time>
      </trkpt>
      <trkpt lat="46.508281" lon="15.192123">
        <ele>1551.49</ele>
        <time>2019-07-10T10:21:02Z</time>
      </trkpt>
      <trkpt lat="46.508191" lon="15.192296">
        <ele>1550.55</ele>
        <time>2019-07-10T10:21:16Z</time>
      </trkpt>
      <trkpt lat="46.508126" lon="15.192594">
        <ele>1547.81</ele>
        <time>2019-07-10T10:21:32Z</time>
      </trkpt>
      <trkpt lat="46.508084" lon="15.19289">
        <ele>1548.0</ele>
        <time>2019-07-10T10:21:44Z</time>
      </trkpt>
      <trkpt lat="46.508058" lon="15.193011">
        <ele>1547.3</ele>
        <time>2019-07-10T10:21:49Z</time>
      </trkpt>
      <trkpt lat="46.508049" lon="15.193051">
        <ele>1548.85</ele>
        <time>2019-07-10T10:21:53Z</time>
      </trkpt>
      <trkpt lat="46.508047" lon="15.193118">
        <ele>1547.45</ele>
        <time>2019-07-10T10:22:02Z</time>
      </trkpt>
      <trkpt lat="46.507969" lon="15.193364">
        <ele>1545.81</ele>
        <time>2019-07-10T10:22:22Z</time>
      </trkpt>
      <trkpt lat="46.507924" lon="15.193483">
        <ele>1549.3</ele>
        <time>2019-07-10T10:22:35Z</time>
      </trkpt>
      <trkpt lat="46.507837" lon="15.193653">
        <ele>1548.61</ele>
        <time>2019-07-10T10:22:50Z</time>
      </trkpt>
      <trkpt lat="46.507797" lon="15.193872">
        <ele>1546.57</ele>
        <time>2019-07-10T10:23:03Z</time>
      </trkpt>
      <trkpt lat="46.507754" lon="15.194119">
        <ele>1544.64</ele>
        <time>2019-07-10T10:23:14Z</time>
      </trkpt>
      <trkpt lat="46.507668" lon="15.194379">
        <ele>1546.62</ele>
        <time>2019-07-10T10:23:25Z</time>
      </trkpt>
      <trkpt lat="46.507637" lon="15.194481">
        <ele>1547.97</ele>
        <time>2019-07-10T10:23:37Z</time>
      </trkpt>
      <trkpt lat="46.507587" lon="15.194784">
        <ele>1546.5</ele>
        <time>2019-07-10T10:23:49Z</time>
      </trkpt>
      <trkpt lat="46.507568" lon="15.194893">
        <ele>1543.63</ele>
        <time>2019-07-10T10:23:59Z</time>
      </trkpt>
      <trkpt lat="46.507522" lon="15.195095">
        <ele>1545.61</ele>
        <time>2019-07-10T10:24:13Z</time>
      </trkpt>
      <trkpt lat="46.507487" lon="15.195223">
        <ele>1545.84</ele>
        <time>2019-07-10T10:24:20Z</time>
      </trkpt>
      <trkpt lat="46.507428" lon="15.195437">
        <ele>1553.04</ele>
        <time>2019-07-10T10:24:32Z</time>
      </trkpt>
      <trkpt lat="46.507386" lon="15.195509">
        <ele>1550.6</ele>
        <time>2019-07-10T10:24:51Z</time>
      </trkpt>
      <trkpt lat="46.50734" lon="15.195648">
        <ele>1553.62</ele>
        <time>2019-07-10T10:24:59Z</time>
      </trkpt>
      <trkpt lat="46.507299" lon="15.19582">
        <ele>1555.27</ele>
        <time>2019-07-10T10:25:12Z</time>
      </trkpt>
      <trkpt lat="46.507229" lon="15.19622">
        <ele>1560.64</ele>
        <time>2019-07-10T10:25:48Z</time>
      </trkpt>
      <trkpt lat="46.507229" lon="15.19622">
        <ele>1560.64</ele>
        <time>2019-07-10T10:25:55Z</time>
      </trkpt>
      <trkpt lat="46.507229" lon="15.19622">
        <ele>1560.64</ele>
        <time>2019-07-10T10:25:56Z</time>
      </trkpt>
      <trkpt lat="46.507091" lon="15.196572">
        <ele>1571.2</ele>
        <time>2019-07-10T10:26:38Z</time>
      </trkpt>
      <trkpt lat="46.507068" lon="15.196972">
        <ele>1571.38</ele>
        <time>2019-07-10T10:27:40Z</time>
      </trkpt>
      <trkpt lat="46.506953" lon="15.197337">
        <ele>1583.34</ele>
        <time>2019-07-10T10:28:47Z</time>
      </trkpt>
      <trkpt lat="46.506896" lon="15.197556">
        <ele>1591.79</ele>
        <time>2019-07-10T10:29:04Z</time>
      </trkpt>
      <trkpt lat="46.506844" lon="15.197798">
        <ele>1592.9</ele>
        <time>2019-07-10T10:29:22Z</time>
      </trkpt>
      <trkpt lat="46.506749" lon="15.198015">
        <ele>1594.75</ele>
        <time>2019-07-10T10:29:34Z</time>
      </trkpt>
      <trkpt lat="46.506688" lon="15.198042">
        <ele>1595.12</ele>
        <time>2019-07-10T10:29:42Z</time>
      </trkpt>
      <trkpt lat="46.506688" lon="15.198042">
        <ele>1595.12</ele>
        <time>2019-07-10T10:29:49Z</time>
      </trkpt>
      <trkpt lat="46.506688" lon="15.198042">
        <ele>1595.12</ele>
        <time>2019-07-10T10:29:50Z</time>
      </trkpt>
      <trkpt lat="46.506392" lon="15.198161">
        <ele>1585.24</ele>
        <time>2019-07-10T10:30:50Z</time>
      </trkpt>
      <trkpt lat="46.506228" lon="15.19802">
        <ele>1585.58</ele>
        <time>2019-07-10T10:31:05Z</time>
      </trkpt>
      <trkpt lat="46.506437" lon="15.198234">
        <ele>1588.85</ele>
        <time>2019-07-10T10:32:49Z</time>
      </trkpt>
      <trkpt lat="46.50657" lon="15.198393">
        <ele>1585.99</ele>
        <time>2019-07-10T10:33:01Z</time>
      </trkpt>
      <trkpt lat="46.50657" lon="15.198393">
        <ele>1585.99</ele>
        <time>2019-07-10T10:33:08Z</time>
      </trkpt>
      <trkpt lat="46.506659" lon="15.198551">
        <ele>1586.04</ele>
        <time>2019-07-10T10:33:16Z</time>
      </trkpt>
      <trkpt lat="46.506726" lon="15.19885">
        <ele>1583.31</ele>
        <time>2019-07-10T10:33:30Z</time>
      </trkpt>
      <trkpt lat="46.506761" lon="15.199016">
        <ele>1580.7</ele>
        <time>2019-07-10T10:33:39Z</time>
      </trkpt>
      <trkpt lat="46.506859" lon="15.19932">
        <ele>1578.23</ele>
        <time>2019-07-10T10:33:52Z</time>
      </trkpt>
      <trkpt lat="46.506862" lon="15.199491">
        <ele>1578.24</ele>
        <time>2019-07-10T10:34:02Z</time>
      </trkpt>
      <trkpt lat="46.506824" lon="15.199782">
        <ele>1578.59</ele>
        <time>2019-07-10T10:34:21Z</time>
      </trkpt>
      <trkpt lat="46.506791" lon="15.199925">
        <ele>1577.8</ele>
        <time>2019-07-10T10:34:30Z</time>
      </trkpt>
      <trkpt lat="46.506707" lon="15.20025">
        <ele>1576.58</ele>
        <time>2019-07-10T10:34:44Z</time>
      </trkpt>
      <trkpt lat="46.50662" lon="15.200478">
        <ele>1572.27</ele>
        <time>2019-07-10T10:34:57Z</time>
      </trkpt>
      <trkpt lat="46.506452" lon="15.200662">
        <ele>1573.13</ele>
        <time>2019-07-10T10:35:15Z</time>
      </trkpt>
      <trkpt lat="46.506438" lon="15.200939">
        <ele>1562.12</ele>
        <time>2019-07-10T10:35:37Z</time>
      </trkpt>
      <trkpt lat="46.506352" lon="15.201247">
        <ele>1562.65</ele>
        <time>2019-07-10T10:35:53Z</time>
      </trkpt>
      <trkpt lat="46.506235" lon="15.201426">
        <ele>1552.69</ele>
        <time>2019-07-10T10:36:05Z</time>
      </trkpt>
      <trkpt lat="46.506186" lon="15.201701">
        <ele>1547.58</ele>
        <time>2019-07-10T10:36:22Z</time>
      </trkpt>
      <trkpt lat="46.50609" lon="15.201982">
        <ele>1545.91</ele>
        <time>2019-07-10T10:36:42Z</time>
      </trkpt>
      <trkpt lat="46.506053" lon="15.202219">
        <ele>1544.25</ele>
        <time>2019-07-10T10:36:53Z</time>
      </trkpt>
      <trkpt lat="46.506" lon="15.202395">
        <ele>1537.23</ele>
        <time>2019-07-10T10:37:12Z</time>
      </trkpt>
      <trkpt lat="46.505907" lon="15.202754">
        <ele>1534.22</ele>
        <time>2019-07-10T10:37:28Z</time>
      </trkpt>
      <trkpt lat="46.505817" lon="15.202977">
        <ele>1531.85</ele>
        <time>2019-07-10T10:37:40Z</time>
      </trkpt>
      <trkpt lat="46.505719" lon="15.203149">
        <ele>1533.53</ele>
        <time>2019-07-10T10:37:56Z</time>
      </trkpt>
      <trkpt lat="46.505668" lon="15.20337">
        <ele>1524.76</ele>
        <time>2019-07-10T10:38:11Z</time>
      </trkpt>
      <trkpt lat="46.50561" lon="15.203607">
        <ele>1524.03</ele>
        <time>2019-07-10T10:38:20Z</time>
      </trkpt>
      <trkpt lat="46.505538" lon="15.203854">
        <ele>1521.36</ele>
        <time>2019-07-10T10:38:34Z</time>
      </trkpt>
      <trkpt lat="46.505479" lon="15.204048">
        <ele>1518.58</ele>
        <time>2019-07-10T10:38:45Z</time>
      </trkpt>
      <trkpt lat="46.505479" lon="15.204048">
        <ele>1518.58</ele>
        <time>2019-07-10T10:38:52Z</time>
      </trkpt>
      <trkpt lat="46.505479" lon="15.204048">
        <ele>1518.58</ele>
        <time>2019-07-10T10:38:53Z</time>
      </trkpt>
      <trkpt lat="46.505401" lon="15.204296">
        <ele>1511.9</ele>
        <time>2019-07-10T10:39:05Z</time>
      </trkpt>
      <trkpt lat="46.505332" lon="15.2046">
        <ele>1511.79</ele>
        <time>2019-07-10T10:39:17Z</time>
      </trkpt>
      <trkpt lat="46.505273" lon="15.204722">
        <ele>1510.4</ele>
        <time>2019-07-10T10:39:24Z</time>
      </trkpt>
      <trkpt lat="46.505194" lon="15.204893">
        <ele>1510.72</ele>
        <time>2019-07-10T10:39:37Z</time>
      </trkpt>
      <trkpt lat="46.505125" lon="15.205117">
        <ele>1506.88</ele>
        <time>2019-07-10T10:39:53Z</time>
      </trkpt>
      <trkpt lat="46.505053" lon="15.205338">
        <ele>1506.51</ele>
        <time>2019-07-10T10:40:04Z</time>
      </trkpt>
      <trkpt lat="46.505001" lon="15.205459">
        <ele>1504.08</ele>
        <time>2019-07-10T10:40:11Z</time>
      </trkpt>
      <trkpt lat="46.504922" lon="15.205606">
        <ele>1500.34</ele>
        <time>2019-07-10T10:40:23Z</time>
      </trkpt>
      <trkpt lat="46.504848" lon="15.205932">
        <ele>1491.1</ele>
        <time>2019-07-10T10:40:48Z</time>
      </trkpt>
      <trkpt lat="46.50474" lon="15.206314">
        <ele>1487.12</ele>
        <time>2019-07-10T10:41:03Z</time>
      </trkpt>
      <trkpt lat="46.504684" lon="15.206625">
        <ele>1487.16</ele>
        <time>2019-07-10T10:41:14Z</time>
      </trkpt>
      <trkpt lat="46.504571" lon="15.206803">
        <ele>1486.68</ele>
        <time>2019-07-10T10:41:29Z</time>
      </trkpt>
      <trkpt lat="46.504497" lon="15.206991">
        <ele>1489.94</ele>
        <time>2019-07-10T10:41:39Z</time>
      </trkpt>
      <trkpt lat="46.504473" lon="15.207078">
        <ele>1489.11</ele>
        <time>2019-07-10T10:41:51Z</time>
      </trkpt>
      <trkpt lat="46.504428" lon="15.207262">
        <ele>1483.07</ele>
        <time>2019-07-10T10:42:01Z</time>
      </trkpt>
      <trkpt lat="46.504295" lon="15.207539">
        <ele>1480.56</ele>
        <time>2019-07-10T10:42:13Z</time>
      </trkpt>
      <trkpt lat="46.504262" lon="15.207704">
        <ele>1478.86</ele>
        <time>2019-07-10T10:42:27Z</time>
      </trkpt>
      <trkpt lat="46.504139" lon="15.208028">
        <ele>1483.8</ele>
        <time>2019-07-10T10:42:47Z</time>
      </trkpt>
      <trkpt lat="46.504132" lon="15.208138">
        <ele>1481.82</ele>
        <time>2019-07-10T10:42:58Z</time>
      </trkpt>
      <trkpt lat="46.504086" lon="15.208255">
        <ele>1477.28</ele>
        <time>2019-07-10T10:43:10Z</time>
      </trkpt>
      <trkpt lat="46.503972" lon="15.208578">
        <ele>1468.4</ele>
        <time>2019-07-10T10:43:26Z</time>
      </trkpt>
      <trkpt lat="46.50395" lon="15.208742">
        <ele>1467.58</ele>
        <time>2019-07-10T10:43:35Z</time>
      </trkpt>
      <trkpt lat="46.503849" lon="15.208953">
        <ele>1464.51</ele>
        <time>2019-07-10T10:43:45Z</time>
      </trkpt>
      <trkpt lat="46.503804" lon="15.209229">
        <ele>1462.95</ele>
        <time>2019-07-10T10:43:58Z</time>
      </trkpt>
      <trkpt lat="46.503774" lon="15.209529">
        <ele>1455.4</ele>
        <time>2019-07-10T10:44:15Z</time>
      </trkpt>
      <trkpt lat="46.503595" lon="15.209832">
        <ele>1447.98</ele>
        <time>2019-07-10T10:44:35Z</time>
      </trkpt>
      <trkpt lat="46.503529" lon="15.209933">
        <ele>1443.45</ele>
        <time>2019-07-10T10:44:42Z</time>
      </trkpt>
      <trkpt lat="46.503518" lon="15.210062">
        <ele>1437.89</ele>
        <time>2019-07-10T10:44:59Z</time>
      </trkpt>
      <trkpt lat="46.50342" lon="15.210461">
        <ele>1429.07</ele>
        <time>2019-07-10T10:45:36Z</time>
      </trkpt>
      <trkpt lat="46.503334" lon="15.210721">
        <ele>1424.83</ele>
        <time>2019-07-10T10:45:52Z</time>
      </trkpt>
      <trkpt lat="46.503283" lon="15.210894">
        <ele>1421.78</ele>
        <time>2019-07-10T10:46:01Z</time>
      </trkpt>
      <trkpt lat="46.503173" lon="15.211159">
        <ele>1420.78</ele>
        <time>2019-07-10T10:46:17Z</time>
      </trkpt>
      <trkpt lat="46.502993" lon="15.211449">
        <ele>1420.47</ele>
        <time>2019-07-10T10:46:29Z</time>
      </trkpt>
      <trkpt lat="46.502964" lon="15.211509">
        <ele>1424.91</ele>
        <time>2019-07-10T10:46:34Z</time>
      </trkpt>
      <trkpt lat="46.50291" lon="15.211616">
        <ele>1425.4</ele>
        <time>2019-07-10T10:46:45Z</time>
      </trkpt>
      <trkpt lat="46.502681" lon="15.211851">
        <ele>1425.51</ele>
        <time>2019-07-10T10:47:00Z</time>
      </trkpt>
      <trkpt lat="46.502607" lon="15.211913">
        <ele>1426.31</ele>
        <time>2019-07-10T10:47:07Z</time>
      </trkpt>
      <trkpt lat="46.50257" lon="15.212033">
        <ele>1428.97</ele>
        <time>2019-07-10T10:47:18Z</time>
      </trkpt>
      <trkpt lat="46.502429" lon="15.212213">
        <ele>1434.69</ele>
        <time>2019-07-10T10:47:34Z</time>
      </trkpt>
      <trkpt lat="46.502344" lon="15.212286">
        <ele>1433.12</ele>
        <time>2019-07-10T10:47:42Z</time>
      </trkpt>
      <trkpt lat="46.502211" lon="15.212486">
        <ele>1436.02</ele>
        <time>2019-07-10T10:47:58Z</time>
      </trkpt>
      <trkpt lat="46.502088" lon="15.212595">
        <ele>1438.41</ele>
        <time>2019-07-10T10:48:18Z</time>
      </trkpt>
      <trkpt lat="46.501994" lon="15.212698">
        <ele>1437.29</ele>
        <time>2019-07-10T10:48:29Z</time>
      </trkpt>
      <trkpt lat="46.501857" lon="15.212893">
        <ele>1437.3</ele>
        <time>2019-07-10T10:48:45Z</time>
      </trkpt>
      <trkpt lat="46.501798" lon="15.213017">
        <ele>1435.58</ele>
        <time>2019-07-10T10:48:53Z</time>
      </trkpt>
      <trkpt lat="46.501756" lon="15.213045">
        <ele>1436.78</ele>
        <time>2019-07-10T10:48:59Z</time>
      </trkpt>
      <trkpt lat="46.501678" lon="15.21315">
        <ele>1437.95</ele>
        <time>2019-07-10T10:49:09Z</time>
      </trkpt>
      <trkpt lat="46.501565" lon="15.213296">
        <ele>1443.29</ele>
        <time>2019-07-10T10:49:21Z</time>
      </trkpt>
      <trkpt lat="46.501463" lon="15.213415">
        <ele>1440.49</ele>
        <time>2019-07-10T10:49:34Z</time>
      </trkpt>
      <trkpt lat="46.501396" lon="15.21342">
        <ele>1443.44</ele>
        <time>2019-07-10T10:49:51Z</time>
      </trkpt>
      <trkpt lat="46.50127" lon="15.213603">
        <ele>1446.53</ele>
        <time>2019-07-10T10:50:04Z</time>
      </trkpt>
      <trkpt lat="46.501156" lon="15.213734">
        <ele>1448.23</ele>
        <time>2019-07-10T10:50:18Z</time>
      </trkpt>
      <trkpt lat="46.501104" lon="15.213808">
        <ele>1449.04</ele>
        <time>2019-07-10T10:50:27Z</time>
      </trkpt>
      <trkpt lat="46.500895" lon="15.21411">
        <ele>1455.82</ele>
        <time>2019-07-10T10:51:02Z</time>
      </trkpt>
      <trkpt lat="46.500785" lon="15.214244">
        <ele>1458.25</ele>
        <time>2019-07-10T10:51:14Z</time>
      </trkpt>
      <trkpt lat="46.50073" lon="15.214267">
        <ele>1456.66</ele>
        <time>2019-07-10T10:51:18Z</time>
      </trkpt>
      <trkpt lat="46.500644" lon="15.214307">
        <ele>1456.36</ele>
        <time>2019-07-10T10:51:33Z</time>
      </trkpt>
      <trkpt lat="46.500458" lon="15.214536">
        <ele>1451.99</ele>
        <time>2019-07-10T10:51:50Z</time>
      </trkpt>
      <trkpt lat="46.50033" lon="15.214564">
        <ele>1450.97</ele>
        <time>2019-07-10T10:52:04Z</time>
      </trkpt>
      <trkpt lat="46.500189" lon="15.214745">
        <ele>1450.27</ele>
        <time>2019-07-10T10:52:14Z</time>
      </trkpt>
      <trkpt lat="46.499944" lon="15.214749">
        <ele>1446.24</ele>
        <time>2019-07-10T10:52:25Z</time>
      </trkpt>
      <trkpt lat="46.499791" lon="15.214801">
        <ele>1446.19</ele>
        <time>2019-07-10T10:52:35Z</time>
      </trkpt>
      <trkpt lat="46.499699" lon="15.21481">
        <ele>1450.87</ele>
        <time>2019-07-10T10:52:50Z</time>
      </trkpt>
      <trkpt lat="46.499545" lon="15.214887">
        <ele>1451.88</ele>
        <time>2019-07-10T10:53:04Z</time>
      </trkpt>
      <trkpt lat="46.499365" lon="15.215031">
        <ele>1447.73</ele>
        <time>2019-07-10T10:53:21Z</time>
      </trkpt>
      <trkpt lat="46.499282" lon="15.215133">
        <ele>1451.95</ele>
        <time>2019-07-10T10:53:27Z</time>
      </trkpt>
      <trkpt lat="46.499224" lon="15.215222">
        <ele>1454.51</ele>
        <time>2019-07-10T10:53:36Z</time>
      </trkpt>
      <trkpt lat="46.499186" lon="15.215276">
        <ele>1455.38</ele>
        <time>2019-07-10T10:53:42Z</time>
      </trkpt>
      <trkpt lat="46.499087" lon="15.215329">
        <ele>1455.27</ele>
        <time>2019-07-10T10:53:57Z</time>
      </trkpt>
      <trkpt lat="46.498965" lon="15.215527">
        <ele>1456.03</ele>
        <time>2019-07-10T10:54:12Z</time>
      </trkpt>
      <trkpt lat="46.498838" lon="15.215655">
        <ele>1459.87</ele>
        <time>2019-07-10T10:54:27Z</time>
      </trkpt>
      <trkpt lat="46.498672" lon="15.215787">
        <ele>1463.4</ele>
        <time>2019-07-10T10:54:41Z</time>
      </trkpt>
      <trkpt lat="46.498581" lon="15.21596">
        <ele>1465.2</ele>
        <time>2019-07-10T10:54:52Z</time>
      </trkpt>
      <trkpt lat="46.498488" lon="15.216049">
        <ele>1464.42</ele>
        <time>2019-07-10T10:55:01Z</time>
      </trkpt>
      <trkpt lat="46.498403" lon="15.216161">
        <ele>1465.36</ele>
        <time>2019-07-10T10:55:12Z</time>
      </trkpt>
      <trkpt lat="46.498255" lon="15.216262">
        <ele>1467.61</ele>
        <time>2019-07-10T10:55:27Z</time>
      </trkpt>
      <trkpt lat="46.498219" lon="15.216339">
        <ele>1467.23</ele>
        <time>2019-07-10T10:55:31Z</time>
      </trkpt>
      <trkpt lat="46.498203" lon="15.216339">
        <ele>1468.03</ele>
        <time>2019-07-10T10:55:41Z</time>
      </trkpt>
      <trkpt lat="46.498077" lon="15.216489">
        <ele>1465.39</ele>
        <time>2019-07-10T11:01:12Z</time>
      </trkpt>
      <trkpt lat="46.497949" lon="15.216668">
        <ele>1464.59</ele>
        <time>2019-07-10T11:01:27Z</time>
      </trkpt>
      <trkpt lat="46.4978" lon="15.216908">
        <ele>1469.62</ele>
        <time>2019-07-10T11:01:44Z</time>
      </trkpt>
      <trkpt lat="46.497714" lon="15.217035">
        <ele>1467.21</ele>
        <time>2019-07-10T11:01:55Z</time>
      </trkpt>
      <trkpt lat="46.497537" lon="15.217212">
        <ele>1471.18</ele>
        <time>2019-07-10T11:02:11Z</time>
      </trkpt>
      <trkpt lat="46.497332" lon="15.217343">
        <ele>1471.83</ele>
        <time>2019-07-10T11:02:26Z</time>
      </trkpt>
      <trkpt lat="46.497213" lon="15.217422">
        <ele>1468.26</ele>
        <time>2019-07-10T11:02:36Z</time>
      </trkpt>
      <trkpt lat="46.497172" lon="15.217389">
        <ele>1469.25</ele>
        <time>2019-07-10T11:02:40Z</time>
      </trkpt>
      <trkpt lat="46.49714" lon="15.217374">
        <ele>1466.42</ele>
        <time>2019-07-10T11:02:49Z</time>
      </trkpt>
      <trkpt lat="46.496967" lon="15.217373">
        <ele>1467.29</ele>
        <time>2019-07-10T11:03:07Z</time>
      </trkpt>
      <trkpt lat="46.496856" lon="15.217463">
        <ele>1464.77</ele>
        <time>2019-07-10T11:03:16Z</time>
      </trkpt>
      <trkpt lat="46.496608" lon="15.217399">
        <ele>1467.45</ele>
        <time>2019-07-10T11:03:32Z</time>
      </trkpt>
      <trkpt lat="46.49639" lon="15.217409">
        <ele>1463.98</ele>
        <time>2019-07-10T11:03:48Z</time>
      </trkpt>
      <trkpt lat="46.496196" lon="15.217442">
        <ele>1462.77</ele>
        <time>2019-07-10T11:04:01Z</time>
      </trkpt>
      <trkpt lat="46.496039" lon="15.217501">
        <ele>1460.19</ele>
        <time>2019-07-10T11:04:13Z</time>
      </trkpt>
      <trkpt lat="46.495833" lon="15.217509">
        <ele>1460.43</ele>
        <time>2019-07-10T11:04:28Z</time>
      </trkpt>
      <trkpt lat="46.495736" lon="15.217558">
        <ele>1457.91</ele>
        <time>2019-07-10T11:04:37Z</time>
      </trkpt>
      <trkpt lat="46.495549" lon="15.217588">
        <ele>1458.21</ele>
        <time>2019-07-10T11:04:53Z</time>
      </trkpt>
      <trkpt lat="46.49544" lon="15.217662">
        <ele>1453.17</ele>
        <time>2019-07-10T11:05:07Z</time>
      </trkpt>
      <trkpt lat="46.495258" lon="15.217807">
        <ele>1454.62</ele>
        <time>2019-07-10T11:05:17Z</time>
      </trkpt>
      <trkpt lat="46.495154" lon="15.217876">
        <ele>1452.68</ele>
        <time>2019-07-10T11:05:24Z</time>
      </trkpt>
      <trkpt lat="46.495054" lon="15.217933">
        <ele>1455.07</ele>
        <time>2019-07-10T11:05:35Z</time>
      </trkpt>
      <trkpt lat="46.49495" lon="15.218037">
        <ele>1458.24</ele>
        <time>2019-07-10T11:05:42Z</time>
      </trkpt>
      <trkpt lat="46.494825" lon="15.218149">
        <ele>1456.99</ele>
        <time>2019-07-10T11:05:50Z</time>
      </trkpt>
      <trkpt lat="46.494825" lon="15.218149">
        <ele>1456.99</ele>
        <time>2019-07-10T11:05:57Z</time>
      </trkpt>
      <trkpt lat="46.494825" lon="15.218149">
        <ele>1456.99</ele>
        <time>2019-07-10T11:05:58Z</time>
      </trkpt>
      <trkpt lat="46.494735" lon="15.218315">
        <ele>1457.47</ele>
        <time>2019-07-10T11:06:06Z</time>
      </trkpt>
      <trkpt lat="46.494681" lon="15.218365">
        <ele>1459.33</ele>
        <time>2019-07-10T11:06:09Z</time>
      </trkpt>
      <trkpt lat="46.494655" lon="15.218415">
        <ele>1456.72</ele>
        <time>2019-07-10T11:06:19Z</time>
      </trkpt>
      <trkpt lat="46.494548" lon="15.218472">
        <ele>1459.38</ele>
        <time>2019-07-10T11:06:28Z</time>
      </trkpt>
      <trkpt lat="46.494447" lon="15.218561">
        <ele>1462.34</ele>
        <time>2019-07-10T11:06:38Z</time>
      </trkpt>
      <trkpt lat="46.4944" lon="15.218667">
        <ele>1460.41</ele>
        <time>2019-07-10T11:06:47Z</time>
      </trkpt>
      <trkpt lat="46.494322" lon="15.218808">
        <ele>1462.31</ele>
        <time>2019-07-10T11:06:57Z</time>
      </trkpt>
      <trkpt lat="46.494222" lon="15.21893">
        <ele>1468.56</ele>
        <time>2019-07-10T11:07:11Z</time>
      </trkpt>
      <trkpt lat="46.494075" lon="15.219043">
        <ele>1469.74</ele>
        <time>2019-07-10T11:07:30Z</time>
      </trkpt>
      <trkpt lat="46.494075" lon="15.219043">
        <ele>1469.74</ele>
        <time>2019-07-10T11:09:51Z</time>
      </trkpt>
      <trkpt lat="46.493806" lon="15.219213">
        <ele>1468.78</ele>
        <time>2019-07-10T11:10:05Z</time>
      </trkpt>
      <trkpt lat="46.493806" lon="15.219213">
        <ele>1468.78</ele>
        <time>2019-07-10T11:10:12Z</time>
      </trkpt>
      <trkpt lat="46.493748" lon="15.219247">
        <ele>1471.88</ele>
        <time>2019-07-10T11:10:20Z</time>
      </trkpt>
      <trkpt lat="46.493511" lon="15.219502">
        <ele>1477.76</ele>
        <time>2019-07-10T11:10:59Z</time>
      </trkpt>
      <trkpt lat="46.493358" lon="15.219613">
        <ele>1482.7</ele>
        <time>2019-07-10T11:11:16Z</time>
      </trkpt>
      <trkpt lat="46.493286" lon="15.219808">
        <ele>1482.87</ele>
        <time>2019-07-10T11:11:30Z</time>
      </trkpt>
      <trkpt lat="46.493202" lon="15.219885">
        <ele>1482.94</ele>
        <time>2019-07-10T11:11:42Z</time>
      </trkpt>
      <trkpt lat="46.493065" lon="15.219962">
        <ele>1484.5</ele>
        <time>2019-07-10T11:12:03Z</time>
      </trkpt>
      <trkpt lat="46.492787" lon="15.220131">
        <ele>1489.56</ele>
        <time>2019-07-10T11:12:52Z</time>
      </trkpt>
      <trkpt lat="46.492546" lon="15.220334">
        <ele>1495.16</ele>
        <time>2019-07-10T11:13:26Z</time>
      </trkpt>
      <trkpt lat="46.492546" lon="15.220334">
        <ele>1495.16</ele>
        <time>2019-07-10T11:13:34Z</time>
      </trkpt>
      <trkpt lat="46.492546" lon="15.220334">
        <ele>1495.16</ele>
        <time>2019-07-10T11:13:35Z</time>
      </trkpt>
      <trkpt lat="46.492448" lon="15.22051">
        <ele>1496.01</ele>
        <time>2019-07-10T11:13:59Z</time>
      </trkpt>
      <trkpt lat="46.492448" lon="15.22051">
        <ele>1496.01</ele>
        <time>2019-07-10T11:14:06Z</time>
      </trkpt>
      <trkpt lat="46.492448" lon="15.22051">
        <ele>1496.01</ele>
        <time>2019-07-10T11:14:07Z</time>
      </trkpt>
      <trkpt lat="46.492334" lon="15.220613">
        <ele>1495.65</ele>
        <time>2019-07-10T11:14:17Z</time>
      </trkpt>
      <trkpt lat="46.492247" lon="15.220732">
        <ele>1500.96</ele>
        <time>2019-07-10T11:14:31Z</time>
      </trkpt>
      <trkpt lat="46.492153" lon="15.220966">
        <ele>1503.27</ele>
        <time>2019-07-10T11:14:52Z</time>
      </trkpt>
      <trkpt lat="46.492153" lon="15.220966">
        <ele>1503.27</ele>
        <time>2019-07-10T11:14:57Z</time>
      </trkpt>
      <trkpt lat="46.492153" lon="15.220966">
        <ele>1503.27</ele>
        <time>2019-07-10T11:14:58Z</time>
      </trkpt>
      <trkpt lat="46.491948" lon="15.221264">
        <ele>1504.41</ele>
        <time>2019-07-10T11:15:49Z</time>
      </trkpt>
      <trkpt lat="46.491749" lon="15.221567">
        <ele>1506.46</ele>
        <time>2019-07-10T11:16:10Z</time>
      </trkpt>
      <trkpt lat="46.491539" lon="15.221841">
        <ele>1517.09</ele>
        <time>2019-07-10T11:16:45Z</time>
      </trkpt>
      <trkpt lat="46.491429" lon="15.221962">
        <ele>1523.65</ele>
        <time>2019-07-10T11:16:58Z</time>
      </trkpt>
      <trkpt lat="46.491394" lon="15.222007">
        <ele>1524.45</ele>
        <time>2019-07-10T11:17:05Z</time>
      </trkpt>
      <trkpt lat="46.491292" lon="15.222157">
        <ele>1528.7</ele>
        <time>2019-07-10T11:17:20Z</time>
      </trkpt>
      <trkpt lat="46.491176" lon="15.222495">
        <ele>1535.49</ele>
        <time>2019-07-10T11:17:39Z</time>
      </trkpt>
      <trkpt lat="46.491132" lon="15.222724">
        <ele>1535.16</ele>
        <time>2019-07-10T11:17:52Z</time>
      </trkpt>
      <trkpt lat="46.491102" lon="15.22295">
        <ele>1538.93</ele>
        <time>2019-07-10T11:18:05Z</time>
      </trkpt>
      <trkpt lat="46.491112" lon="15.223176">
        <ele>1538.62</ele>
        <time>2019-07-10T11:18:19Z</time>
      </trkpt>
      <trkpt lat="46.491108" lon="15.223355">
        <ele>1538.04</ele>
        <time>2019-07-10T11:18:30Z</time>
      </trkpt>
      <trkpt lat="46.491035" lon="15.223586">
        <ele>1542.03</ele>
        <time>2019-07-10T11:18:45Z</time>
      </trkpt>
      <trkpt lat="46.491012" lon="15.223744">
        <ele>1538.88</ele>
        <time>2019-07-10T11:18:58Z</time>
      </trkpt>
      <trkpt lat="46.490963" lon="15.223927">
        <ele>1542.1</ele>
        <time>2019-07-10T11:19:10Z</time>
      </trkpt>
      <trkpt lat="46.490891" lon="15.224118">
        <ele>1544.57</ele>
        <time>2019-07-10T11:19:22Z</time>
      </trkpt>
      <trkpt lat="46.490891" lon="15.224118">
        <ele>1544.57</ele>
        <time>2019-07-10T11:19:27Z</time>
      </trkpt>
      <trkpt lat="46.490846" lon="15.224306">
        <ele>1545.62</ele>
        <time>2019-07-10T11:19:35Z</time>
      </trkpt>
      <trkpt lat="46.490833" lon="15.224565">
        <ele>1546.89</ele>
        <time>2019-07-10T11:19:51Z</time>
      </trkpt>
      <trkpt lat="46.490833" lon="15.224565">
        <ele>1546.89</ele>
        <time>2019-07-10T11:19:56Z</time>
      </trkpt>
      <trkpt lat="46.490796" lon="15.224713">
        <ele>1545.31</ele>
        <time>2019-07-10T11:20:00Z</time>
      </trkpt>
      <trkpt lat="46.490788" lon="15.224919">
        <ele>1550.86</ele>
        <time>2019-07-10T11:20:11Z</time>
      </trkpt>
      <trkpt lat="46.490775" lon="15.224987">
        <ele>1551.86</ele>
        <time>2019-07-10T11:20:14Z</time>
      </trkpt>
      <trkpt lat="46.490736" lon="15.225138">
        <ele>1553.24</ele>
        <time>2019-07-10T11:20:27Z</time>
      </trkpt>
      <trkpt lat="46.490686" lon="15.22543">
        <ele>1548.63</ele>
        <time>2019-07-10T11:20:45Z</time>
      </trkpt>
      <trkpt lat="46.490574" lon="15.225761">
        <ele>1546.68</ele>
        <time>2019-07-10T11:21:03Z</time>
      </trkpt>
      <trkpt lat="46.49045" lon="15.226009">
        <ele>1549.0</ele>
        <time>2019-07-10T11:21:19Z</time>
      </trkpt>
      <trkpt lat="46.490416" lon="15.226109">
        <ele>1551.4</ele>
        <time>2019-07-10T11:21:29Z</time>
      </trkpt>
      <trkpt lat="46.490383" lon="15.226184">
        <ele>1552.44</ele>
        <time>2019-07-10T11:21:32Z</time>
      </trkpt>
      <trkpt lat="46.490337" lon="15.226309">
        <ele>1555.77</ele>
        <time>2019-07-10T11:21:42Z</time>
      </trkpt>
      <trkpt lat="46.490294" lon="15.226396">
        <ele>1556.9</ele>
        <time>2019-07-10T11:21:46Z</time>
      </trkpt>
      <trkpt lat="46.490247" lon="15.226497">
        <ele>1555.52</ele>
        <time>2019-07-10T11:21:56Z</time>
      </trkpt>
      <trkpt lat="46.490194" lon="15.226611">
        <ele>1557.82</ele>
        <time>2019-07-10T11:22:00Z</time>
      </trkpt>
      <trkpt lat="46.490163" lon="15.226717">
        <ele>1558.05</ele>
        <time>2019-07-10T11:22:10Z</time>
      </trkpt>
      <trkpt lat="46.490021" lon="15.226964">
        <ele>1560.21</ele>
        <time>2019-07-10T11:22:27Z</time>
      </trkpt>
      <trkpt lat="46.489929" lon="15.227126">
        <ele>1559.5</ele>
        <time>2019-07-10T11:22:37Z</time>
      </trkpt>
      <trkpt lat="46.489861" lon="15.227299">
        <ele>1557.51</ele>
        <time>2019-07-10T11:22:43Z</time>
      </trkpt>
      <trkpt lat="46.489861" lon="15.227299">
        <ele>1557.51</ele>
        <time>2019-07-10T11:22:49Z</time>
      </trkpt>
      <trkpt lat="46.489861" lon="15.227299">
        <ele>1557.51</ele>
        <time>2019-07-10T11:22:50Z</time>
      </trkpt>
      <trkpt lat="46.489793" lon="15.2275">
        <ele>1555.71</ele>
        <time>2019-07-10T11:22:59Z</time>
      </trkpt>
      <trkpt lat="46.489774" lon="15.227589">
        <ele>1554.32</ele>
        <time>2019-07-10T11:23:03Z</time>
      </trkpt>
      <trkpt lat="46.489765" lon="15.227728">
        <ele>1553.87</ele>
        <time>2019-07-10T11:23:15Z</time>
      </trkpt>
      <trkpt lat="46.489694" lon="15.227924">
        <ele>1553.1</ele>
        <time>2019-07-10T11:23:29Z</time>
      </trkpt>
      <trkpt lat="46.489623" lon="15.228134">
        <ele>1553.38</ele>
        <time>2019-07-10T11:23:44Z</time>
      </trkpt>
      <trkpt lat="46.489559" lon="15.228345">
        <ele>1548.92</ele>
        <time>2019-07-10T11:23:54Z</time>
      </trkpt>
      <trkpt lat="46.489484" lon="15.228625">
        <ele>1550.46</ele>
        <time>2019-07-10T11:24:06Z</time>
      </trkpt>
      <trkpt lat="46.489388" lon="15.228856">
        <ele>1545.1</ele>
        <time>2019-07-10T11:24:15Z</time>
      </trkpt>
      <trkpt lat="46.489327" lon="15.229007">
        <ele>1543.45</ele>
        <time>2019-07-10T11:24:23Z</time>
      </trkpt>
      <trkpt lat="46.489266" lon="15.229079">
        <ele>1546.84</ele>
        <time>2019-07-10T11:24:33Z</time>
      </trkpt>
      <trkpt lat="46.489218" lon="15.229132">
        <ele>1545.96</ele>
        <time>2019-07-10T11:24:48Z</time>
      </trkpt>
      <trkpt lat="46.489112" lon="15.229271">
        <ele>1547.56</ele>
        <time>2019-07-10T11:25:01Z</time>
      </trkpt>
      <trkpt lat="46.489092" lon="15.229296">
        <ele>1548.89</ele>
        <time>2019-07-10T11:25:06Z</time>
      </trkpt>
      <trkpt lat="46.489032" lon="15.229421">
        <ele>1549.17</ele>
        <time>2019-07-10T11:25:16Z</time>
      </trkpt>
      <trkpt lat="46.488875" lon="15.229607">
        <ele>1551.61</ele>
        <time>2019-07-10T11:25:26Z</time>
      </trkpt>
      <trkpt lat="46.488836" lon="15.229658">
        <ele>1554.67</ele>
        <time>2019-07-10T11:25:34Z</time>
      </trkpt>
      <trkpt lat="46.488721" lon="15.229814">
        <ele>1553.48</ele>
        <time>2019-07-10T11:25:46Z</time>
      </trkpt>
      <trkpt lat="46.488634" lon="15.229943">
        <ele>1553.57</ele>
        <time>2019-07-10T11:25:52Z</time>
      </trkpt>
      <trkpt lat="46.488569" lon="15.230001">
        <ele>1553.15</ele>
        <time>2019-07-10T11:26:04Z</time>
      </trkpt>
      <trkpt lat="46.488427" lon="15.230225">
        <ele>1557.36</ele>
        <time>2019-07-10T11:26:22Z</time>
      </trkpt>
      <trkpt lat="46.488333" lon="15.230384">
        <ele>1556.84</ele>
        <time>2019-07-10T11:26:30Z</time>
      </trkpt>
      <trkpt lat="46.488312" lon="15.230437">
        <ele>1555.08</ele>
        <time>2019-07-10T11:26:33Z</time>
      </trkpt>
      <trkpt lat="46.488266" lon="15.230569">
        <ele>1553.45</ele>
        <time>2019-07-10T11:26:44Z</time>
      </trkpt>
      <trkpt lat="46.488222" lon="15.230684">
        <ele>1551.85</ele>
        <time>2019-07-10T11:26:50Z</time>
      </trkpt>
      <trkpt lat="46.488159" lon="15.230813">
        <ele>1552.13</ele>
        <time>2019-07-10T11:27:01Z</time>
      </trkpt>
      <trkpt lat="46.488051" lon="15.231009">
        <ele>1556.89</ele>
        <time>2019-07-10T11:27:17Z</time>
      </trkpt>
      <trkpt lat="46.487972" lon="15.231205">
        <ele>1558.77</ele>
        <time>2019-07-10T11:27:33Z</time>
      </trkpt>
      <trkpt lat="46.487874" lon="15.231391">
        <ele>1559.75</ele>
        <time>2019-07-10T11:27:48Z</time>
      </trkpt>
      <trkpt lat="46.487791" lon="15.231564">
        <ele>1563.6</ele>
        <time>2019-07-10T11:28:05Z</time>
      </trkpt>
      <trkpt lat="46.487542" lon="15.231822">
        <ele>1567.11</ele>
        <time>2019-07-10T11:28:46Z</time>
      </trkpt>
      <trkpt lat="46.487375" lon="15.231907">
        <ele>1571.21</ele>
        <time>2019-07-10T11:29:03Z</time>
      </trkpt>
      <trkpt lat="46.487306" lon="15.232118">
        <ele>1573.45</ele>
        <time>2019-07-10T11:29:20Z</time>
      </trkpt>
      <trkpt lat="46.487202" lon="15.232258">
        <ele>1578.28</ele>
        <time>2019-07-10T11:29:36Z</time>
      </trkpt>
      <trkpt lat="46.487071" lon="15.23236">
        <ele>1580.54</ele>
        <time>2019-07-10T11:29:54Z</time>
      </trkpt>
      <trkpt lat="46.486978" lon="15.23239">
        <ele>1581.0</ele>
        <time>2019-07-10T11:30:02Z</time>
      </trkpt>
      <trkpt lat="46.486884" lon="15.232464">
        <ele>1580.39</ele>
        <time>2019-07-10T11:30:16Z</time>
      </trkpt>
      <trkpt lat="46.486749" lon="15.232623">
        <ele>1584.94</ele>
        <time>2019-07-10T11:30:37Z</time>
      </trkpt>
      <trkpt lat="46.486637" lon="15.232766">
        <ele>1584.28</ele>
        <time>2019-07-10T11:30:52Z</time>
      </trkpt>
      <trkpt lat="46.486538" lon="15.232848">
        <ele>1587.64</ele>
        <time>2019-07-10T11:31:04Z</time>
      </trkpt>
      <trkpt lat="46.48648" lon="15.232831">
        <ele>1589.77</ele>
        <time>2019-07-10T11:31:10Z</time>
      </trkpt>
      <trkpt lat="46.486538" lon="15.232848">
        <ele>1587.64</ele>
        <time>2019-07-10T11:31:19Z</time>
      </trkpt>
      <trkpt lat="46.486222" lon="15.232981">
        <ele>1584.15</ele>
        <time>2019-07-10T11:32:20Z</time>
      </trkpt>
      <trkpt lat="46.486017" lon="15.233038">
        <ele>1581.01</ele>
        <time>2019-07-10T11:32:30Z</time>
      </trkpt>
      <trkpt lat="46.485914" lon="15.23307">
        <ele>1578.69</ele>
        <time>2019-07-10T11:32:37Z</time>
      </trkpt>
      <trkpt lat="46.485914" lon="15.23307">
        <ele>1578.69</ele>
        <time>2019-07-10T11:32:44Z</time>
      </trkpt>
      <trkpt lat="46.485914" lon="15.23307">
        <ele>1578.69</ele>
        <time>2019-07-10T11:32:45Z</time>
      </trkpt>
      <trkpt lat="46.485803" lon="15.23314">
        <ele>1580.38</ele>
        <time>2019-07-10T11:32:56Z</time>
      </trkpt>
      <trkpt lat="46.48576" lon="15.233166">
        <ele>1581.84</ele>
        <time>2019-07-10T11:33:00Z</time>
      </trkpt>
      <trkpt lat="46.485721" lon="15.233144">
        <ele>1584.62</ele>
        <time>2019-07-10T11:33:07Z</time>
      </trkpt>
      <trkpt lat="46.485791" lon="15.233467">
        <ele>1588.14</ele>
        <time>2019-07-10T11:36:16Z</time>
      </trkpt>
      <trkpt lat="46.485773" lon="15.233646">
        <ele>1582.96</ele>
        <time>2019-07-10T11:36:28Z</time>
      </trkpt>
      <trkpt lat="46.485739" lon="15.233898">
        <ele>1579.51</ele>
        <time>2019-07-10T11:36:40Z</time>
      </trkpt>
      <trkpt lat="46.485814" lon="15.23405">
        <ele>1576.23</ele>
        <time>2019-07-10T11:36:50Z</time>
      </trkpt>
      <trkpt lat="46.485814" lon="15.23405">
        <ele>1576.23</ele>
        <time>2019-07-10T11:36:58Z</time>
      </trkpt>
      <trkpt lat="46.485814" lon="15.23405">
        <ele>1576.23</ele>
        <time>2019-07-10T11:36:59Z</time>
      </trkpt>
      <trkpt lat="46.485902" lon="15.234253">
        <ele>1580.99</ele>
        <time>2019-07-10T11:37:09Z</time>
      </trkpt>
      <trkpt lat="46.485957" lon="15.234419">
        <ele>1581.71</ele>
        <time>2019-07-10T11:37:18Z</time>
      </trkpt>
      <trkpt lat="46.486015" lon="15.23455">
        <ele>1586.52</ele>
        <time>2019-07-10T11:37:31Z</time>
      </trkpt>
      <trkpt lat="46.486179" lon="15.234672">
        <ele>1582.83</ele>
        <time>2019-07-10T11:37:40Z</time>
      </trkpt>
      <trkpt lat="46.486178" lon="15.23505">
        <ele>1584.42</ele>
        <time>2019-07-10T11:37:52Z</time>
      </trkpt>
      <trkpt lat="46.486219" lon="15.235265">
        <ele>1583.09</ele>
        <time>2019-07-10T11:38:05Z</time>
      </trkpt>
      <trkpt lat="46.486214" lon="15.235564">
        <ele>1579.54</ele>
        <time>2019-07-10T11:38:21Z</time>
      </trkpt>
      <trkpt lat="46.486144" lon="15.235804">
        <ele>1580.38</ele>
        <time>2019-07-10T11:38:30Z</time>
      </trkpt>
      <trkpt lat="46.486161" lon="15.235901">
        <ele>1581.39</ele>
        <time>2019-07-10T11:38:46Z</time>
      </trkpt>
      <trkpt lat="46.486242" lon="15.236036">
        <ele>1583.13</ele>
        <time>2019-07-10T11:38:57Z</time>
      </trkpt>
      <trkpt lat="46.486257" lon="15.236133">
        <ele>1585.06</ele>
        <time>2019-07-10T11:39:00Z</time>
      </trkpt>
      <trkpt lat="46.486286" lon="15.236234">
        <ele>1582.59</ele>
        <time>2019-07-10T11:39:10Z</time>
      </trkpt>
      <trkpt lat="46.486428" lon="15.236502">
        <ele>1581.76</ele>
        <time>2019-07-10T11:39:22Z</time>
      </trkpt>
      <trkpt lat="46.486466" lon="15.23654">
        <ele>1583.06</ele>
        <time>2019-07-10T11:39:26Z</time>
      </trkpt>
      <trkpt lat="46.48649" lon="15.236584">
        <ele>1584.95</ele>
        <time>2019-07-10T11:39:35Z</time>
      </trkpt>
      <trkpt lat="46.486572" lon="15.236697">
        <ele>1587.4</ele>
        <time>2019-07-10T11:39:43Z</time>
      </trkpt>
      <trkpt lat="46.486692" lon="15.236884">
        <ele>1584.47</ele>
        <time>2019-07-10T11:40:00Z</time>
      </trkpt>
      <trkpt lat="46.486824" lon="15.237008">
        <ele>1592.03</ele>
        <time>2019-07-10T11:40:11Z</time>
      </trkpt>
      <trkpt lat="46.487026" lon="15.237149">
        <ele>1586.71</ele>
        <time>2019-07-10T11:40:24Z</time>
      </trkpt>
      <trkpt lat="46.487145" lon="15.237214">
        <ele>1589.28</ele>
        <time>2019-07-10T11:40:31Z</time>
      </trkpt>
      <trkpt lat="46.487145" lon="15.237214">
        <ele>1589.28</ele>
        <time>2019-07-10T11:40:37Z</time>
      </trkpt>
      <trkpt lat="46.487145" lon="15.237214">
        <ele>1589.28</ele>
        <time>2019-07-10T11:40:39Z</time>
      </trkpt>
      <trkpt lat="46.487232" lon="15.237411">
        <ele>1589.07</ele>
        <time>2019-07-10T11:40:54Z</time>
      </trkpt>
      <trkpt lat="46.487374" lon="15.237548">
        <ele>1584.44</ele>
        <time>2019-07-10T11:41:06Z</time>
      </trkpt>
      <trkpt lat="46.487566" lon="15.237658">
        <ele>1577.43</ele>
        <time>2019-07-10T11:41:19Z</time>
      </trkpt>
      <trkpt lat="46.487725" lon="15.23782">
        <ele>1577.67</ele>
        <time>2019-07-10T11:41:29Z</time>
      </trkpt>
      <trkpt lat="46.487734" lon="15.237891">
        <ele>1577.44</ele>
        <time>2019-07-10T11:41:32Z</time>
      </trkpt>
      <trkpt lat="46.487764" lon="15.238012">
        <ele>1580.29</ele>
        <time>2019-07-10T11:41:44Z</time>
      </trkpt>
      <trkpt lat="46.487771" lon="15.238091">
        <ele>1579.31</ele>
        <time>2019-07-10T11:41:51Z</time>
      </trkpt>
      <trkpt lat="46.487816" lon="15.238217">
        <ele>1572.88</ele>
        <time>2019-07-10T11:42:08Z</time>
      </trkpt>
      <trkpt lat="46.487886" lon="15.238541">
        <ele>1574.32</ele>
        <time>2019-07-10T11:42:25Z</time>
      </trkpt>
      <trkpt lat="46.487927" lon="15.238757">
        <ele>1577.32</ele>
        <time>2019-07-10T11:42:38Z</time>
      </trkpt>
      <trkpt lat="46.487945" lon="15.238847">
        <ele>1577.76</ele>
        <time>2019-07-10T11:42:44Z</time>
      </trkpt>
      <trkpt lat="46.487982" lon="15.238968">
        <ele>1574.02</ele>
        <time>2019-07-10T11:42:55Z</time>
      </trkpt>
      <trkpt lat="46.488054" lon="15.239249">
        <ele>1573.22</ele>
        <time>2019-07-10T11:43:09Z</time>
      </trkpt>
      <trkpt lat="46.488107" lon="15.23958">
        <ele>1568.69</ele>
        <time>2019-07-10T11:43:25Z</time>
      </trkpt>
      <trkpt lat="46.488137" lon="15.239793">
        <ele>1566.2</ele>
        <time>2019-07-10T11:43:39Z</time>
      </trkpt>
      <trkpt lat="46.488154" lon="15.240004">
        <ele>1568.23</ele>
        <time>2019-07-10T11:43:53Z</time>
      </trkpt>
      <trkpt lat="46.48822" lon="15.240182">
        <ele>1561.51</ele>
        <time>2019-07-10T11:44:01Z</time>
      </trkpt>
      <trkpt lat="46.488315" lon="15.240405">
        <ele>1558.45</ele>
        <time>2019-07-10T11:44:14Z</time>
      </trkpt>
      <trkpt lat="46.488383" lon="15.240736">
        <ele>1555.85</ele>
        <time>2019-07-10T11:44:28Z</time>
      </trkpt>
      <trkpt lat="46.488477" lon="15.240968">
        <ele>1555.34</ele>
        <time>2019-07-10T11:44:49Z</time>
      </trkpt>
      <trkpt lat="46.488541" lon="15.241169">
        <ele>1550.8</ele>
        <time>2019-07-10T11:45:03Z</time>
      </trkpt>
      <trkpt lat="46.488662" lon="15.24143">
        <ele>1549.66</ele>
        <time>2019-07-10T11:45:15Z</time>
      </trkpt>
      <trkpt lat="46.488706" lon="15.241589">
        <ele>1554.44</ele>
        <time>2019-07-10T11:45:23Z</time>
      </trkpt>
      <trkpt lat="46.488794" lon="15.241742">
        <ele>1555.11</ele>
        <time>2019-07-10T11:45:35Z</time>
      </trkpt>
      <trkpt lat="46.488997" lon="15.241903">
        <ele>1555.71</ele>
        <time>2019-07-10T11:45:50Z</time>
      </trkpt>
      <trkpt lat="46.489039" lon="15.241997">
        <ele>1552.68</ele>
        <time>2019-07-10T11:45:56Z</time>
      </trkpt>
      <trkpt lat="46.489116" lon="15.242074">
        <ele>1554.66</ele>
        <time>2019-07-10T11:46:10Z</time>
      </trkpt>
      <trkpt lat="46.489185" lon="15.242214">
        <ele>1547.06</ele>
        <time>2019-07-10T11:46:24Z</time>
      </trkpt>
      <trkpt lat="46.489296" lon="15.24251">
        <ele>1541.04</ele>
        <time>2019-07-10T11:46:45Z</time>
      </trkpt>
      <trkpt lat="46.48936" lon="15.242701">
        <ele>1541.79</ele>
        <time>2019-07-10T11:47:00Z</time>
      </trkpt>
      <trkpt lat="46.489397" lon="15.242909">
        <ele>1546.05</ele>
        <time>2019-07-10T11:47:11Z</time>
      </trkpt>
      <trkpt lat="46.48947" lon="15.24311">
        <ele>1543.18</ele>
        <time>2019-07-10T11:47:29Z</time>
      </trkpt>
      <trkpt lat="46.489556" lon="15.243296">
        <ele>1543.86</ele>
        <time>2019-07-10T11:47:42Z</time>
      </trkpt>
      <trkpt lat="46.489674" lon="15.243552">
        <ele>1540.96</ele>
        <time>2019-07-10T11:47:56Z</time>
      </trkpt>
      <trkpt lat="46.489753" lon="15.243723">
        <ele>1532.18</ele>
        <time>2019-07-10T11:48:07Z</time>
      </trkpt>
      <trkpt lat="46.489857" lon="15.243944">
        <ele>1524.32</ele>
        <time>2019-07-10T11:48:18Z</time>
      </trkpt>
      <trkpt lat="46.489907" lon="15.244184">
        <ele>1523.54</ele>
        <time>2019-07-10T11:48:26Z</time>
      </trkpt>
      <trkpt lat="46.489907" lon="15.244184">
        <ele>1523.54</ele>
        <time>2019-07-10T11:48:32Z</time>
      </trkpt>
      <trkpt lat="46.489907" lon="15.244184">
        <ele>1523.54</ele>
        <time>2019-07-10T11:48:34Z</time>
      </trkpt>
      <trkpt lat="46.490041" lon="15.244526">
        <ele>1517.5</ele>
        <time>2019-07-10T11:49:11Z</time>
      </trkpt>
      <trkpt lat="46.490087" lon="15.244708">
        <ele>1518.28</ele>
        <time>2019-07-10T11:49:18Z</time>
      </trkpt>
      <trkpt lat="46.490222" lon="15.244981">
        <ele>1521.09</ele>
        <time>2019-07-10T11:49:36Z</time>
      </trkpt>
      <trkpt lat="46.49028" lon="15.245276">
        <ele>1522.73</ele>
        <time>2019-07-10T11:49:48Z</time>
      </trkpt>
      <trkpt lat="46.49028" lon="15.245276">
        <ele>1522.73</ele>
        <time>2019-07-10T11:49:53Z</time>
      </trkpt>
      <trkpt lat="46.49028" lon="15.245276">
        <ele>1522.73</ele>
        <time>2019-07-10T11:49:54Z</time>
      </trkpt>
      <trkpt lat="46.490374" lon="15.245431">
        <ele>1522.2</ele>
        <time>2019-07-10T11:50:07Z</time>
      </trkpt>
      <trkpt lat="46.490463" lon="15.245629">
        <ele>1527.58</ele>
        <time>2019-07-10T11:50:20Z</time>
      </trkpt>
      <trkpt lat="46.490508" lon="15.245767">
        <ele>1527.59</ele>
        <time>2019-07-10T11:50:30Z</time>
      </trkpt>
      <trkpt lat="46.490624" lon="15.245943">
        <ele>1526.72</ele>
        <time>2019-07-10T11:50:48Z</time>
      </trkpt>
      <trkpt lat="46.490708" lon="15.246284">
        <ele>1531.63</ele>
        <time>2019-07-10T11:51:07Z</time>
      </trkpt>
      <trkpt lat="46.490736" lon="15.246449">
        <ele>1533.66</ele>
        <time>2019-07-10T11:51:15Z</time>
      </trkpt>
      <trkpt lat="46.490782" lon="15.246564">
        <ele>1531.52</ele>
        <time>2019-07-10T11:51:25Z</time>
      </trkpt>
      <trkpt lat="46.490808" lon="15.246657">
        <ele>1534.06</ele>
        <time>2019-07-10T11:51:28Z</time>
      </trkpt>
      <trkpt lat="46.490843" lon="15.246752">
        <ele>1535.78</ele>
        <time>2019-07-10T11:51:40Z</time>
      </trkpt>
      <trkpt lat="46.490923" lon="15.247066">
        <ele>1538.05</ele>
        <time>2019-07-10T11:51:56Z</time>
      </trkpt>
      <trkpt lat="46.491022" lon="15.247362">
        <ele>1534.74</ele>
        <time>2019-07-10T11:52:13Z</time>
      </trkpt>
      <trkpt lat="46.491072" lon="15.247482">
        <ele>1534.81</ele>
        <time>2019-07-10T11:52:22Z</time>
      </trkpt>
      <trkpt lat="46.491089" lon="15.247591">
        <ele>1538.11</ele>
        <time>2019-07-10T11:52:34Z</time>
      </trkpt>
      <trkpt lat="46.491146" lon="15.247772">
        <ele>1540.37</ele>
        <time>2019-07-10T11:52:48Z</time>
      </trkpt>
      <trkpt lat="46.491198" lon="15.248">
        <ele>1544.72</ele>
        <time>2019-07-10T11:53:06Z</time>
      </trkpt>
      <trkpt lat="46.491198" lon="15.248">
        <ele>1544.72</ele>
        <time>2019-07-10T11:53:13Z</time>
      </trkpt>
      <trkpt lat="46.491222" lon="15.248133">
        <ele>1547.13</ele>
        <time>2019-07-10T11:53:18Z</time>
      </trkpt>
      <trkpt lat="46.491276" lon="15.248259">
        <ele>1546.88</ele>
        <time>2019-07-10T11:53:28Z</time>
      </trkpt>
      <trkpt lat="46.491356" lon="15.248335">
        <ele>1545.63</ele>
        <time>2019-07-10T11:53:44Z</time>
      </trkpt>
      <trkpt lat="46.491489" lon="15.248479">
        <ele>1548.98</ele>
        <time>2019-07-10T11:54:02Z</time>
      </trkpt>
      <trkpt lat="46.491601" lon="15.248579">
        <ele>1541.17</ele>
        <time>2019-07-10T11:54:11Z</time>
      </trkpt>
      <trkpt lat="46.491791" lon="15.248725">
        <ele>1544.81</ele>
        <time>2019-07-10T11:54:25Z</time>
      </trkpt>
      <trkpt lat="46.491893" lon="15.248891">
        <ele>1546.8</ele>
        <time>2019-07-10T11:54:42Z</time>
      </trkpt>
      <trkpt lat="46.492022" lon="15.249043">
        <ele>1551.5</ele>
        <time>2019-07-10T11:54:53Z</time>
      </trkpt>
      <trkpt lat="46.492078" lon="15.249131">
        <ele>1550.73</ele>
        <time>2019-07-10T11:55:00Z</time>
      </trkpt>
      <trkpt lat="46.492114" lon="15.24921">
        <ele>1551.16</ele>
        <time>2019-07-10T11:55:04Z</time>
      </trkpt>
      <trkpt lat="46.492168" lon="15.249329">
        <ele>1550.64</ele>
        <time>2019-07-10T11:55:16Z</time>
      </trkpt>
      <trkpt lat="46.492213" lon="15.24938">
        <ele>1546.23</ele>
        <time>2019-07-10T11:55:19Z</time>
      </trkpt>
      <trkpt lat="46.49227" lon="15.249494">
        <ele>1550.02</ele>
        <time>2019-07-10T11:55:31Z</time>
      </trkpt>
      <trkpt lat="46.492352" lon="15.249718">
        <ele>1551.46</ele>
        <time>2019-07-10T11:55:47Z</time>
      </trkpt>
      <trkpt lat="46.492499" lon="15.250005">
        <ele>1548.94</ele>
        <time>2019-07-10T11:56:03Z</time>
      </trkpt>
      <trkpt lat="46.492574" lon="15.250221">
        <ele>1553.26</ele>
        <time>2019-07-10T11:56:17Z</time>
      </trkpt>
      <trkpt lat="46.492611" lon="15.250271">
        <ele>1554.99</ele>
        <time>2019-07-10T11:56:20Z</time>
      </trkpt>
      <trkpt lat="46.492674" lon="15.250369">
        <ele>1551.91</ele>
        <time>2019-07-10T11:56:35Z</time>
      </trkpt>
      <trkpt lat="46.492841" lon="15.250593">
        <ele>1549.33</ele>
        <time>2019-07-10T11:56:54Z</time>
      </trkpt>
      <trkpt lat="46.492949" lon="15.250792">
        <ele>1552.55</ele>
        <time>2019-07-10T11:57:10Z</time>
      </trkpt>
      <trkpt lat="46.493069" lon="15.250973">
        <ele>1555.08</ele>
        <time>2019-07-10T11:57:18Z</time>
      </trkpt>
      <trkpt lat="46.493136" lon="15.251024">
        <ele>1555.13</ele>
        <time>2019-07-10T11:57:22Z</time>
      </trkpt>
      <trkpt lat="46.493159" lon="15.251099">
        <ele>1553.6</ele>
        <time>2019-07-10T11:57:31Z</time>
      </trkpt>
      <trkpt lat="46.493353" lon="15.251291">
        <ele>1545.09</ele>
        <time>2019-07-10T11:57:56Z</time>
      </trkpt>
      <trkpt lat="46.493416" lon="15.251396">
        <ele>1547.54</ele>
        <time>2019-07-10T11:58:07Z</time>
      </trkpt>
      <trkpt lat="46.493514" lon="15.251529">
        <ele>1546.45</ele>
        <time>2019-07-10T11:58:18Z</time>
      </trkpt>
      <trkpt lat="46.49359" lon="15.25164">
        <ele>1549.43</ele>
        <time>2019-07-10T11:58:27Z</time>
      </trkpt>
      <trkpt lat="46.493609" lon="15.251665">
        <ele>1550.54</ele>
        <time>2019-07-10T11:58:30Z</time>
      </trkpt>
      <trkpt lat="46.493673" lon="15.251761">
        <ele>1553.09</ele>
        <time>2019-07-10T11:58:43Z</time>
      </trkpt>
      <trkpt lat="46.493807" lon="15.251847">
        <ele>1554.59</ele>
        <time>2019-07-10T11:58:56Z</time>
      </trkpt>
      <trkpt lat="46.493897" lon="15.251965">
        <ele>1551.82</ele>
        <time>2019-07-10T11:59:09Z</time>
      </trkpt>
      <trkpt lat="46.494043" lon="15.252113">
        <ele>1558.62</ele>
        <time>2019-07-10T11:59:27Z</time>
      </trkpt>
      <trkpt lat="46.494091" lon="15.252142">
        <ele>1557.11</ele>
        <time>2019-07-10T11:59:32Z</time>
      </trkpt>
      <trkpt lat="46.494126" lon="15.252117">
        <ele>1557.11</ele>
        <time>2019-07-10T11:59:41Z</time>
      </trkpt>
      <trkpt lat="46.49421" lon="15.252211">
        <ele>1557.13</ele>
        <time>2019-07-10T12:00:03Z</time>
      </trkpt>
      <trkpt lat="46.494326" lon="15.252323">
        <ele>1562.11</ele>
        <time>2019-07-10T12:00:16Z</time>
      </trkpt>
      <trkpt lat="46.494477" lon="15.252461">
        <ele>1564.93</ele>
        <time>2019-07-10T12:00:34Z</time>
      </trkpt>
      <trkpt lat="46.494583" lon="15.252639">
        <ele>1562.58</ele>
        <time>2019-07-10T12:00:50Z</time>
      </trkpt>
      <trkpt lat="46.494583" lon="15.252639">
        <ele>1562.58</ele>
        <time>2019-07-10T12:00:57Z</time>
      </trkpt>
      <trkpt lat="46.494639" lon="15.252755">
        <ele>1569.26</ele>
        <time>2019-07-10T12:01:03Z</time>
      </trkpt>
      <trkpt lat="46.494759" lon="15.252905">
        <ele>1569.27</ele>
        <time>2019-07-10T12:01:16Z</time>
      </trkpt>
      <trkpt lat="46.494897" lon="15.253023">
        <ele>1569.88</ele>
        <time>2019-07-10T12:01:35Z</time>
      </trkpt>
      <trkpt lat="46.495059" lon="15.253256">
        <ele>1575.22</ele>
        <time>2019-07-10T12:01:56Z</time>
      </trkpt>
      <trkpt lat="46.495148" lon="15.253427">
        <ele>1573.22</ele>
        <time>2019-07-10T12:02:11Z</time>
      </trkpt>
      <trkpt lat="46.49534" lon="15.253685">
        <ele>1577.5</ele>
        <time>2019-07-10T12:02:41Z</time>
      </trkpt>
      <trkpt lat="46.495456" lon="15.253727">
        <ele>1579.15</ele>
        <time>2019-07-10T12:02:49Z</time>
      </trkpt>
      <trkpt lat="46.495607" lon="15.253747">
        <ele>1576.84</ele>
        <time>2019-07-10T12:03:04Z</time>
      </trkpt>
      <trkpt lat="46.495734" lon="15.253809">
        <ele>1580.99</ele>
        <time>2019-07-10T12:03:20Z</time>
      </trkpt>
      <trkpt lat="46.495775" lon="15.253881">
        <ele>1579.74</ele>
        <time>2019-07-10T12:03:23Z</time>
      </trkpt>
      <trkpt lat="46.495898" lon="15.254005">
        <ele>1580.42</ele>
        <time>2019-07-10T12:03:37Z</time>
      </trkpt>
      <trkpt lat="46.49597" lon="15.254138">
        <ele>1580.54</ele>
        <time>2019-07-10T12:03:44Z</time>
      </trkpt>
      <trkpt lat="46.496015" lon="15.254166">
        <ele>1582.97</ele>
        <time>2019-07-10T12:03:50Z</time>
      </trkpt>
      <trkpt lat="46.49609" lon="15.254202">
        <ele>1581.29</ele>
        <time>2019-07-10T12:04:02Z</time>
      </trkpt>
      <trkpt lat="46.496196" lon="15.254297">
        <ele>1579.53</ele>
        <time>2019-07-10T12:04:14Z</time>
      </trkpt>
      <trkpt lat="46.496281" lon="15.254367">
        <ele>1579.8</ele>
        <time>2019-07-10T12:04:25Z</time>
      </trkpt>
      <trkpt lat="46.496409" lon="15.254477">
        <ele>1577.59</ele>
        <time>2019-07-10T12:04:36Z</time>
      </trkpt>
      <trkpt lat="46.496409" lon="15.254477">
        <ele>1577.59</ele>
        <time>2019-07-10T12:04:43Z</time>
      </trkpt>
      <trkpt lat="46.496525" lon="15.25459">
        <ele>1575.19</ele>
        <time>2019-07-10T12:04:52Z</time>
      </trkpt>
      <trkpt lat="46.496613" lon="15.254658">
        <ele>1574.35</ele>
        <time>2019-07-10T12:04:57Z</time>
      </trkpt>
      <trkpt lat="46.496683" lon="15.254738">
        <ele>1575.5</ele>
        <time>2019-07-10T12:05:09Z</time>
      </trkpt>
      <trkpt lat="46.496844" lon="15.254857">
        <ele>1570.9</ele>
        <time>2019-07-10T12:05:25Z</time>
      </trkpt>
      <trkpt lat="46.496983" lon="15.25496">
        <ele>1562.64</ele>
        <time>2019-07-10T12:05:37Z</time>
      </trkpt>
      <trkpt lat="46.496983" lon="15.25496">
        <ele>1562.64</ele>
        <time>2019-07-10T12:05:45Z</time>
      </trkpt>
      <trkpt lat="46.496983" lon="15.25496">
        <ele>1562.64</ele>
        <time>2019-07-10T12:05:46Z</time>
      </trkpt>
      <trkpt lat="46.497117" lon="15.25507">
        <ele>1563.11</ele>
        <time>2019-07-10T12:05:55Z</time>
      </trkpt>
      <trkpt lat="46.497263" lon="15.255128">
        <ele>1556.0</ele>
        <time>2019-07-10T12:06:06Z</time>
      </trkpt>
      <trkpt lat="46.497368" lon="15.255261">
        <ele>1556.45</ele>
        <time>2019-07-10T12:06:19Z</time>
      </trkpt>
      <trkpt lat="46.497451" lon="15.255439">
        <ele>1553.94</ele>
        <time>2019-07-10T12:06:30Z</time>
      </trkpt>
      <trkpt lat="46.497522" lon="15.255699">
        <ele>1553.14</ele>
        <time>2019-07-10T12:06:40Z</time>
      </trkpt>
      <trkpt lat="46.497535" lon="15.255725">
        <ele>1553.83</ele>
        <time>2019-07-10T12:06:42Z</time>
      </trkpt>
      <trkpt lat="46.497535" lon="15.255725">
        <time>2019-07-10T12:06:56Z</time>
      </trkpt>
    </trkseg>
    <trkseg>
      <trkpt lat="46.497535" lon="15.255725">
        <time>2019-07-10T12:06:56Z</time>
      </trkpt>
    </trkseg>
    <trkseg>
      <trkpt lat="46.497867" lon="15.25579">
        <time>2019-07-11T06:07:44Z</time>
      </trkpt>
      <trkpt lat="46.497867" lon="15.25579">
        <ele>1558.56</ele>
        <time>2019-07-11T06:07:46Z</time>
      </trkpt>
      <trkpt lat="46.497582" lon="15.255743">
        <ele>1555.97</ele>
        <time>2019-07-11T06:08:42Z</time>
      </trkpt>
      <trkpt lat="46.497467" lon="15.255705">
        <ele>1556.67</ele>
        <time>2019-07-11T06:08:56Z</time>
      </trkpt>
      <trkpt lat="46.497238" lon="15.255937">
        <ele>1554.81</ele>
        <time>2019-07-11T06:09:45Z</time>
      </trkpt>
      <trkpt lat="46.497161" lon="15.256078">
        <ele>1553.79</ele>
        <time>2019-07-11T06:09:55Z</time>
      </trkpt>
      <trkpt lat="46.497046" lon="15.256313">
        <ele>1552.49</ele>
        <time>2019-07-11T06:10:13Z</time>
      </trkpt>
      <trkpt lat="46.496896" lon="15.25658">
        <ele>1550.29</ele>
        <time>2019-07-11T06:10:30Z</time>
      </trkpt>
      <trkpt lat="46.496785" lon="15.256788">
        <ele>1544.8</ele>
        <time>2019-07-11T06:10:45Z</time>
      </trkpt>
      <trkpt lat="46.496677" lon="15.256967">
        <ele>1536.89</ele>
        <time>2019-07-11T06:10:58Z</time>
      </trkpt>
      <trkpt lat="46.496562" lon="15.25712">
        <ele>1534.4</ele>
        <time>2019-07-11T06:11:06Z</time>
      </trkpt>
      <trkpt lat="46.496444" lon="15.257267">
        <ele>1531.85</ele>
        <time>2019-07-11T06:11:15Z</time>
      </trkpt>
      <trkpt lat="46.496426" lon="15.257508">
        <ele>1533.25</ele>
        <time>2019-07-11T06:11:28Z</time>
      </trkpt>
      <trkpt lat="46.496322" lon="15.257745">
        <ele>1534.82</ele>
        <time>2019-07-11T06:11:41Z</time>
      </trkpt>
      <trkpt lat="46.496322" lon="15.257745">
        <ele>1534.82</ele>
        <time>2019-07-11T06:11:49Z</time>
      </trkpt>
      <trkpt lat="46.496264" lon="15.257844">
        <ele>1535.46</ele>
        <time>2019-07-11T06:11:56Z</time>
      </trkpt>
      <trkpt lat="46.495983" lon="15.258222">
        <ele>1533.27</ele>
        <time>2019-07-11T06:12:12Z</time>
      </trkpt>
      <trkpt lat="46.495845" lon="15.258392">
        <ele>1526.45</ele>
        <time>2019-07-11T06:12:21Z</time>
      </trkpt>
      <trkpt lat="46.495828" lon="15.258556">
        <ele>1523.43</ele>
        <time>2019-07-11T06:12:30Z</time>
      </trkpt>
      <trkpt lat="46.495798" lon="15.258677">
        <ele>1525.78</ele>
        <time>2019-07-11T06:12:37Z</time>
      </trkpt>
      <trkpt lat="46.495824" lon="15.25883">
        <ele>1528.96</ele>
        <time>2019-07-11T06:12:52Z</time>
      </trkpt>
      <trkpt lat="46.495748" lon="15.259293">
        <ele>1525.35</ele>
        <time>2019-07-11T06:13:09Z</time>
      </trkpt>
      <trkpt lat="46.495726" lon="15.259447">
        <ele>1521.69</ele>
        <time>2019-07-11T06:13:20Z</time>
      </trkpt>
      <trkpt lat="46.495635" lon="15.259718">
        <ele>1527.49</ele>
        <time>2019-07-11T06:13:38Z</time>
      </trkpt>
      <trkpt lat="46.495537" lon="15.25985">
        <ele>1529.72</ele>
        <time>2019-07-11T06:13:47Z</time>
      </trkpt>
      <trkpt lat="46.495494" lon="15.259934">
        <ele>1531.1</ele>
        <time>2019-07-11T06:14:00Z</time>
      </trkpt>
      <trkpt lat="46.49526" lon="15.260089">
        <ele>1529.82</ele>
        <time>2019-07-11T06:14:12Z</time>
      </trkpt>
      <trkpt lat="46.495219" lon="15.260167">
        <ele>1532.67</ele>
        <time>2019-07-11T06:14:28Z</time>
      </trkpt>
      <trkpt lat="46.495109" lon="15.260308">
        <ele>1533.93</ele>
        <time>2019-07-11T06:14:37Z</time>
      </trkpt>
      <trkpt lat="46.495049" lon="15.260501">
        <ele>1533.39</ele>
        <time>2019-07-11T06:14:49Z</time>
      </trkpt>
      <trkpt lat="46.494971" lon="15.260632">
        <ele>1533.72</ele>
        <time>2019-07-11T06:14:59Z</time>
      </trkpt>
      <trkpt lat="46.494971" lon="15.260632">
        <ele>1533.72</ele>
        <time>2019-07-11T06:15:06Z</time>
      </trkpt>
      <trkpt lat="46.494898" lon="15.26078">
        <ele>1537.39</ele>
        <time>2019-07-11T06:15:11Z</time>
      </trkpt>
      <trkpt lat="46.494898" lon="15.26078">
        <ele>1537.39</ele>
        <time>2019-07-11T06:15:16Z</time>
      </trkpt>
      <trkpt lat="46.494898" lon="15.26078">
        <ele>1537.39</ele>
        <time>2019-07-11T06:15:17Z</time>
      </trkpt>
      <trkpt lat="46.494817" lon="15.26095">
        <ele>1540.57</ele>
        <time>2019-07-11T06:15:23Z</time>
      </trkpt>
      <trkpt lat="46.494817" lon="15.26095">
        <ele>1540.57</ele>
        <time>2019-07-11T06:15:28Z</time>
      </trkpt>
      <trkpt lat="46.49475" lon="15.261071">
        <ele>1542.85</ele>
        <time>2019-07-11T06:15:33Z</time>
      </trkpt>
      <trkpt lat="46.494682" lon="15.261223">
        <ele>1538.75</ele>
        <time>2019-07-11T06:15:46Z</time>
      </trkpt>
      <trkpt lat="46.494652" lon="15.261266">
        <ele>1537.34</ele>
        <time>2019-07-11T06:15:50Z</time>
      </trkpt>
      <trkpt lat="46.494574" lon="15.26138">
        <ele>1536.02</ele>
        <time>2019-07-11T06:16:04Z</time>
      </trkpt>
      <trkpt lat="46.494472" lon="15.261554">
        <ele>1540.62</ele>
        <time>2019-07-11T06:16:22Z</time>
      </trkpt>
      <trkpt lat="46.494408" lon="15.261953">
        <ele>1541.47</ele>
        <time>2019-07-11T06:16:58Z</time>
      </trkpt>
      <trkpt lat="46.494238" lon="15.262253">
        <ele>1553.66</ele>
        <time>2019-07-11T06:18:08Z</time>
      </trkpt>
      <trkpt lat="46.494105" lon="15.262626">
        <ele>1560.8</ele>
        <time>2019-07-11T06:18:42Z</time>
      </trkpt>
      <trkpt lat="46.494087" lon="15.262673">
        <ele>1560.5</ele>
        <time>2019-07-11T06:18:47Z</time>
      </trkpt>
      <trkpt lat="46.494062" lon="15.262726">
        <ele>1559.48</ele>
        <time>2019-07-11T06:18:55Z</time>
      </trkpt>
      <trkpt lat="46.493985" lon="15.262913">
        <ele>1558.53</ele>
        <time>2019-07-11T06:20:09Z</time>
      </trkpt>
      <trkpt lat="46.493973" lon="15.263092">
        <ele>1562.21</ele>
        <time>2019-07-11T06:20:26Z</time>
      </trkpt>
      <trkpt lat="46.493924" lon="15.263538">
        <ele>1569.73</ele>
        <time>2019-07-11T06:21:10Z</time>
      </trkpt>
      <trkpt lat="46.493901" lon="15.263715">
        <ele>1570.0</ele>
        <time>2019-07-11T06:21:27Z</time>
      </trkpt>
      <trkpt lat="46.493845" lon="15.264122">
        <ele>1578.84</ele>
        <time>2019-07-11T06:22:00Z</time>
      </trkpt>
      <trkpt lat="46.493838" lon="15.264154">
        <ele>1579.99</ele>
        <time>2019-07-11T06:22:04Z</time>
      </trkpt>
      <trkpt lat="46.493845" lon="15.264122">
        <ele>1578.84</ele>
        <time>2019-07-11T06:22:13Z</time>
      </trkpt>
      <trkpt lat="46.493795" lon="15.264317">
        <ele>1585.65</ele>
        <time>2019-07-11T06:22:58Z</time>
      </trkpt>
      <trkpt lat="46.493795" lon="15.264317">
        <ele>1585.65</ele>
        <time>2019-07-11T06:23:03Z</time>
      </trkpt>
      <trkpt lat="46.493795" lon="15.264317">
        <ele>1585.65</ele>
        <time>2019-07-11T06:23:04Z</time>
      </trkpt>
      <trkpt lat="46.49376" lon="15.264515">
        <ele>1588.4</ele>
        <time>2019-07-11T06:23:11Z</time>
      </trkpt>
      <trkpt lat="46.49376" lon="15.264515">
        <ele>1588.4</ele>
        <time>2019-07-11T06:23:19Z</time>
      </trkpt>
      <trkpt lat="46.49376" lon="15.264515">
        <ele>1588.4</ele>
        <time>2019-07-11T06:23:20Z</time>
      </trkpt>
      <trkpt lat="46.493657" lon="15.264951">
        <ele>1583.97</ele>
        <time>2019-07-11T06:26:33Z</time>
      </trkpt>
      <trkpt lat="46.493634" lon="15.265016">
        <ele>1583.12</ele>
        <time>2019-07-11T06:26:36Z</time>
      </trkpt>
      <trkpt lat="46.493607" lon="15.265133">
        <ele>1577.35</ele>
        <time>2019-07-11T06:26:51Z</time>
      </trkpt>
      <trkpt lat="46.493577" lon="15.265472">
        <ele>1578.04</ele>
        <time>2019-07-11T06:27:09Z</time>
      </trkpt>
      <trkpt lat="46.493571" lon="15.265572">
        <ele>1581.48</ele>
        <time>2019-07-11T06:27:14Z</time>
      </trkpt>
      <trkpt lat="46.493532" lon="15.265664">
        <ele>1576.6</ele>
        <time>2019-07-11T06:27:25Z</time>
      </trkpt>
      <trkpt lat="46.493493" lon="15.265942">
        <ele>1570.46</ele>
        <time>2019-07-11T06:27:44Z</time>
      </trkpt>
      <trkpt lat="46.493463" lon="15.266121">
        <ele>1568.29</ele>
        <time>2019-07-11T06:28:00Z</time>
      </trkpt>
      <trkpt lat="46.493471" lon="15.266161">
        <ele>1567.21</ele>
        <time>2019-07-11T06:28:03Z</time>
      </trkpt>
      <trkpt lat="46.493444" lon="15.266316">
        <ele>1564.32</ele>
        <time>2019-07-11T06:28:15Z</time>
      </trkpt>
      <trkpt lat="46.493433" lon="15.26639">
        <ele>1567.46</ele>
        <time>2019-07-11T06:28:21Z</time>
      </trkpt>
      <trkpt lat="46.493436" lon="15.266517">
        <ele>1564.58</ele>
        <time>2019-07-11T06:28:31Z</time>
      </trkpt>
      <trkpt lat="46.4934" lon="15.266708">
        <ele>1560.82</ele>
        <time>2019-07-11T06:28:42Z</time>
      </trkpt>
      <trkpt lat="46.493341" lon="15.267004">
        <ele>1558.75</ele>
        <time>2019-07-11T06:28:58Z</time>
      </trkpt>
      <trkpt lat="46.493316" lon="15.267141">
        <ele>1564.65</ele>
        <time>2019-07-11T06:29:04Z</time>
      </trkpt>
      <trkpt lat="46.493318" lon="15.267212">
        <ele>1563.78</ele>
        <time>2019-07-11T06:29:08Z</time>
      </trkpt>
      <trkpt lat="46.493309" lon="15.267354">
        <ele>1555.57</ele>
        <time>2019-07-11T06:29:20Z</time>
      </trkpt>
      <trkpt lat="46.493293" lon="15.267722">
        <ele>1553.88</ele>
        <time>2019-07-11T06:29:38Z</time>
      </trkpt>
      <trkpt lat="46.493279" lon="15.267865">
        <ele>1549.27</ele>
        <time>2019-07-11T06:29:46Z</time>
      </trkpt>
      <trkpt lat="46.4932" lon="15.268101">
        <ele>1551.11</ele>
        <time>2019-07-11T06:30:04Z</time>
      </trkpt>
      <trkpt lat="46.49322" lon="15.268436">
        <ele>1550.07</ele>
        <time>2019-07-11T06:30:22Z</time>
      </trkpt>
      <trkpt lat="46.493206" lon="15.268778">
        <ele>1546.8</ele>
        <time>2019-07-11T06:30:41Z</time>
      </trkpt>
      <trkpt lat="46.493166" lon="15.269038">
        <ele>1548.17</ele>
        <time>2019-07-11T06:30:53Z</time>
      </trkpt>
      <trkpt lat="46.493167" lon="15.269161">
        <ele>1549.9</ele>
        <time>2019-07-11T06:31:03Z</time>
      </trkpt>
      <trkpt lat="46.493181" lon="15.269329">
        <ele>1545.54</ele>
        <time>2019-07-11T06:31:14Z</time>
      </trkpt>
      <trkpt lat="46.493181" lon="15.269329">
        <ele>1545.54</ele>
        <time>2019-07-11T06:31:22Z</time>
      </trkpt>
      <trkpt lat="46.493181" lon="15.269329">
        <ele>1545.54</ele>
        <time>2019-07-11T06:31:24Z</time>
      </trkpt>
      <trkpt lat="46.493261" lon="15.269767">
        <ele>1535.75</ele>
        <time>2019-07-11T06:32:18Z</time>
      </trkpt>
      <trkpt lat="46.493232" lon="15.270006">
        <ele>1533.48</ele>
        <time>2019-07-11T06:32:28Z</time>
      </trkpt>
      <trkpt lat="46.49324" lon="15.270011">
        <ele>1535.51</ele>
        <time>2019-07-11T06:32:36Z</time>
      </trkpt>
      <trkpt lat="46.493167" lon="15.270415">
        <ele>1531.28</ele>
        <time>2019-07-11T06:33:26Z</time>
      </trkpt>
      <trkpt lat="46.493058" lon="15.270817">
        <ele>1528.6</ele>
        <time>2019-07-11T06:34:14Z</time>
      </trkpt>
      <trkpt lat="46.492988" lon="15.271">
        <ele>1540.38</ele>
        <time>2019-07-11T06:34:27Z</time>
      </trkpt>
      <trkpt lat="46.492963" lon="15.271227">
        <ele>1531.98</ele>
        <time>2019-07-11T06:34:42Z</time>
      </trkpt>
      <trkpt lat="46.492854" lon="15.271374">
        <ele>1529.19</ele>
        <time>2019-07-11T06:34:57Z</time>
      </trkpt>
      <trkpt lat="46.492755" lon="15.271555">
        <ele>1527.35</ele>
        <time>2019-07-11T06:35:12Z</time>
      </trkpt>
      <trkpt lat="46.492755" lon="15.271555">
        <ele>1527.35</ele>
        <time>2019-07-11T06:35:19Z</time>
      </trkpt>
      <trkpt lat="46.492755" lon="15.271555">
        <ele>1527.35</ele>
        <time>2019-07-11T06:35:20Z</time>
      </trkpt>
      <trkpt lat="46.492651" lon="15.271733">
        <ele>1522.2</ele>
        <time>2019-07-11T06:35:35Z</time>
      </trkpt>
      <trkpt lat="46.492551" lon="15.271992">
        <ele>1518.56</ele>
        <time>2019-07-11T06:35:53Z</time>
      </trkpt>
      <trkpt lat="46.492336" lon="15.272067">
        <ele>1519.79</ele>
        <time>2019-07-11T06:36:09Z</time>
      </trkpt>
      <trkpt lat="46.492226" lon="15.272205">
        <ele>1511.34</ele>
        <time>2019-07-11T06:36:28Z</time>
      </trkpt>
      <trkpt lat="46.49203" lon="15.272318">
        <ele>1508.39</ele>
        <time>2019-07-11T06:36:52Z</time>
      </trkpt>
      <trkpt lat="46.491839" lon="15.272382">
        <ele>1514.4</ele>
        <time>2019-07-11T06:37:04Z</time>
      </trkpt>
      <trkpt lat="46.491839" lon="15.272382">
        <ele>1514.4</ele>
        <time>2019-07-11T06:37:10Z</time>
      </trkpt>
      <trkpt lat="46.491768" lon="15.272433">
        <ele>1515.49</ele>
        <time>2019-07-11T06:37:14Z</time>
      </trkpt>
      <trkpt lat="46.491609" lon="15.272524">
        <ele>1508.39</ele>
        <time>2019-07-11T06:37:30Z</time>
      </trkpt>
      <trkpt lat="46.491464" lon="15.272687">
        <ele>1505.8</ele>
        <time>2019-07-11T06:37:53Z</time>
      </trkpt>
      <trkpt lat="46.49136" lon="15.27276">
        <ele>1503.6</ele>
        <time>2019-07-11T06:38:05Z</time>
      </trkpt>
      <trkpt lat="46.491278" lon="15.273027">
        <ele>1491.03</ele>
        <time>2019-07-11T06:38:20Z</time>
      </trkpt>
      <trkpt lat="46.491236" lon="15.273219">
        <ele>1488.37</ele>
        <time>2019-07-11T06:38:32Z</time>
      </trkpt>
      <trkpt lat="46.491094" lon="15.273525">
        <ele>1489.01</ele>
        <time>2019-07-11T06:38:49Z</time>
      </trkpt>
      <trkpt lat="46.491052" lon="15.273653">
        <ele>1487.1</ele>
        <time>2019-07-11T06:39:01Z</time>
      </trkpt>
      <trkpt lat="46.491001" lon="15.273781">
        <ele>1493.84</ele>
        <time>2019-07-11T06:39:08Z</time>
      </trkpt>
      <trkpt lat="46.490961" lon="15.274082">
        <ele>1491.7</ele>
        <time>2019-07-11T06:39:22Z</time>
      </trkpt>
      <trkpt lat="46.49102" lon="15.274338">
        <ele>1488.19</ele>
        <time>2019-07-11T06:39:37Z</time>
      </trkpt>
      <trkpt lat="46.491017" lon="15.274434">
        <ele>1493.05</ele>
        <time>2019-07-11T06:39:48Z</time>
      </trkpt>
      <trkpt lat="46.490947" lon="15.274694">
        <ele>1497.07</ele>
        <time>2019-07-11T06:40:01Z</time>
      </trkpt>
      <trkpt lat="46.490913" lon="15.274801">
        <ele>1495.24</ele>
        <time>2019-07-11T06:40:06Z</time>
      </trkpt>
      <trkpt lat="46.490864" lon="15.274915">
        <ele>1492.96</ele>
        <time>2019-07-11T06:40:24Z</time>
      </trkpt>
      <trkpt lat="46.490766" lon="15.275114">
        <ele>1491.5</ele>
        <time>2019-07-11T06:40:34Z</time>
      </trkpt>
      <trkpt lat="46.490724" lon="15.275222">
        <ele>1491.24</ele>
        <time>2019-07-11T06:40:41Z</time>
      </trkpt>
      <trkpt lat="46.490714" lon="15.275543">
        <ele>1488.25</ele>
        <time>2019-07-11T06:41:00Z</time>
      </trkpt>
      <trkpt lat="46.490704" lon="15.275724">
        <ele>1487.12</ele>
        <time>2019-07-11T06:41:11Z</time>
      </trkpt>
      <trkpt lat="46.490812" lon="15.275947">
        <ele>1479.7</ele>
        <time>2019-07-11T06:41:31Z</time>
      </trkpt>
      <trkpt lat="46.4909" lon="15.276179">
        <ele>1479.5</ele>
        <time>2019-07-11T06:41:48Z</time>
      </trkpt>
      <trkpt lat="46.490886" lon="15.276383">
        <ele>1478.1</ele>
        <time>2019-07-11T06:42:01Z</time>
      </trkpt>
      <trkpt lat="46.490905" lon="15.276626">
        <ele>1477.28</ele>
        <time>2019-07-11T06:42:19Z</time>
      </trkpt>
      <trkpt lat="46.490897" lon="15.276837">
        <ele>1478.34</ele>
        <time>2019-07-11T06:42:34Z</time>
      </trkpt>
      <trkpt lat="46.49093" lon="15.277068">
        <ele>1474.25</ele>
        <time>2019-07-11T06:42:50Z</time>
      </trkpt>
      <trkpt lat="46.490805" lon="15.277215">
        <ele>1473.43</ele>
        <time>2019-07-11T06:43:07Z</time>
      </trkpt>
      <trkpt lat="46.49084" lon="15.277508">
        <ele>1469.66</ele>
        <time>2019-07-11T06:43:21Z</time>
      </trkpt>
      <trkpt lat="46.490858" lon="15.277624">
        <ele>1468.77</ele>
        <time>2019-07-11T06:43:27Z</time>
      </trkpt>
      <trkpt lat="46.490818" lon="15.277734">
        <ele>1469.39</ele>
        <time>2019-07-11T06:43:39Z</time>
      </trkpt>
      <trkpt lat="46.490773" lon="15.277842">
        <ele>1462.74</ele>
        <time>2019-07-11T06:43:48Z</time>
      </trkpt>
      <trkpt lat="46.490723" lon="15.27796">
        <ele>1465.0</ele>
        <time>2019-07-11T06:44:02Z</time>
      </trkpt>
      <trkpt lat="46.490733" lon="15.278142">
        <ele>1463.7</ele>
        <time>2019-07-11T06:44:15Z</time>
      </trkpt>
      <trkpt lat="46.490648" lon="15.27837">
        <ele>1464.49</ele>
        <time>2019-07-11T06:44:35Z</time>
      </trkpt>
      <trkpt lat="46.49052" lon="15.278812">
        <ele>1456.55</ele>
        <time>2019-07-11T06:45:14Z</time>
      </trkpt>
      <trkpt lat="46.49049" lon="15.278953">
        <ele>1447.91</ele>
        <time>2019-07-11T06:45:27Z</time>
      </trkpt>
      <trkpt lat="46.490432" lon="15.279234">
        <ele>1450.38</ele>
        <time>2019-07-11T06:45:45Z</time>
      </trkpt>
      <trkpt lat="46.490389" lon="15.279421">
        <ele>1444.89</ele>
        <time>2019-07-11T06:45:58Z</time>
      </trkpt>
      <trkpt lat="46.490313" lon="15.279483">
        <ele>1443.64</ele>
        <time>2019-07-11T06:46:11Z</time>
      </trkpt>
      <trkpt lat="46.49022" lon="15.279826">
        <ele>1428.09</ele>
        <time>2019-07-11T06:46:46Z</time>
      </trkpt>
      <trkpt lat="46.490228" lon="15.28006">
        <ele>1428.55</ele>
        <time>2019-07-11T06:47:01Z</time>
      </trkpt>
      <trkpt lat="46.490228" lon="15.28006">
        <ele>1428.55</ele>
        <time>2019-07-11T06:47:08Z</time>
      </trkpt>
      <trkpt lat="46.490185" lon="15.280259">
        <ele>1428.95</ele>
        <time>2019-07-11T06:47:22Z</time>
      </trkpt>
      <trkpt lat="46.49009" lon="15.280461">
        <ele>1432.49</ele>
        <time>2019-07-11T06:47:38Z</time>
      </trkpt>
      <trkpt lat="46.490054" lon="15.280722">
        <ele>1427.69</ele>
        <time>2019-07-11T06:47:57Z</time>
      </trkpt>
      <trkpt lat="46.490082" lon="15.280952">
        <ele>1422.68</ele>
        <time>2019-07-11T06:48:08Z</time>
      </trkpt>
      <trkpt lat="46.490134" lon="15.28121">
        <ele>1407.37</ele>
        <time>2019-07-11T06:48:25Z</time>
      </trkpt>
      <trkpt lat="46.490177" lon="15.281367">
        <ele>1412.81</ele>
        <time>2019-07-11T06:48:34Z</time>
      </trkpt>
      <trkpt lat="46.490192" lon="15.281611">
        <ele>1412.66</ele>
        <time>2019-07-11T06:48:52Z</time>
      </trkpt>
      <trkpt lat="46.490312" lon="15.28177">
        <ele>1401.53</ele>
        <time>2019-07-11T06:49:05Z</time>
      </trkpt>
      <trkpt lat="46.49041" lon="15.281895">
        <ele>1406.81</ele>
        <time>2019-07-11T06:49:20Z</time>
      </trkpt>
      <trkpt lat="46.490595" lon="15.282094">
        <ele>1395.51</ele>
        <time>2019-07-11T06:49:45Z</time>
      </trkpt>
      <trkpt lat="46.490673" lon="15.282198">
        <ele>1395.63</ele>
        <time>2019-07-11T06:49:53Z</time>
      </trkpt>
      <trkpt lat="46.490681" lon="15.282239">
        <ele>1397.53</ele>
        <time>2019-07-11T06:49:59Z</time>
      </trkpt>
      <trkpt lat="46.490881" lon="15.282574">
        <ele>1398.57</ele>
        <time>2019-07-11T06:50:41Z</time>
      </trkpt>
      <trkpt lat="46.490931" lon="15.282811">
        <ele>1395.76</ele>
        <time>2019-07-11T06:51:02Z</time>
      </trkpt>
      <trkpt lat="46.490943" lon="15.283238">
        <ele>1385.77</ele>
        <time>2019-07-11T06:51:44Z</time>
      </trkpt>
      <trkpt lat="46.490908" lon="15.283515">
        <ele>1378.64</ele>
        <time>2019-07-11T06:52:00Z</time>
      </trkpt>
      <trkpt lat="46.490908" lon="15.283515">
        <ele>1378.64</ele>
        <time>2019-07-11T06:52:07Z</time>
      </trkpt>
      <trkpt lat="46.490893" lon="15.283737">
        <ele>1378.15</ele>
        <time>2019-07-11T06:52:20Z</time>
      </trkpt>
      <trkpt lat="46.490931" lon="15.284081">
        <ele>1377.96</ele>
        <time>2019-07-11T06:52:38Z</time>
      </trkpt>
      <trkpt lat="46.491003" lon="15.284322">
        <ele>1378.32</ele>
        <time>2019-07-11T06:52:50Z</time>
      </trkpt>
      <trkpt lat="46.491094" lon="15.284553">
        <ele>1380.94</ele>
        <time>2019-07-11T06:53:07Z</time>
      </trkpt>
      <trkpt lat="46.491127" lon="15.284643">
        <ele>1380.54</ele>
        <time>2019-07-11T06:53:15Z</time>
      </trkpt>
      <trkpt lat="46.491137" lon="15.284673">
        <ele>1381.56</ele>
        <time>2019-07-11T06:53:23Z</time>
      </trkpt>
      <trkpt lat="46.491346" lon="15.284836">
        <ele>1369.21</ele>
        <time>2019-07-11T06:54:28Z</time>
      </trkpt>
      <trkpt lat="46.491357" lon="15.28499">
        <ele>1369.98</ele>
        <time>2019-07-11T06:54:40Z</time>
      </trkpt>
      <trkpt lat="46.491387" lon="15.285226">
        <ele>1366.86</ele>
        <time>2019-07-11T06:54:55Z</time>
      </trkpt>
      <trkpt lat="46.491425" lon="15.28544">
        <ele>1366.1</ele>
        <time>2019-07-11T06:55:08Z</time>
      </trkpt>
      <trkpt lat="46.491469" lon="15.285585">
        <ele>1362.91</ele>
        <time>2019-07-11T06:55:21Z</time>
      </trkpt>
      <trkpt lat="46.491544" lon="15.285824">
        <ele>1363.22</ele>
        <time>2019-07-11T06:55:39Z</time>
      </trkpt>
      <trkpt lat="46.491592" lon="15.285991">
        <ele>1357.02</ele>
        <time>2019-07-11T06:55:53Z</time>
      </trkpt>
      <trkpt lat="46.491687" lon="15.286327">
        <ele>1357.52</ele>
        <time>2019-07-11T06:56:12Z</time>
      </trkpt>
      <trkpt lat="46.49176" lon="15.286552">
        <ele>1356.63</ele>
        <time>2019-07-11T06:56:25Z</time>
      </trkpt>
      <trkpt lat="46.491792" lon="15.286764">
        <ele>1355.5</ele>
        <time>2019-07-11T06:56:39Z</time>
      </trkpt>
      <trkpt lat="46.491772" lon="15.286972">
        <ele>1346.67</ele>
        <time>2019-07-11T06:56:53Z</time>
      </trkpt>
      <trkpt lat="46.491726" lon="15.287185">
        <ele>1352.1</ele>
        <time>2019-07-11T06:57:12Z</time>
      </trkpt>
      <trkpt lat="46.491696" lon="15.287366">
        <ele>1353.76</ele>
        <time>2019-07-11T06:57:29Z</time>
      </trkpt>
      <trkpt lat="46.491597" lon="15.28781">
        <ele>1349.51</ele>
        <time>2019-07-11T06:58:27Z</time>
      </trkpt>
      <trkpt lat="46.491527" lon="15.287888">
        <ele>1350.98</ele>
        <time>2019-07-11T06:58:38Z</time>
      </trkpt>
      <trkpt lat="46.491366" lon="15.28823">
        <ele>1353.45</ele>
        <time>2019-07-11T06:59:32Z</time>
      </trkpt>
      <trkpt lat="46.491326" lon="15.288689">
        <ele>1352.56</ele>
        <time>2019-07-11T07:00:31Z</time>
      </trkpt>
      <trkpt lat="46.491323" lon="15.288863">
        <ele>1356.91</ele>
        <time>2019-07-11T07:00:43Z</time>
      </trkpt>
      <trkpt lat="46.491331" lon="15.288968">
        <ele>1358.71</ele>
        <time>2019-07-11T07:00:51Z</time>
      </trkpt>
      <trkpt lat="46.491303" lon="15.289121">
        <ele>1361.39</ele>
        <time>2019-07-11T07:01:06Z</time>
      </trkpt>
      <trkpt lat="46.49115" lon="15.289467">
        <ele>1360.18</ele>
        <time>2019-07-11T07:01:40Z</time>
      </trkpt>
      <trkpt lat="46.490947" lon="15.289746">
        <ele>1368.49</ele>
        <time>2019-07-11T07:02:17Z</time>
      </trkpt>
      <trkpt lat="46.490731" lon="15.28997">
        <ele>1374.89</ele>
        <time>2019-07-11T07:02:50Z</time>
      </trkpt>
      <trkpt lat="46.490602" lon="15.290172">
        <ele>1372.99</ele>
        <time>2019-07-11T07:03:05Z</time>
      </trkpt>
      <trkpt lat="46.490493" lon="15.290311">
        <ele>1375.93</ele>
        <time>2019-07-11T07:03:21Z</time>
      </trkpt>
      <trkpt lat="46.490362" lon="15.290519">
        <ele>1372.52</ele>
        <time>2019-07-11T07:03:41Z</time>
      </trkpt>
      <trkpt lat="46.490257" lon="15.290699">
        <ele>1369.06</ele>
        <time>2019-07-11T07:03:58Z</time>
      </trkpt>
      <trkpt lat="46.490148" lon="15.290825">
        <ele>1375.6</ele>
        <time>2019-07-11T07:04:17Z</time>
      </trkpt>
      <trkpt lat="46.490051" lon="15.290999">
        <ele>1376.5</ele>
        <time>2019-07-11T07:04:34Z</time>
      </trkpt>
      <trkpt lat="46.489971" lon="15.291114">
        <ele>1376.6</ele>
        <time>2019-07-11T07:04:45Z</time>
      </trkpt>
      <trkpt lat="46.489971" lon="15.291114">
        <ele>1376.6</ele>
        <time>2019-07-11T07:04:52Z</time>
      </trkpt>
      <trkpt lat="46.489971" lon="15.291114">
        <ele>1376.6</ele>
        <time>2019-07-11T07:04:53Z</time>
      </trkpt>
      <trkpt lat="46.489849" lon="15.291192">
        <ele>1382.13</ele>
        <time>2019-07-11T07:05:05Z</time>
      </trkpt>
      <trkpt lat="46.489717" lon="15.291288">
        <ele>1379.68</ele>
        <time>2019-07-11T07:05:17Z</time>
      </trkpt>
      <trkpt lat="46.489638" lon="15.291369">
        <ele>1382.99</ele>
        <time>2019-07-11T07:05:34Z</time>
      </trkpt>
      <trkpt lat="46.489481" lon="15.291531">
        <ele>1380.72</ele>
        <time>2019-07-11T07:05:54Z</time>
      </trkpt>
      <trkpt lat="46.489237" lon="15.291736">
        <ele>1387.73</ele>
        <time>2019-07-11T07:06:33Z</time>
      </trkpt>
      <trkpt lat="46.489237" lon="15.291736">
        <ele>1387.73</ele>
        <time>2019-07-11T07:06:41Z</time>
      </trkpt>
      <trkpt lat="46.489237" lon="15.291736">
        <ele>1387.73</ele>
        <time>2019-07-11T07:06:42Z</time>
      </trkpt>
      <trkpt lat="46.489133" lon="15.291955">
        <ele>1385.06</ele>
        <time>2019-07-11T07:08:57Z</time>
      </trkpt>
      <trkpt lat="46.488842" lon="15.292148">
        <ele>1388.34</ele>
        <time>2019-07-11T07:09:48Z</time>
      </trkpt>
      <trkpt lat="46.488778" lon="15.29217">
        <ele>1389.23</ele>
        <time>2019-07-11T07:09:52Z</time>
      </trkpt>
      <trkpt lat="46.488737" lon="15.29221">
        <ele>1390.69</ele>
        <time>2019-07-11T07:10:00Z</time>
      </trkpt>
      <trkpt lat="46.488489" lon="15.292355">
        <ele>1395.44</ele>
        <time>2019-07-11T07:10:33Z</time>
      </trkpt>
      <trkpt lat="46.488335" lon="15.292458">
        <ele>1403.2</ele>
        <time>2019-07-11T07:10:49Z</time>
      </trkpt>
      <trkpt lat="46.488155" lon="15.292635">
        <ele>1407.94</ele>
        <time>2019-07-11T07:11:09Z</time>
      </trkpt>
      <trkpt lat="46.488021" lon="15.292831">
        <ele>1405.22</ele>
        <time>2019-07-11T07:11:29Z</time>
      </trkpt>
      <trkpt lat="46.487899" lon="15.292938">
        <ele>1404.76</ele>
        <time>2019-07-11T07:11:43Z</time>
      </trkpt>
      <trkpt lat="46.487837" lon="15.29306">
        <ele>1402.66</ele>
        <time>2019-07-11T07:11:55Z</time>
      </trkpt>
      <trkpt lat="46.487671" lon="15.293437">
        <ele>1409.86</ele>
        <time>2019-07-11T07:12:33Z</time>
      </trkpt>
      <trkpt lat="46.487583" lon="15.293568">
        <ele>1412.95</ele>
        <time>2019-07-11T07:12:47Z</time>
      </trkpt>
      <trkpt lat="46.487511" lon="15.293666">
        <ele>1411.48</ele>
        <time>2019-07-11T07:12:56Z</time>
      </trkpt>
      <trkpt lat="46.48743" lon="15.293869">
        <ele>1413.36</ele>
        <time>2019-07-11T07:13:12Z</time>
      </trkpt>
      <trkpt lat="46.487285" lon="15.294056">
        <ele>1415.96</ele>
        <time>2019-07-11T07:13:29Z</time>
      </trkpt>
      <trkpt lat="46.487227" lon="15.294151">
        <ele>1416.45</ele>
        <time>2019-07-11T07:13:42Z</time>
      </trkpt>
      <trkpt lat="46.487116" lon="15.294517">
        <ele>1416.15</ele>
        <time>2019-07-11T07:14:13Z</time>
      </trkpt>
      <trkpt lat="46.487066" lon="15.294632">
        <ele>1417.98</ele>
        <time>2019-07-11T07:14:25Z</time>
      </trkpt>
      <trkpt lat="46.487071" lon="15.294667">
        <ele>1419.57</ele>
        <time>2019-07-11T07:14:33Z</time>
      </trkpt>
      <trkpt lat="46.48711" lon="15.295095">
        <ele>1424.77</ele>
        <time>2019-07-11T07:15:20Z</time>
      </trkpt>
      <trkpt lat="46.48711" lon="15.295095">
        <ele>1424.77</ele>
        <time>2019-07-11T07:15:27Z</time>
      </trkpt>
      <trkpt lat="46.487127" lon="15.295186">
        <ele>1424.87</ele>
        <time>2019-07-11T07:15:30Z</time>
      </trkpt>
      <trkpt lat="46.487153" lon="15.295563">
        <ele>1440.91</ele>
        <time>2019-07-11T07:16:28Z</time>
      </trkpt>
      <trkpt lat="46.487243" lon="15.295948">
        <ele>1445.93</ele>
        <time>2019-07-11T07:17:07Z</time>
      </trkpt>
      <trkpt lat="46.487243" lon="15.295948">
        <ele>1445.93</ele>
        <time>2019-07-11T07:17:15Z</time>
      </trkpt>
      <trkpt lat="46.487243" lon="15.295948">
        <ele>1445.93</ele>
        <time>2019-07-11T07:17:16Z</time>
      </trkpt>
      <trkpt lat="46.487298" lon="15.296071">
        <ele>1449.19</ele>
        <time>2019-07-11T07:17:23Z</time>
      </trkpt>
      <trkpt lat="46.487352" lon="15.296202">
        <ele>1450.18</ele>
        <time>2019-07-11T07:17:32Z</time>
      </trkpt>
      <trkpt lat="46.487428" lon="15.296347">
        <ele>1450.22</ele>
        <time>2019-07-11T07:17:48Z</time>
      </trkpt>
      <trkpt lat="46.487623" lon="15.296648">
        <ele>1456.54</ele>
        <time>2019-07-11T07:18:30Z</time>
      </trkpt>
      <trkpt lat="46.487709" lon="15.29683">
        <ele>1464.54</ele>
        <time>2019-07-11T07:18:50Z</time>
      </trkpt>
      <trkpt lat="46.487834" lon="15.29697">
        <ele>1464.82</ele>
        <time>2019-07-11T07:19:05Z</time>
      </trkpt>
      <trkpt lat="46.487834" lon="15.29697">
        <ele>1464.82</ele>
        <time>2019-07-11T07:19:12Z</time>
      </trkpt>
      <trkpt lat="46.487951" lon="15.297105">
        <ele>1468.66</ele>
        <time>2019-07-11T07:19:24Z</time>
      </trkpt>
      <trkpt lat="46.488166" lon="15.297248">
        <ele>1461.31</ele>
        <time>2019-07-11T07:19:46Z</time>
      </trkpt>
      <trkpt lat="46.488376" lon="15.297548">
        <ele>1460.6</ele>
        <time>2019-07-11T07:20:42Z</time>
      </trkpt>
      <trkpt lat="46.488434" lon="15.297706">
        <ele>1460.73</ele>
        <time>2019-07-11T07:20:53Z</time>
      </trkpt>
      <trkpt lat="46.488464" lon="15.297872">
        <ele>1464.8</ele>
        <time>2019-07-11T07:21:05Z</time>
      </trkpt>
      <trkpt lat="46.488474" lon="15.298013">
        <ele>1464.95</ele>
        <time>2019-07-11T07:21:13Z</time>
      </trkpt>
      <trkpt lat="46.488481" lon="15.298188">
        <ele>1461.49</ele>
        <time>2019-07-11T07:21:29Z</time>
      </trkpt>
      <trkpt lat="46.488481" lon="15.298188">
        <ele>1461.49</ele>
        <time>2019-07-11T07:21:34Z</time>
      </trkpt>
      <trkpt lat="46.488481" lon="15.298188">
        <ele>1461.49</ele>
        <time>2019-07-11T07:21:35Z</time>
      </trkpt>
      <trkpt lat="46.488583" lon="15.298585">
        <ele>1468.26</ele>
        <time>2019-07-11T07:22:13Z</time>
      </trkpt>
      <trkpt lat="46.488633" lon="15.298799">
        <ele>1466.96</ele>
        <time>2019-07-11T07:22:30Z</time>
      </trkpt>
      <trkpt lat="46.488698" lon="15.299035">
        <ele>1466.31</ele>
        <time>2019-07-11T07:22:49Z</time>
      </trkpt>
      <trkpt lat="46.488725" lon="15.299108">
        <ele>1467.94</ele>
        <time>2019-07-11T07:22:52Z</time>
      </trkpt>
      <trkpt lat="46.488775" lon="15.29922">
        <ele>1465.76</ele>
        <time>2019-07-11T07:23:07Z</time>
      </trkpt>
      <trkpt lat="46.488825" lon="15.299431">
        <ele>1467.8</ele>
        <time>2019-07-11T07:23:18Z</time>
      </trkpt>
      <trkpt lat="46.488886" lon="15.29958">
        <ele>1467.08</ele>
        <time>2019-07-11T07:23:30Z</time>
      </trkpt>
      <trkpt lat="46.489024" lon="15.299772">
        <ele>1468.42</ele>
        <time>2019-07-11T07:23:42Z</time>
      </trkpt>
      <trkpt lat="46.48912" lon="15.299874">
        <ele>1466.26</ele>
        <time>2019-07-11T07:23:48Z</time>
      </trkpt>
      <trkpt lat="46.489174" lon="15.299966">
        <ele>1465.76</ele>
        <time>2019-07-11T07:23:59Z</time>
      </trkpt>
      <trkpt lat="46.489282" lon="15.300137">
        <ele>1460.45</ele>
        <time>2019-07-11T07:24:10Z</time>
      </trkpt>
      <trkpt lat="46.489367" lon="15.300241">
        <ele>1463.65</ele>
        <time>2019-07-11T07:24:23Z</time>
      </trkpt>
      <trkpt lat="46.489491" lon="15.300434">
        <ele>1467.38</ele>
        <time>2019-07-11T07:24:39Z</time>
      </trkpt>
      <trkpt lat="46.489569" lon="15.30059">
        <ele>1466.14</ele>
        <time>2019-07-11T07:24:48Z</time>
      </trkpt>
      <trkpt lat="46.489552" lon="15.300905">
        <ele>1472.44</ele>
        <time>2019-07-11T07:25:12Z</time>
      </trkpt>
      <trkpt lat="46.489499" lon="15.301025">
        <ele>1469.42</ele>
        <time>2019-07-11T07:25:23Z</time>
      </trkpt>
      <trkpt lat="46.489556" lon="15.301239">
        <ele>1462.36</ele>
        <time>2019-07-11T07:25:37Z</time>
      </trkpt>
      <trkpt lat="46.489663" lon="15.301478">
        <ele>1463.32</ele>
        <time>2019-07-11T07:25:50Z</time>
      </trkpt>
      <trkpt lat="46.4897" lon="15.301609">
        <ele>1463.89</ele>
        <time>2019-07-11T07:26:01Z</time>
      </trkpt>
      <trkpt lat="46.489781" lon="15.30182">
        <ele>1466.52</ele>
        <time>2019-07-11T07:26:17Z</time>
      </trkpt>
      <trkpt lat="46.489781" lon="15.30182">
        <ele>1466.52</ele>
        <time>2019-07-11T07:26:24Z</time>
      </trkpt>
      <trkpt lat="46.489833" lon="15.302035">
        <ele>1473.93</ele>
        <time>2019-07-11T07:26:36Z</time>
      </trkpt>
      <trkpt lat="46.489851" lon="15.30211">
        <ele>1479.54</ele>
        <time>2019-07-11T07:26:42Z</time>
      </trkpt>
      <trkpt lat="46.4899" lon="15.302218">
        <ele>1475.67</ele>
        <time>2019-07-11T07:26:58Z</time>
      </trkpt>
      <trkpt lat="46.489962" lon="15.30233">
        <ele>1476.56</ele>
        <time>2019-07-11T07:27:11Z</time>
      </trkpt>
      <trkpt lat="46.489997" lon="15.302632">
        <ele>1485.5</ele>
        <time>2019-07-11T07:27:32Z</time>
      </trkpt>
      <trkpt lat="46.490023" lon="15.30285">
        <ele>1494.84</ele>
        <time>2019-07-11T07:27:49Z</time>
      </trkpt>
      <trkpt lat="46.490092" lon="15.303093">
        <ele>1488.33</ele>
        <time>2019-07-11T07:28:07Z</time>
      </trkpt>
      <trkpt lat="46.490194" lon="15.303333">
        <ele>1492.9</ele>
        <time>2019-07-11T07:28:26Z</time>
      </trkpt>
      <trkpt lat="46.490276" lon="15.303525">
        <ele>1497.19</ele>
        <time>2019-07-11T07:28:44Z</time>
      </trkpt>
      <trkpt lat="46.490356" lon="15.30375">
        <ele>1496.68</ele>
        <time>2019-07-11T07:29:01Z</time>
      </trkpt>
      <trkpt lat="46.490494" lon="15.303927">
        <ele>1496.31</ele>
        <time>2019-07-11T07:29:21Z</time>
      </trkpt>
      <trkpt lat="46.490562" lon="15.304173">
        <ele>1503.43</ele>
        <time>2019-07-11T07:29:40Z</time>
      </trkpt>
      <trkpt lat="46.490562" lon="15.304173">
        <ele>1503.43</ele>
        <time>2019-07-11T07:32:01Z</time>
      </trkpt>
      <trkpt lat="46.490687" lon="15.304458">
        <ele>1499.74</ele>
        <time>2019-07-11T07:32:13Z</time>
      </trkpt>
      <trkpt lat="46.490705" lon="15.304625">
        <ele>1499.54</ele>
        <time>2019-07-11T07:32:25Z</time>
      </trkpt>
      <trkpt lat="46.490723" lon="15.304894">
        <ele>1503.96</ele>
        <time>2019-07-11T07:32:41Z</time>
      </trkpt>
      <trkpt lat="46.490728" lon="15.305153">
        <ele>1503.45</ele>
        <time>2019-07-11T07:32:59Z</time>
      </trkpt>
      <trkpt lat="46.490725" lon="15.305424">
        <ele>1506.13</ele>
        <time>2019-07-11T07:33:18Z</time>
      </trkpt>
      <trkpt lat="46.490731" lon="15.305679">
        <ele>1508.43</ele>
        <time>2019-07-11T07:33:36Z</time>
      </trkpt>
      <trkpt lat="46.490715" lon="15.30612">
        <ele>1515.18</ele>
        <time>2019-07-11T07:34:13Z</time>
      </trkpt>
      <trkpt lat="46.490711" lon="15.306329">
        <ele>1513.49</ele>
        <time>2019-07-11T07:34:30Z</time>
      </trkpt>
      <trkpt lat="46.49063" lon="15.30658">
        <ele>1520.35</ele>
        <time>2019-07-11T07:34:52Z</time>
      </trkpt>
      <trkpt lat="46.490583" lon="15.306998">
        <ele>1531.09</ele>
        <time>2019-07-11T07:35:57Z</time>
      </trkpt>
      <trkpt lat="46.490522" lon="15.307252">
        <ele>1536.67</ele>
        <time>2019-07-11T07:36:18Z</time>
      </trkpt>
      <trkpt lat="46.49048" lon="15.307422">
        <ele>1534.79</ele>
        <time>2019-07-11T07:36:31Z</time>
      </trkpt>
      <trkpt lat="46.490427" lon="15.307618">
        <ele>1536.26</ele>
        <time>2019-07-11T07:36:47Z</time>
      </trkpt>
      <trkpt lat="46.4903" lon="15.308012">
        <ele>1531.65</ele>
        <time>2019-07-11T07:37:35Z</time>
      </trkpt>
      <trkpt lat="46.49026" lon="15.308101">
        <ele>1532.33</ele>
        <time>2019-07-11T07:37:44Z</time>
      </trkpt>
      <trkpt lat="46.490079" lon="15.308215">
        <ele>1536.84</ele>
        <time>2019-07-11T07:38:04Z</time>
      </trkpt>
      <trkpt lat="46.490079" lon="15.308215">
        <ele>1536.84</ele>
        <time>2019-07-11T07:38:11Z</time>
      </trkpt>
      <trkpt lat="46.490079" lon="15.308215">
        <ele>1536.84</ele>
        <time>2019-07-11T07:38:12Z</time>
      </trkpt>
      <trkpt lat="46.489817" lon="15.308149">
        <ele>1540.72</ele>
        <time>2019-07-11T07:39:08Z</time>
      </trkpt>
      <trkpt lat="46.48975" lon="15.308134">
        <ele>1541.05</ele>
        <time>2019-07-11T07:39:11Z</time>
      </trkpt>
      <trkpt lat="46.489755" lon="15.308121">
        <ele>1541.73</ele>
        <time>2019-07-11T07:39:20Z</time>
      </trkpt>
      <trkpt lat="46.48955" lon="15.308109">
        <ele>1541.44</ele>
        <time>2019-07-11T07:40:44Z</time>
      </trkpt>
      <trkpt lat="46.489399" lon="15.307993">
        <ele>1540.07</ele>
        <time>2019-07-11T07:40:56Z</time>
      </trkpt>
      <trkpt lat="46.489382" lon="15.307978">
        <ele>1539.38</ele>
        <time>2019-07-11T07:41:06Z</time>
      </trkpt>
      <trkpt lat="46.4891" lon="15.308065">
        <ele>1536.41</ele>
        <time>2019-07-11T07:41:36Z</time>
      </trkpt>
      <trkpt lat="46.489011" lon="15.308136">
        <ele>1538.7</ele>
        <time>2019-07-11T07:41:46Z</time>
      </trkpt>
      <trkpt lat="46.488931" lon="15.308168">
        <ele>1544.23</ele>
        <time>2019-07-11T07:41:58Z</time>
      </trkpt>
      <trkpt lat="46.488845" lon="15.308211">
        <ele>1543.53</ele>
        <time>2019-07-11T07:42:07Z</time>
      </trkpt>
      <trkpt lat="46.488746" lon="15.308152">
        <ele>1546.56</ele>
        <time>2019-07-11T07:42:23Z</time>
      </trkpt>
      <trkpt lat="46.488591" lon="15.308139">
        <ele>1541.1</ele>
        <time>2019-07-11T07:42:35Z</time>
      </trkpt>
      <trkpt lat="46.488485" lon="15.30807">
        <ele>1540.38</ele>
        <time>2019-07-11T07:42:51Z</time>
      </trkpt>
      <trkpt lat="46.488271" lon="15.308013">
        <ele>1537.26</ele>
        <time>2019-07-11T07:43:02Z</time>
      </trkpt>
      <trkpt lat="46.488163" lon="15.308002">
        <ele>1535.11</ele>
        <time>2019-07-11T07:43:20Z</time>
      </trkpt>
      <trkpt lat="46.487958" lon="15.307898">
        <ele>1539.3</ele>
        <time>2019-07-11T07:43:42Z</time>
      </trkpt>
      <trkpt lat="46.487895" lon="15.307889">
        <ele>1537.79</ele>
        <time>2019-07-11T07:43:45Z</time>
      </trkpt>
      <trkpt lat="46.487874" lon="15.307891">
        <ele>1536.48</ele>
        <time>2019-07-11T07:43:53Z</time>
      </trkpt>
      <trkpt lat="46.487697" lon="15.307892">
        <ele>1535.79</ele>
        <time>2019-07-11T07:44:12Z</time>
      </trkpt>
      <trkpt lat="46.487578" lon="15.307862">
        <ele>1541.31</ele>
        <time>2019-07-11T07:44:23Z</time>
      </trkpt>
      <trkpt lat="46.487436" lon="15.307921">
        <ele>1542.08</ele>
        <time>2019-07-11T07:44:39Z</time>
      </trkpt>
      <trkpt lat="46.487289" lon="15.307929">
        <ele>1541.77</ele>
        <time>2019-07-11T07:44:54Z</time>
      </trkpt>
      <trkpt lat="46.487225" lon="15.307878">
        <ele>1541.14</ele>
        <time>2019-07-11T07:45:07Z</time>
      </trkpt>
      <trkpt lat="46.487083" lon="15.307883">
        <ele>1540.37</ele>
        <time>2019-07-11T07:45:21Z</time>
      </trkpt>
      <trkpt lat="46.486949" lon="15.307831">
        <ele>1546.74</ele>
        <time>2019-07-11T07:45:34Z</time>
      </trkpt>
      <trkpt lat="46.486797" lon="15.307812">
        <ele>1548.8</ele>
        <time>2019-07-11T07:45:47Z</time>
      </trkpt>
      <trkpt lat="46.486687" lon="15.307819">
        <ele>1549.79</ele>
        <time>2019-07-11T07:45:55Z</time>
      </trkpt>
      <trkpt lat="46.486556" lon="15.307814">
        <ele>1549.08</ele>
        <time>2019-07-11T07:46:08Z</time>
      </trkpt>
      <trkpt lat="46.486382" lon="15.307702">
        <ele>1546.38</ele>
        <time>2019-07-11T07:46:28Z</time>
      </trkpt>
      <trkpt lat="46.486199" lon="15.307635">
        <ele>1539.5</ele>
        <time>2019-07-11T07:46:46Z</time>
      </trkpt>
      <trkpt lat="46.486065" lon="15.307541">
        <ele>1541.08</ele>
        <time>2019-07-11T07:46:59Z</time>
      </trkpt>
      <trkpt lat="46.485893" lon="15.307487">
        <ele>1538.79</ele>
        <time>2019-07-11T07:47:13Z</time>
      </trkpt>
      <trkpt lat="46.485749" lon="15.307446">
        <ele>1538.04</ele>
        <time>2019-07-11T07:47:26Z</time>
      </trkpt>
      <trkpt lat="46.485591" lon="15.307356">
        <ele>1541.8</ele>
        <time>2019-07-11T07:47:44Z</time>
      </trkpt>
      <trkpt lat="46.485419" lon="15.307327">
        <ele>1541.32</ele>
        <time>2019-07-11T07:48:00Z</time>
      </trkpt>
      <trkpt lat="46.485251" lon="15.307303">
        <ele>1539.19</ele>
        <time>2019-07-11T07:48:12Z</time>
      </trkpt>
      <trkpt lat="46.485099" lon="15.30723">
        <ele>1537.89</ele>
        <time>2019-07-11T07:48:25Z</time>
      </trkpt>
      <trkpt lat="46.484972" lon="15.307327">
        <ele>1536.14</ele>
        <time>2019-07-11T07:48:39Z</time>
      </trkpt>
      <trkpt lat="46.484804" lon="15.307385">
        <ele>1537.06</ele>
        <time>2019-07-11T07:48:52Z</time>
      </trkpt>
      <trkpt lat="46.484675" lon="15.307439">
        <ele>1540.6</ele>
        <time>2019-07-11T07:48:59Z</time>
      </trkpt>
      <trkpt lat="46.484533" lon="15.307567">
        <ele>1539.78</ele>
        <time>2019-07-11T07:49:11Z</time>
      </trkpt>
      <trkpt lat="46.484392" lon="15.30777">
        <ele>1539.51</ele>
        <time>2019-07-11T07:49:28Z</time>
      </trkpt>
      <trkpt lat="46.484322" lon="15.308043">
        <ele>1532.32</ele>
        <time>2019-07-11T07:49:45Z</time>
      </trkpt>
      <trkpt lat="46.484293" lon="15.308258">
        <ele>1531.88</ele>
        <time>2019-07-11T07:49:55Z</time>
      </trkpt>
      <trkpt lat="46.484266" lon="15.308446">
        <ele>1532.88</ele>
        <time>2019-07-11T07:50:08Z</time>
      </trkpt>
      <trkpt lat="46.484227" lon="15.308698">
        <ele>1530.44</ele>
        <time>2019-07-11T07:50:25Z</time>
      </trkpt>
      <trkpt lat="46.484231" lon="15.308777">
        <ele>1532.33</ele>
        <time>2019-07-11T07:50:29Z</time>
      </trkpt>
      <trkpt lat="46.484241" lon="15.308939">
        <ele>1535.98</ele>
        <time>2019-07-11T07:50:41Z</time>
      </trkpt>
      <trkpt lat="46.484221" lon="15.309088">
        <ele>1534.77</ele>
        <time>2019-07-11T07:50:53Z</time>
      </trkpt>
      <trkpt lat="46.484168" lon="15.30927">
        <ele>1534.22</ele>
        <time>2019-07-11T07:51:08Z</time>
      </trkpt>
      <trkpt lat="46.484116" lon="15.309471">
        <ele>1535.43</ele>
        <time>2019-07-11T07:51:20Z</time>
      </trkpt>
      <trkpt lat="46.484072" lon="15.309719">
        <ele>1534.14</ele>
        <time>2019-07-11T07:51:36Z</time>
      </trkpt>
      <trkpt lat="46.484043" lon="15.310011">
        <ele>1536.59</ele>
        <time>2019-07-11T07:51:55Z</time>
      </trkpt>
      <trkpt lat="46.483996" lon="15.310196">
        <ele>1538.98</ele>
        <time>2019-07-11T07:52:11Z</time>
      </trkpt>
      <trkpt lat="46.484041" lon="15.310438">
        <ele>1537.96</ele>
        <time>2019-07-11T07:52:26Z</time>
      </trkpt>
      <trkpt lat="46.484022" lon="15.310553">
        <ele>1538.93</ele>
        <time>2019-07-11T07:52:39Z</time>
      </trkpt>
      <trkpt lat="46.484055" lon="15.310941">
        <ele>1532.84</ele>
        <time>2019-07-11T07:53:16Z</time>
      </trkpt>
      <trkpt lat="46.483905" lon="15.31127">
        <ele>1536.83</ele>
        <time>2019-07-11T07:54:35Z</time>
      </trkpt>
      <trkpt lat="46.483775" lon="15.311303">
        <ele>1545.05</ele>
        <time>2019-07-11T07:54:49Z</time>
      </trkpt>
      <trkpt lat="46.483656" lon="15.311423">
        <ele>1543.76</ele>
        <time>2019-07-11T07:55:03Z</time>
      </trkpt>
      <trkpt lat="46.483558" lon="15.311629">
        <ele>1541.01</ele>
        <time>2019-07-11T07:55:14Z</time>
      </trkpt>
      <trkpt lat="46.483507" lon="15.311707">
        <ele>1538.27</ele>
        <time>2019-07-11T07:55:17Z</time>
      </trkpt>
      <trkpt lat="46.483436" lon="15.311814">
        <ele>1538.83</ele>
        <time>2019-07-11T07:55:28Z</time>
      </trkpt>
      <trkpt lat="46.483381" lon="15.31184">
        <ele>1540.91</ele>
        <time>2019-07-11T07:55:32Z</time>
      </trkpt>
      <trkpt lat="46.483284" lon="15.311881">
        <ele>1538.08</ele>
        <time>2019-07-11T07:55:45Z</time>
      </trkpt>
      <trkpt lat="46.483178" lon="15.311953">
        <ele>1545.66</ele>
        <time>2019-07-11T07:55:56Z</time>
      </trkpt>
      <trkpt lat="46.482982" lon="15.312262">
        <ele>1538.16</ele>
        <time>2019-07-11T07:56:38Z</time>
      </trkpt>
      <trkpt lat="46.482813" lon="15.312341">
        <ele>1543.75</ele>
        <time>2019-07-11T07:56:57Z</time>
      </trkpt>
      <trkpt lat="46.482535" lon="15.312305">
        <ele>1550.23</ele>
        <time>2019-07-11T07:57:52Z</time>
      </trkpt>
      <trkpt lat="46.482358" lon="15.312387">
        <ele>1552.24</ele>
        <time>2019-07-11T07:58:13Z</time>
      </trkpt>
      <trkpt lat="46.482239" lon="15.312512">
        <ele>1552.11</ele>
        <time>2019-07-11T07:58:29Z</time>
      </trkpt>
      <trkpt lat="46.482226" lon="15.312542">
        <ele>1551.81</ele>
        <time>2019-07-11T07:58:33Z</time>
      </trkpt>
      <trkpt lat="46.482135" lon="15.312653">
        <ele>1556.05</ele>
        <time>2019-07-11T07:58:50Z</time>
      </trkpt>
      <trkpt lat="46.482085" lon="15.312813">
        <ele>1563.19</ele>
        <time>2019-07-11T07:59:09Z</time>
      </trkpt>
      <trkpt lat="46.481976" lon="15.313224">
        <ele>1560.75</ele>
        <time>2019-07-11T07:59:58Z</time>
      </trkpt>
      <trkpt lat="46.481907" lon="15.313451">
        <ele>1564.1</ele>
        <time>2019-07-11T08:00:13Z</time>
      </trkpt>
      <trkpt lat="46.481852" lon="15.313715">
        <ele>1561.35</ele>
        <time>2019-07-11T08:00:31Z</time>
      </trkpt>
      <trkpt lat="46.481766" lon="15.313901">
        <ele>1562.99</ele>
        <time>2019-07-11T08:00:49Z</time>
      </trkpt>
      <trkpt lat="46.48159" lon="15.314044">
        <ele>1568.7</ele>
        <time>2019-07-11T08:01:14Z</time>
      </trkpt>
      <trkpt lat="46.481492" lon="15.314163">
        <ele>1573.33</ele>
        <time>2019-07-11T08:01:29Z</time>
      </trkpt>
      <trkpt lat="46.481355" lon="15.314364">
        <ele>1575.71</ele>
        <time>2019-07-11T08:01:47Z</time>
      </trkpt>
      <trkpt lat="46.481321" lon="15.314597">
        <ele>1572.2</ele>
        <time>2019-07-11T08:02:01Z</time>
      </trkpt>
      <trkpt lat="46.481286" lon="15.314861">
        <ele>1570.88</ele>
        <time>2019-07-11T08:02:19Z</time>
      </trkpt>
      <trkpt lat="46.481149" lon="15.314924">
        <ele>1570.43</ele>
        <time>2019-07-11T08:02:36Z</time>
      </trkpt>
      <trkpt lat="46.481017" lon="15.314914">
        <ele>1574.78</ele>
        <time>2019-07-11T08:02:50Z</time>
      </trkpt>
      <trkpt lat="46.48085" lon="15.31504">
        <ele>1573.76</ele>
        <time>2019-07-11T08:03:05Z</time>
      </trkpt>
      <trkpt lat="46.480759" lon="15.315196">
        <ele>1573.2</ele>
        <time>2019-07-11T08:03:16Z</time>
      </trkpt>
      <trkpt lat="46.480725" lon="15.315372">
        <ele>1566.08</ele>
        <time>2019-07-11T08:03:28Z</time>
      </trkpt>
      <trkpt lat="46.480708" lon="15.315694">
        <ele>1570.39</ele>
        <time>2019-07-11T08:03:44Z</time>
      </trkpt>
      <trkpt lat="46.480676" lon="15.315822">
        <ele>1571.5</ele>
        <time>2019-07-11T08:03:53Z</time>
      </trkpt>
      <trkpt lat="46.480792" lon="15.316024">
        <ele>1570.42</ele>
        <time>2019-07-11T08:04:12Z</time>
      </trkpt>
      <trkpt lat="46.480785" lon="15.316308">
        <ele>1564.96</ele>
        <time>2019-07-11T08:04:28Z</time>
      </trkpt>
      <trkpt lat="46.480796" lon="15.316483">
        <ele>1547.1</ele>
        <time>2019-07-11T08:04:41Z</time>
      </trkpt>
      <trkpt lat="46.480798" lon="15.316697">
        <ele>1547.69</ele>
        <time>2019-07-11T08:04:56Z</time>
      </trkpt>
      <trkpt lat="46.480786" lon="15.316894">
        <ele>1547.31</ele>
        <time>2019-07-11T08:05:13Z</time>
      </trkpt>
      <trkpt lat="46.480681" lon="15.317015">
        <ele>1548.51</ele>
        <time>2019-07-11T08:05:24Z</time>
      </trkpt>
      <trkpt lat="46.480626" lon="15.31712">
        <ele>1547.77</ele>
        <time>2019-07-11T08:05:37Z</time>
      </trkpt>
      <trkpt lat="46.480518" lon="15.317293">
        <ele>1543.05</ele>
        <time>2019-07-11T08:05:51Z</time>
      </trkpt>
      <trkpt lat="46.480372" lon="15.317331">
        <ele>1543.78</ele>
        <time>2019-07-11T08:06:01Z</time>
      </trkpt>
      <trkpt lat="46.480246" lon="15.317382">
        <ele>1543.61</ele>
        <time>2019-07-11T08:06:18Z</time>
      </trkpt>
      <trkpt lat="46.480119" lon="15.317448">
        <ele>1540.89</ele>
        <time>2019-07-11T08:06:31Z</time>
      </trkpt>
      <trkpt lat="46.47988" lon="15.317523">
        <ele>1545.62</ele>
        <time>2019-07-11T08:06:49Z</time>
      </trkpt>
      <trkpt lat="46.479735" lon="15.317556">
        <ele>1552.48</ele>
        <time>2019-07-11T08:06:58Z</time>
      </trkpt>
      <trkpt lat="46.479591" lon="15.317618">
        <ele>1551.82</ele>
        <time>2019-07-11T08:07:07Z</time>
      </trkpt>
      <trkpt lat="46.47956" lon="15.317635">
        <ele>1552.28</ele>
        <time>2019-07-11T08:07:09Z</time>
      </trkpt>
      <trkpt lat="46.479477" lon="15.317693">
        <ele>1550.57</ele>
        <time>2019-07-11T08:07:19Z</time>
      </trkpt>
      <trkpt lat="46.479338" lon="15.317728">
        <ele>1547.34</ele>
        <time>2019-07-11T08:07:28Z</time>
      </trkpt>
      <trkpt lat="46.479338" lon="15.317728">
        <ele>1547.34</ele>
        <time>2019-07-11T08:07:34Z</time>
      </trkpt>
      <trkpt lat="46.479253" lon="15.317808">
        <ele>1547.68</ele>
        <time>2019-07-11T08:07:40Z</time>
      </trkpt>
      <trkpt lat="46.479094" lon="15.317983">
        <ele>1539.9</ele>
        <time>2019-07-11T08:07:52Z</time>
      </trkpt>
      <trkpt lat="46.47912" lon="15.318051">
        <ele>1542.3</ele>
        <time>2019-07-11T08:07:57Z</time>
      </trkpt>
      <trkpt lat="46.479158" lon="15.318076">
        <ele>1539.35</ele>
        <time>2019-07-11T08:08:04Z</time>
      </trkpt>
      <trkpt lat="46.479141" lon="15.318356">
        <ele>1538.74</ele>
        <time>2019-07-11T08:08:23Z</time>
      </trkpt>
      <trkpt lat="46.47918" lon="15.318575">
        <ele>1532.21</ele>
        <time>2019-07-11T08:08:33Z</time>
      </trkpt>
      <trkpt lat="46.479222" lon="15.318854">
        <ele>1528.52</ele>
        <time>2019-07-11T08:08:43Z</time>
      </trkpt>
      <trkpt lat="46.479222" lon="15.318854">
        <ele>1528.52</ele>
        <time>2019-07-11T08:08:52Z</time>
      </trkpt>
      <trkpt lat="46.479222" lon="15.318854">
        <ele>1528.52</ele>
        <time>2019-07-11T08:08:53Z</time>
      </trkpt>
      <trkpt lat="46.479125" lon="15.319002">
        <ele>1526.69</ele>
        <time>2019-07-11T08:09:07Z</time>
      </trkpt>
      <trkpt lat="46.479087" lon="15.319048">
        <ele>1524.07</ele>
        <time>2019-07-11T08:09:11Z</time>
      </trkpt>
      <trkpt lat="46.479031" lon="15.319173">
        <ele>1526.22</ele>
        <time>2019-07-11T08:09:25Z</time>
      </trkpt>
      <trkpt lat="46.478958" lon="15.319316">
        <ele>1526.04</ele>
        <time>2019-07-11T08:09:36Z</time>
      </trkpt>
      <trkpt lat="46.478821" lon="15.319514">
        <ele>1521.17</ele>
        <time>2019-07-11T08:09:51Z</time>
      </trkpt>
      <trkpt lat="46.478684" lon="15.31959">
        <ele>1524.2</ele>
        <time>2019-07-11T08:10:06Z</time>
      </trkpt>
      <trkpt lat="46.478602" lon="15.319654">
        <ele>1519.04</ele>
        <time>2019-07-11T08:10:15Z</time>
      </trkpt>
      <trkpt lat="46.478456" lon="15.319791">
        <ele>1516.94</ele>
        <time>2019-07-11T08:10:27Z</time>
      </trkpt>
      <trkpt lat="46.478383" lon="15.319954">
        <ele>1517.75</ele>
        <time>2019-07-11T08:10:40Z</time>
      </trkpt>
      <trkpt lat="46.478192" lon="15.32012">
        <ele>1515.11</ele>
        <time>2019-07-11T08:10:56Z</time>
      </trkpt>
      <trkpt lat="46.478127" lon="15.320184">
        <ele>1514.29</ele>
        <time>2019-07-11T08:11:06Z</time>
      </trkpt>
      <trkpt lat="46.477925" lon="15.320191">
        <ele>1513.22</ele>
        <time>2019-07-11T08:11:26Z</time>
      </trkpt>
      <trkpt lat="46.477792" lon="15.320206">
        <ele>1505.4</ele>
        <time>2019-07-11T08:11:40Z</time>
      </trkpt>
      <trkpt lat="46.477695" lon="15.32018">
        <ele>1503.62</ele>
        <time>2019-07-11T08:11:47Z</time>
      </trkpt>
      <trkpt lat="46.477573" lon="15.320158">
        <ele>1502.59</ele>
        <time>2019-07-11T08:12:02Z</time>
      </trkpt>
      <trkpt lat="46.47752" lon="15.320122">
        <ele>1498.58</ele>
        <time>2019-07-11T08:12:14Z</time>
      </trkpt>
      <trkpt lat="46.477416" lon="15.32012">
        <ele>1499.43</ele>
        <time>2019-07-11T08:12:24Z</time>
      </trkpt>
      <trkpt lat="46.477338" lon="15.320067">
        <ele>1498.25</ele>
        <time>2019-07-11T08:12:39Z</time>
      </trkpt>
      <trkpt lat="46.477148" lon="15.31996">
        <ele>1500.03</ele>
        <time>2019-07-11T08:13:02Z</time>
      </trkpt>
      <trkpt lat="46.47691" lon="15.31971">
        <ele>1497.45</ele>
        <time>2019-07-11T08:13:41Z</time>
      </trkpt>
      <trkpt lat="46.47675" lon="15.319449">
        <ele>1489.65</ele>
        <time>2019-07-11T08:14:00Z</time>
      </trkpt>
      <trkpt lat="46.476612" lon="15.319444">
        <ele>1490.31</ele>
        <time>2019-07-11T08:14:14Z</time>
      </trkpt>
      <trkpt lat="46.476612" lon="15.319444">
        <ele>1490.31</ele>
        <time>2019-07-11T08:14:22Z</time>
      </trkpt>
      <trkpt lat="46.476612" lon="15.319444">
        <ele>1490.31</ele>
        <time>2019-07-11T08:14:23Z</time>
      </trkpt>
      <trkpt lat="46.476495" lon="15.319317">
        <ele>1486.61</ele>
        <time>2019-07-11T08:14:33Z</time>
      </trkpt>
      <trkpt lat="46.476398" lon="15.319245">
        <ele>1486.34</ele>
        <time>2019-07-11T08:14:48Z</time>
      </trkpt>
      <trkpt lat="46.47627" lon="15.319172">
        <ele>1488.96</ele>
        <time>2019-07-11T08:15:01Z</time>
      </trkpt>
      <trkpt lat="46.47627" lon="15.319172">
        <ele>1488.96</ele>
        <time>2019-07-11T08:15:08Z</time>
      </trkpt>
      <trkpt lat="46.476135" lon="15.319072">
        <ele>1488.67</ele>
        <time>2019-07-11T08:15:21Z</time>
      </trkpt>
      <trkpt lat="46.476011" lon="15.318986">
        <ele>1492.73</ele>
        <time>2019-07-11T08:15:34Z</time>
      </trkpt>
      <trkpt lat="46.47587" lon="15.318853">
        <ele>1490.78</ele>
        <time>2019-07-11T08:15:51Z</time>
      </trkpt>
      <trkpt lat="46.475733" lon="15.318671">
        <ele>1492.25</ele>
        <time>2019-07-11T08:16:04Z</time>
      </trkpt>
      <trkpt lat="46.475674" lon="15.318672">
        <ele>1488.44</ele>
        <time>2019-07-11T08:16:11Z</time>
      </trkpt>
      <trkpt lat="46.475605" lon="15.318634">
        <ele>1489.27</ele>
        <time>2019-07-11T08:16:24Z</time>
      </trkpt>
      <trkpt lat="46.47535" lon="15.318411">
        <ele>1494.8</ele>
        <time>2019-07-11T08:16:37Z</time>
      </trkpt>
      <trkpt lat="46.47535" lon="15.318411">
        <ele>1494.8</ele>
        <time>2019-07-11T08:16:42Z</time>
      </trkpt>
      <trkpt lat="46.475335" lon="15.31835">
        <ele>1495.45</ele>
        <time>2019-07-11T08:16:43Z</time>
      </trkpt>
      <trkpt lat="46.475246" lon="15.31818">
        <ele>1491.62</ele>
        <time>2019-07-11T08:17:02Z</time>
      </trkpt>
      <trkpt lat="46.475098" lon="15.31789">
        <ele>1494.9</ele>
        <time>2019-07-11T08:17:19Z</time>
      </trkpt>
      <trkpt lat="46.475041" lon="15.317774">
        <ele>1502.55</ele>
        <time>2019-07-11T08:17:31Z</time>
      </trkpt>
      <trkpt lat="46.474825" lon="15.317579">
        <ele>1500.61</ele>
        <time>2019-07-11T08:17:48Z</time>
      </trkpt>
      <trkpt lat="46.474753" lon="15.317503">
        <ele>1501.01</ele>
        <time>2019-07-11T08:17:56Z</time>
      </trkpt>
      <trkpt lat="46.474696" lon="15.31741">
        <ele>1504.54</ele>
        <time>2019-07-11T08:18:03Z</time>
      </trkpt>
      <trkpt lat="46.474601" lon="15.317289">
        <ele>1505.64</ele>
        <time>2019-07-11T08:18:18Z</time>
      </trkpt>
      <trkpt lat="46.474514" lon="15.317199">
        <ele>1508.91</ele>
        <time>2019-07-11T08:18:25Z</time>
      </trkpt>
      <trkpt lat="46.474386" lon="15.317062">
        <ele>1504.21</ele>
        <time>2019-07-11T08:18:37Z</time>
      </trkpt>
      <trkpt lat="46.474302" lon="15.316796">
        <ele>1501.13</ele>
        <time>2019-07-11T08:18:54Z</time>
      </trkpt>
      <trkpt lat="46.474165" lon="15.316643">
        <ele>1503.28</ele>
        <time>2019-07-11T08:19:12Z</time>
      </trkpt>
      <trkpt lat="46.47396" lon="15.316715">
        <ele>1500.7</ele>
        <time>2019-07-11T08:19:31Z</time>
      </trkpt>
      <trkpt lat="46.473864" lon="15.316867">
        <ele>1499.83</ele>
        <time>2019-07-11T08:19:40Z</time>
      </trkpt>
      <trkpt lat="46.473673" lon="15.317051">
        <ele>1500.66</ele>
        <time>2019-07-11T08:19:55Z</time>
      </trkpt>
      <trkpt lat="46.473506" lon="15.317315">
        <ele>1509.41</ele>
        <time>2019-07-11T08:20:15Z</time>
      </trkpt>
      <trkpt lat="46.473339" lon="15.317433">
        <ele>1513.67</ele>
        <time>2019-07-11T08:20:24Z</time>
      </trkpt>
      <trkpt lat="46.473231" lon="15.317585">
        <ele>1512.73</ele>
        <time>2019-07-11T08:20:37Z</time>
      </trkpt>
      <trkpt lat="46.473086" lon="15.317666">
        <ele>1514.41</ele>
        <time>2019-07-11T08:20:51Z</time>
      </trkpt>
      <trkpt lat="46.472931" lon="15.317742">
        <ele>1514.86</ele>
        <time>2019-07-11T08:21:06Z</time>
      </trkpt>
      <trkpt lat="46.472799" lon="15.317771">
        <ele>1513.7</ele>
        <time>2019-07-11T08:21:21Z</time>
      </trkpt>
      <trkpt lat="46.472617" lon="15.317687">
        <ele>1505.4</ele>
        <time>2019-07-11T08:21:36Z</time>
      </trkpt>
      <trkpt lat="46.472432" lon="15.317553">
        <ele>1501.42</ele>
        <time>2019-07-11T08:21:53Z</time>
      </trkpt>
      <trkpt lat="46.472238" lon="15.317444">
        <ele>1505.49</ele>
        <time>2019-07-11T08:22:08Z</time>
      </trkpt>
      <trkpt lat="46.472117" lon="15.317265">
        <ele>1508.05</ele>
        <time>2019-07-11T08:22:24Z</time>
      </trkpt>
      <trkpt lat="46.471962" lon="15.31699">
        <ele>1510.55</ele>
        <time>2019-07-11T08:22:43Z</time>
      </trkpt>
      <trkpt lat="46.471799" lon="15.316956">
        <ele>1514.96</ele>
        <time>2019-07-11T08:22:57Z</time>
      </trkpt>
      <trkpt lat="46.471572" lon="15.317011">
        <ele>1510.65</ele>
        <time>2019-07-11T08:23:13Z</time>
      </trkpt>
      <trkpt lat="46.471395" lon="15.317051">
        <ele>1512.46</ele>
        <time>2019-07-11T08:23:26Z</time>
      </trkpt>
      <trkpt lat="46.471191" lon="15.317121">
        <ele>1514.17</ele>
        <time>2019-07-11T08:23:46Z</time>
      </trkpt>
      <trkpt lat="46.470918" lon="15.317149">
        <ele>1513.27</ele>
        <time>2019-07-11T08:24:03Z</time>
      </trkpt>
      <trkpt lat="46.470823" lon="15.317159">
        <ele>1509.67</ele>
        <time>2019-07-11T08:24:15Z</time>
      </trkpt>
      <trkpt lat="46.470692" lon="15.317291">
        <ele>1508.19</ele>
        <time>2019-07-11T08:24:29Z</time>
      </trkpt>
      <trkpt lat="46.470576" lon="15.317499">
        <ele>1512.6</ele>
        <time>2019-07-11T08:24:46Z</time>
      </trkpt>
      <trkpt lat="46.470489" lon="15.317643">
        <ele>1511.65</ele>
        <time>2019-07-11T08:24:58Z</time>
      </trkpt>
      <trkpt lat="46.470354" lon="15.317825">
        <ele>1509.01</ele>
        <time>2019-07-11T08:25:17Z</time>
      </trkpt>
      <trkpt lat="46.470189" lon="15.318064">
        <ele>1513.07</ele>
        <time>2019-07-11T08:25:34Z</time>
      </trkpt>
      <trkpt lat="46.470064" lon="15.318177">
        <ele>1516.73</ele>
        <time>2019-07-11T08:25:44Z</time>
      </trkpt>
      <trkpt lat="46.469924" lon="15.31827">
        <ele>1522.28</ele>
        <time>2019-07-11T08:25:57Z</time>
      </trkpt>
      <trkpt lat="46.469756" lon="15.318368">
        <ele>1522.66</ele>
        <time>2019-07-11T08:26:13Z</time>
      </trkpt>
      <trkpt lat="46.469643" lon="15.318439">
        <ele>1523.86</ele>
        <time>2019-07-11T08:26:23Z</time>
      </trkpt>
      <trkpt lat="46.469643" lon="15.318439">
        <ele>1523.86</ele>
        <time>2019-07-11T08:26:28Z</time>
      </trkpt>
      <trkpt lat="46.469586" lon="15.318542">
        <ele>1523.18</ele>
        <time>2019-07-11T08:26:34Z</time>
      </trkpt>
      <trkpt lat="46.469448" lon="15.318604">
        <ele>1518.69</ele>
        <time>2019-07-11T08:26:45Z</time>
      </trkpt>
      <trkpt lat="46.469278" lon="15.318653">
        <ele>1516.12</ele>
        <time>2019-07-11T08:26:57Z</time>
      </trkpt>
      <trkpt lat="46.469105" lon="15.318727">
        <ele>1516.38</ele>
        <time>2019-07-11T08:27:09Z</time>
      </trkpt>
      <trkpt lat="46.468989" lon="15.31879">
        <ele>1516.47</ele>
        <time>2019-07-11T08:27:20Z</time>
      </trkpt>
      <trkpt lat="46.468786" lon="15.318928">
        <ele>1517.29</ele>
        <time>2019-07-11T08:27:35Z</time>
      </trkpt>
      <trkpt lat="46.468676" lon="15.319059">
        <ele>1518.93</ele>
        <time>2019-07-11T08:27:47Z</time>
      </trkpt>
      <trkpt lat="46.468514" lon="15.319244">
        <ele>1520.41</ele>
        <time>2019-07-11T08:28:05Z</time>
      </trkpt>
      <trkpt lat="46.468384" lon="15.319338">
        <ele>1523.34</ele>
        <time>2019-07-11T08:28:16Z</time>
      </trkpt>
      <trkpt lat="46.468338" lon="15.319347">
        <ele>1519.92</ele>
        <time>2019-07-11T08:28:30Z</time>
      </trkpt>
      <trkpt lat="46.468099" lon="15.319416">
        <ele>1516.92</ele>
        <time>2019-07-11T08:28:46Z</time>
      </trkpt>
      <trkpt lat="46.467996" lon="15.31943">
        <ele>1520.48</ele>
        <time>2019-07-11T08:28:52Z</time>
      </trkpt>
      <trkpt lat="46.467934" lon="15.31945">
        <ele>1517.94</ele>
        <time>2019-07-11T08:29:02Z</time>
      </trkpt>
      <trkpt lat="46.467698" lon="15.319463">
        <ele>1515.57</ele>
        <time>2019-07-11T08:29:17Z</time>
      </trkpt>
      <trkpt lat="46.467554" lon="15.319417">
        <ele>1515.18</ele>
        <time>2019-07-11T08:29:30Z</time>
      </trkpt>
      <trkpt lat="46.467449" lon="15.319365">
        <ele>1516.02</ele>
        <time>2019-07-11T08:29:40Z</time>
      </trkpt>
      <trkpt lat="46.467286" lon="15.319258">
        <ele>1523.02</ele>
        <time>2019-07-11T08:29:56Z</time>
      </trkpt>
      <trkpt lat="46.467152" lon="15.319209">
        <ele>1518.32</ele>
        <time>2019-07-11T08:30:08Z</time>
      </trkpt>
      <trkpt lat="46.467007" lon="15.319156">
        <ele>1514.09</ele>
        <time>2019-07-11T08:30:20Z</time>
      </trkpt>
      <trkpt lat="46.466802" lon="15.319084">
        <ele>1509.38</ele>
        <time>2019-07-11T08:30:37Z</time>
      </trkpt>
      <trkpt lat="46.466585" lon="15.319009">
        <ele>1514.12</ele>
        <time>2019-07-11T08:30:52Z</time>
      </trkpt>
      <trkpt lat="46.466443" lon="15.319097">
        <ele>1515.5</ele>
        <time>2019-07-11T08:31:06Z</time>
      </trkpt>
      <trkpt lat="46.46627" lon="15.319327">
        <ele>1514.16</ele>
        <time>2019-07-11T08:31:20Z</time>
      </trkpt>
      <trkpt lat="46.466168" lon="15.319568">
        <ele>1511.78</ele>
        <time>2019-07-11T08:31:34Z</time>
      </trkpt>
      <trkpt lat="46.46615" lon="15.319612">
        <ele>1512.91</ele>
        <time>2019-07-11T08:31:37Z</time>
      </trkpt>
      <trkpt lat="46.466151" lon="15.319661">
        <ele>1513.08</ele>
        <time>2019-07-11T08:31:45Z</time>
      </trkpt>
      <trkpt lat="46.466025" lon="15.320023">
        <ele>1507.5</ele>
        <time>2019-07-11T08:33:47Z</time>
      </trkpt>
      <trkpt lat="46.465932" lon="15.320191">
        <ele>1505.34</ele>
        <time>2019-07-11T08:33:59Z</time>
      </trkpt>
      <trkpt lat="46.465953" lon="15.320538">
        <ele>1505.16</ele>
        <time>2019-07-11T08:34:16Z</time>
      </trkpt>
      <trkpt lat="46.465903" lon="15.320811">
        <ele>1502.82</ele>
        <time>2019-07-11T08:34:31Z</time>
      </trkpt>
      <trkpt lat="46.465888" lon="15.321066">
        <ele>1501.52</ele>
        <time>2019-07-11T08:34:44Z</time>
      </trkpt>
      <trkpt lat="46.465846" lon="15.321369">
        <ele>1502.26</ele>
        <time>2019-07-11T08:35:00Z</time>
      </trkpt>
      <trkpt lat="46.465835" lon="15.321616">
        <ele>1502.18</ele>
        <time>2019-07-11T08:35:12Z</time>
      </trkpt>
      <trkpt lat="46.465815" lon="15.321768">
        <ele>1499.59</ele>
        <time>2019-07-11T08:35:20Z</time>
      </trkpt>
      <trkpt lat="46.465772" lon="15.322095">
        <ele>1494.69</ele>
        <time>2019-07-11T08:35:37Z</time>
      </trkpt>
      <trkpt lat="46.465699" lon="15.322297">
        <ele>1494.0</ele>
        <time>2019-07-11T08:35:50Z</time>
      </trkpt>
      <trkpt lat="46.46566" lon="15.322538">
        <ele>1495.61</ele>
        <time>2019-07-11T08:36:06Z</time>
      </trkpt>
      <trkpt lat="46.465611" lon="15.322756">
        <ele>1493.53</ele>
        <time>2019-07-11T08:36:20Z</time>
      </trkpt>
      <trkpt lat="46.465595" lon="15.32301">
        <ele>1493.59</ele>
        <time>2019-07-11T08:36:35Z</time>
      </trkpt>
      <trkpt lat="46.465527" lon="15.323252">
        <ele>1493.53</ele>
        <time>2019-07-11T08:36:52Z</time>
      </trkpt>
      <trkpt lat="46.465421" lon="15.32354">
        <ele>1496.64</ele>
        <time>2019-07-11T08:37:07Z</time>
      </trkpt>
      <trkpt lat="46.465436" lon="15.323764">
        <ele>1499.35</ele>
        <time>2019-07-11T08:37:16Z</time>
      </trkpt>
      <trkpt lat="46.465387" lon="15.324029">
        <ele>1495.72</ele>
        <time>2019-07-11T08:37:26Z</time>
      </trkpt>
      <trkpt lat="46.465405" lon="15.324128">
        <ele>1490.47</ele>
        <time>2019-07-11T08:37:35Z</time>
      </trkpt>
      <trkpt lat="46.465341" lon="15.324348">
        <ele>1491.79</ele>
        <time>2019-07-11T08:37:52Z</time>
      </trkpt>
      <trkpt lat="46.465282" lon="15.324613">
        <ele>1489.03</ele>
        <time>2019-07-11T08:38:11Z</time>
      </trkpt>
      <trkpt lat="46.465213" lon="15.324851">
        <ele>1478.06</ele>
        <time>2019-07-11T08:38:25Z</time>
      </trkpt>
      <trkpt lat="46.46523" lon="15.324997">
        <ele>1475.38</ele>
        <time>2019-07-11T08:38:33Z</time>
      </trkpt>
      <trkpt lat="46.465314" lon="15.32517">
        <ele>1474.16</ele>
        <time>2019-07-11T08:38:45Z</time>
      </trkpt>
      <trkpt lat="46.465267" lon="15.325288">
        <ele>1474.61</ele>
        <time>2019-07-11T08:38:53Z</time>
      </trkpt>
      <trkpt lat="46.465261" lon="15.325382">
        <ele>1473.39</ele>
        <time>2019-07-11T08:39:02Z</time>
      </trkpt>
      <trkpt lat="46.465288" lon="15.325632">
        <ele>1476.62</ele>
        <time>2019-07-11T08:39:22Z</time>
      </trkpt>
      <trkpt lat="46.465307" lon="15.325901">
        <ele>1472.0</ele>
        <time>2019-07-11T08:39:39Z</time>
      </trkpt>
      <trkpt lat="46.465307" lon="15.325901">
        <ele>1472.0</ele>
        <time>2019-07-11T08:39:47Z</time>
      </trkpt>
      <trkpt lat="46.465307" lon="15.325901">
        <ele>1472.0</ele>
        <time>2019-07-11T08:39:49Z</time>
      </trkpt>
      <trkpt lat="46.465247" lon="15.326106">
        <ele>1465.48</ele>
        <time>2019-07-11T08:40:01Z</time>
      </trkpt>
      <trkpt lat="46.465314" lon="15.326312">
        <ele>1464.09</ele>
        <time>2019-07-11T08:40:23Z</time>
      </trkpt>
      <trkpt lat="46.465314" lon="15.326312">
        <ele>1464.09</ele>
        <time>2019-07-11T08:42:45Z</time>
      </trkpt>
      <trkpt lat="46.465302" lon="15.326754">
        <ele>1466.36</ele>
        <time>2019-07-11T08:43:38Z</time>
      </trkpt>
      <trkpt lat="46.465323" lon="15.326931">
        <ele>1463.18</ele>
        <time>2019-07-11T08:43:46Z</time>
      </trkpt>
      <trkpt lat="46.465399" lon="15.327078">
        <ele>1463.59</ele>
        <time>2019-07-11T08:43:56Z</time>
      </trkpt>
      <trkpt lat="46.465365" lon="15.327475">
        <ele>1458.57</ele>
        <time>2019-07-11T08:44:37Z</time>
      </trkpt>
      <trkpt lat="46.465479" lon="15.327682">
        <ele>1453.37</ele>
        <time>2019-07-11T08:44:54Z</time>
      </trkpt>
      <trkpt lat="46.465556" lon="15.327893">
        <ele>1456.82</ele>
        <time>2019-07-11T08:45:04Z</time>
      </trkpt>
      <trkpt lat="46.46566" lon="15.328023">
        <ele>1455.44</ele>
        <time>2019-07-11T08:45:10Z</time>
      </trkpt>
      <trkpt lat="46.465626" lon="15.328075">
        <ele>1457.54</ele>
        <time>2019-07-11T08:45:18Z</time>
      </trkpt>
      <trkpt lat="46.465615" lon="15.328436">
        <ele>1451.34</ele>
        <time>2019-07-11T08:45:43Z</time>
      </trkpt>
      <trkpt lat="46.465618" lon="15.32857">
        <ele>1453.04</ele>
        <time>2019-07-11T08:45:51Z</time>
      </trkpt>
      <trkpt lat="46.465648" lon="15.328677">
        <ele>1448.86</ele>
        <time>2019-07-11T08:46:04Z</time>
      </trkpt>
      <trkpt lat="46.465541" lon="15.328904">
        <ele>1440.23</ele>
        <time>2019-07-11T08:46:21Z</time>
      </trkpt>
      <trkpt lat="46.46551" lon="15.329087">
        <ele>1442.25</ele>
        <time>2019-07-11T08:46:39Z</time>
      </trkpt>
      <trkpt lat="46.465454" lon="15.329254">
        <ele>1446.09</ele>
        <time>2019-07-11T08:46:50Z</time>
      </trkpt>
      <trkpt lat="46.465473" lon="15.329414">
        <ele>1443.48</ele>
        <time>2019-07-11T08:47:00Z</time>
      </trkpt>
      <trkpt lat="46.465335" lon="15.329488">
        <ele>1442.1</ele>
        <time>2019-07-11T08:47:21Z</time>
      </trkpt>
      <trkpt lat="46.465238" lon="15.329629">
        <ele>1439.48</ele>
        <time>2019-07-11T08:47:35Z</time>
      </trkpt>
      <trkpt lat="46.465274" lon="15.329689">
        <ele>1433.86</ele>
        <time>2019-07-11T08:47:44Z</time>
      </trkpt>
      <trkpt lat="46.465279" lon="15.330126">
        <ele>1424.57</ele>
        <time>2019-07-11T08:48:42Z</time>
      </trkpt>
      <trkpt lat="46.465194" lon="15.330506">
        <ele>1421.24</ele>
        <time>2019-07-11T08:49:34Z</time>
      </trkpt>
      <trkpt lat="46.465176" lon="15.330704">
        <ele>1415.54</ele>
        <time>2019-07-11T08:49:51Z</time>
      </trkpt>
      <trkpt lat="46.465189" lon="15.331112">
        <ele>1407.88</ele>
        <time>2019-07-11T08:51:25Z</time>
      </trkpt>
      <trkpt lat="46.46517" lon="15.331176">
        <ele>1408.05</ele>
        <time>2019-07-11T08:51:32Z</time>
      </trkpt>
      <trkpt lat="46.465174" lon="15.331287">
        <ele>1410.39</ele>
        <time>2019-07-11T08:51:43Z</time>
      </trkpt>
      <trkpt lat="46.465169" lon="15.33155">
        <ele>1404.56</ele>
        <time>2019-07-11T08:51:54Z</time>
      </trkpt>
      <trkpt lat="46.465203" lon="15.331723">
        <ele>1402.34</ele>
        <time>2019-07-11T08:52:02Z</time>
      </trkpt>
      <trkpt lat="46.465291" lon="15.33212">
        <ele>1406.85</ele>
        <time>2019-07-11T08:52:19Z</time>
      </trkpt>
      <trkpt lat="46.465398" lon="15.332364">
        <ele>1412.54</ele>
        <time>2019-07-11T08:52:32Z</time>
      </trkpt>
      <trkpt lat="46.465398" lon="15.332364">
        <ele>1412.54</ele>
        <time>2019-07-11T08:52:40Z</time>
      </trkpt>
      <trkpt lat="46.465398" lon="15.332364">
        <ele>1412.54</ele>
        <time>2019-07-11T08:52:42Z</time>
      </trkpt>
      <trkpt lat="46.465375" lon="15.33267">
        <ele>1401.09</ele>
        <time>2019-07-11T08:53:06Z</time>
      </trkpt>
      <trkpt lat="46.465375" lon="15.33267">
        <ele>1401.09</ele>
        <time>2019-07-11T08:53:13Z</time>
      </trkpt>
      <trkpt lat="46.465375" lon="15.33267">
        <ele>1401.09</ele>
        <time>2019-07-11T08:53:15Z</time>
      </trkpt>
      <trkpt lat="46.465431" lon="15.33296">
        <ele>1394.57</ele>
        <time>2019-07-11T08:53:37Z</time>
      </trkpt>
      <trkpt lat="46.465494" lon="15.333141">
        <ele>1389.11</ele>
        <time>2019-07-11T08:53:54Z</time>
      </trkpt>
      <trkpt lat="46.4655" lon="15.333361">
        <ele>1387.84</ele>
        <time>2019-07-11T08:54:07Z</time>
      </trkpt>
      <trkpt lat="46.465549" lon="15.333533">
        <ele>1380.22</ele>
        <time>2019-07-11T08:54:22Z</time>
      </trkpt>
      <trkpt lat="46.465323" lon="15.333533">
        <ele>1382.49</ele>
        <time>2019-07-11T08:54:44Z</time>
      </trkpt>
      <trkpt lat="46.465279" lon="15.333514">
        <ele>1386.05</ele>
        <time>2019-07-11T08:54:47Z</time>
      </trkpt>
      <trkpt lat="46.465257" lon="15.333536">
        <ele>1386.06</ele>
        <time>2019-07-11T08:54:55Z</time>
      </trkpt>
      <trkpt lat="46.465262" lon="15.33375">
        <ele>1377.78</ele>
        <time>2019-07-11T08:55:27Z</time>
      </trkpt>
      <trkpt lat="46.465385" lon="15.334007">
        <ele>1376.37</ele>
        <time>2019-07-11T08:55:39Z</time>
      </trkpt>
      <trkpt lat="46.465326" lon="15.334172">
        <ele>1378.29</ele>
        <time>2019-07-11T08:55:52Z</time>
      </trkpt>
      <trkpt lat="46.46533" lon="15.334608">
        <ele>1383.46</ele>
        <time>2019-07-11T08:56:09Z</time>
      </trkpt>
      <trkpt lat="46.465368" lon="15.334718">
        <ele>1384.94</ele>
        <time>2019-07-11T08:56:17Z</time>
      </trkpt>
      <trkpt lat="46.465466" lon="15.334902">
        <ele>1382.19</ele>
        <time>2019-07-11T08:56:36Z</time>
      </trkpt>
      <trkpt lat="46.465763" lon="15.335088">
        <ele>1379.9</ele>
        <time>2019-07-11T08:56:56Z</time>
      </trkpt>
      <trkpt lat="46.465881" lon="15.335119">
        <ele>1382.98</ele>
        <time>2019-07-11T08:57:04Z</time>
      </trkpt>
      <trkpt lat="46.465997" lon="15.335219">
        <ele>1389.33</ele>
        <time>2019-07-11T08:57:14Z</time>
      </trkpt>
      <trkpt lat="46.46591" lon="15.335338">
        <ele>1386.35</ele>
        <time>2019-07-11T08:57:27Z</time>
      </trkpt>
      <trkpt lat="46.465845" lon="15.335546">
        <ele>1389.33</ele>
        <time>2019-07-11T08:57:39Z</time>
      </trkpt>
      <trkpt lat="46.465722" lon="15.335701">
        <ele>1391.92</ele>
        <time>2019-07-11T08:57:51Z</time>
      </trkpt>
      <trkpt lat="46.465659" lon="15.335819">
        <ele>1392.54</ele>
        <time>2019-07-11T08:58:00Z</time>
      </trkpt>
      <trkpt lat="46.465579" lon="15.336069">
        <ele>1393.65</ele>
        <time>2019-07-11T08:58:17Z</time>
      </trkpt>
      <trkpt lat="46.465455" lon="15.336242">
        <ele>1396.97</ele>
        <time>2019-07-11T08:58:32Z</time>
      </trkpt>
      <trkpt lat="46.465363" lon="15.336437">
        <ele>1401.79</ele>
        <time>2019-07-11T08:58:46Z</time>
      </trkpt>
      <trkpt lat="46.465285" lon="15.33662">
        <ele>1402.33</ele>
        <time>2019-07-11T08:59:00Z</time>
      </trkpt>
      <trkpt lat="46.465214" lon="15.336858">
        <ele>1401.19</ele>
        <time>2019-07-11T08:59:16Z</time>
      </trkpt>
      <trkpt lat="46.465107" lon="15.337085">
        <ele>1406.03</ele>
        <time>2019-07-11T08:59:32Z</time>
      </trkpt>
      <trkpt lat="46.465018" lon="15.337264">
        <ele>1410.17</ele>
        <time>2019-07-11T08:59:46Z</time>
      </trkpt>
      <trkpt lat="46.464953" lon="15.337541">
        <ele>1419.19</ele>
        <time>2019-07-11T09:00:04Z</time>
      </trkpt>
      <trkpt lat="46.464878" lon="15.337817">
        <ele>1421.94</ele>
        <time>2019-07-11T09:00:21Z</time>
      </trkpt>
      <trkpt lat="46.464936" lon="15.338105">
        <ele>1418.76</ele>
        <time>2019-07-11T09:00:36Z</time>
      </trkpt>
      <trkpt lat="46.465032" lon="15.338367">
        <ele>1425.24</ele>
        <time>2019-07-11T09:00:54Z</time>
      </trkpt>
      <trkpt lat="46.465171" lon="15.338604">
        <ele>1421.12</ele>
        <time>2019-07-11T09:01:09Z</time>
      </trkpt>
      <trkpt lat="46.465269" lon="15.338771">
        <ele>1419.17</ele>
        <time>2019-07-11T09:01:24Z</time>
      </trkpt>
      <trkpt lat="46.465429" lon="15.339027">
        <ele>1414.61</ele>
        <time>2019-07-11T09:01:43Z</time>
      </trkpt>
      <trkpt lat="46.465528" lon="15.339276">
        <ele>1414.14</ele>
        <time>2019-07-11T09:01:58Z</time>
      </trkpt>
      <trkpt lat="46.46562" lon="15.339522">
        <ele>1417.17</ele>
        <time>2019-07-11T09:02:14Z</time>
      </trkpt>
      <trkpt lat="46.465718" lon="15.339689">
        <ele>1413.11</ele>
        <time>2019-07-11T09:02:27Z</time>
      </trkpt>
      <trkpt lat="46.465794" lon="15.339901">
        <ele>1410.31</ele>
        <time>2019-07-11T09:02:41Z</time>
      </trkpt>
      <trkpt lat="46.465835" lon="15.340139">
        <ele>1415.47</ele>
        <time>2019-07-11T09:02:58Z</time>
      </trkpt>
      <trkpt lat="46.465781" lon="15.340444">
        <ele>1425.23</ele>
        <time>2019-07-11T09:03:18Z</time>
      </trkpt>
      <trkpt lat="46.465826" lon="15.340711">
        <ele>1427.88</ele>
        <time>2019-07-11T09:03:36Z</time>
      </trkpt>
      <trkpt lat="46.46581" lon="15.34104">
        <ele>1430.25</ele>
        <time>2019-07-11T09:03:55Z</time>
      </trkpt>
      <trkpt lat="46.465823" lon="15.34129">
        <ele>1424.73</ele>
        <time>2019-07-11T09:04:08Z</time>
      </trkpt>
      <trkpt lat="46.465857" lon="15.34153">
        <ele>1425.74</ele>
        <time>2019-07-11T09:04:23Z</time>
      </trkpt>
      <trkpt lat="46.465891" lon="15.341879">
        <ele>1431.78</ele>
        <time>2019-07-11T09:04:40Z</time>
      </trkpt>
      <trkpt lat="46.465943" lon="15.342054">
        <ele>1428.26</ele>
        <time>2019-07-11T09:04:51Z</time>
      </trkpt>
      <trkpt lat="46.466078" lon="15.342235">
        <ele>1427.22</ele>
        <time>2019-07-11T09:05:07Z</time>
      </trkpt>
      <trkpt lat="46.466111" lon="15.34243">
        <ele>1429.51</ele>
        <time>2019-07-11T09:05:19Z</time>
      </trkpt>
      <trkpt lat="46.466177" lon="15.342573">
        <ele>1433.37</ele>
        <time>2019-07-11T09:05:30Z</time>
      </trkpt>
      <trkpt lat="46.466274" lon="15.342781">
        <ele>1429.32</ele>
        <time>2019-07-11T09:05:46Z</time>
      </trkpt>
      <trkpt lat="46.466384" lon="15.34299">
        <ele>1434.37</ele>
        <time>2019-07-11T09:06:05Z</time>
      </trkpt>
      <trkpt lat="46.466542" lon="15.34324">
        <ele>1434.9</ele>
        <time>2019-07-11T09:06:22Z</time>
      </trkpt>
      <trkpt lat="46.466648" lon="15.343473">
        <ele>1437.57</ele>
        <time>2019-07-11T09:06:36Z</time>
      </trkpt>
      <trkpt lat="46.466764" lon="15.343721">
        <ele>1437.05</ele>
        <time>2019-07-11T09:06:52Z</time>
      </trkpt>
      <trkpt lat="46.466825" lon="15.3438">
        <ele>1437.37</ele>
        <time>2019-07-11T09:06:59Z</time>
      </trkpt>
      <trkpt lat="46.466936" lon="15.343974">
        <ele>1437.11</ele>
        <time>2019-07-11T09:07:14Z</time>
      </trkpt>
      <trkpt lat="46.467122" lon="15.344163">
        <ele>1435.94</ele>
        <time>2019-07-11T09:07:30Z</time>
      </trkpt>
      <trkpt lat="46.467122" lon="15.344163">
        <ele>1435.94</ele>
        <time>2019-07-11T09:07:38Z</time>
      </trkpt>
      <trkpt lat="46.467122" lon="15.344163">
        <ele>1435.94</ele>
        <time>2019-07-11T09:07:39Z</time>
      </trkpt>
      <trkpt lat="46.467122" lon="15.344163">
        <time>2019-07-11T09:08:46Z</time>
      </trkpt>
    </trkseg>
    <trkseg>
      <trkpt lat="46.467122" lon="15.344163">
        <time>2019-07-11T09:22:45Z</time>
      </trkpt>
      <trkpt lat="46.467244" lon="15.34414">
        <ele>1435.72</ele>
        <time>2019-07-11T09:22:46Z</time>
      </trkpt>
      <trkpt lat="46.467387" lon="15.344287">
        <ele>1434.29</ele>
        <time>2019-07-11T09:23:00Z</time>
      </trkpt>
      <trkpt lat="46.467493" lon="15.344376">
        <ele>1431.24</ele>
        <time>2019-07-11T09:23:11Z</time>
      </trkpt>
      <trkpt lat="46.46769" lon="15.344487">
        <ele>1437.4</ele>
        <time>2019-07-11T09:23:28Z</time>
      </trkpt>
      <trkpt lat="46.46769" lon="15.344487">
        <time>2019-07-11T09:24:49Z</time>
      </trkpt>
    </trkseg>
    <trkseg>
      <trkpt lat="46.46769" lon="15.344487">
        <time>2019-07-11T09:31:55Z</time>
      </trkpt>
      <trkpt lat="46.467724" lon="15.344616">
        <ele>1444.47</ele>
        <time>2019-07-11T09:31:56Z</time>
      </trkpt>
      <trkpt lat="46.467876" lon="15.344667">
        <ele>1447.47</ele>
        <time>2019-07-11T09:32:24Z</time>
      </trkpt>
      <trkpt lat="46.468024" lon="15.344816">
        <ele>1451.84</ele>
        <time>2019-07-11T09:32:39Z</time>
      </trkpt>
      <trkpt lat="46.468191" lon="15.345039">
        <ele>1450.08</ele>
        <time>2019-07-11T09:32:58Z</time>
      </trkpt>
      <trkpt lat="46.468326" lon="15.345115">
        <ele>1455.11</ele>
        <time>2019-07-11T09:33:14Z</time>
      </trkpt>
      <trkpt lat="46.468485" lon="15.345251">
        <ele>1452.04</ele>
        <time>2019-07-11T09:33:32Z</time>
      </trkpt>
      <trkpt lat="46.468649" lon="15.345405">
        <ele>1451.63</ele>
        <time>2019-07-11T09:33:53Z</time>
      </trkpt>
      <trkpt lat="46.468774" lon="15.34554">
        <ele>1461.06</ele>
        <time>2019-07-11T09:34:06Z</time>
      </trkpt>
      <trkpt lat="46.468925" lon="15.34568">
        <ele>1453.58</ele>
        <time>2019-07-11T09:34:24Z</time>
      </trkpt>
      <trkpt lat="46.469075" lon="15.345775">
        <ele>1454.12</ele>
        <time>2019-07-11T09:34:35Z</time>
      </trkpt>
      <trkpt lat="46.469183" lon="15.345824">
        <ele>1452.89</ele>
        <time>2019-07-11T09:34:43Z</time>
      </trkpt>
      <trkpt lat="46.469308" lon="15.345839">
        <ele>1454.95</ele>
        <time>2019-07-11T09:34:54Z</time>
      </trkpt>
      <trkpt lat="46.469308" lon="15.345839">
        <ele>1454.95</ele>
        <time>2019-07-11T09:35:02Z</time>
      </trkpt>
      <trkpt lat="46.469308" lon="15.345839">
        <ele>1454.95</ele>
        <time>2019-07-11T09:35:03Z</time>
      </trkpt>
      <trkpt lat="46.469476" lon="15.345858">
        <ele>1459.46</ele>
        <time>2019-07-11T09:35:22Z</time>
      </trkpt>
      <trkpt lat="46.469704" lon="15.346003">
        <ele>1458.74</ele>
        <time>2019-07-11T09:35:38Z</time>
      </trkpt>
      <trkpt lat="46.46986" lon="15.346172">
        <ele>1458.66</ele>
        <time>2019-07-11T09:35:52Z</time>
      </trkpt>
      <trkpt lat="46.470046" lon="15.346246">
        <ele>1456.8</ele>
        <time>2019-07-11T09:36:05Z</time>
      </trkpt>
      <trkpt lat="46.470225" lon="15.346142">
        <ele>1456.03</ele>
        <time>2019-07-11T09:36:21Z</time>
      </trkpt>
      <trkpt lat="46.470331" lon="15.346027">
        <ele>1454.22</ele>
        <time>2019-07-11T09:36:31Z</time>
      </trkpt>
      <trkpt lat="46.470456" lon="15.345908">
        <ele>1457.2</ele>
        <time>2019-07-11T09:36:44Z</time>
      </trkpt>
      <trkpt lat="46.470578" lon="15.34582">
        <ele>1454.43</ele>
        <time>2019-07-11T09:36:55Z</time>
      </trkpt>
      <trkpt lat="46.470756" lon="15.34577">
        <ele>1452.47</ele>
        <time>2019-07-11T09:37:07Z</time>
      </trkpt>
      <trkpt lat="46.470841" lon="15.345783">
        <ele>1452.59</ele>
        <time>2019-07-11T09:37:14Z</time>
      </trkpt>
      <trkpt lat="46.47109" lon="15.345725">
        <ele>1450.56</ele>
        <time>2019-07-11T09:37:33Z</time>
      </trkpt>
      <trkpt lat="46.471202" lon="15.34573">
        <ele>1447.51</ele>
        <time>2019-07-11T09:37:42Z</time>
      </trkpt>
      <trkpt lat="46.47134" lon="15.345684">
        <ele>1445.17</ele>
        <time>2019-07-11T09:37:56Z</time>
      </trkpt>
      <trkpt lat="46.471509" lon="15.34574">
        <ele>1448.77</ele>
        <time>2019-07-11T09:38:11Z</time>
      </trkpt>
      <trkpt lat="46.471682" lon="15.345716">
        <ele>1449.11</ele>
        <time>2019-07-11T09:38:24Z</time>
      </trkpt>
      <trkpt lat="46.471792" lon="15.345708">
        <ele>1451.56</ele>
        <time>2019-07-11T09:38:35Z</time>
      </trkpt>
      <trkpt lat="46.472017" lon="15.345614">
        <ele>1452.42</ele>
        <time>2019-07-11T09:38:53Z</time>
      </trkpt>
      <trkpt lat="46.47224" lon="15.345653">
        <ele>1450.33</ele>
        <time>2019-07-11T09:39:12Z</time>
      </trkpt>
      <trkpt lat="46.472412" lon="15.34563">
        <ele>1454.13</ele>
        <time>2019-07-11T09:39:26Z</time>
      </trkpt>
      <trkpt lat="46.47259" lon="15.345616">
        <ele>1455.38</ele>
        <time>2019-07-11T09:39:43Z</time>
      </trkpt>
      <trkpt lat="46.472792" lon="15.345557">
        <ele>1454.61</ele>
        <time>2019-07-11T09:39:58Z</time>
      </trkpt>
      <trkpt lat="46.472966" lon="15.34551">
        <ele>1455.95</ele>
        <time>2019-07-11T09:40:12Z</time>
      </trkpt>
      <trkpt lat="46.473125" lon="15.345426">
        <ele>1452.76</ele>
        <time>2019-07-11T09:40:28Z</time>
      </trkpt>
      <trkpt lat="46.473251" lon="15.345385">
        <ele>1448.65</ele>
        <time>2019-07-11T09:40:40Z</time>
      </trkpt>
      <trkpt lat="46.473514" lon="15.345334">
        <ele>1457.54</ele>
        <time>2019-07-11T09:41:00Z</time>
      </trkpt>
      <trkpt lat="46.473691" lon="15.3453">
        <ele>1461.39</ele>
        <time>2019-07-11T09:41:15Z</time>
      </trkpt>
      <trkpt lat="46.473858" lon="15.345259">
        <ele>1449.64</ele>
        <time>2019-07-11T09:41:30Z</time>
      </trkpt>
      <trkpt lat="46.473978" lon="15.345323">
        <ele>1449.29</ele>
        <time>2019-07-11T09:41:44Z</time>
      </trkpt>
      <trkpt lat="46.474112" lon="15.345151">
        <ele>1449.23</ele>
        <time>2019-07-11T09:41:59Z</time>
      </trkpt>
      <trkpt lat="46.474284" lon="15.345093">
        <ele>1451.27</ele>
        <time>2019-07-11T09:42:11Z</time>
      </trkpt>
      <trkpt lat="46.4744" lon="15.345023">
        <ele>1455.81</ele>
        <time>2019-07-11T09:42:20Z</time>
      </trkpt>
      <trkpt lat="46.474477" lon="15.345085">
        <ele>1453.08</ele>
        <time>2019-07-11T09:42:27Z</time>
      </trkpt>
      <trkpt lat="46.474545" lon="15.345054">
        <ele>1451.77</ele>
        <time>2019-07-11T09:42:40Z</time>
      </trkpt>
      <trkpt lat="46.474658" lon="15.345064">
        <ele>1454.28</ele>
        <time>2019-07-11T09:42:47Z</time>
      </trkpt>
      <trkpt lat="46.474674" lon="15.345098">
        <ele>1456.19</ele>
        <time>2019-07-11T09:42:57Z</time>
      </trkpt>
      <trkpt lat="46.474814" lon="15.345211">
        <ele>1459.15</ele>
        <time>2019-07-11T09:43:43Z</time>
      </trkpt>
      <trkpt lat="46.474942" lon="15.34531">
        <ele>1455.86</ele>
        <time>2019-07-11T09:43:55Z</time>
      </trkpt>
      <trkpt lat="46.475013" lon="15.345389">
        <ele>1456.48</ele>
        <time>2019-07-11T09:44:06Z</time>
      </trkpt>
      <trkpt lat="46.475263" lon="15.345477">
        <ele>1449.77</ele>
        <time>2019-07-11T09:44:27Z</time>
      </trkpt>
      <trkpt lat="46.475263" lon="15.345477">
        <ele>1449.77</ele>
        <time>2019-07-11T09:44:35Z</time>
      </trkpt>
      <trkpt lat="46.475263" lon="15.345477">
        <ele>1449.77</ele>
        <time>2019-07-11T09:44:36Z</time>
      </trkpt>
      <trkpt lat="46.475446" lon="15.345539">
        <ele>1444.46</ele>
        <time>2019-07-11T09:44:46Z</time>
      </trkpt>
      <trkpt lat="46.475594" lon="15.345585">
        <ele>1453.2</ele>
        <time>2019-07-11T09:44:54Z</time>
      </trkpt>
      <trkpt lat="46.475792" lon="15.345601">
        <ele>1450.21</ele>
        <time>2019-07-11T09:45:09Z</time>
      </trkpt>
      <trkpt lat="46.475978" lon="15.345678">
        <ele>1452.41</ele>
        <time>2019-07-11T09:45:28Z</time>
      </trkpt>
      <trkpt lat="46.476173" lon="15.34574">
        <ele>1449.34</ele>
        <time>2019-07-11T09:45:45Z</time>
      </trkpt>
      <trkpt lat="46.476289" lon="15.345775">
        <ele>1446.49</ele>
        <time>2019-07-11T09:45:56Z</time>
      </trkpt>
      <trkpt lat="46.476418" lon="15.345927">
        <ele>1449.69</ele>
        <time>2019-07-11T09:46:13Z</time>
      </trkpt>
      <trkpt lat="46.47659" lon="15.346016">
        <ele>1451.84</ele>
        <time>2019-07-11T09:46:28Z</time>
      </trkpt>
      <trkpt lat="46.476684" lon="15.346141">
        <ele>1450.82</ele>
        <time>2019-07-11T09:46:39Z</time>
      </trkpt>
      <trkpt lat="46.476839" lon="15.346173">
        <ele>1453.9</ele>
        <time>2019-07-11T09:46:55Z</time>
      </trkpt>
      <trkpt lat="46.47697" lon="15.346312">
        <ele>1451.45</ele>
        <time>2019-07-11T09:47:08Z</time>
      </trkpt>
      <trkpt lat="46.477123" lon="15.346308">
        <ele>1446.48</ele>
        <time>2019-07-11T09:47:20Z</time>
      </trkpt>
      <trkpt lat="46.477266" lon="15.346304">
        <ele>1447.28</ele>
        <time>2019-07-11T09:47:38Z</time>
      </trkpt>
      <trkpt lat="46.477418" lon="15.346258">
        <ele>1443.91</ele>
        <time>2019-07-11T09:47:46Z</time>
      </trkpt>
      <trkpt lat="46.47746" lon="15.346289">
        <ele>1442.02</ele>
        <time>2019-07-11T09:47:50Z</time>
      </trkpt>
      <trkpt lat="46.477464" lon="15.346333">
        <ele>1445.53</ele>
        <time>2019-07-11T09:47:59Z</time>
      </trkpt>
      <trkpt lat="46.477742" lon="15.346125">
        <ele>1438.49</ele>
        <time>2019-07-11T09:48:45Z</time>
      </trkpt>
      <trkpt lat="46.478039" lon="15.346128">
        <ele>1440.07</ele>
        <time>2019-07-11T09:49:22Z</time>
      </trkpt>
      <trkpt lat="46.478193" lon="15.346073">
        <ele>1444.0</ele>
        <time>2019-07-11T09:49:39Z</time>
      </trkpt>
      <trkpt lat="46.478347" lon="15.34604">
        <ele>1435.77</ele>
        <time>2019-07-11T09:49:55Z</time>
      </trkpt>
      <trkpt lat="46.47849" lon="15.346024">
        <ele>1439.32</ele>
        <time>2019-07-11T09:50:08Z</time>
      </trkpt>
      <trkpt lat="46.478643" lon="15.346099">
        <ele>1439.09</ele>
        <time>2019-07-11T09:50:22Z</time>
      </trkpt>
      <trkpt lat="46.478825" lon="15.346036">
        <ele>1440.14</ele>
        <time>2019-07-11T09:50:36Z</time>
      </trkpt>
      <trkpt lat="46.478941" lon="15.346062">
        <ele>1438.93</ele>
        <time>2019-07-11T09:50:49Z</time>
      </trkpt>
      <trkpt lat="46.479039" lon="15.346018">
        <ele>1439.79</ele>
        <time>2019-07-11T09:50:59Z</time>
      </trkpt>
      <trkpt lat="46.479108" lon="15.346247">
        <ele>1432.22</ele>
        <time>2019-07-11T09:51:18Z</time>
      </trkpt>
      <trkpt lat="46.479174" lon="15.346483">
        <ele>1435.4</ele>
        <time>2019-07-11T09:51:31Z</time>
      </trkpt>
      <trkpt lat="46.479235" lon="15.346758">
        <ele>1435.39</ele>
        <time>2019-07-11T09:51:45Z</time>
      </trkpt>
      <trkpt lat="46.47929" lon="15.346918">
        <ele>1440.15</ele>
        <time>2019-07-11T09:51:55Z</time>
      </trkpt>
      <trkpt lat="46.479357" lon="15.34711">
        <ele>1437.85</ele>
        <time>2019-07-11T09:52:09Z</time>
      </trkpt>
      <trkpt lat="46.479453" lon="15.347245">
        <ele>1433.76</ele>
        <time>2019-07-11T09:52:19Z</time>
      </trkpt>
      <trkpt lat="46.47952" lon="15.347446">
        <ele>1426.79</ele>
        <time>2019-07-11T09:52:32Z</time>
      </trkpt>
      <trkpt lat="46.479692" lon="15.347541">
        <ele>1417.57</ele>
        <time>2019-07-11T09:52:44Z</time>
      </trkpt>
      <trkpt lat="46.47974" lon="15.347593">
        <ele>1414.37</ele>
        <time>2019-07-11T09:53:01Z</time>
      </trkpt>
      <trkpt lat="46.479925" lon="15.3477">
        <ele>1406.75</ele>
        <time>2019-07-11T09:53:16Z</time>
      </trkpt>
      <trkpt lat="46.479917" lon="15.348009">
        <ele>1412.39</ele>
        <time>2019-07-11T09:53:38Z</time>
      </trkpt>
      <trkpt lat="46.479992" lon="15.348223">
        <ele>1416.58</ele>
        <time>2019-07-11T09:53:56Z</time>
      </trkpt>
      <trkpt lat="46.480091" lon="15.348388">
        <ele>1404.68</ele>
        <time>2019-07-11T09:54:12Z</time>
      </trkpt>
      <trkpt lat="46.480151" lon="15.348564">
        <ele>1399.96</ele>
        <time>2019-07-11T09:54:26Z</time>
      </trkpt>
      <trkpt lat="46.48015" lon="15.348705">
        <ele>1392.56</ele>
        <time>2019-07-11T09:54:40Z</time>
      </trkpt>
      <trkpt lat="46.480207" lon="15.348897">
        <ele>1388.71</ele>
        <time>2019-07-11T09:54:55Z</time>
      </trkpt>
      <trkpt lat="46.480226" lon="15.349011">
        <ele>1383.26</ele>
        <time>2019-07-11T09:55:10Z</time>
      </trkpt>
      <trkpt lat="46.480271" lon="15.349218">
        <ele>1384.54</ele>
        <time>2019-07-11T09:55:27Z</time>
      </trkpt>
      <trkpt lat="46.480333" lon="15.34944">
        <ele>1384.09</ele>
        <time>2019-07-11T09:55:44Z</time>
      </trkpt>
      <trkpt lat="46.480475" lon="15.349761">
        <ele>1381.23</ele>
        <time>2019-07-11T09:56:17Z</time>
      </trkpt>
      <trkpt lat="46.480599" lon="15.349993">
        <ele>1371.51</ele>
        <time>2019-07-11T09:56:34Z</time>
      </trkpt>
      <trkpt lat="46.480679" lon="15.350077">
        <ele>1367.66</ele>
        <time>2019-07-11T09:56:41Z</time>
      </trkpt>
      <trkpt lat="46.480733" lon="15.350407">
        <ele>1364.11</ele>
        <time>2019-07-11T09:56:57Z</time>
      </trkpt>
      <trkpt lat="46.480832" lon="15.350611">
        <ele>1360.69</ele>
        <time>2019-07-11T09:57:10Z</time>
      </trkpt>
      <trkpt lat="46.48093" lon="15.350859">
        <ele>1359.14</ele>
        <time>2019-07-11T09:57:25Z</time>
      </trkpt>
      <trkpt lat="46.480977" lon="15.350943">
        <ele>1361.67</ele>
        <time>2019-07-11T09:57:30Z</time>
      </trkpt>
      <trkpt lat="46.480944" lon="15.351082">
        <ele>1359.74</ele>
        <time>2019-07-11T09:57:48Z</time>
      </trkpt>
      <trkpt lat="46.48097" lon="15.351293">
        <ele>1360.19</ele>
        <time>2019-07-11T09:57:59Z</time>
      </trkpt>
      <trkpt lat="46.480997" lon="15.351556">
        <ele>1355.62</ele>
        <time>2019-07-11T09:58:11Z</time>
      </trkpt>
      <trkpt lat="46.480981" lon="15.351756">
        <ele>1364.89</ele>
        <time>2019-07-11T09:58:22Z</time>
      </trkpt>
      <trkpt lat="46.480918" lon="15.352234">
        <ele>1363.29</ele>
        <time>2019-07-11T09:59:01Z</time>
      </trkpt>
      <trkpt lat="46.480816" lon="15.352469">
        <ele>1360.42</ele>
        <time>2019-07-11T09:59:09Z</time>
      </trkpt>
      <trkpt lat="46.480758" lon="15.352691">
        <ele>1364.09</ele>
        <time>2019-07-11T09:59:16Z</time>
      </trkpt>
      <trkpt lat="46.480765" lon="15.352952">
        <ele>1357.73</ele>
        <time>2019-07-11T09:59:27Z</time>
      </trkpt>
      <trkpt lat="46.480706" lon="15.353156">
        <ele>1353.34</ele>
        <time>2019-07-11T09:59:39Z</time>
      </trkpt>
      <trkpt lat="46.480648" lon="15.353368">
        <ele>1350.04</ele>
        <time>2019-07-11T09:59:52Z</time>
      </trkpt>
      <trkpt lat="46.480599" lon="15.353487">
        <ele>1347.6</ele>
        <time>2019-07-11T10:00:00Z</time>
      </trkpt>
      <trkpt lat="46.480599" lon="15.353487">
        <ele>1347.6</ele>
        <time>2019-07-11T10:00:08Z</time>
      </trkpt>
      <trkpt lat="46.480599" lon="15.353487">
        <ele>1347.6</ele>
        <time>2019-07-11T10:00:09Z</time>
      </trkpt>
      <trkpt lat="46.480627" lon="15.353679">
        <ele>1349.37</ele>
        <time>2019-07-11T10:00:23Z</time>
      </trkpt>
      <trkpt lat="46.480612" lon="15.353795">
        <ele>1353.28</ele>
        <time>2019-07-11T10:00:35Z</time>
      </trkpt>
      <trkpt lat="46.480539" lon="15.354206">
        <ele>1353.94</ele>
        <time>2019-07-11T10:00:52Z</time>
      </trkpt>
      <trkpt lat="46.480528" lon="15.35424">
        <ele>1353.52</ele>
        <time>2019-07-11T10:00:53Z</time>
      </trkpt>
      <trkpt lat="46.480505" lon="15.354371">
        <ele>1344.19</ele>
        <time>2019-07-11T10:01:05Z</time>
      </trkpt>
      <trkpt lat="46.480634" lon="15.354643">
        <ele>1344.17</ele>
        <time>2019-07-11T10:01:18Z</time>
      </trkpt>
      <trkpt lat="46.480669" lon="15.354866">
        <ele>1342.85</ele>
        <time>2019-07-11T10:01:29Z</time>
      </trkpt>
      <trkpt lat="46.480669" lon="15.354866">
        <ele>1342.85</ele>
        <time>2019-07-11T10:01:36Z</time>
      </trkpt>
      <trkpt lat="46.480744" lon="15.355112">
        <ele>1342.73</ele>
        <time>2019-07-11T10:01:48Z</time>
      </trkpt>
      <trkpt lat="46.480752" lon="15.355404">
        <ele>1347.17</ele>
        <time>2019-07-11T10:02:02Z</time>
      </trkpt>
      <trkpt lat="46.480742" lon="15.355599">
        <ele>1346.29</ele>
        <time>2019-07-11T10:02:11Z</time>
      </trkpt>
      <trkpt lat="46.480811" lon="15.355808">
        <ele>1348.08</ele>
        <time>2019-07-11T10:02:21Z</time>
      </trkpt>
      <trkpt lat="46.480856" lon="15.355935">
        <ele>1354.4</ele>
        <time>2019-07-11T10:02:30Z</time>
      </trkpt>
      <trkpt lat="46.480817" lon="15.356128">
        <ele>1352.33</ele>
        <time>2019-07-11T10:02:42Z</time>
      </trkpt>
      <trkpt lat="46.480829" lon="15.356377">
        <ele>1350.75</ele>
        <time>2019-07-11T10:02:58Z</time>
      </trkpt>
      <trkpt lat="46.480843" lon="15.356563">
        <ele>1345.94</ele>
        <time>2019-07-11T10:03:09Z</time>
      </trkpt>
      <trkpt lat="46.480876" lon="15.3568">
        <ele>1342.83</ele>
        <time>2019-07-11T10:03:24Z</time>
      </trkpt>
      <trkpt lat="46.480875" lon="15.357013">
        <ele>1337.41</ele>
        <time>2019-07-11T10:03:41Z</time>
      </trkpt>
      <trkpt lat="46.480876" lon="15.357422">
        <ele>1334.63</ele>
        <time>2019-07-11T10:04:30Z</time>
      </trkpt>
      <trkpt lat="46.480886" lon="15.357528">
        <ele>1333.45</ele>
        <time>2019-07-11T10:04:42Z</time>
      </trkpt>
      <trkpt lat="46.480961" lon="15.357594">
        <ele>1334.54</ele>
        <time>2019-07-11T10:04:56Z</time>
      </trkpt>
      <trkpt lat="46.480961" lon="15.357594">
        <ele>1334.54</ele>
        <time>2019-07-11T10:05:03Z</time>
      </trkpt>
      <trkpt lat="46.480961" lon="15.357594">
        <ele>1334.54</ele>
        <time>2019-07-11T10:05:04Z</time>
      </trkpt>
      <trkpt lat="46.481037" lon="15.358015">
        <ele>1323.76</ele>
        <time>2019-07-11T10:05:37Z</time>
      </trkpt>
      <trkpt lat="46.481002" lon="15.358265">
        <ele>1321.87</ele>
        <time>2019-07-11T10:05:53Z</time>
      </trkpt>
      <trkpt lat="46.481042" lon="15.358591">
        <ele>1320.79</ele>
        <time>2019-07-11T10:06:12Z</time>
      </trkpt>
      <trkpt lat="46.481056" lon="15.358782">
        <ele>1322.8</ele>
        <time>2019-07-11T10:06:30Z</time>
      </trkpt>
      <trkpt lat="46.481025" lon="15.358977">
        <ele>1318.54</ele>
        <time>2019-07-11T10:06:45Z</time>
      </trkpt>
      <trkpt lat="46.481009" lon="15.359343">
        <ele>1316.84</ele>
        <time>2019-07-11T10:06:58Z</time>
      </trkpt>
      <trkpt lat="46.481" lon="15.359666">
        <ele>1307.44</ele>
        <time>2019-07-11T10:07:13Z</time>
      </trkpt>
      <trkpt lat="46.481026" lon="15.359955">
        <ele>1310.06</ele>
        <time>2019-07-11T10:07:23Z</time>
      </trkpt>
      <trkpt lat="46.481022" lon="15.360093">
        <ele>1308.21</ele>
        <time>2019-07-11T10:07:29Z</time>
      </trkpt>
      <trkpt lat="46.481037" lon="15.360138">
        <ele>1307.36</ele>
        <time>2019-07-11T10:07:37Z</time>
      </trkpt>
      <trkpt lat="46.481128" lon="15.360258">
        <ele>1305.84</ele>
        <time>2019-07-11T10:07:47Z</time>
      </trkpt>
      <trkpt lat="46.481247" lon="15.360284">
        <ele>1307.54</ele>
        <time>2019-07-11T10:07:57Z</time>
      </trkpt>
      <trkpt lat="46.481285" lon="15.360365">
        <ele>1308.03</ele>
        <time>2019-07-11T10:08:05Z</time>
      </trkpt>
      <trkpt lat="46.481328" lon="15.360489">
        <ele>1309.23</ele>
        <time>2019-07-11T10:08:22Z</time>
      </trkpt>
      <trkpt lat="46.481404" lon="15.360681">
        <ele>1305.81</ele>
        <time>2019-07-11T10:08:37Z</time>
      </trkpt>
      <trkpt lat="46.481426" lon="15.360826">
        <ele>1313.15</ele>
        <time>2019-07-11T10:08:51Z</time>
      </trkpt>
      <trkpt lat="46.481501" lon="15.360932">
        <ele>1311.99</ele>
        <time>2019-07-11T10:09:11Z</time>
      </trkpt>
      <trkpt lat="46.481633" lon="15.361213">
        <ele>1315.85</ele>
        <time>2019-07-11T10:09:27Z</time>
      </trkpt>
      <trkpt lat="46.481687" lon="15.361435">
        <ele>1328.26</ele>
        <time>2019-07-11T10:09:40Z</time>
      </trkpt>
      <trkpt lat="46.481778" lon="15.361641">
        <ele>1331.19</ele>
        <time>2019-07-11T10:09:56Z</time>
      </trkpt>
      <trkpt lat="46.481925" lon="15.361773">
        <ele>1332.6</ele>
        <time>2019-07-11T10:10:07Z</time>
      </trkpt>
      <trkpt lat="46.482044" lon="15.361885">
        <ele>1330.89</ele>
        <time>2019-07-11T10:10:19Z</time>
      </trkpt>
      <trkpt lat="46.482217" lon="15.362018">
        <ele>1333.54</ele>
        <time>2019-07-11T10:10:36Z</time>
      </trkpt>
      <trkpt lat="46.482412" lon="15.362078">
        <ele>1336.66</ele>
        <time>2019-07-11T10:10:53Z</time>
      </trkpt>
      <trkpt lat="46.482544" lon="15.362168">
        <ele>1333.03</ele>
        <time>2019-07-11T10:11:05Z</time>
      </trkpt>
      <trkpt lat="46.48268" lon="15.36231">
        <ele>1335.6</ele>
        <time>2019-07-11T10:11:21Z</time>
      </trkpt>
      <trkpt lat="46.482863" lon="15.36244">
        <ele>1323.27</ele>
        <time>2019-07-11T10:11:38Z</time>
      </trkpt>
      <trkpt lat="46.48305" lon="15.362647">
        <ele>1329.4</ele>
        <time>2019-07-11T10:11:56Z</time>
      </trkpt>
      <trkpt lat="46.483134" lon="15.362837">
        <ele>1331.88</ele>
        <time>2019-07-11T10:12:13Z</time>
      </trkpt>
      <trkpt lat="46.483258" lon="15.363114">
        <ele>1333.8</ele>
        <time>2019-07-11T10:12:33Z</time>
      </trkpt>
      <trkpt lat="46.483392" lon="15.363386">
        <ele>1335.11</ele>
        <time>2019-07-11T10:12:48Z</time>
      </trkpt>
      <trkpt lat="46.483465" lon="15.363579">
        <ele>1336.93</ele>
        <time>2019-07-11T10:13:02Z</time>
      </trkpt>
      <trkpt lat="46.483458" lon="15.363641">
        <ele>1338.08</ele>
        <time>2019-07-11T10:13:18Z</time>
      </trkpt>
      <trkpt lat="46.483431" lon="15.364067">
        <ele>1333.73</ele>
        <time>2019-07-11T10:13:57Z</time>
      </trkpt>
      <trkpt lat="46.483431" lon="15.364067">
        <ele>1333.73</ele>
        <time>2019-07-11T10:14:04Z</time>
      </trkpt>
      <trkpt lat="46.483431" lon="15.364067">
        <ele>1333.73</ele>
        <time>2019-07-11T10:14:06Z</time>
      </trkpt>
      <trkpt lat="46.483417" lon="15.364326">
        <ele>1337.94</ele>
        <time>2019-07-11T10:15:18Z</time>
      </trkpt>
      <trkpt lat="46.483147" lon="15.364439">
        <ele>1325.96</ele>
        <time>2019-07-11T10:16:12Z</time>
      </trkpt>
      <trkpt lat="46.483147" lon="15.364439">
        <ele>1325.96</ele>
        <time>2019-07-11T10:18:55Z</time>
      </trkpt>
      <trkpt lat="46.483351" lon="15.36446">
        <ele>1328.05</ele>
        <time>2019-07-11T10:20:29Z</time>
      </trkpt>
      <trkpt lat="46.483321" lon="15.364837">
        <ele>1322.91</ele>
        <time>2019-07-11T10:21:24Z</time>
      </trkpt>
      <trkpt lat="46.483301" lon="15.365065">
        <ele>1329.69</ele>
        <time>2019-07-11T10:21:42Z</time>
      </trkpt>
      <trkpt lat="46.483324" lon="15.365268">
        <ele>1328.8</ele>
        <time>2019-07-11T10:21:57Z</time>
      </trkpt>
      <trkpt lat="46.483324" lon="15.365268">
        <ele>1328.8</ele>
        <time>2019-07-11T10:22:04Z</time>
      </trkpt>
      <trkpt lat="46.483324" lon="15.365268">
        <ele>1328.8</ele>
        <time>2019-07-11T10:22:05Z</time>
      </trkpt>
      <trkpt lat="46.483282" lon="15.365472">
        <ele>1335.72</ele>
        <time>2019-07-11T10:22:22Z</time>
      </trkpt>
      <trkpt lat="46.483249" lon="15.365654">
        <ele>1332.17</ele>
        <time>2019-07-11T10:22:38Z</time>
      </trkpt>
      <trkpt lat="46.483162" lon="15.36578">
        <ele>1335.99</ele>
        <time>2019-07-11T10:22:49Z</time>
      </trkpt>
      <trkpt lat="46.483116" lon="15.36588">
        <ele>1336.95</ele>
        <time>2019-07-11T10:23:03Z</time>
      </trkpt>
      <trkpt lat="46.483039" lon="15.366161">
        <ele>1341.55</ele>
        <time>2019-07-11T10:23:19Z</time>
      </trkpt>
      <trkpt lat="46.482988" lon="15.366355">
        <ele>1340.27</ele>
        <time>2019-07-11T10:23:36Z</time>
      </trkpt>
      <trkpt lat="46.483001" lon="15.366545">
        <ele>1342.63</ele>
        <time>2019-07-11T10:23:52Z</time>
      </trkpt>
      <trkpt lat="46.48302" lon="15.366746">
        <ele>1347.92</ele>
        <time>2019-07-11T10:24:04Z</time>
      </trkpt>
      <trkpt lat="46.483017" lon="15.366986">
        <ele>1344.29</ele>
        <time>2019-07-11T10:24:20Z</time>
      </trkpt>
      <trkpt lat="46.483017" lon="15.366986">
        <ele>1344.29</ele>
        <time>2019-07-11T10:24:28Z</time>
      </trkpt>
      <trkpt lat="46.483017" lon="15.366986">
        <ele>1344.29</ele>
        <time>2019-07-11T10:24:29Z</time>
      </trkpt>
      <trkpt lat="46.482856" lon="15.367065">
        <ele>1352.9</ele>
        <time>2019-07-11T10:28:54Z</time>
      </trkpt>
      <trkpt lat="46.482775" lon="15.367155">
        <ele>1344.56</ele>
        <time>2019-07-11T10:29:10Z</time>
      </trkpt>
      <trkpt lat="46.482763" lon="15.367378">
        <ele>1350.13</ele>
        <time>2019-07-11T10:29:26Z</time>
      </trkpt>
      <trkpt lat="46.482749" lon="15.367654">
        <ele>1356.32</ele>
        <time>2019-07-11T10:29:44Z</time>
      </trkpt>
      <trkpt lat="46.482745" lon="15.367867">
        <ele>1361.45</ele>
        <time>2019-07-11T10:30:00Z</time>
      </trkpt>
      <trkpt lat="46.482721" lon="15.368072">
        <ele>1366.87</ele>
        <time>2019-07-11T10:30:17Z</time>
      </trkpt>
      <trkpt lat="46.482731" lon="15.368278">
        <ele>1366.37</ele>
        <time>2019-07-11T10:30:31Z</time>
      </trkpt>
      <trkpt lat="46.48264" lon="15.368512">
        <ele>1378.46</ele>
        <time>2019-07-11T10:30:52Z</time>
      </trkpt>
      <trkpt lat="46.482649" lon="15.368727">
        <ele>1378.58</ele>
        <time>2019-07-11T10:31:04Z</time>
      </trkpt>
      <trkpt lat="46.482649" lon="15.368727">
        <ele>1378.58</ele>
        <time>2019-07-11T10:31:11Z</time>
      </trkpt>
      <trkpt lat="46.482649" lon="15.368727">
        <ele>1378.58</ele>
        <time>2019-07-11T10:31:12Z</time>
      </trkpt>
      <trkpt lat="46.482607" lon="15.368947">
        <ele>1377.72</ele>
        <time>2019-07-11T10:31:21Z</time>
      </trkpt>
      <trkpt lat="46.482602" lon="15.369171">
        <ele>1379.22</ele>
        <time>2019-07-11T10:31:33Z</time>
      </trkpt>
      <trkpt lat="46.482576" lon="15.369362">
        <ele>1379.01</ele>
        <time>2019-07-11T10:31:42Z</time>
      </trkpt>
      <trkpt lat="46.482527" lon="15.369676">
        <ele>1381.07</ele>
        <time>2019-07-11T10:32:02Z</time>
      </trkpt>
      <trkpt lat="46.482538" lon="15.369919">
        <ele>1382.26</ele>
        <time>2019-07-11T10:32:15Z</time>
      </trkpt>
      <trkpt lat="46.482534" lon="15.370178">
        <ele>1385.57</ele>
        <time>2019-07-11T10:32:29Z</time>
      </trkpt>
      <trkpt lat="46.48247" lon="15.370468">
        <ele>1383.42</ele>
        <time>2019-07-11T10:32:45Z</time>
      </trkpt>
      <trkpt lat="46.482545" lon="15.370608">
        <ele>1374.68</ele>
        <time>2019-07-11T10:33:01Z</time>
      </trkpt>
      <trkpt lat="46.482545" lon="15.370608">
        <ele>1374.68</ele>
        <time>2019-07-11T10:33:10Z</time>
      </trkpt>
      <trkpt lat="46.482545" lon="15.370608">
        <ele>1374.68</ele>
        <time>2019-07-11T10:33:11Z</time>
      </trkpt>
      <trkpt lat="46.482577" lon="15.371004">
        <ele>1368.08</ele>
        <time>2019-07-11T10:33:45Z</time>
      </trkpt>
      <trkpt lat="46.482508" lon="15.371164">
        <ele>1371.23</ele>
        <time>2019-07-11T10:33:54Z</time>
      </trkpt>
      <trkpt lat="46.482429" lon="15.371305">
        <ele>1374.13</ele>
        <time>2019-07-11T10:34:06Z</time>
      </trkpt>
      <trkpt lat="46.48237" lon="15.3715">
        <ele>1374.5</ele>
        <time>2019-07-11T10:34:18Z</time>
      </trkpt>
      <trkpt lat="46.482206" lon="15.371755">
        <ele>1377.42</ele>
        <time>2019-07-11T10:34:34Z</time>
      </trkpt>
      <trkpt lat="46.482191" lon="15.371966">
        <ele>1371.49</ele>
        <time>2019-07-11T10:34:46Z</time>
      </trkpt>
      <trkpt lat="46.482191" lon="15.372019">
        <ele>1370.82</ele>
        <time>2019-07-11T10:34:50Z</time>
      </trkpt>
      <trkpt lat="46.482156" lon="15.372195">
        <ele>1364.19</ele>
        <time>2019-07-11T10:35:04Z</time>
      </trkpt>
      <trkpt lat="46.482147" lon="15.372263">
        <ele>1365.23</ele>
        <time>2019-07-11T10:35:11Z</time>
      </trkpt>
      <trkpt lat="46.482167" lon="15.37227">
        <ele>1363.45</ele>
        <time>2019-07-11T10:35:21Z</time>
      </trkpt>
      <trkpt lat="46.482025" lon="15.37271">
        <ele>1359.54</ele>
        <time>2019-07-11T10:36:03Z</time>
      </trkpt>
      <trkpt lat="46.482026" lon="15.372856">
        <ele>1356.16</ele>
        <time>2019-07-11T10:36:11Z</time>
      </trkpt>
      <trkpt lat="46.482095" lon="15.373183">
        <ele>1354.08</ele>
        <time>2019-07-11T10:36:27Z</time>
      </trkpt>
      <trkpt lat="46.482185" lon="15.373377">
        <ele>1350.77</ele>
        <time>2019-07-11T10:36:41Z</time>
      </trkpt>
      <trkpt lat="46.482219" lon="15.373597">
        <ele>1340.45</ele>
        <time>2019-07-11T10:36:54Z</time>
      </trkpt>
      <trkpt lat="46.482263" lon="15.37387">
        <ele>1344.53</ele>
        <time>2019-07-11T10:37:09Z</time>
      </trkpt>
      <trkpt lat="46.482269" lon="15.374146">
        <ele>1344.23</ele>
        <time>2019-07-11T10:37:25Z</time>
      </trkpt>
      <trkpt lat="46.482242" lon="15.374272">
        <ele>1350.86</ele>
        <time>2019-07-11T10:37:36Z</time>
      </trkpt>
      <trkpt lat="46.48218" lon="15.374689">
        <ele>1349.19</ele>
        <time>2019-07-11T10:38:13Z</time>
      </trkpt>
      <trkpt lat="46.482129" lon="15.374961">
        <ele>1353.39</ele>
        <time>2019-07-11T10:38:30Z</time>
      </trkpt>
      <trkpt lat="46.482037" lon="15.375133">
        <ele>1349.56</ele>
        <time>2019-07-11T10:38:45Z</time>
      </trkpt>
      <trkpt lat="46.481973" lon="15.375365">
        <ele>1349.57</ele>
        <time>2019-07-11T10:38:59Z</time>
      </trkpt>
      <trkpt lat="46.481903" lon="15.375727">
        <ele>1350.89</ele>
        <time>2019-07-11T10:39:17Z</time>
      </trkpt>
      <trkpt lat="46.48182" lon="15.375917">
        <ele>1348.66</ele>
        <time>2019-07-11T10:39:29Z</time>
      </trkpt>
      <trkpt lat="46.481777" lon="15.376244">
        <ele>1347.32</ele>
        <time>2019-07-11T10:39:43Z</time>
      </trkpt>
      <trkpt lat="46.481816" lon="15.376476">
        <ele>1348.55</ele>
        <time>2019-07-11T10:39:55Z</time>
      </trkpt>
      <trkpt lat="46.481867" lon="15.376712">
        <ele>1348.09</ele>
        <time>2019-07-11T10:40:09Z</time>
      </trkpt>
      <trkpt lat="46.481883" lon="15.376741">
        <ele>1348.79</ele>
        <time>2019-07-11T10:40:14Z</time>
      </trkpt>
      <trkpt lat="46.481867" lon="15.376712">
        <ele>1348.09</ele>
        <time>2019-07-11T10:40:23Z</time>
      </trkpt>
      <trkpt lat="46.481724" lon="15.376789">
        <ele>1348.02</ele>
        <time>2019-07-11T10:40:41Z</time>
      </trkpt>
      <trkpt lat="46.481613" lon="15.37702">
        <ele>1344.04</ele>
        <time>2019-07-11T10:41:00Z</time>
      </trkpt>
      <trkpt lat="46.481463" lon="15.377288">
        <ele>1342.48</ele>
        <time>2019-07-11T10:41:16Z</time>
      </trkpt>
      <trkpt lat="46.481419" lon="15.377689">
        <ele>1349.74</ele>
        <time>2019-07-11T10:41:36Z</time>
      </trkpt>
      <trkpt lat="46.48139" lon="15.377823">
        <ele>1346.81</ele>
        <time>2019-07-11T10:41:45Z</time>
      </trkpt>
      <trkpt lat="46.481261" lon="15.377997">
        <ele>1342.23</ele>
        <time>2019-07-11T10:42:01Z</time>
      </trkpt>
      <trkpt lat="46.481195" lon="15.378202">
        <ele>1334.56</ele>
        <time>2019-07-11T10:42:18Z</time>
      </trkpt>
      <trkpt lat="46.481139" lon="15.378402">
        <ele>1333.83</ele>
        <time>2019-07-11T10:42:30Z</time>
      </trkpt>
      <trkpt lat="46.481131" lon="15.378653">
        <ele>1338.62</ele>
        <time>2019-07-11T10:42:42Z</time>
      </trkpt>
      <trkpt lat="46.481176" lon="15.378874">
        <ele>1335.38</ele>
        <time>2019-07-11T10:42:52Z</time>
      </trkpt>
      <trkpt lat="46.481294" lon="15.378971">
        <ele>1330.05</ele>
        <time>2019-07-11T10:43:06Z</time>
      </trkpt>
      <trkpt lat="46.481294" lon="15.378971">
        <ele>1330.05</ele>
        <time>2019-07-11T10:43:14Z</time>
      </trkpt>
      <trkpt lat="46.481294" lon="15.378971">
        <ele>1330.05</ele>
        <time>2019-07-11T10:43:15Z</time>
      </trkpt>
      <trkpt lat="46.481186" lon="15.379039">
        <ele>1331.22</ele>
        <time>2019-07-11T10:43:28Z</time>
      </trkpt>
      <trkpt lat="46.481156" lon="15.379194">
        <ele>1332.37</ele>
        <time>2019-07-11T10:43:41Z</time>
      </trkpt>
      <trkpt lat="46.481128" lon="15.379434">
        <ele>1325.75</ele>
        <time>2019-07-11T10:43:56Z</time>
      </trkpt>
      <trkpt lat="46.481142" lon="15.379781">
        <ele>1326.31</ele>
        <time>2019-07-11T10:44:15Z</time>
      </trkpt>
      <trkpt lat="46.481044" lon="15.380019">
        <ele>1321.25</ele>
        <time>2019-07-11T10:44:34Z</time>
      </trkpt>
      <trkpt lat="46.48104" lon="15.380407">
        <ele>1323.83</ele>
        <time>2019-07-11T10:44:53Z</time>
      </trkpt>
      <trkpt lat="46.480919" lon="15.38055">
        <ele>1323.43</ele>
        <time>2019-07-11T10:45:06Z</time>
      </trkpt>
      <trkpt lat="46.480805" lon="15.380799">
        <ele>1320.75</ele>
        <time>2019-07-11T10:45:26Z</time>
      </trkpt>
      <trkpt lat="46.480691" lon="15.380899">
        <ele>1318.62</ele>
        <time>2019-07-11T10:45:40Z</time>
      </trkpt>
      <trkpt lat="46.480602" lon="15.380893">
        <ele>1321.46</ele>
        <time>2019-07-11T10:45:53Z</time>
      </trkpt>
      <trkpt lat="46.480519" lon="15.38098">
        <ele>1326.65</ele>
        <time>2019-07-11T10:46:06Z</time>
      </trkpt>
      <trkpt lat="46.480487" lon="15.381336">
        <ele>1319.73</ele>
        <time>2019-07-11T10:46:24Z</time>
      </trkpt>
      <trkpt lat="46.480476" lon="15.381588">
        <ele>1319.95</ele>
        <time>2019-07-11T10:46:36Z</time>
      </trkpt>
      <trkpt lat="46.48045" lon="15.381822">
        <ele>1325.55</ele>
        <time>2019-07-11T10:46:54Z</time>
      </trkpt>
      <trkpt lat="46.480366" lon="15.381994">
        <ele>1327.15</ele>
        <time>2019-07-11T10:47:06Z</time>
      </trkpt>
      <trkpt lat="46.480363" lon="15.38226">
        <ele>1329.15</ele>
        <time>2019-07-11T10:47:23Z</time>
      </trkpt>
      <trkpt lat="46.480363" lon="15.38226">
        <ele>1329.15</ele>
        <time>2019-07-11T10:47:31Z</time>
      </trkpt>
      <trkpt lat="46.480363" lon="15.38226">
        <ele>1329.15</ele>
        <time>2019-07-11T10:47:32Z</time>
      </trkpt>
      <trkpt lat="46.480365" lon="15.382455">
        <ele>1322.78</ele>
        <time>2019-07-11T10:47:47Z</time>
      </trkpt>
      <trkpt lat="46.480256" lon="15.382807">
        <ele>1322.34</ele>
        <time>2019-07-11T10:48:32Z</time>
      </trkpt>
      <trkpt lat="46.480326" lon="15.383005">
        <ele>1323.59</ele>
        <time>2019-07-11T10:48:46Z</time>
      </trkpt>
      <trkpt lat="46.480391" lon="15.383206">
        <ele>1319.6</ele>
        <time>2019-07-11T10:49:01Z</time>
      </trkpt>
      <trkpt lat="46.480422" lon="15.383254">
        <ele>1317.92</ele>
        <time>2019-07-11T10:49:06Z</time>
      </trkpt>
      <trkpt lat="46.480411" lon="15.383391">
        <ele>1320.06</ele>
        <time>2019-07-11T10:49:20Z</time>
      </trkpt>
      <trkpt lat="46.480399" lon="15.383472">
        <ele>1318.15</ele>
        <time>2019-07-11T10:49:27Z</time>
      </trkpt>
      <trkpt lat="46.480398" lon="15.383536">
        <ele>1320.64</ele>
        <time>2019-07-11T10:49:36Z</time>
      </trkpt>
      <trkpt lat="46.480325" lon="15.383769">
        <ele>1321.04</ele>
        <time>2019-07-11T10:49:54Z</time>
      </trkpt>
      <trkpt lat="46.480352" lon="15.383828">
        <ele>1321.14</ele>
        <time>2019-07-11T10:50:01Z</time>
      </trkpt>
      <trkpt lat="46.480382" lon="15.383837">
        <ele>1328.56</ele>
        <time>2019-07-11T10:50:09Z</time>
      </trkpt>
      <trkpt lat="46.480204" lon="15.38392">
        <ele>1325.59</ele>
        <time>2019-07-11T10:50:25Z</time>
      </trkpt>
      <trkpt lat="46.48004" lon="15.383998">
        <ele>1324.42</ele>
        <time>2019-07-11T10:50:39Z</time>
      </trkpt>
      <trkpt lat="46.47984" lon="15.384064">
        <ele>1321.36</ele>
        <time>2019-07-11T10:50:52Z</time>
      </trkpt>
      <trkpt lat="46.479737" lon="15.384182">
        <ele>1317.13</ele>
        <time>2019-07-11T10:51:05Z</time>
      </trkpt>
      <trkpt lat="46.479652" lon="15.384387">
        <ele>1320.59</ele>
        <time>2019-07-11T10:51:19Z</time>
      </trkpt>
      <trkpt lat="46.479483" lon="15.384606">
        <ele>1319.33</ele>
        <time>2019-07-11T10:51:37Z</time>
      </trkpt>
      <trkpt lat="46.479334" lon="15.384708">
        <ele>1316.26</ele>
        <time>2019-07-11T10:51:47Z</time>
      </trkpt>
      <trkpt lat="46.479246" lon="15.384808">
        <ele>1318.84</ele>
        <time>2019-07-11T10:51:56Z</time>
      </trkpt>
      <trkpt lat="46.479094" lon="15.385124">
        <ele>1318.61</ele>
        <time>2019-07-11T10:52:12Z</time>
      </trkpt>
      <trkpt lat="46.479095" lon="15.385372">
        <ele>1322.32</ele>
        <time>2019-07-11T10:52:21Z</time>
      </trkpt>
      <trkpt lat="46.479055" lon="15.385655">
        <ele>1334.43</ele>
        <time>2019-07-11T10:52:37Z</time>
      </trkpt>
      <trkpt lat="46.479019" lon="15.38582">
        <ele>1334.22</ele>
        <time>2019-07-11T10:52:49Z</time>
      </trkpt>
      <trkpt lat="46.47893" lon="15.385932">
        <ele>1330.16</ele>
        <time>2019-07-11T10:52:58Z</time>
      </trkpt>
      <trkpt lat="46.478763" lon="15.386004">
        <ele>1331.19</ele>
        <time>2019-07-11T10:53:09Z</time>
      </trkpt>
      <trkpt lat="46.478565" lon="15.386139">
        <ele>1334.53</ele>
        <time>2019-07-11T10:53:21Z</time>
      </trkpt>
      <trkpt lat="46.478512" lon="15.386279">
        <ele>1334.11</ele>
        <time>2019-07-11T10:53:31Z</time>
      </trkpt>
      <trkpt lat="46.478359" lon="15.386567">
        <ele>1337.42</ele>
        <time>2019-07-11T10:53:45Z</time>
      </trkpt>
      <trkpt lat="46.478359" lon="15.386567">
        <ele>1337.42</ele>
        <time>2019-07-11T10:53:52Z</time>
      </trkpt>
      <trkpt lat="46.478359" lon="15.386737">
        <ele>1328.25</ele>
        <time>2019-07-11T10:53:59Z</time>
      </trkpt>
      <trkpt lat="46.478272" lon="15.386928">
        <ele>1328.99</ele>
        <time>2019-07-11T10:54:09Z</time>
      </trkpt>
      <trkpt lat="46.478211" lon="15.387154">
        <ele>1328.72</ele>
        <time>2019-07-11T10:54:17Z</time>
      </trkpt>
      <trkpt lat="46.478176" lon="15.387333">
        <ele>1329.23</ele>
        <time>2019-07-11T10:54:28Z</time>
      </trkpt>
      <trkpt lat="46.478262" lon="15.387646">
        <ele>1325.86</ele>
        <time>2019-07-11T10:54:43Z</time>
      </trkpt>
      <trkpt lat="46.478284" lon="15.387827">
        <ele>1327.25</ele>
        <time>2019-07-11T10:54:51Z</time>
      </trkpt>
      <trkpt lat="46.478294" lon="15.388053">
        <ele>1328.08</ele>
        <time>2019-07-11T10:55:02Z</time>
      </trkpt>
      <trkpt lat="46.47827" lon="15.388219">
        <ele>1328.62</ele>
        <time>2019-07-11T10:55:10Z</time>
      </trkpt>
      <trkpt lat="46.478253" lon="15.388456">
        <ele>1328.1</ele>
        <time>2019-07-11T10:55:23Z</time>
      </trkpt>
      <trkpt lat="46.478216" lon="15.388735">
        <ele>1332.39</ele>
        <time>2019-07-11T10:55:38Z</time>
      </trkpt>
      <trkpt lat="46.478147" lon="15.388999">
        <ele>1331.24</ele>
        <time>2019-07-11T10:55:52Z</time>
      </trkpt>
      <trkpt lat="46.478101" lon="15.389192">
        <ele>1329.22</ele>
        <time>2019-07-11T10:56:05Z</time>
      </trkpt>
      <trkpt lat="46.477956" lon="15.389466">
        <ele>1335.93</ele>
        <time>2019-07-11T10:56:22Z</time>
      </trkpt>
      <trkpt lat="46.477898" lon="15.389626">
        <ele>1335.66</ele>
        <time>2019-07-11T10:56:30Z</time>
      </trkpt>
      <trkpt lat="46.477798" lon="15.389884">
        <ele>1334.04</ele>
        <time>2019-07-11T10:56:45Z</time>
      </trkpt>
      <trkpt lat="46.477735" lon="15.390106">
        <ele>1331.84</ele>
        <time>2019-07-11T10:56:57Z</time>
      </trkpt>
      <trkpt lat="46.477623" lon="15.390324">
        <ele>1330.75</ele>
        <time>2019-07-11T10:57:11Z</time>
      </trkpt>
      <trkpt lat="46.477502" lon="15.390588">
        <ele>1330.58</ele>
        <time>2019-07-11T10:57:25Z</time>
      </trkpt>
      <trkpt lat="46.477417" lon="15.390815">
        <ele>1329.13</ele>
        <time>2019-07-11T10:57:39Z</time>
      </trkpt>
      <trkpt lat="46.477341" lon="15.390906">
        <ele>1331.89</ele>
        <time>2019-07-11T10:57:45Z</time>
      </trkpt>
      <trkpt lat="46.47726" lon="15.391023">
        <ele>1335.05</ele>
        <time>2019-07-11T10:57:55Z</time>
      </trkpt>
      <trkpt lat="46.477245" lon="15.391155">
        <ele>1331.26</ele>
        <time>2019-07-11T10:58:10Z</time>
      </trkpt>
      <trkpt lat="46.477246" lon="15.391189">
        <ele>1329.82</ele>
        <time>2019-07-11T10:58:19Z</time>
      </trkpt>
      <trkpt lat="46.477233" lon="15.391574">
        <ele>1330.32</ele>
        <time>2019-07-11T10:59:06Z</time>
      </trkpt>
      <trkpt lat="46.477213" lon="15.391721">
        <ele>1331.56</ele>
        <time>2019-07-11T10:59:15Z</time>
      </trkpt>
      <trkpt lat="46.477136" lon="15.391941">
        <ele>1328.09</ele>
        <time>2019-07-11T10:59:30Z</time>
      </trkpt>
      <trkpt lat="46.477175" lon="15.392121">
        <ele>1320.23</ele>
        <time>2019-07-11T10:59:44Z</time>
      </trkpt>
      <trkpt lat="46.477244" lon="15.392308">
        <ele>1321.94</ele>
        <time>2019-07-11T10:59:55Z</time>
      </trkpt>
      <trkpt lat="46.477234" lon="15.392466">
        <ele>1325.55</ele>
        <time>2019-07-11T11:00:10Z</time>
      </trkpt>
      <trkpt lat="46.477287" lon="15.39289">
        <ele>1322.03</ele>
        <time>2019-07-11T11:00:27Z</time>
      </trkpt>
      <trkpt lat="46.477247" lon="15.393203">
        <ele>1326.33</ele>
        <time>2019-07-11T11:00:38Z</time>
      </trkpt>
      <trkpt lat="46.477265" lon="15.393438">
        <ele>1323.98</ele>
        <time>2019-07-11T11:00:49Z</time>
      </trkpt>
      <trkpt lat="46.4772" lon="15.393567">
        <ele>1336.16</ele>
        <time>2019-07-11T11:01:01Z</time>
      </trkpt>
      <trkpt lat="46.477124" lon="15.393972">
        <ele>1330.29</ele>
        <time>2019-07-11T11:01:48Z</time>
      </trkpt>
      <trkpt lat="46.477124" lon="15.393972">
        <ele>1330.29</ele>
        <time>2019-07-11T11:01:55Z</time>
      </trkpt>
      <trkpt lat="46.477124" lon="15.393972">
        <ele>1330.29</ele>
        <time>2019-07-11T11:01:56Z</time>
      </trkpt>
      <trkpt lat="46.477038" lon="15.394156">
        <ele>1322.86</ele>
        <time>2019-07-11T11:02:16Z</time>
      </trkpt>
      <trkpt lat="46.477007" lon="15.39436">
        <ele>1315.69</ele>
        <time>2019-07-11T11:02:26Z</time>
      </trkpt>
      <trkpt lat="46.476906" lon="15.394546">
        <ele>1318.9</ele>
        <time>2019-07-11T11:02:38Z</time>
      </trkpt>
      <trkpt lat="46.47688" lon="15.394809">
        <ele>1325.5</ele>
        <time>2019-07-11T11:02:53Z</time>
      </trkpt>
      <trkpt lat="46.476866" lon="15.394988">
        <ele>1326.08</ele>
        <time>2019-07-11T11:03:00Z</time>
      </trkpt>
      <trkpt lat="46.476832" lon="15.395058">
        <ele>1330.34</ele>
        <time>2019-07-11T11:03:14Z</time>
      </trkpt>
      <trkpt lat="46.47691" lon="15.395421">
        <ele>1337.48</ele>
        <time>2019-07-11T11:03:45Z</time>
      </trkpt>
      <trkpt lat="46.476899" lon="15.395592">
        <ele>1329.01</ele>
        <time>2019-07-11T11:04:02Z</time>
      </trkpt>
      <trkpt lat="46.47683" lon="15.395872">
        <ele>1333.81</ele>
        <time>2019-07-11T11:04:16Z</time>
      </trkpt>
      <trkpt lat="46.476815" lon="15.396133">
        <ele>1335.75</ele>
        <time>2019-07-11T11:04:32Z</time>
      </trkpt>
      <trkpt lat="46.4768" lon="15.396311">
        <ele>1337.02</ele>
        <time>2019-07-11T11:04:46Z</time>
      </trkpt>
      <trkpt lat="46.476821" lon="15.396533">
        <ele>1336.14</ele>
        <time>2019-07-11T11:04:59Z</time>
      </trkpt>
      <trkpt lat="46.476801" lon="15.396735">
        <ele>1337.67</ele>
        <time>2019-07-11T11:05:16Z</time>
      </trkpt>
      <trkpt lat="46.476739" lon="15.396803">
        <ele>1338.58</ele>
        <time>2019-07-11T11:05:25Z</time>
      </trkpt>
      <trkpt lat="46.476807" lon="15.396912">
        <ele>1337.44</ele>
        <time>2019-07-11T11:05:39Z</time>
      </trkpt>
      <trkpt lat="46.476861" lon="15.397054">
        <ele>1337.69</ele>
        <time>2019-07-11T11:05:50Z</time>
      </trkpt>
      <trkpt lat="46.476854" lon="15.397382">
        <ele>1335.68</ele>
        <time>2019-07-11T11:06:11Z</time>
      </trkpt>
      <trkpt lat="46.47686" lon="15.397576">
        <ele>1333.3</ele>
        <time>2019-07-11T11:06:27Z</time>
      </trkpt>
      <trkpt lat="46.476946" lon="15.39788">
        <ele>1333.76</ele>
        <time>2019-07-11T11:06:43Z</time>
      </trkpt>
      <trkpt lat="46.476974" lon="15.398157">
        <ele>1335.96</ele>
        <time>2019-07-11T11:06:59Z</time>
      </trkpt>
      <trkpt lat="46.477084" lon="15.398464">
        <ele>1337.92</ele>
        <time>2019-07-11T11:07:13Z</time>
      </trkpt>
      <trkpt lat="46.47715" lon="15.398671">
        <ele>1336.15</ele>
        <time>2019-07-11T11:07:24Z</time>
      </trkpt>
      <trkpt lat="46.477192" lon="15.398848">
        <ele>1337.53</ele>
        <time>2019-07-11T11:07:35Z</time>
      </trkpt>
      <trkpt lat="46.477269" lon="15.399013">
        <ele>1328.02</ele>
        <time>2019-07-11T11:07:54Z</time>
      </trkpt>
      <trkpt lat="46.477351" lon="15.399216">
        <ele>1318.65</ele>
        <time>2019-07-11T11:08:11Z</time>
      </trkpt>
      <trkpt lat="46.477415" lon="15.399485">
        <ele>1318.34</ele>
        <time>2019-07-11T11:08:26Z</time>
      </trkpt>
      <trkpt lat="46.477482" lon="15.399634">
        <ele>1310.2</ele>
        <time>2019-07-11T11:08:39Z</time>
      </trkpt>
      <trkpt lat="46.477639" lon="15.399883">
        <ele>1309.5</ele>
        <time>2019-07-11T11:08:56Z</time>
      </trkpt>
      <trkpt lat="46.477692" lon="15.400118">
        <ele>1310.91</ele>
        <time>2019-07-11T11:09:09Z</time>
      </trkpt>
      <trkpt lat="46.477746" lon="15.40033">
        <ele>1312.15</ele>
        <time>2019-07-11T11:09:21Z</time>
      </trkpt>
      <trkpt lat="46.477851" lon="15.40041">
        <ele>1307.68</ele>
        <time>2019-07-11T11:09:34Z</time>
      </trkpt>
      <trkpt lat="46.477879" lon="15.400369">
        <ele>1310.07</ele>
        <time>2019-07-11T11:09:44Z</time>
      </trkpt>
      <trkpt lat="46.478075" lon="15.400301">
        <ele>1307.72</ele>
        <time>2019-07-11T11:10:45Z</time>
      </trkpt>
      <trkpt lat="46.477841" lon="15.400448">
        <ele>1304.56</ele>
        <time>2019-07-11T11:11:12Z</time>
      </trkpt>
      <trkpt lat="46.4779" lon="15.400574">
        <ele>1305.95</ele>
        <time>2019-07-11T11:11:22Z</time>
      </trkpt>
      <trkpt lat="46.477854" lon="15.400854">
        <ele>1306.74</ele>
        <time>2019-07-11T11:11:39Z</time>
      </trkpt>
      <trkpt lat="46.47777" lon="15.401005">
        <ele>1306.29</ele>
        <time>2019-07-11T11:11:50Z</time>
      </trkpt>
      <trkpt lat="46.477693" lon="15.401203">
        <ele>1308.06</ele>
        <time>2019-07-11T11:12:04Z</time>
      </trkpt>
      <trkpt lat="46.477597" lon="15.401461">
        <ele>1308.72</ele>
        <time>2019-07-11T11:12:19Z</time>
      </trkpt>
      <trkpt lat="46.477597" lon="15.401461">
        <ele>1308.72</ele>
        <time>2019-07-11T11:12:27Z</time>
      </trkpt>
      <trkpt lat="46.477597" lon="15.401461">
        <ele>1308.72</ele>
        <time>2019-07-11T11:12:28Z</time>
      </trkpt>
      <trkpt lat="46.477588" lon="15.401678">
        <ele>1303.6</ele>
        <time>2019-07-11T11:12:42Z</time>
      </trkpt>
      <trkpt lat="46.477521" lon="15.401874">
        <ele>1307.8</ele>
        <time>2019-07-11T11:12:52Z</time>
      </trkpt>
      <trkpt lat="46.477529" lon="15.402025">
        <ele>1305.91</ele>
        <time>2019-07-11T11:13:02Z</time>
      </trkpt>
      <trkpt lat="46.477507" lon="15.402428">
        <ele>1296.69</ele>
        <time>2019-07-11T11:13:17Z</time>
      </trkpt>
      <trkpt lat="46.477453" lon="15.402623">
        <ele>1299.51</ele>
        <time>2019-07-11T11:13:24Z</time>
      </trkpt>
      <trkpt lat="46.477412" lon="15.402789">
        <ele>1301.84</ele>
        <time>2019-07-11T11:13:31Z</time>
      </trkpt>
      <trkpt lat="46.477366" lon="15.403">
        <ele>1298.89</ele>
        <time>2019-07-11T11:13:43Z</time>
      </trkpt>
      <trkpt lat="46.477337" lon="15.40322">
        <ele>1295.89</ele>
        <time>2019-07-11T11:14:01Z</time>
      </trkpt>
      <trkpt lat="46.47724" lon="15.403618">
        <ele>1298.7</ele>
        <time>2019-07-11T11:14:18Z</time>
      </trkpt>
      <trkpt lat="46.477177" lon="15.403766">
        <ele>1296.47</ele>
        <time>2019-07-11T11:14:26Z</time>
      </trkpt>
      <trkpt lat="46.477143" lon="15.403977">
        <ele>1297.23</ele>
        <time>2019-07-11T11:14:38Z</time>
      </trkpt>
      <trkpt lat="46.47704" lon="15.404172">
        <ele>1293.56</ele>
        <time>2019-07-11T11:14:55Z</time>
      </trkpt>
      <trkpt lat="46.476953" lon="15.404201">
        <ele>1296.41</ele>
        <time>2019-07-11T11:15:02Z</time>
      </trkpt>
      <trkpt lat="46.476956" lon="15.404215">
        <ele>1295.21</ele>
        <time>2019-07-11T11:15:10Z</time>
      </trkpt>
      <trkpt lat="46.477036" lon="15.404471">
        <ele>1293.89</ele>
        <time>2019-07-11T11:15:29Z</time>
      </trkpt>
      <trkpt lat="46.477019" lon="15.40469">
        <ele>1294.27</ele>
        <time>2019-07-11T11:15:42Z</time>
      </trkpt>
      <trkpt lat="46.476979" lon="15.404902">
        <ele>1290.16</ele>
        <time>2019-07-11T11:15:58Z</time>
      </trkpt>
      <trkpt lat="46.476566" lon="15.405557">
        <ele>1303.39</ele>
        <time>2019-07-11T11:17:00Z</time>
      </trkpt>
      <trkpt lat="46.476566" lon="15.405557">
        <ele>1303.39</ele>
        <time>2019-07-11T11:17:08Z</time>
      </trkpt>
      <trkpt lat="46.476566" lon="15.405557">
        <ele>1303.39</ele>
        <time>2019-07-11T11:17:10Z</time>
      </trkpt>
      <trkpt lat="46.476736" lon="15.405869">
        <ele>1293.64</ele>
        <time>2019-07-11T11:18:53Z</time>
      </trkpt>
      <trkpt lat="46.47697" lon="15.406069">
        <ele>1296.63</ele>
        <time>2019-07-11T11:19:58Z</time>
      </trkpt>
      <trkpt lat="46.476986" lon="15.406302">
        <ele>1293.06</ele>
        <time>2019-07-11T11:20:08Z</time>
      </trkpt>
      <trkpt lat="46.477094" lon="15.406613">
        <ele>1291.43</ele>
        <time>2019-07-11T11:20:24Z</time>
      </trkpt>
      <trkpt lat="46.47706" lon="15.40686">
        <ele>1296.03</ele>
        <time>2019-07-11T11:20:37Z</time>
      </trkpt>
      <trkpt lat="46.477032" lon="15.406921">
        <ele>1297.1</ele>
        <time>2019-07-11T11:20:40Z</time>
      </trkpt>
      <trkpt lat="46.477078" lon="15.406943">
        <ele>1291.9</ele>
        <time>2019-07-11T11:20:49Z</time>
      </trkpt>
      <trkpt lat="46.47716" lon="15.407155">
        <ele>1291.3</ele>
        <time>2019-07-11T11:21:03Z</time>
      </trkpt>
      <trkpt lat="46.477286" lon="15.407339">
        <ele>1291.4</ele>
        <time>2019-07-11T11:21:11Z</time>
      </trkpt>
      <trkpt lat="46.477402" lon="15.407487">
        <ele>1298.44</ele>
        <time>2019-07-11T11:21:23Z</time>
      </trkpt>
      <trkpt lat="46.477428" lon="15.407515">
        <ele>1297.38</ele>
        <time>2019-07-11T11:21:27Z</time>
      </trkpt>
      <trkpt lat="46.477531" lon="15.40758">
        <ele>1291.17</ele>
        <time>2019-07-11T11:21:45Z</time>
      </trkpt>
      <trkpt lat="46.477757" lon="15.407664">
        <ele>1286.3</ele>
        <time>2019-07-11T11:21:57Z</time>
      </trkpt>
      <trkpt lat="46.477869" lon="15.407685">
        <ele>1292.43</ele>
        <time>2019-07-11T11:22:03Z</time>
      </trkpt>
      <trkpt lat="46.477898" lon="15.407685">
        <ele>1293.78</ele>
        <time>2019-07-11T11:22:10Z</time>
      </trkpt>
      <trkpt lat="46.477996" lon="15.407817">
        <ele>1300.26</ele>
        <time>2019-07-11T11:22:35Z</time>
      </trkpt>
      <trkpt lat="46.478115" lon="15.407978">
        <ele>1294.1</ele>
        <time>2019-07-11T11:22:46Z</time>
      </trkpt>
      <trkpt lat="46.478303" lon="15.408162">
        <ele>1295.49</ele>
        <time>2019-07-11T11:23:01Z</time>
      </trkpt>
      <trkpt lat="46.478444" lon="15.408248">
        <ele>1303.68</ele>
        <time>2019-07-11T11:23:12Z</time>
      </trkpt>
      <trkpt lat="46.478609" lon="15.408334">
        <ele>1298.82</ele>
        <time>2019-07-11T11:23:27Z</time>
      </trkpt>
      <trkpt lat="46.478818" lon="15.408439">
        <ele>1300.04</ele>
        <time>2019-07-11T11:23:44Z</time>
      </trkpt>
      <trkpt lat="46.478969" lon="15.408488">
        <ele>1294.65</ele>
        <time>2019-07-11T11:23:51Z</time>
      </trkpt>
      <trkpt lat="46.479027" lon="15.408603">
        <ele>1295.16</ele>
        <time>2019-07-11T11:24:08Z</time>
      </trkpt>
      <trkpt lat="46.479106" lon="15.408945">
        <ele>1286.26</ele>
        <time>2019-07-11T11:24:26Z</time>
      </trkpt>
      <trkpt lat="46.479159" lon="15.40931">
        <ele>1289.38</ele>
        <time>2019-07-11T11:24:39Z</time>
      </trkpt>
      <trkpt lat="46.479164" lon="15.409498">
        <ele>1286.19</ele>
        <time>2019-07-11T11:24:52Z</time>
      </trkpt>
      <trkpt lat="46.479146" lon="15.409971">
        <ele>1285.38</ele>
        <time>2019-07-11T11:25:11Z</time>
      </trkpt>
      <trkpt lat="46.479102" lon="15.410145">
        <ele>1285.89</ele>
        <time>2019-07-11T11:25:24Z</time>
      </trkpt>
      <trkpt lat="46.47911" lon="15.41034">
        <ele>1287.58</ele>
        <time>2019-07-11T11:25:30Z</time>
      </trkpt>
      <trkpt lat="46.47918" lon="15.410585">
        <ele>1286.34</ele>
        <time>2019-07-11T11:25:40Z</time>
      </trkpt>
      <trkpt lat="46.479177" lon="15.4108">
        <ele>1286.73</ele>
        <time>2019-07-11T11:25:54Z</time>
      </trkpt>
      <trkpt lat="46.479231" lon="15.41105">
        <ele>1287.2</ele>
        <time>2019-07-11T11:26:02Z</time>
      </trkpt>
      <trkpt lat="46.479291" lon="15.411247">
        <ele>1283.91</ele>
        <time>2019-07-11T11:26:11Z</time>
      </trkpt>
      <trkpt lat="46.479356" lon="15.411329">
        <ele>1286.94</ele>
        <time>2019-07-11T11:26:21Z</time>
      </trkpt>
      <trkpt lat="46.479454" lon="15.4115">
        <ele>1283.74</ele>
        <time>2019-07-11T11:26:31Z</time>
      </trkpt>
      <trkpt lat="46.479527" lon="15.411698">
        <ele>1282.44</ele>
        <time>2019-07-11T11:26:41Z</time>
      </trkpt>
      <trkpt lat="46.479546" lon="15.411935">
        <ele>1286.68</ele>
        <time>2019-07-11T11:26:54Z</time>
      </trkpt>
      <trkpt lat="46.479675" lon="15.41211">
        <ele>1280.32</ele>
        <time>2019-07-11T11:27:05Z</time>
      </trkpt>
      <trkpt lat="46.479699" lon="15.412193">
        <ele>1281.5</ele>
        <time>2019-07-11T11:27:10Z</time>
      </trkpt>
      <trkpt lat="46.479751" lon="15.412316">
        <ele>1276.68</ele>
        <time>2019-07-11T11:27:19Z</time>
      </trkpt>
      <trkpt lat="46.479781" lon="15.412606">
        <ele>1275.84</ele>
        <time>2019-07-11T11:27:28Z</time>
      </trkpt>
      <trkpt lat="46.479787" lon="15.412681">
        <ele>1275.2</ele>
        <time>2019-07-11T11:27:32Z</time>
      </trkpt>
      <trkpt lat="46.479785" lon="15.412716">
        <ele>1274.83</ele>
        <time>2019-07-11T11:27:38Z</time>
      </trkpt>
      <trkpt lat="46.4799" lon="15.412985">
        <ele>1271.01</ele>
        <time>2019-07-11T11:28:20Z</time>
      </trkpt>
      <trkpt lat="46.479939" lon="15.413161">
        <ele>1270.94</ele>
        <time>2019-07-11T11:28:32Z</time>
      </trkpt>
      <trkpt lat="46.480034" lon="15.413535">
        <ele>1267.9</ele>
        <time>2019-07-11T11:28:48Z</time>
      </trkpt>
      <trkpt lat="46.480034" lon="15.413535">
        <ele>1267.9</ele>
        <time>2019-07-11T11:28:56Z</time>
      </trkpt>
      <trkpt lat="46.480026" lon="15.413692">
        <ele>1262.79</ele>
        <time>2019-07-11T11:29:01Z</time>
      </trkpt>
      <trkpt lat="46.480032" lon="15.41389">
        <ele>1262.09</ele>
        <time>2019-07-11T11:29:10Z</time>
      </trkpt>
      <trkpt lat="46.480102" lon="15.414201">
        <ele>1266.55</ele>
        <time>2019-07-11T11:29:24Z</time>
      </trkpt>
      <trkpt lat="46.48013" lon="15.414319">
        <ele>1266.24</ele>
        <time>2019-07-11T11:29:31Z</time>
      </trkpt>
      <trkpt lat="46.480234" lon="15.4146">
        <ele>1264.55</ele>
        <time>2019-07-11T11:29:49Z</time>
      </trkpt>
      <trkpt lat="46.480261" lon="15.41492">
        <ele>1257.58</ele>
        <time>2019-07-11T11:30:08Z</time>
      </trkpt>
      <trkpt lat="46.480037" lon="15.4151">
        <ele>1256.72</ele>
        <time>2019-07-11T11:30:24Z</time>
      </trkpt>
      <trkpt lat="46.480037" lon="15.4151">
        <ele>1256.72</ele>
        <time>2019-07-11T11:30:29Z</time>
      </trkpt>
      <trkpt lat="46.480037" lon="15.4151">
        <ele>1256.72</ele>
        <time>2019-07-11T11:30:30Z</time>
      </trkpt>
      <trkpt lat="46.479866" lon="15.41521">
        <ele>1250.78</ele>
        <time>2019-07-11T11:30:50Z</time>
      </trkpt>
      <trkpt lat="46.479768" lon="15.415323">
        <ele>1250.15</ele>
        <time>2019-07-11T11:30:59Z</time>
      </trkpt>
      <trkpt lat="46.479704" lon="15.415567">
        <ele>1254.15</ele>
        <time>2019-07-11T11:31:12Z</time>
      </trkpt>
      <trkpt lat="46.479664" lon="15.416059">
        <ele>1248.77</ele>
        <time>2019-07-11T11:31:33Z</time>
      </trkpt>
      <trkpt lat="46.479598" lon="15.416311">
        <ele>1252.67</ele>
        <time>2019-07-11T11:31:46Z</time>
      </trkpt>
      <trkpt lat="46.479465" lon="15.416451">
        <ele>1249.7</ele>
        <time>2019-07-11T11:31:55Z</time>
      </trkpt>
      <trkpt lat="46.479337" lon="15.416512">
        <ele>1251.89</ele>
        <time>2019-07-11T11:32:03Z</time>
      </trkpt>
      <trkpt lat="46.479178" lon="15.416531">
        <ele>1241.48</ele>
        <time>2019-07-11T11:32:15Z</time>
      </trkpt>
      <trkpt lat="46.478942" lon="15.416556">
        <ele>1245.91</ele>
        <time>2019-07-11T11:32:30Z</time>
      </trkpt>
      <trkpt lat="46.478799" lon="15.41663">
        <ele>1237.65</ele>
        <time>2019-07-11T11:32:44Z</time>
      </trkpt>
      <trkpt lat="46.47864" lon="15.416693">
        <ele>1241.6</ele>
        <time>2019-07-11T11:33:00Z</time>
      </trkpt>
      <trkpt lat="46.478344" lon="15.416901">
        <ele>1254.11</ele>
        <time>2019-07-11T11:33:18Z</time>
      </trkpt>
      <trkpt lat="46.47827" lon="15.417067">
        <ele>1246.19</ele>
        <time>2019-07-11T11:33:26Z</time>
      </trkpt>
      <trkpt lat="46.478221" lon="15.417271">
        <ele>1240.21</ele>
        <time>2019-07-11T11:33:35Z</time>
      </trkpt>
      <trkpt lat="46.478135" lon="15.417594">
        <ele>1236.06</ele>
        <time>2019-07-11T11:33:49Z</time>
      </trkpt>
      <trkpt lat="46.478118" lon="15.417779">
        <ele>1235.8</ele>
        <time>2019-07-11T11:33:58Z</time>
      </trkpt>
      <trkpt lat="46.478056" lon="15.418116">
        <ele>1235.02</ele>
        <time>2019-07-11T11:34:13Z</time>
      </trkpt>
      <trkpt lat="46.478033" lon="15.418373">
        <ele>1234.34</ele>
        <time>2019-07-11T11:34:25Z</time>
      </trkpt>
      <trkpt lat="46.47803" lon="15.418633">
        <ele>1233.73</ele>
        <time>2019-07-11T11:34:39Z</time>
      </trkpt>
      <trkpt lat="46.47802" lon="15.419006">
        <ele>1238.91</ele>
        <time>2019-07-11T11:34:54Z</time>
      </trkpt>
      <trkpt lat="46.478029" lon="15.419278">
        <ele>1242.35</ele>
        <time>2019-07-11T11:35:07Z</time>
      </trkpt>
      <trkpt lat="46.477994" lon="15.419552">
        <ele>1251.31</ele>
        <time>2019-07-11T11:35:20Z</time>
      </trkpt>
      <trkpt lat="46.477915" lon="15.419838">
        <ele>1255.04</ele>
        <time>2019-07-11T11:35:38Z</time>
      </trkpt>
      <trkpt lat="46.477774" lon="15.42016">
        <ele>1246.15</ele>
        <time>2019-07-11T11:35:53Z</time>
      </trkpt>
      <trkpt lat="46.477616" lon="15.420316">
        <ele>1243.94</ele>
        <time>2019-07-11T11:36:08Z</time>
      </trkpt>
      <trkpt lat="46.477491" lon="15.420498">
        <ele>1235.74</ele>
        <time>2019-07-11T11:36:23Z</time>
      </trkpt>
      <trkpt lat="46.477223" lon="15.420696">
        <ele>1238.65</ele>
        <time>2019-07-11T11:36:43Z</time>
      </trkpt>
      <trkpt lat="46.477124" lon="15.42097">
        <ele>1226.36</ele>
        <time>2019-07-11T11:37:00Z</time>
      </trkpt>
      <trkpt lat="46.477115" lon="15.421308">
        <ele>1226.24</ele>
        <time>2019-07-11T11:37:12Z</time>
      </trkpt>
      <trkpt lat="46.477105" lon="15.42141">
        <ele>1226.86</ele>
        <time>2019-07-11T11:37:24Z</time>
      </trkpt>
      <trkpt lat="46.47713" lon="15.421542">
        <ele>1230.05</ele>
        <time>2019-07-11T11:37:31Z</time>
      </trkpt>
      <trkpt lat="46.4771" lon="15.421797">
        <ele>1223.48</ele>
        <time>2019-07-11T11:37:47Z</time>
      </trkpt>
      <trkpt lat="46.477125" lon="15.422053">
        <ele>1223.35</ele>
        <time>2019-07-11T11:38:01Z</time>
      </trkpt>
      <trkpt lat="46.477087" lon="15.422234">
        <ele>1218.85</ele>
        <time>2019-07-11T11:38:10Z</time>
      </trkpt>
      <trkpt lat="46.477056" lon="15.422417">
        <ele>1224.09</ele>
        <time>2019-07-11T11:38:19Z</time>
      </trkpt>
      <trkpt lat="46.476993" lon="15.422696">
        <ele>1222.96</ele>
        <time>2019-07-11T11:38:33Z</time>
      </trkpt>
      <trkpt lat="46.47687" lon="15.423">
        <ele>1215.49</ele>
        <time>2019-07-11T11:38:51Z</time>
      </trkpt>
      <trkpt lat="46.476869" lon="15.423261">
        <ele>1214.67</ele>
        <time>2019-07-11T11:39:03Z</time>
      </trkpt>
      <trkpt lat="46.476927" lon="15.423451">
        <ele>1211.85</ele>
        <time>2019-07-11T11:39:12Z</time>
      </trkpt>
      <trkpt lat="46.476917" lon="15.423704">
        <ele>1210.09</ele>
        <time>2019-07-11T11:39:23Z</time>
      </trkpt>
      <trkpt lat="46.477022" lon="15.423963">
        <ele>1207.11</ele>
        <time>2019-07-11T11:39:37Z</time>
      </trkpt>
      <trkpt lat="46.477124" lon="15.424127">
        <ele>1206.49</ele>
        <time>2019-07-11T11:39:49Z</time>
      </trkpt>
      <trkpt lat="46.47718" lon="15.424309">
        <ele>1203.55</ele>
        <time>2019-07-11T11:39:59Z</time>
      </trkpt>
      <trkpt lat="46.477229" lon="15.424591">
        <ele>1203.39</ele>
        <time>2019-07-11T11:40:10Z</time>
      </trkpt>
      <trkpt lat="46.477327" lon="15.424809">
        <ele>1197.79</ele>
        <time>2019-07-11T11:40:22Z</time>
      </trkpt>
      <trkpt lat="46.477393" lon="15.425084">
        <ele>1199.44</ele>
        <time>2019-07-11T11:40:36Z</time>
      </trkpt>
      <trkpt lat="46.477388" lon="15.425246">
        <ele>1196.08</ele>
        <time>2019-07-11T11:40:45Z</time>
      </trkpt>
      <trkpt lat="46.477474" lon="15.425545">
        <ele>1192.16</ele>
        <time>2019-07-11T11:41:04Z</time>
      </trkpt>
      <trkpt lat="46.477465" lon="15.425758">
        <ele>1191.7</ele>
        <time>2019-07-11T11:41:11Z</time>
      </trkpt>
      <trkpt lat="46.477473" lon="15.425904">
        <ele>1192.24</ele>
        <time>2019-07-11T11:41:17Z</time>
      </trkpt>
      <trkpt lat="46.477477" lon="15.426089">
        <ele>1189.26</ele>
        <time>2019-07-11T11:41:26Z</time>
      </trkpt>
      <trkpt lat="46.477463" lon="15.426264">
        <ele>1190.47</ele>
        <time>2019-07-11T11:41:39Z</time>
      </trkpt>
      <trkpt lat="46.47766" lon="15.426596">
        <ele>1199.07</ele>
        <time>2019-07-11T11:41:58Z</time>
      </trkpt>
      <trkpt lat="46.477788" lon="15.426739">
        <ele>1193.49</ele>
        <time>2019-07-11T11:42:07Z</time>
      </trkpt>
      <trkpt lat="46.477924" lon="15.426893">
        <ele>1190.77</ele>
        <time>2019-07-11T11:42:16Z</time>
      </trkpt>
      <trkpt lat="46.478069" lon="15.426952">
        <ele>1185.18</ele>
        <time>2019-07-11T11:42:28Z</time>
      </trkpt>
      <trkpt lat="46.478212" lon="15.42709">
        <ele>1185.38</ele>
        <time>2019-07-11T11:42:41Z</time>
      </trkpt>
      <trkpt lat="46.478307" lon="15.427192">
        <ele>1190.51</ele>
        <time>2019-07-11T11:42:48Z</time>
      </trkpt>
      <trkpt lat="46.478467" lon="15.427388">
        <ele>1192.3</ele>
        <time>2019-07-11T11:43:03Z</time>
      </trkpt>
      <trkpt lat="46.478552" lon="15.427535">
        <ele>1197.25</ele>
        <time>2019-07-11T11:43:13Z</time>
      </trkpt>
      <trkpt lat="46.478663" lon="15.42772">
        <ele>1195.25</ele>
        <time>2019-07-11T11:43:24Z</time>
      </trkpt>
      <trkpt lat="46.478868" lon="15.42793">
        <ele>1187.42</ele>
        <time>2019-07-11T11:43:41Z</time>
      </trkpt>
      <trkpt lat="46.478995" lon="15.428079">
        <ele>1191.94</ele>
        <time>2019-07-11T11:43:51Z</time>
      </trkpt>
      <trkpt lat="46.479135" lon="15.428219">
        <ele>1199.2</ele>
        <time>2019-07-11T11:44:04Z</time>
      </trkpt>
      <trkpt lat="46.4793" lon="15.428408">
        <ele>1201.94</ele>
        <time>2019-07-11T11:44:19Z</time>
      </trkpt>
      <trkpt lat="46.479437" lon="15.428591">
        <ele>1199.4</ele>
        <time>2019-07-11T11:44:33Z</time>
      </trkpt>
      <trkpt lat="46.479572" lon="15.428807">
        <ele>1198.78</ele>
        <time>2019-07-11T11:44:50Z</time>
      </trkpt>
      <trkpt lat="46.479696" lon="15.428964">
        <ele>1193.1</ele>
        <time>2019-07-11T11:45:01Z</time>
      </trkpt>
      <trkpt lat="46.479858" lon="15.429206">
        <ele>1188.34</ele>
        <time>2019-07-11T11:45:19Z</time>
      </trkpt>
      <trkpt lat="46.479975" lon="15.429518">
        <ele>1188.53</ele>
        <time>2019-07-11T11:45:34Z</time>
      </trkpt>
      <trkpt lat="46.480013" lon="15.429633">
        <ele>1186.27</ele>
        <time>2019-07-11T11:45:41Z</time>
      </trkpt>
      <trkpt lat="46.480096" lon="15.429904">
        <ele>1195.03</ele>
        <time>2019-07-11T11:45:54Z</time>
      </trkpt>
      <trkpt lat="46.480216" lon="15.430112">
        <ele>1190.79</ele>
        <time>2019-07-11T11:46:06Z</time>
      </trkpt>
      <trkpt lat="46.480334" lon="15.430408">
        <ele>1190.96</ele>
        <time>2019-07-11T11:46:22Z</time>
      </trkpt>
      <trkpt lat="46.48041" lon="15.430682">
        <ele>1186.6</ele>
        <time>2019-07-11T11:46:37Z</time>
      </trkpt>
      <trkpt lat="46.480502" lon="15.43081">
        <ele>1183.58</ele>
        <time>2019-07-11T11:46:49Z</time>
      </trkpt>
      <trkpt lat="46.480688" lon="15.431062">
        <ele>1182.0</ele>
        <time>2019-07-11T11:47:05Z</time>
      </trkpt>
      <trkpt lat="46.480833" lon="15.431192">
        <ele>1184.15</ele>
        <time>2019-07-11T11:47:18Z</time>
      </trkpt>
      <trkpt lat="46.480942" lon="15.431374">
        <ele>1177.46</ele>
        <time>2019-07-11T11:47:30Z</time>
      </trkpt>
      <trkpt lat="46.481066" lon="15.431642">
        <ele>1164.78</ele>
        <time>2019-07-11T11:47:48Z</time>
      </trkpt>
      <trkpt lat="46.481157" lon="15.431792">
        <ele>1170.72</ele>
        <time>2019-07-11T11:47:58Z</time>
      </trkpt>
      <trkpt lat="46.481225" lon="15.43189">
        <ele>1164.89</ele>
        <time>2019-07-11T11:48:05Z</time>
      </trkpt>
      <trkpt lat="46.481278" lon="15.432077">
        <ele>1152.85</ele>
        <time>2019-07-11T11:48:15Z</time>
      </trkpt>
      <trkpt lat="46.481215" lon="15.432263">
        <ele>1153.85</ele>
        <time>2019-07-11T11:48:26Z</time>
      </trkpt>
      <trkpt lat="46.481093" lon="15.432527">
        <ele>1142.33</ele>
        <time>2019-07-11T11:48:42Z</time>
      </trkpt>
      <trkpt lat="46.480913" lon="15.432837">
        <ele>1143.19</ele>
        <time>2019-07-11T11:49:01Z</time>
      </trkpt>
      <trkpt lat="46.480872" lon="15.432944">
        <ele>1142.84</ele>
        <time>2019-07-11T11:49:07Z</time>
      </trkpt>
      <trkpt lat="46.480868" lon="15.432964">
        <ele>1143.68</ele>
        <time>2019-07-11T11:49:16Z</time>
      </trkpt>
      <trkpt lat="46.480735" lon="15.433109">
        <ele>1142.08</ele>
        <time>2019-07-11T11:49:33Z</time>
      </trkpt>
      <trkpt lat="46.480664" lon="15.433283">
        <ele>1138.49</ele>
        <time>2019-07-11T11:49:47Z</time>
      </trkpt>
      <trkpt lat="46.480517" lon="15.433566">
        <ele>1130.88</ele>
        <time>2019-07-11T11:50:01Z</time>
      </trkpt>
      <trkpt lat="46.480433" lon="15.43373">
        <ele>1139.18</ele>
        <time>2019-07-11T11:50:16Z</time>
      </trkpt>
      <trkpt lat="46.480345" lon="15.43396">
        <ele>1132.59</ele>
        <time>2019-07-11T11:50:24Z</time>
      </trkpt>
      <trkpt lat="46.480323" lon="15.434159">
        <ele>1127.6</ele>
        <time>2019-07-11T11:50:31Z</time>
      </trkpt>
      <trkpt lat="46.480324" lon="15.434389">
        <ele>1131.2</ele>
        <time>2019-07-11T11:50:44Z</time>
      </trkpt>
      <trkpt lat="46.480375" lon="15.434661">
        <ele>1130.12</ele>
        <time>2019-07-11T11:50:59Z</time>
      </trkpt>
      <trkpt lat="46.48041" lon="15.434808">
        <ele>1128.12</ele>
        <time>2019-07-11T11:51:10Z</time>
      </trkpt>
      <trkpt lat="46.480479" lon="15.43503">
        <ele>1128.3</ele>
        <time>2019-07-11T11:51:24Z</time>
      </trkpt>
      <trkpt lat="46.480546" lon="15.435329">
        <ele>1135.43</ele>
        <time>2019-07-11T11:51:38Z</time>
      </trkpt>
      <trkpt lat="46.480591" lon="15.435479">
        <ele>1137.49</ele>
        <time>2019-07-11T11:51:47Z</time>
      </trkpt>
      <trkpt lat="46.480653" lon="15.435721">
        <ele>1139.96</ele>
        <time>2019-07-11T11:52:01Z</time>
      </trkpt>
      <trkpt lat="46.480653" lon="15.435721">
        <ele>1139.96</ele>
        <time>2019-07-11T11:52:07Z</time>
      </trkpt>
      <trkpt lat="46.480631" lon="15.435845">
        <ele>1144.86</ele>
        <time>2019-07-11T11:52:12Z</time>
      </trkpt>
      <trkpt lat="46.480716" lon="15.436163">
        <ele>1142.24</ele>
        <time>2019-07-11T11:52:29Z</time>
      </trkpt>
      <trkpt lat="46.480882" lon="15.436367">
        <ele>1149.98</ele>
        <time>2019-07-11T11:52:39Z</time>
      </trkpt>
      <trkpt lat="46.481006" lon="15.43653">
        <ele>1148.15</ele>
        <time>2019-07-11T11:52:51Z</time>
      </trkpt>
      <trkpt lat="46.481093" lon="15.436663">
        <ele>1142.54</ele>
        <time>2019-07-11T11:53:07Z</time>
      </trkpt>
      <trkpt lat="46.481091" lon="15.437031">
        <ele>1143.14</ele>
        <time>2019-07-11T11:53:20Z</time>
      </trkpt>
      <trkpt lat="46.48115" lon="15.437249">
        <ele>1141.89</ele>
        <time>2019-07-11T11:53:29Z</time>
      </trkpt>
      <trkpt lat="46.481248" lon="15.437528">
        <ele>1140.38</ele>
        <time>2019-07-11T11:53:44Z</time>
      </trkpt>
      <trkpt lat="46.481246" lon="15.43774">
        <ele>1137.33</ele>
        <time>2019-07-11T11:53:55Z</time>
      </trkpt>
      <trkpt lat="46.481231" lon="15.437802">
        <ele>1138.7</ele>
        <time>2019-07-11T11:54:01Z</time>
      </trkpt>
      <trkpt lat="46.481219" lon="15.437935">
        <ele>1139.65</ele>
        <time>2019-07-11T11:54:13Z</time>
      </trkpt>
      <trkpt lat="46.481232" lon="15.438324">
        <ele>1142.22</ele>
        <time>2019-07-11T11:54:30Z</time>
      </trkpt>
      <trkpt lat="46.481272" lon="15.438484">
        <ele>1143.64</ele>
        <time>2019-07-11T11:54:38Z</time>
      </trkpt>
      <trkpt lat="46.481333" lon="15.438629">
        <ele>1146.51</ele>
        <time>2019-07-11T11:54:45Z</time>
      </trkpt>
      <trkpt lat="46.481462" lon="15.438839">
        <ele>1144.1</ele>
        <time>2019-07-11T11:54:59Z</time>
      </trkpt>
      <trkpt lat="46.481508" lon="15.438968">
        <ele>1146.14</ele>
        <time>2019-07-11T11:55:07Z</time>
      </trkpt>
      <trkpt lat="46.481622" lon="15.43923">
        <ele>1143.52</ele>
        <time>2019-07-11T11:55:21Z</time>
      </trkpt>
      <trkpt lat="46.481615" lon="15.439379">
        <ele>1147.47</ele>
        <time>2019-07-11T11:55:34Z</time>
      </trkpt>
      <trkpt lat="46.48168" lon="15.439738">
        <ele>1130.66</ele>
        <time>2019-07-11T11:55:54Z</time>
      </trkpt>
      <trkpt lat="46.481758" lon="15.43996">
        <ele>1124.73</ele>
        <time>2019-07-11T11:56:15Z</time>
      </trkpt>
      <trkpt lat="46.481874" lon="15.440316">
        <ele>1124.56</ele>
        <time>2019-07-11T11:56:32Z</time>
      </trkpt>
      <trkpt lat="46.482109" lon="15.440523">
        <ele>1125.25</ele>
        <time>2019-07-11T11:56:46Z</time>
      </trkpt>
      <trkpt lat="46.482209" lon="15.440656">
        <ele>1127.1</ele>
        <time>2019-07-11T11:56:54Z</time>
      </trkpt>
      <trkpt lat="46.482267" lon="15.440785">
        <ele>1130.76</ele>
        <time>2019-07-11T11:57:03Z</time>
      </trkpt>
      <trkpt lat="46.482368" lon="15.440942">
        <ele>1131.62</ele>
        <time>2019-07-11T11:57:21Z</time>
      </trkpt>
      <trkpt lat="46.482485" lon="15.441106">
        <ele>1136.97</ele>
        <time>2019-07-11T11:57:32Z</time>
      </trkpt>
      <trkpt lat="46.482606" lon="15.441423">
        <ele>1142.74</ele>
        <time>2019-07-11T11:57:44Z</time>
      </trkpt>
      <trkpt lat="46.482715" lon="15.441647">
        <ele>1144.23</ele>
        <time>2019-07-11T11:57:51Z</time>
      </trkpt>
      <trkpt lat="46.482749" lon="15.441683">
        <ele>1144.97</ele>
        <time>2019-07-11T11:57:53Z</time>
      </trkpt>
      <trkpt lat="46.482779" lon="15.441683">
        <ele>1147.02</ele>
        <time>2019-07-11T11:57:59Z</time>
      </trkpt>
      <trkpt lat="46.48268" lon="15.441766">
        <ele>1145.5</ele>
        <time>2019-07-11T11:58:52Z</time>
      </trkpt>
      <trkpt lat="46.482535" lon="15.441925">
        <ele>1145.03</ele>
        <time>2019-07-11T11:59:02Z</time>
      </trkpt>
      <trkpt lat="46.482461" lon="15.442112">
        <ele>1145.64</ele>
        <time>2019-07-11T11:59:17Z</time>
      </trkpt>
      <trkpt lat="46.482346" lon="15.442253">
        <ele>1140.87</ele>
        <time>2019-07-11T11:59:33Z</time>
      </trkpt>
      <trkpt lat="46.482196" lon="15.442447">
        <ele>1140.32</ele>
        <time>2019-07-11T11:59:49Z</time>
      </trkpt>
      <trkpt lat="46.482082" lon="15.442524">
        <ele>1138.15</ele>
        <time>2019-07-11T12:00:00Z</time>
      </trkpt>
      <trkpt lat="46.482005" lon="15.442728">
        <ele>1133.64</ele>
        <time>2019-07-11T12:00:18Z</time>
      </trkpt>
      <trkpt lat="46.481925" lon="15.443089">
        <ele>1138.14</ele>
        <time>2019-07-11T12:00:47Z</time>
      </trkpt>
      <trkpt lat="46.481916" lon="15.443194">
        <ele>1136.48</ele>
        <time>2019-07-11T12:00:54Z</time>
      </trkpt>
      <trkpt lat="46.481892" lon="15.44324">
        <ele>1134.78</ele>
        <time>2019-07-11T12:01:00Z</time>
      </trkpt>
      <trkpt lat="46.481799" lon="15.443628">
        <ele>1116.7</ele>
        <time>2019-07-11T12:01:56Z</time>
      </trkpt>
      <trkpt lat="46.481697" lon="15.44381">
        <ele>1116.06</ele>
        <time>2019-07-11T12:02:11Z</time>
      </trkpt>
      <trkpt lat="46.481631" lon="15.443912">
        <ele>1114.84</ele>
        <time>2019-07-11T12:02:20Z</time>
      </trkpt>
      <trkpt lat="46.4815" lon="15.444183">
        <ele>1110.99</ele>
        <time>2019-07-11T12:02:38Z</time>
      </trkpt>
      <trkpt lat="46.481452" lon="15.444253">
        <ele>1108.95</ele>
        <time>2019-07-11T12:02:46Z</time>
      </trkpt>
      <trkpt lat="46.481316" lon="15.444314">
        <ele>1110.35</ele>
        <time>2019-07-11T12:02:59Z</time>
      </trkpt>
      <trkpt lat="46.481148" lon="15.444172">
        <ele>1109.04</ele>
        <time>2019-07-11T12:03:09Z</time>
      </trkpt>
      <trkpt lat="46.481037" lon="15.444144">
        <ele>1106.18</ele>
        <time>2019-07-11T12:03:18Z</time>
      </trkpt>
      <trkpt lat="46.480921" lon="15.44408">
        <ele>1110.08</ele>
        <time>2019-07-11T12:03:32Z</time>
      </trkpt>
      <trkpt lat="46.480777" lon="15.443999">
        <ele>1110.57</ele>
        <time>2019-07-11T12:03:42Z</time>
      </trkpt>
      <trkpt lat="46.480736" lon="15.444003">
        <ele>1110.3</ele>
        <time>2019-07-11T12:03:51Z</time>
      </trkpt>
      <trkpt lat="46.480455" lon="15.443922">
        <ele>1105.04</ele>
        <time>2019-07-11T12:04:33Z</time>
      </trkpt>
      <trkpt lat="46.48021" lon="15.444186">
        <ele>1089.06</ele>
        <time>2019-07-11T12:05:06Z</time>
      </trkpt>
      <trkpt lat="46.480167" lon="15.444245">
        <ele>1087.55</ele>
        <time>2019-07-11T12:05:15Z</time>
      </trkpt>
      <trkpt lat="46.480167" lon="15.444245">
        <time>2019-07-11T12:05:22Z</time>
      </trkpt>
    </trkseg>
    <trkseg>
      <trkpt lat="46.480167" lon="15.444245">
        <time>2019-07-11T12:16:08Z</time>
      </trkpt>
      <trkpt lat="46.480115" lon="15.4444">
        <ele>1083.75</ele>
        <time>2019-07-11T12:16:09Z</time>
      </trkpt>
      <trkpt lat="46.480082" lon="15.44476">
        <ele>1078.74</ele>
        <time>2019-07-11T12:16:49Z</time>
      </trkpt>
      <trkpt lat="46.480177" lon="15.444949">
        <ele>1083.76</ele>
        <time>2019-07-11T12:17:04Z</time>
      </trkpt>
      <trkpt lat="46.480207" lon="15.445215">
        <ele>1063.36</ele>
        <time>2019-07-11T12:17:27Z</time>
      </trkpt>
      <trkpt lat="46.480276" lon="15.44541">
        <ele>1065.62</ele>
        <time>2019-07-11T12:17:38Z</time>
      </trkpt>
      <trkpt lat="46.480316" lon="15.445631">
        <ele>1068.85</ele>
        <time>2019-07-11T12:17:46Z</time>
      </trkpt>
      <trkpt lat="46.480378" lon="15.445842">
        <ele>1071.92</ele>
        <time>2019-07-11T12:17:57Z</time>
      </trkpt>
      <trkpt lat="46.480486" lon="15.446082">
        <ele>1075.39</ele>
        <time>2019-07-11T12:18:10Z</time>
      </trkpt>
      <trkpt lat="46.480539" lon="15.446223">
        <ele>1078.95</ele>
        <time>2019-07-11T12:18:19Z</time>
      </trkpt>
      <trkpt lat="46.480618" lon="15.446443">
        <ele>1088.82</ele>
        <time>2019-07-11T12:18:32Z</time>
      </trkpt>
      <trkpt lat="46.480584" lon="15.446646">
        <ele>1096.52</ele>
        <time>2019-07-11T12:18:48Z</time>
      </trkpt>
      <trkpt lat="46.480621" lon="15.44709">
        <ele>1104.37</ele>
        <time>2019-07-11T12:19:25Z</time>
      </trkpt>
      <trkpt lat="46.480621" lon="15.44709">
        <ele>1104.37</ele>
        <time>2019-07-11T12:19:32Z</time>
      </trkpt>
      <trkpt lat="46.480567" lon="15.447264">
        <ele>1109.74</ele>
        <time>2019-07-11T12:19:44Z</time>
      </trkpt>
      <trkpt lat="46.480572" lon="15.447703">
        <ele>1118.25</ele>
        <time>2019-07-11T12:20:27Z</time>
      </trkpt>
      <trkpt lat="46.480578" lon="15.447778">
        <ele>1113.75</ele>
        <time>2019-07-11T12:20:31Z</time>
      </trkpt>
      <trkpt lat="46.480557" lon="15.447922">
        <ele>1112.41</ele>
        <time>2019-07-11T12:20:45Z</time>
      </trkpt>
      <trkpt lat="46.480569" lon="15.44815">
        <ele>1123.91</ele>
        <time>2019-07-11T12:21:01Z</time>
      </trkpt>
      <trkpt lat="46.480558" lon="15.44818">
        <ele>1123.65</ele>
        <time>2019-07-11T12:21:04Z</time>
      </trkpt>
      <trkpt lat="46.480514" lon="15.448287">
        <ele>1116.59</ele>
        <time>2019-07-11T12:21:19Z</time>
      </trkpt>
      <trkpt lat="46.480498" lon="15.448699">
        <ele>1128.1</ele>
        <time>2019-07-11T12:21:52Z</time>
      </trkpt>
      <trkpt lat="46.480504" lon="15.448911">
        <ele>1125.86</ele>
        <time>2019-07-11T12:22:07Z</time>
      </trkpt>
      <trkpt lat="46.480535" lon="15.449156">
        <ele>1126.74</ele>
        <time>2019-07-11T12:22:25Z</time>
      </trkpt>
      <trkpt lat="46.480535" lon="15.449156">
        <ele>1126.74</ele>
        <time>2019-07-11T12:22:33Z</time>
      </trkpt>
      <trkpt lat="46.480542" lon="15.449237">
        <ele>1128.69</ele>
        <time>2019-07-11T12:22:34Z</time>
      </trkpt>
      <trkpt lat="46.480458" lon="15.449653">
        <ele>1132.43</ele>
        <time>2019-07-11T12:23:19Z</time>
      </trkpt>
      <trkpt lat="46.480399" lon="15.450044">
        <ele>1141.03</ele>
        <time>2019-07-11T12:23:55Z</time>
      </trkpt>
      <trkpt lat="46.480375" lon="15.450152">
        <ele>1141.93</ele>
        <time>2019-07-11T12:24:03Z</time>
      </trkpt>
      <trkpt lat="46.480352" lon="15.450207">
        <ele>1142.6</ele>
        <time>2019-07-11T12:24:11Z</time>
      </trkpt>
      <trkpt lat="46.480259" lon="15.4506">
        <ele>1152.17</ele>
        <time>2019-07-11T12:25:03Z</time>
      </trkpt>
      <trkpt lat="46.48023" lon="15.450761">
        <ele>1155.11</ele>
        <time>2019-07-11T12:25:19Z</time>
      </trkpt>
      <trkpt lat="46.48023" lon="15.450761">
        <ele>1155.11</ele>
        <time>2019-07-11T12:25:26Z</time>
      </trkpt>
      <trkpt lat="46.480227" lon="15.450907">
        <ele>1158.9</ele>
        <time>2019-07-11T12:25:32Z</time>
      </trkpt>
      <trkpt lat="46.480126" lon="15.451253">
        <ele>1171.76</ele>
        <time>2019-07-11T12:26:26Z</time>
      </trkpt>
      <trkpt lat="46.480126" lon="15.451253">
        <ele>1171.76</ele>
        <time>2019-07-11T12:26:33Z</time>
      </trkpt>
      <trkpt lat="46.480126" lon="15.451253">
        <ele>1171.76</ele>
        <time>2019-07-11T12:26:34Z</time>
      </trkpt>
      <trkpt lat="46.480053" lon="15.451678">
        <ele>1178.69</ele>
        <time>2019-07-11T12:27:54Z</time>
      </trkpt>
      <trkpt lat="46.479943" lon="15.452029">
        <ele>1193.36</ele>
        <time>2019-07-11T12:28:36Z</time>
      </trkpt>
      <trkpt lat="46.479943" lon="15.452029">
        <ele>1193.36</ele>
        <time>2019-07-11T12:28:44Z</time>
      </trkpt>
      <trkpt lat="46.479943" lon="15.452029">
        <ele>1193.36</ele>
        <time>2019-07-11T12:28:45Z</time>
      </trkpt>
      <trkpt lat="46.47982" lon="15.452179">
        <ele>1196.6</ele>
        <time>2019-07-11T12:29:22Z</time>
      </trkpt>
      <trkpt lat="46.479698" lon="15.452373">
        <ele>1201.33</ele>
        <time>2019-07-11T12:29:42Z</time>
      </trkpt>
      <trkpt lat="46.479642" lon="15.452621">
        <ele>1202.56</ele>
        <time>2019-07-11T12:30:01Z</time>
      </trkpt>
      <trkpt lat="46.479617" lon="15.452808">
        <ele>1207.0</ele>
        <time>2019-07-11T12:30:14Z</time>
      </trkpt>
      <trkpt lat="46.479587" lon="15.452943">
        <ele>1211.67</ele>
        <time>2019-07-11T12:30:22Z</time>
      </trkpt>
      <trkpt lat="46.479495" lon="15.453117">
        <ele>1215.44</ele>
        <time>2019-07-11T12:30:30Z</time>
      </trkpt>
      <trkpt lat="46.47949" lon="15.453264">
        <ele>1207.69</ele>
        <time>2019-07-11T12:30:41Z</time>
      </trkpt>
      <trkpt lat="46.47931" lon="15.453462">
        <ele>1209.97</ele>
        <time>2019-07-11T12:31:08Z</time>
      </trkpt>
      <trkpt lat="46.479136" lon="15.453545">
        <ele>1207.25</ele>
        <time>2019-07-11T12:31:24Z</time>
      </trkpt>
      <trkpt lat="46.478933" lon="15.453645">
        <ele>1210.22</ele>
        <time>2019-07-11T12:31:39Z</time>
      </trkpt>
      <trkpt lat="46.47881" lon="15.453719">
        <ele>1206.51</ele>
        <time>2019-07-11T12:31:48Z</time>
      </trkpt>
      <trkpt lat="46.478668" lon="15.453829">
        <ele>1219.1</ele>
        <time>2019-07-11T12:32:01Z</time>
      </trkpt>
      <trkpt lat="46.478563" lon="15.453867">
        <ele>1212.99</ele>
        <time>2019-07-11T12:32:07Z</time>
      </trkpt>
      <trkpt lat="46.478493" lon="15.453977">
        <ele>1204.07</ele>
        <time>2019-07-11T12:32:19Z</time>
      </trkpt>
      <trkpt lat="46.478525" lon="15.454236">
        <ele>1196.64</ele>
        <time>2019-07-11T12:32:36Z</time>
      </trkpt>
      <trkpt lat="46.478576" lon="15.4544">
        <ele>1211.4</ele>
        <time>2019-07-11T12:32:47Z</time>
      </trkpt>
      <trkpt lat="46.47862" lon="15.454696">
        <ele>1192.58</ele>
        <time>2019-07-11T12:33:02Z</time>
      </trkpt>
      <trkpt lat="46.478584" lon="15.4549">
        <ele>1193.45</ele>
        <time>2019-07-11T12:33:19Z</time>
      </trkpt>
      <trkpt lat="46.478583" lon="15.455208">
        <ele>1200.63</ele>
        <time>2019-07-11T12:33:39Z</time>
      </trkpt>
      <trkpt lat="46.478508" lon="15.455443">
        <ele>1192.95</ele>
        <time>2019-07-11T12:33:55Z</time>
      </trkpt>
      <trkpt lat="46.478443" lon="15.455618">
        <ele>1186.08</ele>
        <time>2019-07-11T12:34:10Z</time>
      </trkpt>
      <trkpt lat="46.478391" lon="15.455935">
        <ele>1184.54</ele>
        <time>2019-07-11T12:34:28Z</time>
      </trkpt>
      <trkpt lat="46.478382" lon="15.456225">
        <ele>1190.45</ele>
        <time>2019-07-11T12:34:43Z</time>
      </trkpt>
      <trkpt lat="46.478413" lon="15.456443">
        <ele>1188.57</ele>
        <time>2019-07-11T12:34:54Z</time>
      </trkpt>
      <trkpt lat="46.478465" lon="15.45668">
        <ele>1191.09</ele>
        <time>2019-07-11T12:35:07Z</time>
      </trkpt>
      <trkpt lat="46.478575" lon="15.456972">
        <ele>1191.52</ele>
        <time>2019-07-11T12:35:26Z</time>
      </trkpt>
      <trkpt lat="46.478563" lon="15.457239">
        <ele>1187.39</ele>
        <time>2019-07-11T12:35:43Z</time>
      </trkpt>
      <trkpt lat="46.478563" lon="15.457543">
        <ele>1184.11</ele>
        <time>2019-07-11T12:36:00Z</time>
      </trkpt>
      <trkpt lat="46.478542" lon="15.457806">
        <ele>1186.86</ele>
        <time>2019-07-11T12:36:14Z</time>
      </trkpt>
      <trkpt lat="46.478537" lon="15.457866">
        <ele>1187.25</ele>
        <time>2019-07-11T12:36:19Z</time>
      </trkpt>
      <trkpt lat="46.478545" lon="15.457882">
        <ele>1189.52</ele>
        <time>2019-07-11T12:36:28Z</time>
      </trkpt>
      <trkpt lat="46.478445" lon="15.458322">
        <ele>1175.76</ele>
        <time>2019-07-11T12:37:39Z</time>
      </trkpt>
      <trkpt lat="46.478511" lon="15.458544">
        <ele>1171.33</ele>
        <time>2019-07-11T12:37:52Z</time>
      </trkpt>
      <trkpt lat="46.4786" lon="15.458756">
        <ele>1160.87</ele>
        <time>2019-07-11T12:38:05Z</time>
      </trkpt>
      <trkpt lat="46.478715" lon="15.458988">
        <ele>1162.12</ele>
        <time>2019-07-11T12:38:21Z</time>
      </trkpt>
      <trkpt lat="46.478715" lon="15.459202">
        <ele>1155.29</ele>
        <time>2019-07-11T12:38:35Z</time>
      </trkpt>
      <trkpt lat="46.478738" lon="15.459464">
        <ele>1164.3</ele>
        <time>2019-07-11T12:38:52Z</time>
      </trkpt>
      <trkpt lat="46.478805" lon="15.459715">
        <ele>1166.51</ele>
        <time>2019-07-11T12:39:11Z</time>
      </trkpt>
      <trkpt lat="46.478796" lon="15.459984">
        <ele>1166.13</ele>
        <time>2019-07-11T12:39:20Z</time>
      </trkpt>
      <trkpt lat="46.478749" lon="15.460215">
        <ele>1169.86</ele>
        <time>2019-07-11T12:39:28Z</time>
      </trkpt>
      <trkpt lat="46.4787" lon="15.460497">
        <ele>1178.47</ele>
        <time>2019-07-11T12:39:41Z</time>
      </trkpt>
      <trkpt lat="46.478712" lon="15.46063">
        <ele>1177.82</ele>
        <time>2019-07-11T12:39:49Z</time>
      </trkpt>
      <trkpt lat="46.478608" lon="15.460863">
        <ele>1178.99</ele>
        <time>2019-07-11T12:40:06Z</time>
      </trkpt>
      <trkpt lat="46.478524" lon="15.461042">
        <ele>1175.07</ele>
        <time>2019-07-11T12:40:18Z</time>
      </trkpt>
      <trkpt lat="46.478465" lon="15.461233">
        <ele>1168.86</ele>
        <time>2019-07-11T12:40:32Z</time>
      </trkpt>
      <trkpt lat="46.478403" lon="15.461479">
        <ele>1167.16</ele>
        <time>2019-07-11T12:40:45Z</time>
      </trkpt>
      <trkpt lat="46.478353" lon="15.461669">
        <ele>1171.88</ele>
        <time>2019-07-11T12:40:57Z</time>
      </trkpt>
      <trkpt lat="46.478304" lon="15.462038">
        <ele>1170.66</ele>
        <time>2019-07-11T12:41:14Z</time>
      </trkpt>
      <trkpt lat="46.478184" lon="15.462244">
        <ele>1169.48</ele>
        <time>2019-07-11T12:41:31Z</time>
      </trkpt>
      <trkpt lat="46.478116" lon="15.46252">
        <ele>1167.23</ele>
        <time>2019-07-11T12:41:43Z</time>
      </trkpt>
      <trkpt lat="46.478082" lon="15.462848">
        <ele>1167.94</ele>
        <time>2019-07-11T12:41:58Z</time>
      </trkpt>
      <trkpt lat="46.478011" lon="15.463098">
        <ele>1165.62</ele>
        <time>2019-07-11T12:42:14Z</time>
      </trkpt>
      <trkpt lat="46.47792" lon="15.463373">
        <ele>1164.96</ele>
        <time>2019-07-11T12:42:29Z</time>
      </trkpt>
      <trkpt lat="46.47794" lon="15.46358">
        <ele>1165.81</ele>
        <time>2019-07-11T12:42:40Z</time>
      </trkpt>
      <trkpt lat="46.47799" lon="15.463858">
        <ele>1168.49</ele>
        <time>2019-07-11T12:42:53Z</time>
      </trkpt>
      <trkpt lat="46.478041" lon="15.464093">
        <ele>1172.14</ele>
        <time>2019-07-11T12:43:07Z</time>
      </trkpt>
      <trkpt lat="46.478083" lon="15.464412">
        <ele>1162.42</ele>
        <time>2019-07-11T12:43:23Z</time>
      </trkpt>
      <trkpt lat="46.478131" lon="15.464699">
        <ele>1158.39</ele>
        <time>2019-07-11T12:43:37Z</time>
      </trkpt>
      <trkpt lat="46.478151" lon="15.464904">
        <ele>1155.41</ele>
        <time>2019-07-11T12:43:49Z</time>
      </trkpt>
      <trkpt lat="46.478148" lon="15.464974">
        <ele>1158.29</ele>
        <time>2019-07-11T12:43:54Z</time>
      </trkpt>
      <trkpt lat="46.478147" lon="15.465131">
        <ele>1161.77</ele>
        <time>2019-07-11T12:44:06Z</time>
      </trkpt>
      <trkpt lat="46.478199" lon="15.465323">
        <ele>1158.8</ele>
        <time>2019-07-11T12:44:15Z</time>
      </trkpt>
      <trkpt lat="46.478227" lon="15.465536">
        <ele>1159.13</ele>
        <time>2019-07-11T12:44:27Z</time>
      </trkpt>
      <trkpt lat="46.478097" lon="15.465949">
        <ele>1163.13</ele>
        <time>2019-07-11T12:45:03Z</time>
      </trkpt>
      <trkpt lat="46.478043" lon="15.466131">
        <ele>1163.35</ele>
        <time>2019-07-11T12:45:14Z</time>
      </trkpt>
      <trkpt lat="46.477994" lon="15.466327">
        <ele>1162.88</ele>
        <time>2019-07-11T12:45:25Z</time>
      </trkpt>
      <trkpt lat="46.478015" lon="15.466516">
        <ele>1161.44</ele>
        <time>2019-07-11T12:45:34Z</time>
      </trkpt>
      <trkpt lat="46.477999" lon="15.466702">
        <ele>1164.39</ele>
        <time>2019-07-11T12:45:44Z</time>
      </trkpt>
      <trkpt lat="46.478027" lon="15.466975">
        <ele>1159.57</ele>
        <time>2019-07-11T12:45:57Z</time>
      </trkpt>
      <trkpt lat="46.478055" lon="15.467222">
        <ele>1162.91</ele>
        <time>2019-07-11T12:46:10Z</time>
      </trkpt>
      <trkpt lat="46.478104" lon="15.467436">
        <ele>1157.81</ele>
        <time>2019-07-11T12:46:25Z</time>
      </trkpt>
      <trkpt lat="46.478152" lon="15.467601">
        <ele>1159.71</ele>
        <time>2019-07-11T12:46:32Z</time>
      </trkpt>
      <trkpt lat="46.478155" lon="15.467753">
        <ele>1157.87</ele>
        <time>2019-07-11T12:46:40Z</time>
      </trkpt>
      <trkpt lat="46.4782" lon="15.467935">
        <ele>1157.95</ele>
        <time>2019-07-11T12:46:50Z</time>
      </trkpt>
      <trkpt lat="46.478243" lon="15.468099">
        <ele>1155.78</ele>
        <time>2019-07-11T12:47:03Z</time>
      </trkpt>
      <trkpt lat="46.478189" lon="15.46841">
        <ele>1153.14</ele>
        <time>2019-07-11T12:47:27Z</time>
      </trkpt>
      <trkpt lat="46.478146" lon="15.468632">
        <ele>1151.15</ele>
        <time>2019-07-11T12:47:37Z</time>
      </trkpt>
      <trkpt lat="46.478145" lon="15.468798">
        <ele>1152.27</ele>
        <time>2019-07-11T12:47:46Z</time>
      </trkpt>
      <trkpt lat="46.478127" lon="15.469034">
        <ele>1152.48</ele>
        <time>2019-07-11T12:48:00Z</time>
      </trkpt>
      <trkpt lat="46.478079" lon="15.46928">
        <ele>1162.66</ele>
        <time>2019-07-11T12:48:12Z</time>
      </trkpt>
      <trkpt lat="46.478073" lon="15.469471">
        <ele>1159.44</ele>
        <time>2019-07-11T12:48:22Z</time>
      </trkpt>
      <trkpt lat="46.478079" lon="15.469597">
        <ele>1160.11</ele>
        <time>2019-07-11T12:48:30Z</time>
      </trkpt>
      <trkpt lat="46.478045" lon="15.46987">
        <ele>1166.63</ele>
        <time>2019-07-11T12:48:49Z</time>
      </trkpt>
      <trkpt lat="46.478118" lon="15.4695">
        <ele>1155.47</ele>
        <time>2019-07-11T12:49:18Z</time>
      </trkpt>
      <trkpt lat="46.478219" lon="15.469222">
        <ele>1157.11</ele>
        <time>2019-07-11T12:49:38Z</time>
      </trkpt>
      <trkpt lat="46.478268" lon="15.468898">
        <ele>1152.23</ele>
        <time>2019-07-11T12:49:54Z</time>
      </trkpt>
      <trkpt lat="46.478294" lon="15.468792">
        <ele>1152.86</ele>
        <time>2019-07-11T12:50:00Z</time>
      </trkpt>
      <trkpt lat="46.478295" lon="15.468572">
        <ele>1151.99</ele>
        <time>2019-07-11T12:50:09Z</time>
      </trkpt>
      <trkpt lat="46.478361" lon="15.468424">
        <ele>1150.16</ele>
        <time>2019-07-11T12:50:21Z</time>
      </trkpt>
      <trkpt lat="46.478372" lon="15.468356">
        <ele>1148.18</ele>
        <time>2019-07-11T12:50:25Z</time>
      </trkpt>
      <trkpt lat="46.47844" lon="15.468364">
        <ele>1149.84</ele>
        <time>2019-07-11T12:50:36Z</time>
      </trkpt>
      <trkpt lat="46.478591" lon="15.468498">
        <ele>1157.07</ele>
        <time>2019-07-11T12:51:23Z</time>
      </trkpt>
      <trkpt lat="46.478591" lon="15.468498">
        <ele>1157.07</ele>
        <time>2019-07-11T12:51:31Z</time>
      </trkpt>
      <trkpt lat="46.478591" lon="15.468498">
        <ele>1157.07</ele>
        <time>2019-07-11T12:51:32Z</time>
      </trkpt>
      <trkpt lat="46.478829" lon="15.468747">
        <ele>1162.32</ele>
        <time>2019-07-11T12:52:14Z</time>
      </trkpt>
      <trkpt lat="46.478871" lon="15.468866">
        <ele>1162.25</ele>
        <time>2019-07-11T12:52:23Z</time>
      </trkpt>
      <trkpt lat="46.47891" lon="15.46894">
        <ele>1165.9</ele>
        <time>2019-07-11T12:52:34Z</time>
      </trkpt>
      <trkpt lat="46.479002" lon="15.469148">
        <ele>1171.0</ele>
        <time>2019-07-11T12:52:52Z</time>
      </trkpt>
      <trkpt lat="46.47906" lon="15.469217">
        <ele>1171.33</ele>
        <time>2019-07-11T12:53:01Z</time>
      </trkpt>
      <trkpt lat="46.479099" lon="15.469277">
        <ele>1173.81</ele>
        <time>2019-07-11T12:53:10Z</time>
      </trkpt>
      <trkpt lat="46.479233" lon="15.469687">
        <ele>1178.2</ele>
        <time>2019-07-11T12:54:14Z</time>
      </trkpt>
      <trkpt lat="46.479367" lon="15.469651">
        <ele>1177.7</ele>
        <time>2019-07-11T12:54:27Z</time>
      </trkpt>
      <trkpt lat="46.479367" lon="15.469651">
        <ele>1177.7</ele>
        <time>2019-07-11T12:54:34Z</time>
      </trkpt>
      <trkpt lat="46.479367" lon="15.469651">
        <ele>1177.7</ele>
        <time>2019-07-11T12:54:35Z</time>
      </trkpt>
      <trkpt lat="46.479272" lon="15.469793">
        <ele>1179.79</ele>
        <time>2019-07-11T12:55:26Z</time>
      </trkpt>
      <trkpt lat="46.479311" lon="15.469993">
        <ele>1183.4</ele>
        <time>2019-07-11T12:55:42Z</time>
      </trkpt>
      <trkpt lat="46.479323" lon="15.470248">
        <ele>1186.18</ele>
        <time>2019-07-11T12:56:00Z</time>
      </trkpt>
      <trkpt lat="46.479304" lon="15.470443">
        <ele>1190.77</ele>
        <time>2019-07-11T12:56:12Z</time>
      </trkpt>
      <trkpt lat="46.479408" lon="15.470627">
        <ele>1195.69</ele>
        <time>2019-07-11T12:56:27Z</time>
      </trkpt>
      <trkpt lat="46.479486" lon="15.47082">
        <ele>1193.66</ele>
        <time>2019-07-11T12:56:45Z</time>
      </trkpt>
      <trkpt lat="46.479536" lon="15.470995">
        <ele>1192.56</ele>
        <time>2019-07-11T12:56:56Z</time>
      </trkpt>
      <trkpt lat="46.479619" lon="15.471124">
        <ele>1191.69</ele>
        <time>2019-07-11T12:57:11Z</time>
      </trkpt>
      <trkpt lat="46.479733" lon="15.471069">
        <ele>1192.95</ele>
        <time>2019-07-11T12:57:26Z</time>
      </trkpt>
      <trkpt lat="46.47979" lon="15.471011">
        <ele>1194.79</ele>
        <time>2019-07-11T12:57:40Z</time>
      </trkpt>
      <trkpt lat="46.479992" lon="15.471249">
        <ele>1191.09</ele>
        <time>2019-07-11T12:58:39Z</time>
      </trkpt>
      <trkpt lat="46.480001" lon="15.47148">
        <ele>1190.64</ele>
        <time>2019-07-11T12:58:50Z</time>
      </trkpt>
      <trkpt lat="46.480108" lon="15.471741">
        <ele>1187.21</ele>
        <time>2019-07-11T12:59:08Z</time>
      </trkpt>
      <trkpt lat="46.480138" lon="15.471931">
        <ele>1191.29</ele>
        <time>2019-07-11T12:59:21Z</time>
      </trkpt>
      <trkpt lat="46.480174" lon="15.472325">
        <ele>1186.49</ele>
        <time>2019-07-11T13:00:01Z</time>
      </trkpt>
      <trkpt lat="46.480132" lon="15.472654">
        <ele>1185.86</ele>
        <time>2019-07-11T13:00:20Z</time>
      </trkpt>
      <trkpt lat="46.480156" lon="15.472733">
        <ele>1184.98</ele>
        <time>2019-07-11T13:00:25Z</time>
      </trkpt>
      <trkpt lat="46.480182" lon="15.472754">
        <ele>1185.69</ele>
        <time>2019-07-11T13:00:35Z</time>
      </trkpt>
      <trkpt lat="46.480327" lon="15.473079">
        <ele>1176.67</ele>
        <time>2019-07-11T13:01:38Z</time>
      </trkpt>
      <trkpt lat="46.480377" lon="15.473199">
        <ele>1178.9</ele>
        <time>2019-07-11T13:01:48Z</time>
      </trkpt>
      <trkpt lat="46.480478" lon="15.473221">
        <ele>1185.42</ele>
        <time>2019-07-11T13:02:03Z</time>
      </trkpt>
      <trkpt lat="46.480634" lon="15.473346">
        <ele>1180.37</ele>
        <time>2019-07-11T13:02:18Z</time>
      </trkpt>
      <trkpt lat="46.480664" lon="15.473374">
        <ele>1180.53</ele>
        <time>2019-07-11T13:02:26Z</time>
      </trkpt>
      <trkpt lat="46.480852" lon="15.473523">
        <ele>1174.03</ele>
        <time>2019-07-11T13:02:50Z</time>
      </trkpt>
      <trkpt lat="46.480852" lon="15.473523">
        <ele>1174.03</ele>
        <time>2019-07-11T13:02:59Z</time>
      </trkpt>
      <trkpt lat="46.480852" lon="15.473523">
        <ele>1174.03</ele>
        <time>2019-07-11T13:03:00Z</time>
      </trkpt>
      <trkpt lat="46.480933" lon="15.473678">
        <ele>1180.51</ele>
        <time>2019-07-11T13:03:14Z</time>
      </trkpt>
      <trkpt lat="46.481032" lon="15.473846">
        <ele>1194.13</ele>
        <time>2019-07-11T13:03:29Z</time>
      </trkpt>
      <trkpt lat="46.481325" lon="15.473917">
        <ele>1197.38</ele>
        <time>2019-07-11T13:04:23Z</time>
      </trkpt>
      <trkpt lat="46.481472" lon="15.474279">
        <ele>1198.44</ele>
        <time>2019-07-11T13:05:06Z</time>
      </trkpt>
      <trkpt lat="46.481516" lon="15.474374">
        <ele>1201.75</ele>
        <time>2019-07-11T13:05:14Z</time>
      </trkpt>
      <trkpt lat="46.481486" lon="15.474416">
        <ele>1206.77</ele>
        <time>2019-07-11T13:05:23Z</time>
      </trkpt>
      <trkpt lat="46.481594" lon="15.474693">
        <ele>1201.93</ele>
        <time>2019-07-11T13:05:44Z</time>
      </trkpt>
      <trkpt lat="46.481654" lon="15.474739">
        <ele>1201.94</ele>
        <time>2019-07-11T13:05:48Z</time>
      </trkpt>
      <trkpt lat="46.481649" lon="15.474774">
        <ele>1203.79</ele>
        <time>2019-07-11T13:05:57Z</time>
      </trkpt>
      <trkpt lat="46.481794" lon="15.475108">
        <ele>1213.01</ele>
        <time>2019-07-11T13:07:18Z</time>
      </trkpt>
      <trkpt lat="46.481938" lon="15.475206">
        <ele>1219.7</ele>
        <time>2019-07-11T13:07:37Z</time>
      </trkpt>
      <trkpt lat="46.48202" lon="15.475286">
        <ele>1225.54</ele>
        <time>2019-07-11T13:07:49Z</time>
      </trkpt>
      <trkpt lat="46.482061" lon="15.475337">
        <ele>1228.39</ele>
        <time>2019-07-11T13:07:57Z</time>
      </trkpt>
      <trkpt lat="46.482095" lon="15.475349">
        <ele>1228.14</ele>
        <time>2019-07-11T13:08:05Z</time>
      </trkpt>
      <trkpt lat="46.482341" lon="15.475559">
        <ele>1229.82</ele>
        <time>2019-07-11T13:09:13Z</time>
      </trkpt>
      <trkpt lat="46.482472" lon="15.475685">
        <ele>1242.25</ele>
        <time>2019-07-11T13:09:27Z</time>
      </trkpt>
      <trkpt lat="46.482597" lon="15.47574">
        <ele>1244.86</ele>
        <time>2019-07-11T13:09:38Z</time>
      </trkpt>
      <trkpt lat="46.482597" lon="15.47574">
        <ele>1244.86</ele>
        <time>2019-07-11T13:09:46Z</time>
      </trkpt>
      <trkpt lat="46.482597" lon="15.47574">
        <ele>1244.86</ele>
        <time>2019-07-11T13:09:47Z</time>
      </trkpt>
      <trkpt lat="46.482839" lon="15.475926">
        <ele>1242.72</ele>
        <time>2019-07-11T13:10:27Z</time>
      </trkpt>
      <trkpt lat="46.483127" lon="15.476074">
        <ele>1252.74</ele>
        <time>2019-07-11T13:11:08Z</time>
      </trkpt>
      <trkpt lat="46.48316" lon="15.47612">
        <ele>1254.31</ele>
        <time>2019-07-11T13:11:13Z</time>
      </trkpt>
      <trkpt lat="46.483179" lon="15.476231">
        <ele>1260.44</ele>
        <time>2019-07-11T13:11:27Z</time>
      </trkpt>
      <trkpt lat="46.483179" lon="15.476231">
        <ele>1260.44</ele>
        <time>2019-07-11T13:13:52Z</time>
      </trkpt>
      <trkpt lat="46.483366" lon="15.476366">
        <ele>1264.59</ele>
        <time>2019-07-11T13:14:08Z</time>
      </trkpt>
      <trkpt lat="46.483493" lon="15.476459">
        <ele>1268.96</ele>
        <time>2019-07-11T13:14:24Z</time>
      </trkpt>
      <trkpt lat="46.483764" lon="15.47655">
        <ele>1272.04</ele>
        <time>2019-07-11T13:15:21Z</time>
      </trkpt>
      <trkpt lat="46.48406" lon="15.476697">
        <ele>1272.62</ele>
        <time>2019-07-11T13:16:11Z</time>
      </trkpt>
      <trkpt lat="46.48406" lon="15.476697">
        <ele>1272.62</ele>
        <time>2019-07-11T13:16:18Z</time>
      </trkpt>
      <trkpt lat="46.48406" lon="15.476697">
        <ele>1272.62</ele>
        <time>2019-07-11T13:16:19Z</time>
      </trkpt>
      <trkpt lat="46.48426" lon="15.476812">
        <ele>1277.54</ele>
        <time>2019-07-11T13:16:42Z</time>
      </trkpt>
      <trkpt lat="46.484313" lon="15.476911">
        <ele>1278.87</ele>
        <time>2019-07-11T13:16:53Z</time>
      </trkpt>
      <trkpt lat="46.484408" lon="15.476872">
        <ele>1277.12</ele>
        <time>2019-07-11T13:17:07Z</time>
      </trkpt>
      <trkpt lat="46.484554" lon="15.476858">
        <ele>1283.73</ele>
        <time>2019-07-11T13:17:21Z</time>
      </trkpt>
      <trkpt lat="46.484711" lon="15.476974">
        <ele>1280.46</ele>
        <time>2019-07-11T13:17:41Z</time>
      </trkpt>
      <trkpt lat="46.484833" lon="15.477172">
        <ele>1279.59</ele>
        <time>2019-07-11T13:18:01Z</time>
      </trkpt>
      <trkpt lat="46.484959" lon="15.477261">
        <ele>1287.81</ele>
        <time>2019-07-11T13:18:18Z</time>
      </trkpt>
      <trkpt lat="46.485093" lon="15.477333">
        <ele>1285.45</ele>
        <time>2019-07-11T13:18:34Z</time>
      </trkpt>
      <trkpt lat="46.485219" lon="15.477497">
        <ele>1278.57</ele>
        <time>2019-07-11T13:18:46Z</time>
      </trkpt>
      <trkpt lat="46.485361" lon="15.477689">
        <ele>1277.36</ele>
        <time>2019-07-11T13:19:04Z</time>
      </trkpt>
      <trkpt lat="46.485481" lon="15.477844">
        <ele>1276.15</ele>
        <time>2019-07-11T13:19:20Z</time>
      </trkpt>
      <trkpt lat="46.485632" lon="15.477969">
        <ele>1270.74</ele>
        <time>2019-07-11T13:19:38Z</time>
      </trkpt>
      <trkpt lat="46.485822" lon="15.478078">
        <ele>1274.84</ele>
        <time>2019-07-11T13:19:54Z</time>
      </trkpt>
      <trkpt lat="46.485902" lon="15.47836">
        <ele>1282.95</ele>
        <time>2019-07-11T13:20:10Z</time>
      </trkpt>
      <trkpt lat="46.48599" lon="15.478633">
        <ele>1279.96</ele>
        <time>2019-07-11T13:20:24Z</time>
      </trkpt>
      <trkpt lat="46.486026" lon="15.478852">
        <ele>1281.4</ele>
        <time>2019-07-11T13:20:35Z</time>
      </trkpt>
      <trkpt lat="46.48604" lon="15.479076">
        <ele>1289.83</ele>
        <time>2019-07-11T13:20:51Z</time>
      </trkpt>
      <trkpt lat="46.486059" lon="15.479317">
        <ele>1275.45</ele>
        <time>2019-07-11T13:21:02Z</time>
      </trkpt>
      <trkpt lat="46.486148" lon="15.479562">
        <ele>1280.54</ele>
        <time>2019-07-11T13:21:15Z</time>
      </trkpt>
      <trkpt lat="46.486103" lon="15.47984">
        <ele>1285.36</ele>
        <time>2019-07-11T13:21:28Z</time>
      </trkpt>
      <trkpt lat="46.486153" lon="15.480103">
        <ele>1282.52</ele>
        <time>2019-07-11T13:21:42Z</time>
      </trkpt>
      <trkpt lat="46.486179" lon="15.480339">
        <ele>1280.75</ele>
        <time>2019-07-11T13:22:00Z</time>
      </trkpt>
      <trkpt lat="46.486274" lon="15.480567">
        <ele>1272.09</ele>
        <time>2019-07-11T13:22:12Z</time>
      </trkpt>
      <trkpt lat="46.48631" lon="15.48078">
        <ele>1275.44</ele>
        <time>2019-07-11T13:22:26Z</time>
      </trkpt>
      <trkpt lat="46.486433" lon="15.48093">
        <ele>1269.18</ele>
        <time>2019-07-11T13:22:38Z</time>
      </trkpt>
      <trkpt lat="46.486551" lon="15.480962">
        <ele>1269.12</ele>
        <time>2019-07-11T13:22:51Z</time>
      </trkpt>
      <trkpt lat="46.486634" lon="15.480968">
        <ele>1269.46</ele>
        <time>2019-07-11T13:22:58Z</time>
      </trkpt>
      <trkpt lat="46.486733" lon="15.480977">
        <ele>1269.25</ele>
        <time>2019-07-11T13:23:10Z</time>
      </trkpt>
      <trkpt lat="46.486905" lon="15.481055">
        <ele>1275.19</ele>
        <time>2019-07-11T13:23:26Z</time>
      </trkpt>
      <trkpt lat="46.487066" lon="15.481055">
        <ele>1282.07</ele>
        <time>2019-07-11T13:23:40Z</time>
      </trkpt>
      <trkpt lat="46.487148" lon="15.481023">
        <ele>1281.34</ele>
        <time>2019-07-11T13:23:48Z</time>
      </trkpt>
      <trkpt lat="46.487171" lon="15.481086">
        <ele>1283.37</ele>
        <time>2019-07-11T13:23:56Z</time>
      </trkpt>
      <trkpt lat="46.487146" lon="15.48132">
        <ele>1291.18</ele>
        <time>2019-07-11T13:24:12Z</time>
      </trkpt>
      <trkpt lat="46.487274" lon="15.481389">
        <ele>1296.31</ele>
        <time>2019-07-11T13:24:29Z</time>
      </trkpt>
      <trkpt lat="46.487494" lon="15.481403">
        <ele>1295.73</ele>
        <time>2019-07-11T13:24:46Z</time>
      </trkpt>
      <trkpt lat="46.48752" lon="15.481403">
        <ele>1296.34</ele>
        <time>2019-07-11T13:24:50Z</time>
      </trkpt>
      <trkpt lat="46.487607" lon="15.481365">
        <ele>1299.25</ele>
        <time>2019-07-11T13:25:02Z</time>
      </trkpt>
      <trkpt lat="46.487767" lon="15.481268">
        <ele>1297.34</ele>
        <time>2019-07-11T13:25:20Z</time>
      </trkpt>
      <trkpt lat="46.487991" lon="15.481345">
        <ele>1296.44</ele>
        <time>2019-07-11T13:25:36Z</time>
      </trkpt>
      <trkpt lat="46.488047" lon="15.481333">
        <ele>1297.26</ele>
        <time>2019-07-11T13:25:40Z</time>
      </trkpt>
      <trkpt lat="46.488151" lon="15.481371">
        <ele>1298.15</ele>
        <time>2019-07-11T13:25:51Z</time>
      </trkpt>
      <trkpt lat="46.488326" lon="15.481488">
        <ele>1301.77</ele>
        <time>2019-07-11T13:26:10Z</time>
      </trkpt>
      <trkpt lat="46.488419" lon="15.481646">
        <ele>1303.94</ele>
        <time>2019-07-11T13:26:25Z</time>
      </trkpt>
      <trkpt lat="46.48866" lon="15.481838">
        <ele>1310.7</ele>
        <time>2019-07-11T13:26:55Z</time>
      </trkpt>
      <trkpt lat="46.488846" lon="15.481804">
        <ele>1314.71</ele>
        <time>2019-07-11T13:27:12Z</time>
      </trkpt>
      <trkpt lat="46.489021" lon="15.481786">
        <ele>1306.77</ele>
        <time>2019-07-11T13:27:24Z</time>
      </trkpt>
      <trkpt lat="46.48917" lon="15.481691">
        <ele>1312.81</ele>
        <time>2019-07-11T13:27:38Z</time>
      </trkpt>
      <trkpt lat="46.489316" lon="15.481687">
        <ele>1307.07</ele>
        <time>2019-07-11T13:27:49Z</time>
      </trkpt>
      <trkpt lat="46.48941" lon="15.481747">
        <ele>1303.01</ele>
        <time>2019-07-11T13:27:58Z</time>
      </trkpt>
      <trkpt lat="46.489412" lon="15.481728">
        <ele>1302.82</ele>
        <time>2019-07-11T13:28:06Z</time>
      </trkpt>
      <trkpt lat="46.489604" lon="15.482012">
        <ele>1304.53</ele>
        <time>2019-07-11T13:28:42Z</time>
      </trkpt>
      <trkpt lat="46.489635" lon="15.482275">
        <ele>1304.65</ele>
        <time>2019-07-11T13:28:59Z</time>
      </trkpt>
      <trkpt lat="46.489683" lon="15.482584">
        <ele>1311.59</ele>
        <time>2019-07-11T13:29:20Z</time>
      </trkpt>
      <trkpt lat="46.489683" lon="15.482584">
        <ele>1311.59</ele>
        <time>2019-07-11T13:29:27Z</time>
      </trkpt>
      <trkpt lat="46.489683" lon="15.482584">
        <ele>1311.59</ele>
        <time>2019-07-11T13:29:29Z</time>
      </trkpt>
      <trkpt lat="46.489697" lon="15.4828">
        <ele>1306.72</ele>
        <time>2019-07-11T13:29:45Z</time>
      </trkpt>
      <trkpt lat="46.48975" lon="15.483283">
        <ele>1309.54</ele>
        <time>2019-07-11T13:30:02Z</time>
      </trkpt>
      <trkpt lat="46.489737" lon="15.483441">
        <ele>1312.26</ele>
        <time>2019-07-11T13:30:09Z</time>
      </trkpt>
      <trkpt lat="46.489759" lon="15.48367">
        <ele>1319.67</ele>
        <time>2019-07-11T13:30:26Z</time>
      </trkpt>
      <trkpt lat="46.489785" lon="15.48398">
        <ele>1313.73</ele>
        <time>2019-07-11T13:30:37Z</time>
      </trkpt>
      <trkpt lat="46.489848" lon="15.484121">
        <ele>1316.06</ele>
        <time>2019-07-11T13:30:50Z</time>
      </trkpt>
      <trkpt lat="46.489824" lon="15.484294">
        <ele>1317.41</ele>
        <time>2019-07-11T13:31:00Z</time>
      </trkpt>
      <trkpt lat="46.48989" lon="15.484637">
        <ele>1314.07</ele>
        <time>2019-07-11T13:31:18Z</time>
      </trkpt>
      <trkpt lat="46.489939" lon="15.484814">
        <ele>1320.74</ele>
        <time>2019-07-11T13:31:31Z</time>
      </trkpt>
      <trkpt lat="46.490038" lon="15.485092">
        <ele>1320.75</ele>
        <time>2019-07-11T13:31:48Z</time>
      </trkpt>
      <trkpt lat="46.490182" lon="15.485322">
        <ele>1326.41</ele>
        <time>2019-07-11T13:32:01Z</time>
      </trkpt>
      <trkpt lat="46.490182" lon="15.485322">
        <ele>1326.41</ele>
        <time>2019-07-11T13:32:09Z</time>
      </trkpt>
      <trkpt lat="46.490201" lon="15.485448">
        <ele>1329.78</ele>
        <time>2019-07-11T13:32:17Z</time>
      </trkpt>
      <trkpt lat="46.490327" lon="15.485596">
        <ele>1358.86</ele>
        <time>2019-07-11T13:32:29Z</time>
      </trkpt>
      <trkpt lat="46.490487" lon="15.48572">
        <ele>1330.19</ele>
        <time>2019-07-11T13:32:40Z</time>
      </trkpt>
      <trkpt lat="46.490528" lon="15.485852">
        <ele>1331.19</ele>
        <time>2019-07-11T13:32:51Z</time>
      </trkpt>
      <trkpt lat="46.490584" lon="15.485946">
        <ele>1330.23</ele>
        <time>2019-07-11T13:33:05Z</time>
      </trkpt>
      <trkpt lat="46.490847" lon="15.486229">
        <ele>1329.35</ele>
        <time>2019-07-11T13:33:28Z</time>
      </trkpt>
      <trkpt lat="46.491008" lon="15.48646">
        <ele>1333.2</ele>
        <time>2019-07-11T13:33:48Z</time>
      </trkpt>
      <trkpt lat="46.491196" lon="15.486742">
        <ele>1327.91</ele>
        <time>2019-07-11T13:34:04Z</time>
      </trkpt>
      <trkpt lat="46.491313" lon="15.486907">
        <ele>1332.15</ele>
        <time>2019-07-11T13:34:17Z</time>
      </trkpt>
      <trkpt lat="46.49143" lon="15.487085">
        <ele>1335.87</ele>
        <time>2019-07-11T13:34:26Z</time>
      </trkpt>
      <trkpt lat="46.491454" lon="15.487229">
        <ele>1336.45</ele>
        <time>2019-07-11T13:34:32Z</time>
      </trkpt>
      <trkpt lat="46.491517" lon="15.487448">
        <ele>1335.9</ele>
        <time>2019-07-11T13:34:43Z</time>
      </trkpt>
      <trkpt lat="46.491625" lon="15.487643">
        <ele>1336.36</ele>
        <time>2019-07-11T13:34:58Z</time>
      </trkpt>
      <trkpt lat="46.491706" lon="15.48782">
        <ele>1338.0</ele>
        <time>2019-07-11T13:35:08Z</time>
      </trkpt>
      <trkpt lat="46.491858" lon="15.488029">
        <ele>1340.63</ele>
        <time>2019-07-11T13:35:26Z</time>
      </trkpt>
      <trkpt lat="46.492016" lon="15.488254">
        <ele>1343.19</ele>
        <time>2019-07-11T13:35:43Z</time>
      </trkpt>
      <trkpt lat="46.492203" lon="15.488534">
        <ele>1344.87</ele>
        <time>2019-07-11T13:36:00Z</time>
      </trkpt>
      <trkpt lat="46.49235" lon="15.488722">
        <ele>1336.98</ele>
        <time>2019-07-11T13:36:13Z</time>
      </trkpt>
      <trkpt lat="46.492433" lon="15.488997">
        <ele>1340.87</ele>
        <time>2019-07-11T13:36:27Z</time>
      </trkpt>
      <trkpt lat="46.492522" lon="15.489206">
        <ele>1339.52</ele>
        <time>2019-07-11T13:36:39Z</time>
      </trkpt>
      <trkpt lat="46.492569" lon="15.489316">
        <ele>1336.3</ele>
        <time>2019-07-11T13:36:48Z</time>
      </trkpt>
      <trkpt lat="46.492648" lon="15.489544">
        <ele>1337.34</ele>
        <time>2019-07-11T13:37:04Z</time>
      </trkpt>
      <trkpt lat="46.492834" lon="15.489786">
        <ele>1340.56</ele>
        <time>2019-07-11T13:37:20Z</time>
      </trkpt>
      <trkpt lat="46.49297" lon="15.489871">
        <ele>1338.18</ele>
        <time>2019-07-11T13:37:32Z</time>
      </trkpt>
      <trkpt lat="46.493088" lon="15.489968">
        <ele>1336.02</ele>
        <time>2019-07-11T13:37:44Z</time>
      </trkpt>
      <trkpt lat="46.493185" lon="15.490018">
        <ele>1336.18</ele>
        <time>2019-07-11T13:37:51Z</time>
      </trkpt>
      <trkpt lat="46.493189" lon="15.490065">
        <ele>1336.68</ele>
        <time>2019-07-11T13:38:02Z</time>
      </trkpt>
      <trkpt lat="46.4933" lon="15.49023">
        <ele>1332.83</ele>
        <time>2019-07-11T13:38:19Z</time>
      </trkpt>
      <trkpt lat="46.493387" lon="15.490362">
        <ele>1337.09</ele>
        <time>2019-07-11T13:38:29Z</time>
      </trkpt>
      <trkpt lat="46.493562" lon="15.49074">
        <ele>1335.64</ele>
        <time>2019-07-11T13:38:46Z</time>
      </trkpt>
      <trkpt lat="46.493648" lon="15.490941">
        <ele>1333.73</ele>
        <time>2019-07-11T13:38:57Z</time>
      </trkpt>
      <trkpt lat="46.493756" lon="15.491057">
        <ele>1327.23</ele>
        <time>2019-07-11T13:39:10Z</time>
      </trkpt>
      <trkpt lat="46.493945" lon="15.491182">
        <ele>1326.6</ele>
        <time>2019-07-11T13:39:22Z</time>
      </trkpt>
      <trkpt lat="46.494047" lon="15.491336">
        <ele>1322.33</ele>
        <time>2019-07-11T13:39:30Z</time>
      </trkpt>
      <trkpt lat="46.494111" lon="15.491463">
        <ele>1323.36</ele>
        <time>2019-07-11T13:39:37Z</time>
      </trkpt>
      <trkpt lat="46.494192" lon="15.491661">
        <ele>1329.38</ele>
        <time>2019-07-11T13:39:49Z</time>
      </trkpt>
      <trkpt lat="46.494268" lon="15.491832">
        <ele>1332.4</ele>
        <time>2019-07-11T13:39:59Z</time>
      </trkpt>
      <trkpt lat="46.494356" lon="15.491929">
        <ele>1332.82</ele>
        <time>2019-07-11T13:40:11Z</time>
      </trkpt>
      <trkpt lat="46.494536" lon="15.492058">
        <ele>1333.51</ele>
        <time>2019-07-11T13:40:25Z</time>
      </trkpt>
      <trkpt lat="46.494649" lon="15.492259">
        <ele>1333.66</ele>
        <time>2019-07-11T13:40:37Z</time>
      </trkpt>
      <trkpt lat="46.494747" lon="15.492356">
        <ele>1329.33</ele>
        <time>2019-07-11T13:40:45Z</time>
      </trkpt>
      <trkpt lat="46.494886" lon="15.49254">
        <ele>1328.85</ele>
        <time>2019-07-11T13:40:55Z</time>
      </trkpt>
      <trkpt lat="46.494996" lon="15.492706">
        <ele>1329.29</ele>
        <time>2019-07-11T13:41:06Z</time>
      </trkpt>
      <trkpt lat="46.495122" lon="15.492978">
        <ele>1328.46</ele>
        <time>2019-07-11T13:41:19Z</time>
      </trkpt>
      <trkpt lat="46.495215" lon="15.493114">
        <ele>1324.43</ele>
        <time>2019-07-11T13:41:32Z</time>
      </trkpt>
      <trkpt lat="46.495326" lon="15.493354">
        <ele>1321.01</ele>
        <time>2019-07-11T13:41:50Z</time>
      </trkpt>
      <trkpt lat="46.495408" lon="15.493535">
        <ele>1321.09</ele>
        <time>2019-07-11T13:41:59Z</time>
      </trkpt>
      <trkpt lat="46.495518" lon="15.493762">
        <ele>1323.3</ele>
        <time>2019-07-11T13:42:13Z</time>
      </trkpt>
      <trkpt lat="46.495614" lon="15.493912">
        <ele>1323.87</ele>
        <time>2019-07-11T13:42:25Z</time>
      </trkpt>
      <trkpt lat="46.495707" lon="15.494077">
        <ele>1325.96</ele>
        <time>2019-07-11T13:42:37Z</time>
      </trkpt>
      <trkpt lat="46.495789" lon="15.494299">
        <ele>1328.86</ele>
        <time>2019-07-11T13:42:51Z</time>
      </trkpt>
      <trkpt lat="46.495859" lon="15.49454">
        <ele>1330.65</ele>
        <time>2019-07-11T13:43:00Z</time>
      </trkpt>
      <trkpt lat="46.495906" lon="15.494667">
        <ele>1328.4</ele>
        <time>2019-07-11T13:43:07Z</time>
      </trkpt>
      <trkpt lat="46.496028" lon="15.495012">
        <ele>1325.15</ele>
        <time>2019-07-11T13:43:25Z</time>
      </trkpt>
      <trkpt lat="46.496132" lon="15.495264">
        <ele>1320.87</ele>
        <time>2019-07-11T13:43:39Z</time>
      </trkpt>
      <trkpt lat="46.49631" lon="15.495619">
        <ele>1316.26</ele>
        <time>2019-07-11T13:43:58Z</time>
      </trkpt>
      <trkpt lat="46.496401" lon="15.495762">
        <ele>1313.48</ele>
        <time>2019-07-11T13:44:09Z</time>
      </trkpt>
      <trkpt lat="46.496502" lon="15.495993">
        <ele>1318.77</ele>
        <time>2019-07-11T13:44:21Z</time>
      </trkpt>
      <trkpt lat="46.496569" lon="15.496143">
        <ele>1317.86</ele>
        <time>2019-07-11T13:44:33Z</time>
      </trkpt>
      <trkpt lat="46.496737" lon="15.496372">
        <ele>1315.6</ele>
        <time>2019-07-11T13:44:49Z</time>
      </trkpt>
      <trkpt lat="46.496837" lon="15.496584">
        <ele>1314.35</ele>
        <time>2019-07-11T13:45:00Z</time>
      </trkpt>
      <trkpt lat="46.496922" lon="15.496624">
        <ele>1311.0</ele>
        <time>2019-07-11T13:45:14Z</time>
      </trkpt>
      <trkpt lat="46.49699" lon="15.496772">
        <ele>1309.79</ele>
        <time>2019-07-11T13:45:24Z</time>
      </trkpt>
      <trkpt lat="46.497122" lon="15.49696">
        <ele>1309.07</ele>
        <time>2019-07-11T13:45:33Z</time>
      </trkpt>
      <trkpt lat="46.497227" lon="15.497105">
        <ele>1309.2</ele>
        <time>2019-07-11T13:45:44Z</time>
      </trkpt>
      <trkpt lat="46.497361" lon="15.497501">
        <ele>1316.72</ele>
        <time>2019-07-11T13:46:00Z</time>
      </trkpt>
      <trkpt lat="46.497411" lon="15.497621">
        <ele>1317.54</ele>
        <time>2019-07-11T13:46:07Z</time>
      </trkpt>
      <trkpt lat="46.497464" lon="15.497712">
        <ele>1316.05</ele>
        <time>2019-07-11T13:46:16Z</time>
      </trkpt>
      <trkpt lat="46.497477" lon="15.49788">
        <ele>1315.47</ele>
        <time>2019-07-11T13:46:24Z</time>
      </trkpt>
      <trkpt lat="46.497503" lon="15.49827">
        <ele>1313.77</ele>
        <time>2019-07-11T13:46:38Z</time>
      </trkpt>
      <trkpt lat="46.497419" lon="15.498462">
        <ele>1316.15</ele>
        <time>2019-07-11T13:46:51Z</time>
      </trkpt>
      <trkpt lat="46.497395" lon="15.498681">
        <ele>1321.67</ele>
        <time>2019-07-11T13:47:03Z</time>
      </trkpt>
      <trkpt lat="46.497331" lon="15.498983">
        <ele>1323.68</ele>
        <time>2019-07-11T13:47:21Z</time>
      </trkpt>
      <trkpt lat="46.497266" lon="15.49924">
        <ele>1324.55</ele>
        <time>2019-07-11T13:47:36Z</time>
      </trkpt>
      <trkpt lat="46.497217" lon="15.499534">
        <ele>1322.35</ele>
        <time>2019-07-11T13:47:49Z</time>
      </trkpt>
      <trkpt lat="46.497167" lon="15.499794">
        <ele>1318.82</ele>
        <time>2019-07-11T13:48:01Z</time>
      </trkpt>
      <trkpt lat="46.49709" lon="15.49991">
        <ele>1321.19</ele>
        <time>2019-07-11T13:48:09Z</time>
      </trkpt>
      <trkpt lat="46.496969" lon="15.500143">
        <ele>1320.49</ele>
        <time>2019-07-11T13:48:22Z</time>
      </trkpt>
      <trkpt lat="46.496867" lon="15.500267">
        <ele>1320.38</ele>
        <time>2019-07-11T13:48:34Z</time>
      </trkpt>
      <trkpt lat="46.496791" lon="15.500434">
        <ele>1318.87</ele>
        <time>2019-07-11T13:48:43Z</time>
      </trkpt>
      <trkpt lat="46.496698" lon="15.500581">
        <ele>1318.76</ele>
        <time>2019-07-11T13:48:51Z</time>
      </trkpt>
      <trkpt lat="46.496667" lon="15.500894">
        <ele>1314.79</ele>
        <time>2019-07-11T13:49:03Z</time>
      </trkpt>
      <trkpt lat="46.496693" lon="15.501108">
        <ele>1313.78</ele>
        <time>2019-07-11T13:49:14Z</time>
      </trkpt>
      <trkpt lat="46.496643" lon="15.501429">
        <ele>1315.53</ele>
        <time>2019-07-11T13:49:27Z</time>
      </trkpt>
      <trkpt lat="46.496637" lon="15.501685">
        <ele>1317.95</ele>
        <time>2019-07-11T13:49:40Z</time>
      </trkpt>
      <trkpt lat="46.496813" lon="15.501897">
        <ele>1311.76</ele>
        <time>2019-07-11T13:49:54Z</time>
      </trkpt>
      <trkpt lat="46.496959" lon="15.502101">
        <ele>1308.32</ele>
        <time>2019-07-11T13:50:07Z</time>
      </trkpt>
      <trkpt lat="46.496925" lon="15.502309">
        <ele>1308.41</ele>
        <time>2019-07-11T13:50:18Z</time>
      </trkpt>
      <trkpt lat="46.496929" lon="15.502581">
        <ele>1310.03</ele>
        <time>2019-07-11T13:50:33Z</time>
      </trkpt>
      <trkpt lat="46.49688" lon="15.502737">
        <ele>1312.14</ele>
        <time>2019-07-11T13:50:41Z</time>
      </trkpt>
      <trkpt lat="46.49689" lon="15.50311">
        <ele>1309.28</ele>
        <time>2019-07-11T13:50:58Z</time>
      </trkpt>
      <trkpt lat="46.496892" lon="15.5033">
        <ele>1313.75</ele>
        <time>2019-07-11T13:51:09Z</time>
      </trkpt>
      <trkpt lat="46.496895" lon="15.5036">
        <ele>1305.36</ele>
        <time>2019-07-11T13:51:26Z</time>
      </trkpt>
      <trkpt lat="46.496826" lon="15.503988">
        <ele>1306.78</ele>
        <time>2019-07-11T13:51:46Z</time>
      </trkpt>
      <trkpt lat="46.496762" lon="15.504103">
        <ele>1303.67</ele>
        <time>2019-07-11T13:51:54Z</time>
      </trkpt>
      <trkpt lat="46.496642" lon="15.50438">
        <ele>1302.82</ele>
        <time>2019-07-11T13:52:11Z</time>
      </trkpt>
      <trkpt lat="46.496498" lon="15.504667">
        <ele>1297.77</ele>
        <time>2019-07-11T13:52:30Z</time>
      </trkpt>
      <trkpt lat="46.496381" lon="15.504954">
        <ele>1297.93</ele>
        <time>2019-07-11T13:52:44Z</time>
      </trkpt>
      <trkpt lat="46.496268" lon="15.505123">
        <ele>1302.67</ele>
        <time>2019-07-11T13:52:55Z</time>
      </trkpt>
      <trkpt lat="46.496231" lon="15.505478">
        <ele>1300.5</ele>
        <time>2019-07-11T13:53:09Z</time>
      </trkpt>
      <trkpt lat="46.496202" lon="15.505755">
        <ele>1299.55</ele>
        <time>2019-07-11T13:53:27Z</time>
      </trkpt>
      <trkpt lat="46.49621" lon="15.506069">
        <ele>1297.54</ele>
        <time>2019-07-11T13:53:43Z</time>
      </trkpt>
      <trkpt lat="46.496204" lon="15.506244">
        <ele>1299.75</ele>
        <time>2019-07-11T13:53:53Z</time>
      </trkpt>
      <trkpt lat="46.496196" lon="15.50649">
        <ele>1301.72</ele>
        <time>2019-07-11T13:54:05Z</time>
      </trkpt>
      <trkpt lat="46.496178" lon="15.506826">
        <ele>1293.71</ele>
        <time>2019-07-11T13:54:19Z</time>
      </trkpt>
      <trkpt lat="46.496024" lon="15.507041">
        <ele>1292.71</ele>
        <time>2019-07-11T13:54:36Z</time>
      </trkpt>
      <trkpt lat="46.495923" lon="15.507222">
        <ele>1290.32</ele>
        <time>2019-07-11T13:54:52Z</time>
      </trkpt>
      <trkpt lat="46.495788" lon="15.507463">
        <ele>1292.34</ele>
        <time>2019-07-11T13:55:05Z</time>
      </trkpt>
      <trkpt lat="46.495695" lon="15.507807">
        <ele>1291.49</ele>
        <time>2019-07-11T13:55:16Z</time>
      </trkpt>
      <trkpt lat="46.495596" lon="15.508003">
        <ele>1297.78</ele>
        <time>2019-07-11T13:55:26Z</time>
      </trkpt>
      <trkpt lat="46.49547" lon="15.50811">
        <ele>1301.7</ele>
        <time>2019-07-11T13:55:35Z</time>
      </trkpt>
      <trkpt lat="46.49547" lon="15.50811">
        <ele>1301.7</ele>
        <time>2019-07-11T13:55:41Z</time>
      </trkpt>
      <trkpt lat="46.495334" lon="15.508128">
        <ele>1316.3</ele>
        <time>2019-07-11T13:55:48Z</time>
      </trkpt>
      <trkpt lat="46.495164" lon="15.508168">
        <ele>1311.86</ele>
        <time>2019-07-11T13:56:03Z</time>
      </trkpt>
      <trkpt lat="46.495005" lon="15.508163">
        <ele>1315.26</ele>
        <time>2019-07-11T13:56:19Z</time>
      </trkpt>
      <trkpt lat="46.494818" lon="15.508212">
        <ele>1312.43</ele>
        <time>2019-07-11T13:56:34Z</time>
      </trkpt>
      <trkpt lat="46.494818" lon="15.508212">
        <time>2019-07-11T13:56:59Z</time>
      </trkpt>
    </trkseg>
    <trkseg>
      <trkpt lat="46.494818" lon="15.508212">
        <time>2019-07-11T13:57:00Z</time>
      </trkpt>
    </trkseg>
    <trkseg>
      <trkpt lat="46.495191" lon="15.508214">
        <time>2019-07-12T06:18:16Z</time>
      </trkpt>
      <trkpt lat="46.495191" lon="15.508214">
        <ele>1308.0</ele>
        <time>2019-07-12T06:18:18Z</time>
      </trkpt>
      <trkpt lat="46.495505" lon="15.50806">
        <ele>1310.4</ele>
        <time>2019-07-12T06:18:56Z</time>
      </trkpt>
      <trkpt lat="46.495657" lon="15.507969">
        <ele>1307.98</ele>
        <time>2019-07-12T06:19:08Z</time>
      </trkpt>
      <trkpt lat="46.495825" lon="15.508033">
        <ele>1295.07</ele>
        <time>2019-07-12T06:19:26Z</time>
      </trkpt>
      <trkpt lat="46.49585" lon="15.508245">
        <ele>1296.94</ele>
        <time>2019-07-12T06:19:37Z</time>
      </trkpt>
      <trkpt lat="46.495835" lon="15.508507">
        <ele>1298.15</ele>
        <time>2019-07-12T06:19:51Z</time>
      </trkpt>
      <trkpt lat="46.495833" lon="15.508695">
        <ele>1298.44</ele>
        <time>2019-07-12T06:20:04Z</time>
      </trkpt>
      <trkpt lat="46.49582" lon="15.509049">
        <ele>1307.62</ele>
        <time>2019-07-12T06:20:16Z</time>
      </trkpt>
      <trkpt lat="46.495789" lon="15.509159">
        <ele>1297.06</ele>
        <time>2019-07-12T06:20:25Z</time>
      </trkpt>
      <trkpt lat="46.495745" lon="15.509376">
        <ele>1293.51</ele>
        <time>2019-07-12T06:20:32Z</time>
      </trkpt>
      <trkpt lat="46.495745" lon="15.509376">
        <ele>1293.51</ele>
        <time>2019-07-12T06:20:38Z</time>
      </trkpt>
      <trkpt lat="46.495727" lon="15.509485">
        <ele>1286.6</ele>
        <time>2019-07-12T06:20:41Z</time>
      </trkpt>
      <trkpt lat="46.495642" lon="15.509581">
        <ele>1282.94</ele>
        <time>2019-07-12T06:20:54Z</time>
      </trkpt>
      <trkpt lat="46.495545" lon="15.509969">
        <ele>1281.05</ele>
        <time>2019-07-12T06:21:10Z</time>
      </trkpt>
      <trkpt lat="46.495412" lon="15.510308">
        <ele>1281.16</ele>
        <time>2019-07-12T06:21:27Z</time>
      </trkpt>
      <trkpt lat="46.495373" lon="15.510426">
        <ele>1279.43</ele>
        <time>2019-07-12T06:21:37Z</time>
      </trkpt>
      <trkpt lat="46.495347" lon="15.510527">
        <ele>1276.04</ele>
        <time>2019-07-12T06:21:41Z</time>
      </trkpt>
      <trkpt lat="46.495454" lon="15.510579">
        <ele>1270.36</ele>
        <time>2019-07-12T06:21:52Z</time>
      </trkpt>
      <trkpt lat="46.495483" lon="15.510652">
        <ele>1265.24</ele>
        <time>2019-07-12T06:21:57Z</time>
      </trkpt>
      <trkpt lat="46.495513" lon="15.510648">
        <ele>1267.79</ele>
        <time>2019-07-12T06:22:08Z</time>
      </trkpt>
      <trkpt lat="46.495598" lon="15.51081">
        <ele>1269.36</ele>
        <time>2019-07-12T06:23:15Z</time>
      </trkpt>
      <trkpt lat="46.495751" lon="15.510983">
        <ele>1268.98</ele>
        <time>2019-07-12T06:23:26Z</time>
      </trkpt>
      <trkpt lat="46.49577" lon="15.511178">
        <ele>1269.14</ele>
        <time>2019-07-12T06:23:36Z</time>
      </trkpt>
      <trkpt lat="46.495733" lon="15.511365">
        <ele>1267.72</ele>
        <time>2019-07-12T06:23:45Z</time>
      </trkpt>
      <trkpt lat="46.495706" lon="15.511481">
        <ele>1267.0</ele>
        <time>2019-07-12T06:23:52Z</time>
      </trkpt>
      <trkpt lat="46.495614" lon="15.511693">
        <ele>1264.53</ele>
        <time>2019-07-12T06:24:00Z</time>
      </trkpt>
      <trkpt lat="46.495587" lon="15.511766">
        <ele>1264.74</ele>
        <time>2019-07-12T06:24:04Z</time>
      </trkpt>
      <trkpt lat="46.495516" lon="15.511875">
        <ele>1268.47</ele>
        <time>2019-07-12T06:24:18Z</time>
      </trkpt>
      <trkpt lat="46.495402" lon="15.512248">
        <ele>1268.33</ele>
        <time>2019-07-12T06:24:34Z</time>
      </trkpt>
      <trkpt lat="46.495392" lon="15.512359">
        <ele>1270.67</ele>
        <time>2019-07-12T06:24:39Z</time>
      </trkpt>
      <trkpt lat="46.495384" lon="15.512482">
        <ele>1270.5</ele>
        <time>2019-07-12T06:24:47Z</time>
      </trkpt>
      <trkpt lat="46.495356" lon="15.512676">
        <ele>1265.35</ele>
        <time>2019-07-12T06:24:53Z</time>
      </trkpt>
      <trkpt lat="46.495324" lon="15.51286">
        <ele>1267.12</ele>
        <time>2019-07-12T06:25:02Z</time>
      </trkpt>
      <trkpt lat="46.495283" lon="15.513099">
        <ele>1266.14</ele>
        <time>2019-07-12T06:25:17Z</time>
      </trkpt>
      <trkpt lat="46.495291" lon="15.513296">
        <ele>1262.53</ele>
        <time>2019-07-12T06:25:23Z</time>
      </trkpt>
      <trkpt lat="46.495363" lon="15.513507">
        <ele>1260.81</ele>
        <time>2019-07-12T06:25:39Z</time>
      </trkpt>
      <trkpt lat="46.495389" lon="15.513625">
        <ele>1259.71</ele>
        <time>2019-07-12T06:25:43Z</time>
      </trkpt>
      <trkpt lat="46.495508" lon="15.513767">
        <ele>1259.7</ele>
        <time>2019-07-12T06:25:52Z</time>
      </trkpt>
      <trkpt lat="46.495534" lon="15.513928">
        <ele>1259.16</ele>
        <time>2019-07-12T06:26:03Z</time>
      </trkpt>
      <trkpt lat="46.495576" lon="15.513962">
        <ele>1263.93</ele>
        <time>2019-07-12T06:26:08Z</time>
      </trkpt>
      <trkpt lat="46.495504" lon="15.514099">
        <ele>1262.39</ele>
        <time>2019-07-12T06:26:22Z</time>
      </trkpt>
      <trkpt lat="46.495477" lon="15.514291">
        <ele>1260.86</ele>
        <time>2019-07-12T06:26:29Z</time>
      </trkpt>
      <trkpt lat="46.495483" lon="15.514439">
        <ele>1261.18</ele>
        <time>2019-07-12T06:26:36Z</time>
      </trkpt>
      <trkpt lat="46.495484" lon="15.514602">
        <ele>1263.69</ele>
        <time>2019-07-12T06:26:46Z</time>
      </trkpt>
      <trkpt lat="46.495467" lon="15.514797">
        <ele>1266.77</ele>
        <time>2019-07-12T06:26:56Z</time>
      </trkpt>
      <trkpt lat="46.495457" lon="15.514991">
        <ele>1270.54</ele>
        <time>2019-07-12T06:27:06Z</time>
      </trkpt>
      <trkpt lat="46.495467" lon="15.515292">
        <ele>1270.3</ele>
        <time>2019-07-12T06:27:24Z</time>
      </trkpt>
      <trkpt lat="46.495447" lon="15.515681">
        <ele>1262.62</ele>
        <time>2019-07-12T06:27:41Z</time>
      </trkpt>
      <trkpt lat="46.495443" lon="15.515954">
        <ele>1261.77</ele>
        <time>2019-07-12T06:27:55Z</time>
      </trkpt>
      <trkpt lat="46.495439" lon="15.516332">
        <ele>1262.19</ele>
        <time>2019-07-12T06:28:11Z</time>
      </trkpt>
      <trkpt lat="46.495407" lon="15.516519">
        <ele>1265.28</ele>
        <time>2019-07-12T06:28:20Z</time>
      </trkpt>
      <trkpt lat="46.495414" lon="15.516834">
        <ele>1256.5</ele>
        <time>2019-07-12T06:28:34Z</time>
      </trkpt>
      <trkpt lat="46.495416" lon="15.517063">
        <ele>1256.36</ele>
        <time>2019-07-12T06:28:45Z</time>
      </trkpt>
      <trkpt lat="46.495432" lon="15.517326">
        <ele>1251.07</ele>
        <time>2019-07-12T06:28:55Z</time>
      </trkpt>
      <trkpt lat="46.495434" lon="15.517541">
        <ele>1247.59</ele>
        <time>2019-07-12T06:29:04Z</time>
      </trkpt>
      <trkpt lat="46.495444" lon="15.517694">
        <ele>1249.6</ele>
        <time>2019-07-12T06:29:12Z</time>
      </trkpt>
      <trkpt lat="46.495457" lon="15.51803">
        <ele>1247.76</ele>
        <time>2019-07-12T06:29:27Z</time>
      </trkpt>
      <trkpt lat="46.49546" lon="15.518314">
        <ele>1249.69</ele>
        <time>2019-07-12T06:29:40Z</time>
      </trkpt>
      <trkpt lat="46.495468" lon="15.518488">
        <ele>1252.1</ele>
        <time>2019-07-12T06:29:48Z</time>
      </trkpt>
      <trkpt lat="46.495463" lon="15.518701">
        <ele>1249.52</ele>
        <time>2019-07-12T06:29:57Z</time>
      </trkpt>
      <trkpt lat="46.495433" lon="15.518838">
        <ele>1246.92</ele>
        <time>2019-07-12T06:30:04Z</time>
      </trkpt>
      <trkpt lat="46.495425" lon="15.519123">
        <ele>1249.18</ele>
        <time>2019-07-12T06:30:16Z</time>
      </trkpt>
      <trkpt lat="46.495407" lon="15.519374">
        <ele>1252.05</ele>
        <time>2019-07-12T06:30:26Z</time>
      </trkpt>
      <trkpt lat="46.495374" lon="15.519577">
        <ele>1251.85</ele>
        <time>2019-07-12T06:30:40Z</time>
      </trkpt>
      <trkpt lat="46.495344" lon="15.519886">
        <ele>1246.76</ele>
        <time>2019-07-12T06:30:55Z</time>
      </trkpt>
      <trkpt lat="46.495364" lon="15.520173">
        <ele>1244.55</ele>
        <time>2019-07-12T06:31:10Z</time>
      </trkpt>
      <trkpt lat="46.495349" lon="15.520486">
        <ele>1253.01</ele>
        <time>2019-07-12T06:31:25Z</time>
      </trkpt>
      <trkpt lat="46.495348" lon="15.520796">
        <ele>1251.46</ele>
        <time>2019-07-12T06:31:38Z</time>
      </trkpt>
      <trkpt lat="46.49535" lon="15.521048">
        <ele>1251.34</ele>
        <time>2019-07-12T06:31:51Z</time>
      </trkpt>
      <trkpt lat="46.495335" lon="15.521429">
        <ele>1248.65</ele>
        <time>2019-07-12T06:32:11Z</time>
      </trkpt>
      <trkpt lat="46.495365" lon="15.52177">
        <ele>1242.18</ele>
        <time>2019-07-12T06:32:26Z</time>
      </trkpt>
      <trkpt lat="46.495337" lon="15.522014">
        <ele>1246.56</ele>
        <time>2019-07-12T06:32:41Z</time>
      </trkpt>
      <trkpt lat="46.495385" lon="15.522323">
        <ele>1239.13</ele>
        <time>2019-07-12T06:32:51Z</time>
      </trkpt>
      <trkpt lat="46.495405" lon="15.522502">
        <ele>1237.81</ele>
        <time>2019-07-12T06:33:02Z</time>
      </trkpt>
      <trkpt lat="46.495411" lon="15.522827">
        <ele>1244.87</ele>
        <time>2019-07-12T06:33:19Z</time>
      </trkpt>
      <trkpt lat="46.495373" lon="15.523039">
        <ele>1244.72</ele>
        <time>2019-07-12T06:33:27Z</time>
      </trkpt>
      <trkpt lat="46.495346" lon="15.523156">
        <ele>1240.1</ele>
        <time>2019-07-12T06:33:33Z</time>
      </trkpt>
      <trkpt lat="46.495301" lon="15.523341">
        <ele>1239.37</ele>
        <time>2019-07-12T06:33:46Z</time>
      </trkpt>
      <trkpt lat="46.49531" lon="15.523588">
        <ele>1238.07</ele>
        <time>2019-07-12T06:33:55Z</time>
      </trkpt>
      <trkpt lat="46.495374" lon="15.523915">
        <ele>1233.23</ele>
        <time>2019-07-12T06:34:11Z</time>
      </trkpt>
      <trkpt lat="46.495419" lon="15.524112">
        <ele>1235.01</ele>
        <time>2019-07-12T06:34:23Z</time>
      </trkpt>
      <trkpt lat="46.495439" lon="15.524299">
        <ele>1240.67</ele>
        <time>2019-07-12T06:34:36Z</time>
      </trkpt>
      <trkpt lat="46.495386" lon="15.524654">
        <ele>1236.93</ele>
        <time>2019-07-12T06:34:54Z</time>
      </trkpt>
      <trkpt lat="46.49544" lon="15.524902">
        <ele>1236.3</ele>
        <time>2019-07-12T06:35:13Z</time>
      </trkpt>
      <trkpt lat="46.495445" lon="15.525225">
        <ele>1231.89</ele>
        <time>2019-07-12T06:35:38Z</time>
      </trkpt>
      <trkpt lat="46.495502" lon="15.525406">
        <ele>1234.22</ele>
        <time>2019-07-12T06:35:46Z</time>
      </trkpt>
      <trkpt lat="46.495466" lon="15.525637">
        <ele>1237.41</ele>
        <time>2019-07-12T06:35:57Z</time>
      </trkpt>
      <trkpt lat="46.495443" lon="15.525798">
        <ele>1246.53</ele>
        <time>2019-07-12T06:36:06Z</time>
      </trkpt>
      <trkpt lat="46.495411" lon="15.526043">
        <ele>1246.35</ele>
        <time>2019-07-12T06:36:22Z</time>
      </trkpt>
      <trkpt lat="46.495359" lon="15.526237">
        <ele>1247.2</ele>
        <time>2019-07-12T06:36:34Z</time>
      </trkpt>
      <trkpt lat="46.49533" lon="15.526557">
        <ele>1254.27</ele>
        <time>2019-07-12T06:36:48Z</time>
      </trkpt>
      <trkpt lat="46.495276" lon="15.526677">
        <ele>1253.14</ele>
        <time>2019-07-12T06:36:55Z</time>
      </trkpt>
      <trkpt lat="46.495241" lon="15.526953">
        <ele>1251.03</ele>
        <time>2019-07-12T06:37:09Z</time>
      </trkpt>
      <trkpt lat="46.495159" lon="15.527179">
        <ele>1248.56</ele>
        <time>2019-07-12T06:37:26Z</time>
      </trkpt>
      <trkpt lat="46.49509" lon="15.52734">
        <ele>1243.29</ele>
        <time>2019-07-12T06:37:36Z</time>
      </trkpt>
      <trkpt lat="46.495051" lon="15.527573">
        <ele>1234.36</ele>
        <time>2019-07-12T06:37:48Z</time>
      </trkpt>
      <trkpt lat="46.494987" lon="15.527722">
        <ele>1243.06</ele>
        <time>2019-07-12T06:38:02Z</time>
      </trkpt>
      <trkpt lat="46.494923" lon="15.527959">
        <ele>1242.88</ele>
        <time>2019-07-12T06:38:15Z</time>
      </trkpt>
      <trkpt lat="46.494923" lon="15.527959">
        <ele>1242.88</ele>
        <time>2019-07-12T06:38:23Z</time>
      </trkpt>
      <trkpt lat="46.494887" lon="15.528186">
        <ele>1243.01</ele>
        <time>2019-07-12T06:38:31Z</time>
      </trkpt>
      <trkpt lat="46.49481" lon="15.528373">
        <ele>1250.39</ele>
        <time>2019-07-12T06:38:43Z</time>
      </trkpt>
      <trkpt lat="46.494745" lon="15.528543">
        <ele>1253.34</ele>
        <time>2019-07-12T06:38:53Z</time>
      </trkpt>
      <trkpt lat="46.494755" lon="15.528738">
        <ele>1258.58</ele>
        <time>2019-07-12T06:39:00Z</time>
      </trkpt>
      <trkpt lat="46.494792" lon="15.528966">
        <ele>1262.25</ele>
        <time>2019-07-12T06:39:10Z</time>
      </trkpt>
      <trkpt lat="46.494769" lon="15.529199">
        <ele>1258.99</ele>
        <time>2019-07-12T06:39:21Z</time>
      </trkpt>
      <trkpt lat="46.494781" lon="15.529308">
        <ele>1260.54</ele>
        <time>2019-07-12T06:39:26Z</time>
      </trkpt>
      <trkpt lat="46.494794" lon="15.529352">
        <ele>1265.2</ele>
        <time>2019-07-12T06:39:36Z</time>
      </trkpt>
      <trkpt lat="46.494777" lon="15.529754">
        <ele>1269.37</ele>
        <time>2019-07-12T06:40:09Z</time>
      </trkpt>
      <trkpt lat="46.494765" lon="15.529986">
        <ele>1271.72</ele>
        <time>2019-07-12T06:40:21Z</time>
      </trkpt>
      <trkpt lat="46.494852" lon="15.530189">
        <ele>1270.35</ele>
        <time>2019-07-12T06:40:35Z</time>
      </trkpt>
      <trkpt lat="46.494918" lon="15.530441">
        <ele>1269.96</ele>
        <time>2019-07-12T06:40:47Z</time>
      </trkpt>
      <trkpt lat="46.494962" lon="15.530735">
        <ele>1271.61</ele>
        <time>2019-07-12T06:41:02Z</time>
      </trkpt>
      <trkpt lat="46.495009" lon="15.530941">
        <ele>1267.61</ele>
        <time>2019-07-12T06:41:13Z</time>
      </trkpt>
      <trkpt lat="46.495036" lon="15.531164">
        <ele>1268.34</ele>
        <time>2019-07-12T06:41:23Z</time>
      </trkpt>
      <trkpt lat="46.495031" lon="15.531416">
        <ele>1265.61</ele>
        <time>2019-07-12T06:41:34Z</time>
      </trkpt>
      <trkpt lat="46.495013" lon="15.531685">
        <ele>1257.97</ele>
        <time>2019-07-12T06:41:50Z</time>
      </trkpt>
      <trkpt lat="46.494951" lon="15.53203">
        <ele>1256.16</ele>
        <time>2019-07-12T06:42:08Z</time>
      </trkpt>
      <trkpt lat="46.494927" lon="15.532194">
        <ele>1254.41</ele>
        <time>2019-07-12T06:42:16Z</time>
      </trkpt>
      <trkpt lat="46.494899" lon="15.532412">
        <ele>1251.58</ele>
        <time>2019-07-12T06:42:27Z</time>
      </trkpt>
      <trkpt lat="46.49484" lon="15.532691">
        <ele>1255.2</ele>
        <time>2019-07-12T06:42:42Z</time>
      </trkpt>
      <trkpt lat="46.494836" lon="15.533019">
        <ele>1254.11</ele>
        <time>2019-07-12T06:42:57Z</time>
      </trkpt>
      <trkpt lat="46.494796" lon="15.533302">
        <ele>1256.32</ele>
        <time>2019-07-12T06:43:13Z</time>
      </trkpt>
      <trkpt lat="46.49478" lon="15.533565">
        <ele>1262.01</ele>
        <time>2019-07-12T06:43:27Z</time>
      </trkpt>
      <trkpt lat="46.494774" lon="15.533882">
        <ele>1265.83</ele>
        <time>2019-07-12T06:43:42Z</time>
      </trkpt>
      <trkpt lat="46.494765" lon="15.534077">
        <ele>1264.79</ele>
        <time>2019-07-12T06:43:52Z</time>
      </trkpt>
      <trkpt lat="46.49479" lon="15.534417">
        <ele>1256.32</ele>
        <time>2019-07-12T06:44:08Z</time>
      </trkpt>
      <trkpt lat="46.494757" lon="15.534596">
        <ele>1255.17</ele>
        <time>2019-07-12T06:44:20Z</time>
      </trkpt>
      <trkpt lat="46.494786" lon="15.534801">
        <ele>1251.76</ele>
        <time>2019-07-12T06:44:34Z</time>
      </trkpt>
      <trkpt lat="46.49479" lon="15.535045">
        <ele>1254.66</ele>
        <time>2019-07-12T06:44:47Z</time>
      </trkpt>
      <trkpt lat="46.494791" lon="15.535347">
        <ele>1252.37</ele>
        <time>2019-07-12T06:45:00Z</time>
      </trkpt>
      <trkpt lat="46.494856" lon="15.535611">
        <ele>1251.6</ele>
        <time>2019-07-12T06:45:13Z</time>
      </trkpt>
      <trkpt lat="46.494871" lon="15.535873">
        <ele>1248.79</ele>
        <time>2019-07-12T06:45:28Z</time>
      </trkpt>
      <trkpt lat="46.494878" lon="15.536196">
        <ele>1247.36</ele>
        <time>2019-07-12T06:45:45Z</time>
      </trkpt>
      <trkpt lat="46.494902" lon="15.536442">
        <ele>1245.62</ele>
        <time>2019-07-12T06:46:02Z</time>
      </trkpt>
      <trkpt lat="46.494889" lon="15.536721">
        <ele>1245.88</ele>
        <time>2019-07-12T06:46:16Z</time>
      </trkpt>
      <trkpt lat="46.494914" lon="15.537001">
        <ele>1245.88</ele>
        <time>2019-07-12T06:46:30Z</time>
      </trkpt>
      <trkpt lat="46.494955" lon="15.537308">
        <ele>1233.54</ele>
        <time>2019-07-12T06:46:47Z</time>
      </trkpt>
      <trkpt lat="46.495024" lon="15.537699">
        <ele>1239.03</ele>
        <time>2019-07-12T06:47:03Z</time>
      </trkpt>
      <trkpt lat="46.495064" lon="15.537816">
        <ele>1240.58</ele>
        <time>2019-07-12T06:47:11Z</time>
      </trkpt>
      <trkpt lat="46.495171" lon="15.538132">
        <ele>1232.24</ele>
        <time>2019-07-12T06:47:31Z</time>
      </trkpt>
      <trkpt lat="46.495333" lon="15.538372">
        <ele>1225.83</ele>
        <time>2019-07-12T06:47:42Z</time>
      </trkpt>
      <trkpt lat="46.495413" lon="15.538514">
        <ele>1236.79</ele>
        <time>2019-07-12T06:47:53Z</time>
      </trkpt>
      <trkpt lat="46.495578" lon="15.538761">
        <ele>1228.74</ele>
        <time>2019-07-12T06:48:09Z</time>
      </trkpt>
      <trkpt lat="46.495686" lon="15.538859">
        <ele>1224.7</ele>
        <time>2019-07-12T06:48:16Z</time>
      </trkpt>
      <trkpt lat="46.495812" lon="15.538965">
        <ele>1220.97</ele>
        <time>2019-07-12T06:48:27Z</time>
      </trkpt>
      <trkpt lat="46.49597" lon="15.539096">
        <ele>1216.68</ele>
        <time>2019-07-12T06:48:39Z</time>
      </trkpt>
      <trkpt lat="46.49619" lon="15.539203">
        <ele>1211.57</ele>
        <time>2019-07-12T06:48:54Z</time>
      </trkpt>
      <trkpt lat="46.496315" lon="15.539449">
        <ele>1219.77</ele>
        <time>2019-07-12T06:49:10Z</time>
      </trkpt>
      <trkpt lat="46.49643" lon="15.539613">
        <ele>1217.49</ele>
        <time>2019-07-12T06:49:21Z</time>
      </trkpt>
      <trkpt lat="46.496583" lon="15.539752">
        <ele>1212.27</ele>
        <time>2019-07-12T06:49:35Z</time>
      </trkpt>
      <trkpt lat="46.496713" lon="15.539906">
        <ele>1217.07</ele>
        <time>2019-07-12T06:49:49Z</time>
      </trkpt>
      <trkpt lat="46.496879" lon="15.540112">
        <ele>1216.78</ele>
        <time>2019-07-12T06:50:06Z</time>
      </trkpt>
      <trkpt lat="46.497039" lon="15.540254">
        <ele>1215.2</ele>
        <time>2019-07-12T06:50:21Z</time>
      </trkpt>
      <trkpt lat="46.497189" lon="15.540324">
        <ele>1214.32</ele>
        <time>2019-07-12T06:50:38Z</time>
      </trkpt>
      <trkpt lat="46.49735" lon="15.540462">
        <ele>1214.7</ele>
        <time>2019-07-12T06:50:56Z</time>
      </trkpt>
      <trkpt lat="46.497514" lon="15.540558">
        <ele>1211.02</ele>
        <time>2019-07-12T06:51:06Z</time>
      </trkpt>
      <trkpt lat="46.497634" lon="15.540691">
        <ele>1211.38</ele>
        <time>2019-07-12T06:51:20Z</time>
      </trkpt>
      <trkpt lat="46.497783" lon="15.540789">
        <ele>1210.18</ele>
        <time>2019-07-12T06:51:34Z</time>
      </trkpt>
      <trkpt lat="46.497955" lon="15.540942">
        <ele>1213.47</ele>
        <time>2019-07-12T06:51:48Z</time>
      </trkpt>
      <trkpt lat="46.498069" lon="15.541019">
        <ele>1208.41</ele>
        <time>2019-07-12T06:52:01Z</time>
      </trkpt>
      <trkpt lat="46.498228" lon="15.541103">
        <ele>1212.99</ele>
        <time>2019-07-12T06:52:14Z</time>
      </trkpt>
      <trkpt lat="46.498383" lon="15.541227">
        <ele>1212.81</ele>
        <time>2019-07-12T06:52:27Z</time>
      </trkpt>
      <trkpt lat="46.498582" lon="15.541279">
        <ele>1205.23</ele>
        <time>2019-07-12T06:52:39Z</time>
      </trkpt>
      <trkpt lat="46.498738" lon="15.541243">
        <ele>1204.41</ele>
        <time>2019-07-12T06:52:50Z</time>
      </trkpt>
      <trkpt lat="46.498947" lon="15.541227">
        <ele>1203.54</ele>
        <time>2019-07-12T06:53:03Z</time>
      </trkpt>
      <trkpt lat="46.499146" lon="15.541185">
        <ele>1200.94</ele>
        <time>2019-07-12T06:53:17Z</time>
      </trkpt>
      <trkpt lat="46.499313" lon="15.541209">
        <ele>1203.38</ele>
        <time>2019-07-12T06:53:34Z</time>
      </trkpt>
      <trkpt lat="46.499435" lon="15.541239">
        <ele>1200.92</ele>
        <time>2019-07-12T06:53:43Z</time>
      </trkpt>
      <trkpt lat="46.499691" lon="15.541231">
        <ele>1200.0</ele>
        <time>2019-07-12T06:53:59Z</time>
      </trkpt>
      <trkpt lat="46.499852" lon="15.541217">
        <ele>1202.88</ele>
        <time>2019-07-12T06:54:14Z</time>
      </trkpt>
      <trkpt lat="46.500034" lon="15.541193">
        <ele>1198.35</ele>
        <time>2019-07-12T06:54:29Z</time>
      </trkpt>
      <trkpt lat="46.500198" lon="15.541168">
        <ele>1190.71</ele>
        <time>2019-07-12T06:54:41Z</time>
      </trkpt>
      <trkpt lat="46.500312" lon="15.541199">
        <ele>1191.37</ele>
        <time>2019-07-12T06:54:52Z</time>
      </trkpt>
      <trkpt lat="46.500459" lon="15.541246">
        <ele>1193.42</ele>
        <time>2019-07-12T06:55:03Z</time>
      </trkpt>
      <trkpt lat="46.500634" lon="15.541393">
        <ele>1195.17</ele>
        <time>2019-07-12T06:55:17Z</time>
      </trkpt>
      <trkpt lat="46.500776" lon="15.541399">
        <ele>1192.74</ele>
        <time>2019-07-12T06:55:26Z</time>
      </trkpt>
      <trkpt lat="46.500881" lon="15.541498">
        <ele>1192.89</ele>
        <time>2019-07-12T06:55:35Z</time>
      </trkpt>
      <trkpt lat="46.501086" lon="15.541611">
        <ele>1183.24</ele>
        <time>2019-07-12T06:55:52Z</time>
      </trkpt>
      <trkpt lat="46.501154" lon="15.54165">
        <ele>1187.48</ele>
        <time>2019-07-12T06:55:58Z</time>
      </trkpt>
      <trkpt lat="46.501237" lon="15.541655">
        <ele>1186.99</ele>
        <time>2019-07-12T06:56:09Z</time>
      </trkpt>
      <trkpt lat="46.501358" lon="15.541679">
        <ele>1188.59</ele>
        <time>2019-07-12T06:56:17Z</time>
      </trkpt>
      <trkpt lat="46.501548" lon="15.541678">
        <ele>1191.61</ele>
        <time>2019-07-12T06:56:30Z</time>
      </trkpt>
      <trkpt lat="46.501702" lon="15.541696">
        <ele>1184.06</ele>
        <time>2019-07-12T06:56:42Z</time>
      </trkpt>
      <trkpt lat="46.50194" lon="15.541713">
        <ele>1176.87</ele>
        <time>2019-07-12T06:56:58Z</time>
      </trkpt>
      <trkpt lat="46.502131" lon="15.54179">
        <ele>1176.34</ele>
        <time>2019-07-12T06:57:11Z</time>
      </trkpt>
      <trkpt lat="46.502267" lon="15.541868">
        <ele>1174.83</ele>
        <time>2019-07-12T06:57:21Z</time>
      </trkpt>
      <trkpt lat="46.502348" lon="15.541832">
        <ele>1174.5</ele>
        <time>2019-07-12T06:57:32Z</time>
      </trkpt>
      <trkpt lat="46.502601" lon="15.541519">
        <ele>1176.53</ele>
        <time>2019-07-12T06:58:16Z</time>
      </trkpt>
      <trkpt lat="46.502624" lon="15.541385">
        <ele>1178.61</ele>
        <time>2019-07-12T06:58:26Z</time>
      </trkpt>
      <trkpt lat="46.502624" lon="15.541385">
        <ele>1178.61</ele>
        <time>2019-07-12T07:02:38Z</time>
      </trkpt>
      <trkpt lat="46.502539" lon="15.54162">
        <ele>1182.76</ele>
        <time>2019-07-12T07:03:13Z</time>
      </trkpt>
      <trkpt lat="46.502472" lon="15.541821">
        <ele>1182.16</ele>
        <time>2019-07-12T07:03:27Z</time>
      </trkpt>
      <trkpt lat="46.502498" lon="15.542031">
        <ele>1184.95</ele>
        <time>2019-07-12T07:03:42Z</time>
      </trkpt>
      <trkpt lat="46.50261" lon="15.542336">
        <ele>1185.78</ele>
        <time>2019-07-12T07:03:58Z</time>
      </trkpt>
      <trkpt lat="46.50276" lon="15.542527">
        <ele>1192.88</ele>
        <time>2019-07-12T07:04:10Z</time>
      </trkpt>
      <trkpt lat="46.502913" lon="15.542725">
        <ele>1182.13</ele>
        <time>2019-07-12T07:04:28Z</time>
      </trkpt>
      <trkpt lat="46.503094" lon="15.542824">
        <ele>1177.7</ele>
        <time>2019-07-12T07:04:40Z</time>
      </trkpt>
      <trkpt lat="46.503236" lon="15.542953">
        <ele>1174.94</ele>
        <time>2019-07-12T07:04:53Z</time>
      </trkpt>
      <trkpt lat="46.50332" lon="15.543107">
        <ele>1177.81</ele>
        <time>2019-07-12T07:05:07Z</time>
      </trkpt>
      <trkpt lat="46.503441" lon="15.543213">
        <ele>1180.77</ele>
        <time>2019-07-12T07:05:21Z</time>
      </trkpt>
      <trkpt lat="46.503525" lon="15.543316">
        <ele>1181.91</ele>
        <time>2019-07-12T07:05:32Z</time>
      </trkpt>
      <trkpt lat="46.503604" lon="15.543424">
        <ele>1184.47</ele>
        <time>2019-07-12T07:05:40Z</time>
      </trkpt>
      <trkpt lat="46.503637" lon="15.543392">
        <ele>1184.11</ele>
        <time>2019-07-12T07:05:48Z</time>
      </trkpt>
      <trkpt lat="46.503805" lon="15.543713">
        <ele>1194.36</ele>
        <time>2019-07-12T07:06:31Z</time>
      </trkpt>
      <trkpt lat="46.503932" lon="15.543819">
        <ele>1200.16</ele>
        <time>2019-07-12T07:06:47Z</time>
      </trkpt>
      <trkpt lat="46.504173" lon="15.543994">
        <ele>1194.08</ele>
        <time>2019-07-12T07:07:08Z</time>
      </trkpt>
      <trkpt lat="46.504363" lon="15.544094">
        <ele>1200.24</ele>
        <time>2019-07-12T07:07:29Z</time>
      </trkpt>
      <trkpt lat="46.504527" lon="15.544277">
        <ele>1196.52</ele>
        <time>2019-07-12T07:07:45Z</time>
      </trkpt>
      <trkpt lat="46.504585" lon="15.544398">
        <ele>1196.22</ele>
        <time>2019-07-12T07:07:56Z</time>
      </trkpt>
      <trkpt lat="46.504803" lon="15.544617">
        <ele>1194.39</ele>
        <time>2019-07-12T07:08:16Z</time>
      </trkpt>
      <trkpt lat="46.504982" lon="15.544787">
        <ele>1187.2</ele>
        <time>2019-07-12T07:08:32Z</time>
      </trkpt>
      <trkpt lat="46.505125" lon="15.544967">
        <ele>1202.22</ele>
        <time>2019-07-12T07:08:46Z</time>
      </trkpt>
      <trkpt lat="46.505258" lon="15.545111">
        <ele>1198.93</ele>
        <time>2019-07-12T07:09:01Z</time>
      </trkpt>
      <trkpt lat="46.505381" lon="15.545322">
        <ele>1191.05</ele>
        <time>2019-07-12T07:09:22Z</time>
      </trkpt>
      <trkpt lat="46.505489" lon="15.545473">
        <ele>1188.81</ele>
        <time>2019-07-12T07:09:34Z</time>
      </trkpt>
      <trkpt lat="46.505572" lon="15.545656">
        <ele>1196.95</ele>
        <time>2019-07-12T07:09:47Z</time>
      </trkpt>
      <trkpt lat="46.505735" lon="15.545889">
        <ele>1190.66</ele>
        <time>2019-07-12T07:10:04Z</time>
      </trkpt>
      <trkpt lat="46.50582" lon="15.546112">
        <ele>1189.64</ele>
        <time>2019-07-12T07:10:15Z</time>
      </trkpt>
      <trkpt lat="46.505852" lon="15.546234">
        <ele>1188.21</ele>
        <time>2019-07-12T07:10:22Z</time>
      </trkpt>
      <trkpt lat="46.505866" lon="15.546384">
        <ele>1184.47</ele>
        <time>2019-07-12T07:10:31Z</time>
      </trkpt>
      <trkpt lat="46.505912" lon="15.546637">
        <ele>1182.02</ele>
        <time>2019-07-12T07:10:46Z</time>
      </trkpt>
      <trkpt lat="46.505865" lon="15.546874">
        <ele>1186.55</ele>
        <time>2019-07-12T07:11:05Z</time>
      </trkpt>
      <trkpt lat="46.505799" lon="15.547098">
        <ele>1188.34</ele>
        <time>2019-07-12T07:11:19Z</time>
      </trkpt>
      <trkpt lat="46.505725" lon="15.547349">
        <ele>1189.08</ele>
        <time>2019-07-12T07:11:31Z</time>
      </trkpt>
      <trkpt lat="46.505728" lon="15.54762">
        <ele>1185.51</ele>
        <time>2019-07-12T07:11:41Z</time>
      </trkpt>
      <trkpt lat="46.505728" lon="15.54762">
        <ele>1185.51</ele>
        <time>2019-07-12T07:11:47Z</time>
      </trkpt>
      <trkpt lat="46.505728" lon="15.54762">
        <ele>1185.51</ele>
        <time>2019-07-12T07:11:49Z</time>
      </trkpt>
      <trkpt lat="46.505691" lon="15.547846">
        <ele>1183.56</ele>
        <time>2019-07-12T07:12:01Z</time>
      </trkpt>
      <trkpt lat="46.505694" lon="15.547977">
        <ele>1181.1</ele>
        <time>2019-07-12T07:12:11Z</time>
      </trkpt>
      <trkpt lat="46.50573" lon="15.548285">
        <ele>1188.84</ele>
        <time>2019-07-12T07:12:24Z</time>
      </trkpt>
      <trkpt lat="46.505759" lon="15.548519">
        <ele>1194.04</ele>
        <time>2019-07-12T07:12:38Z</time>
      </trkpt>
      <trkpt lat="46.505802" lon="15.548819">
        <ele>1186.37</ele>
        <time>2019-07-12T07:12:55Z</time>
      </trkpt>
      <trkpt lat="46.505857" lon="15.549079">
        <ele>1199.52</ele>
        <time>2019-07-12T07:13:15Z</time>
      </trkpt>
      <trkpt lat="46.505947" lon="15.549334">
        <ele>1208.07</ele>
        <time>2019-07-12T07:13:36Z</time>
      </trkpt>
      <trkpt lat="46.505974" lon="15.549526">
        <ele>1208.8</ele>
        <time>2019-07-12T07:13:50Z</time>
      </trkpt>
      <trkpt lat="46.506034" lon="15.549764">
        <ele>1208.35</ele>
        <time>2019-07-12T07:14:08Z</time>
      </trkpt>
      <trkpt lat="46.50607" lon="15.549954">
        <ele>1208.59</ele>
        <time>2019-07-12T07:14:23Z</time>
      </trkpt>
      <trkpt lat="46.506062" lon="15.550288">
        <ele>1211.26</ele>
        <time>2019-07-12T07:14:42Z</time>
      </trkpt>
      <trkpt lat="46.506075" lon="15.550512">
        <ele>1210.93</ele>
        <time>2019-07-12T07:14:56Z</time>
      </trkpt>
      <trkpt lat="46.506112" lon="15.550724">
        <ele>1215.16</ele>
        <time>2019-07-12T07:15:12Z</time>
      </trkpt>
      <trkpt lat="46.506153" lon="15.550978">
        <ele>1215.35</ele>
        <time>2019-07-12T07:15:27Z</time>
      </trkpt>
      <trkpt lat="46.506112" lon="15.55117">
        <ele>1218.96</ele>
        <time>2019-07-12T07:15:43Z</time>
      </trkpt>
      <trkpt lat="46.506071" lon="15.551506">
        <ele>1221.53</ele>
        <time>2019-07-12T07:16:04Z</time>
      </trkpt>
      <trkpt lat="46.506065" lon="15.551728">
        <ele>1222.25</ele>
        <time>2019-07-12T07:16:17Z</time>
      </trkpt>
      <trkpt lat="46.506085" lon="15.552044">
        <ele>1216.03</ele>
        <time>2019-07-12T07:16:35Z</time>
      </trkpt>
      <trkpt lat="46.506047" lon="15.552335">
        <ele>1218.32</ele>
        <time>2019-07-12T07:16:51Z</time>
      </trkpt>
      <trkpt lat="46.506056" lon="15.552542">
        <ele>1227.46</ele>
        <time>2019-07-12T07:17:07Z</time>
      </trkpt>
      <trkpt lat="46.506055" lon="15.552828">
        <ele>1228.21</ele>
        <time>2019-07-12T07:17:23Z</time>
      </trkpt>
      <trkpt lat="46.506033" lon="15.552986">
        <ele>1233.28</ele>
        <time>2019-07-12T07:17:33Z</time>
      </trkpt>
      <trkpt lat="46.506033" lon="15.553263">
        <ele>1233.13</ele>
        <time>2019-07-12T07:17:48Z</time>
      </trkpt>
      <trkpt lat="46.506086" lon="15.553449">
        <ele>1231.59</ele>
        <time>2019-07-12T07:18:01Z</time>
      </trkpt>
      <trkpt lat="46.506086" lon="15.553449">
        <ele>1231.59</ele>
        <time>2019-07-12T07:18:09Z</time>
      </trkpt>
      <trkpt lat="46.506172" lon="15.553693">
        <ele>1228.98</ele>
        <time>2019-07-12T07:18:20Z</time>
      </trkpt>
      <trkpt lat="46.506189" lon="15.553759">
        <ele>1231.6</ele>
        <time>2019-07-12T07:18:24Z</time>
      </trkpt>
      <trkpt lat="46.50622" lon="15.553783">
        <ele>1229.11</ele>
        <time>2019-07-12T07:18:32Z</time>
      </trkpt>
      <trkpt lat="46.506294" lon="15.553936">
        <ele>1231.44</ele>
        <time>2019-07-12T07:19:03Z</time>
      </trkpt>
      <trkpt lat="46.506351" lon="15.554076">
        <ele>1227.62</ele>
        <time>2019-07-12T07:19:14Z</time>
      </trkpt>
      <trkpt lat="46.50638" lon="15.554227">
        <ele>1228.17</ele>
        <time>2019-07-12T07:19:26Z</time>
      </trkpt>
      <trkpt lat="46.506459" lon="15.554597">
        <ele>1228.89</ele>
        <time>2019-07-12T07:19:42Z</time>
      </trkpt>
      <trkpt lat="46.506583" lon="15.554902">
        <ele>1228.09</ele>
        <time>2019-07-12T07:19:57Z</time>
      </trkpt>
      <trkpt lat="46.506625" lon="15.554974">
        <ele>1227.32</ele>
        <time>2019-07-12T07:20:00Z</time>
      </trkpt>
      <trkpt lat="46.506641" lon="15.555025">
        <ele>1228.37</ele>
        <time>2019-07-12T07:20:06Z</time>
      </trkpt>
      <trkpt lat="46.506754" lon="15.555346">
        <ele>1227.28</ele>
        <time>2019-07-12T07:20:30Z</time>
      </trkpt>
      <trkpt lat="46.50684" lon="15.55552">
        <ele>1222.76</ele>
        <time>2019-07-12T07:20:40Z</time>
      </trkpt>
      <trkpt lat="46.506908" lon="15.555726">
        <ele>1227.3</ele>
        <time>2019-07-12T07:20:52Z</time>
      </trkpt>
      <trkpt lat="46.507016" lon="15.555906">
        <ele>1233.76</ele>
        <time>2019-07-12T07:21:07Z</time>
      </trkpt>
      <trkpt lat="46.507078" lon="15.556164">
        <ele>1230.81</ele>
        <time>2019-07-12T07:21:21Z</time>
      </trkpt>
      <trkpt lat="46.507194" lon="15.556374">
        <ele>1227.96</ele>
        <time>2019-07-12T07:21:35Z</time>
      </trkpt>
      <trkpt lat="46.507194" lon="15.556374">
        <ele>1227.96</ele>
        <time>2019-07-12T07:21:42Z</time>
      </trkpt>
      <trkpt lat="46.507268" lon="15.556448">
        <ele>1225.52</ele>
        <time>2019-07-12T07:21:49Z</time>
      </trkpt>
      <trkpt lat="46.507377" lon="15.556758">
        <ele>1225.64</ele>
        <time>2019-07-12T07:22:08Z</time>
      </trkpt>
      <trkpt lat="46.507461" lon="15.557057">
        <ele>1229.65</ele>
        <time>2019-07-12T07:22:24Z</time>
      </trkpt>
      <trkpt lat="46.507516" lon="15.557266">
        <ele>1233.9</ele>
        <time>2019-07-12T07:22:34Z</time>
      </trkpt>
      <trkpt lat="46.507547" lon="15.557466">
        <ele>1237.53</ele>
        <time>2019-07-12T07:22:46Z</time>
      </trkpt>
      <trkpt lat="46.507567" lon="15.557758">
        <ele>1232.97</ele>
        <time>2019-07-12T07:23:05Z</time>
      </trkpt>
      <trkpt lat="46.507578" lon="15.557945">
        <ele>1227.16</ele>
        <time>2019-07-12T07:23:20Z</time>
      </trkpt>
      <trkpt lat="46.507692" lon="15.558144">
        <ele>1223.63</ele>
        <time>2019-07-12T07:23:31Z</time>
      </trkpt>
      <trkpt lat="46.507734" lon="15.55835">
        <ele>1225.52</ele>
        <time>2019-07-12T07:23:43Z</time>
      </trkpt>
      <trkpt lat="46.507821" lon="15.558518">
        <ele>1224.41</ele>
        <time>2019-07-12T07:23:57Z</time>
      </trkpt>
      <trkpt lat="46.507939" lon="15.558751">
        <ele>1223.05</ele>
        <time>2019-07-12T07:24:14Z</time>
      </trkpt>
      <trkpt lat="46.508011" lon="15.558869">
        <ele>1220.42</ele>
        <time>2019-07-12T07:24:25Z</time>
      </trkpt>
      <trkpt lat="46.508133" lon="15.558963">
        <ele>1217.48</ele>
        <time>2019-07-12T07:24:33Z</time>
      </trkpt>
      <trkpt lat="46.50822" lon="15.559148">
        <ele>1212.0</ele>
        <time>2019-07-12T07:24:48Z</time>
      </trkpt>
      <trkpt lat="46.508362" lon="15.559435">
        <ele>1202.33</ele>
        <time>2019-07-12T07:25:06Z</time>
      </trkpt>
      <trkpt lat="46.508443" lon="15.559717">
        <ele>1204.86</ele>
        <time>2019-07-12T07:25:18Z</time>
      </trkpt>
      <trkpt lat="46.508511" lon="15.559942">
        <ele>1204.22</ele>
        <time>2019-07-12T07:25:32Z</time>
      </trkpt>
      <trkpt lat="46.508643" lon="15.560124">
        <ele>1203.18</ele>
        <time>2019-07-12T07:25:43Z</time>
      </trkpt>
      <trkpt lat="46.508753" lon="15.560324">
        <ele>1202.33</ele>
        <time>2019-07-12T07:25:58Z</time>
      </trkpt>
      <trkpt lat="46.508908" lon="15.560563">
        <ele>1200.86</ele>
        <time>2019-07-12T07:26:17Z</time>
      </trkpt>
      <trkpt lat="46.508996" lon="15.560746">
        <ele>1198.16</ele>
        <time>2019-07-12T07:26:30Z</time>
      </trkpt>
      <trkpt lat="46.509031" lon="15.561004">
        <ele>1202.32</ele>
        <time>2019-07-12T07:26:45Z</time>
      </trkpt>
      <trkpt lat="46.509104" lon="15.561193">
        <ele>1199.39</ele>
        <time>2019-07-12T07:26:57Z</time>
      </trkpt>
      <trkpt lat="46.50922" lon="15.561442">
        <ele>1203.13</ele>
        <time>2019-07-12T07:27:11Z</time>
      </trkpt>
      <trkpt lat="46.509325" lon="15.561659">
        <ele>1211.48</ele>
        <time>2019-07-12T07:27:24Z</time>
      </trkpt>
      <trkpt lat="46.509458" lon="15.561789">
        <ele>1210.44</ele>
        <time>2019-07-12T07:27:36Z</time>
      </trkpt>
      <trkpt lat="46.509605" lon="15.562078">
        <ele>1207.46</ele>
        <time>2019-07-12T07:27:51Z</time>
      </trkpt>
      <trkpt lat="46.509766" lon="15.562172">
        <ele>1202.93</ele>
        <time>2019-07-12T07:28:08Z</time>
      </trkpt>
      <trkpt lat="46.509933" lon="15.562398">
        <ele>1241.11</ele>
        <time>2019-07-12T07:28:26Z</time>
      </trkpt>
      <trkpt lat="46.51" lon="15.562556">
        <ele>1205.96</ele>
        <time>2019-07-12T07:28:41Z</time>
      </trkpt>
      <trkpt lat="46.510098" lon="15.562762">
        <ele>1203.48</ele>
        <time>2019-07-12T07:28:56Z</time>
      </trkpt>
      <trkpt lat="46.510236" lon="15.563066">
        <ele>1201.46</ele>
        <time>2019-07-12T07:29:11Z</time>
      </trkpt>
      <trkpt lat="46.510342" lon="15.563331">
        <ele>1207.4</ele>
        <time>2019-07-12T07:29:24Z</time>
      </trkpt>
      <trkpt lat="46.510426" lon="15.563446">
        <ele>1208.03</ele>
        <time>2019-07-12T07:29:36Z</time>
      </trkpt>
      <trkpt lat="46.510508" lon="15.563654">
        <ele>1206.87</ele>
        <time>2019-07-12T07:29:47Z</time>
      </trkpt>
      <trkpt lat="46.510614" lon="15.563879">
        <ele>1208.29</ele>
        <time>2019-07-12T07:30:02Z</time>
      </trkpt>
      <trkpt lat="46.510598" lon="15.564151">
        <ele>1208.2</ele>
        <time>2019-07-12T07:30:19Z</time>
      </trkpt>
      <trkpt lat="46.510617" lon="15.564416">
        <ele>1201.62</ele>
        <time>2019-07-12T07:30:36Z</time>
      </trkpt>
      <trkpt lat="46.510684" lon="15.564767">
        <ele>1189.21</ele>
        <time>2019-07-12T07:30:53Z</time>
      </trkpt>
      <trkpt lat="46.510736" lon="15.564981">
        <ele>1188.22</ele>
        <time>2019-07-12T07:31:03Z</time>
      </trkpt>
      <trkpt lat="46.510761" lon="15.565045">
        <ele>1191.97</ele>
        <time>2019-07-12T07:31:10Z</time>
      </trkpt>
      <trkpt lat="46.510748" lon="15.565047">
        <ele>1199.74</ele>
        <time>2019-07-12T07:31:21Z</time>
      </trkpt>
      <trkpt lat="46.510687" lon="15.565469">
        <ele>1180.63</ele>
        <time>2019-07-12T07:32:04Z</time>
      </trkpt>
      <trkpt lat="46.51066" lon="15.565633">
        <ele>1181.05</ele>
        <time>2019-07-12T07:32:13Z</time>
      </trkpt>
      <trkpt lat="46.510694" lon="15.565774">
        <ele>1183.14</ele>
        <time>2019-07-12T07:32:23Z</time>
      </trkpt>
      <trkpt lat="46.510791" lon="15.565968">
        <ele>1176.98</ele>
        <time>2019-07-12T07:32:32Z</time>
      </trkpt>
      <trkpt lat="46.510891" lon="15.566097">
        <ele>1178.18</ele>
        <time>2019-07-12T07:32:45Z</time>
      </trkpt>
      <trkpt lat="46.510959" lon="15.566135">
        <ele>1179.4</ele>
        <time>2019-07-12T07:32:51Z</time>
      </trkpt>
      <trkpt lat="46.511017" lon="15.56625">
        <ele>1181.96</ele>
        <time>2019-07-12T07:33:06Z</time>
      </trkpt>
      <trkpt lat="46.511159" lon="15.566464">
        <ele>1177.97</ele>
        <time>2019-07-12T07:33:23Z</time>
      </trkpt>
      <trkpt lat="46.511379" lon="15.566656">
        <ele>1171.38</ele>
        <time>2019-07-12T07:33:32Z</time>
      </trkpt>
      <trkpt lat="46.511485" lon="15.566792">
        <ele>1169.28</ele>
        <time>2019-07-12T07:33:38Z</time>
      </trkpt>
      <trkpt lat="46.511597" lon="15.566899">
        <ele>1163.57</ele>
        <time>2019-07-12T07:33:46Z</time>
      </trkpt>
      <trkpt lat="46.511597" lon="15.566899">
        <ele>1163.57</ele>
        <time>2019-07-12T07:33:53Z</time>
      </trkpt>
      <trkpt lat="46.511597" lon="15.566899">
        <ele>1163.57</ele>
        <time>2019-07-12T07:33:54Z</time>
      </trkpt>
      <trkpt lat="46.51168" lon="15.567064">
        <ele>1159.36</ele>
        <time>2019-07-12T07:34:11Z</time>
      </trkpt>
      <trkpt lat="46.511795" lon="15.567285">
        <ele>1156.54</ele>
        <time>2019-07-12T07:34:23Z</time>
      </trkpt>
      <trkpt lat="46.511907" lon="15.567405">
        <ele>1154.79</ele>
        <time>2019-07-12T07:34:31Z</time>
      </trkpt>
      <trkpt lat="46.512068" lon="15.567602">
        <ele>1160.16</ele>
        <time>2019-07-12T07:34:41Z</time>
      </trkpt>
      <trkpt lat="46.512113" lon="15.56781">
        <ele>1157.08</ele>
        <time>2019-07-12T07:34:47Z</time>
      </trkpt>
      <trkpt lat="46.512133" lon="15.567948">
        <ele>1157.47</ele>
        <time>2019-07-12T07:35:00Z</time>
      </trkpt>
      <trkpt lat="46.512224" lon="15.568104">
        <ele>1159.58</ele>
        <time>2019-07-12T07:35:12Z</time>
      </trkpt>
      <trkpt lat="46.512301" lon="15.568305">
        <ele>1155.19</ele>
        <time>2019-07-12T07:35:25Z</time>
      </trkpt>
      <trkpt lat="46.512332" lon="15.568441">
        <ele>1152.11</ele>
        <time>2019-07-12T07:35:32Z</time>
      </trkpt>
      <trkpt lat="46.512372" lon="15.568601">
        <ele>1145.96</ele>
        <time>2019-07-12T07:35:45Z</time>
      </trkpt>
      <trkpt lat="46.512385" lon="15.568876">
        <ele>1146.94</ele>
        <time>2019-07-12T07:36:07Z</time>
      </trkpt>
      <trkpt lat="46.512495" lon="15.569289">
        <ele>1146.17</ele>
        <time>2019-07-12T07:36:24Z</time>
      </trkpt>
      <trkpt lat="46.512515" lon="15.56953">
        <ele>1144.22</ele>
        <time>2019-07-12T07:36:34Z</time>
      </trkpt>
      <trkpt lat="46.512538" lon="15.569749">
        <ele>1141.88</ele>
        <time>2019-07-12T07:36:44Z</time>
      </trkpt>
      <trkpt lat="46.512525" lon="15.569905">
        <ele>1138.57</ele>
        <time>2019-07-12T07:36:53Z</time>
      </trkpt>
      <trkpt lat="46.512523" lon="15.570043">
        <ele>1137.32</ele>
        <time>2019-07-12T07:37:06Z</time>
      </trkpt>
      <trkpt lat="46.512489" lon="15.570371">
        <ele>1141.29</ele>
        <time>2019-07-12T07:37:20Z</time>
      </trkpt>
      <trkpt lat="46.512509" lon="15.570636">
        <ele>1143.46</ele>
        <time>2019-07-12T07:37:36Z</time>
      </trkpt>
      <trkpt lat="46.51258" lon="15.570847">
        <ele>1138.73</ele>
        <time>2019-07-12T07:37:46Z</time>
      </trkpt>
      <trkpt lat="46.512667" lon="15.570973">
        <ele>1140.2</ele>
        <time>2019-07-12T07:37:55Z</time>
      </trkpt>
      <trkpt lat="46.512739" lon="15.57119">
        <ele>1143.03</ele>
        <time>2019-07-12T07:38:12Z</time>
      </trkpt>
      <trkpt lat="46.512852" lon="15.571389">
        <ele>1142.23</ele>
        <time>2019-07-12T07:38:27Z</time>
      </trkpt>
      <trkpt lat="46.512983" lon="15.571565">
        <ele>1142.87</ele>
        <time>2019-07-12T07:38:38Z</time>
      </trkpt>
      <trkpt lat="46.513077" lon="15.571685">
        <ele>1140.27</ele>
        <time>2019-07-12T07:38:46Z</time>
      </trkpt>
      <trkpt lat="46.513136" lon="15.571875">
        <ele>1141.99</ele>
        <time>2019-07-12T07:38:56Z</time>
      </trkpt>
      <trkpt lat="46.51326" lon="15.572148">
        <ele>1144.03</ele>
        <time>2019-07-12T07:39:10Z</time>
      </trkpt>
      <trkpt lat="46.513305" lon="15.572427">
        <ele>1143.37</ele>
        <time>2019-07-12T07:39:26Z</time>
      </trkpt>
      <trkpt lat="46.513428" lon="15.572625">
        <ele>1145.84</ele>
        <time>2019-07-12T07:39:39Z</time>
      </trkpt>
      <trkpt lat="46.513519" lon="15.572863">
        <ele>1137.76</ele>
        <time>2019-07-12T07:39:54Z</time>
      </trkpt>
      <trkpt lat="46.513578" lon="15.573068">
        <ele>1145.21</ele>
        <time>2019-07-12T07:40:07Z</time>
      </trkpt>
      <trkpt lat="46.513679" lon="15.573359">
        <ele>1144.46</ele>
        <time>2019-07-12T07:40:20Z</time>
      </trkpt>
      <trkpt lat="46.513721" lon="15.573492">
        <ele>1167.42</ele>
        <time>2019-07-12T07:40:27Z</time>
      </trkpt>
      <trkpt lat="46.513746" lon="15.573765">
        <ele>1143.83</ele>
        <time>2019-07-12T07:40:42Z</time>
      </trkpt>
      <trkpt lat="46.513782" lon="15.574096">
        <ele>1130.92</ele>
        <time>2019-07-12T07:40:58Z</time>
      </trkpt>
      <trkpt lat="46.513844" lon="15.574334">
        <ele>1131.08</ele>
        <time>2019-07-12T07:41:08Z</time>
      </trkpt>
      <trkpt lat="46.513817" lon="15.574469">
        <ele>1130.95</ele>
        <time>2019-07-12T07:41:16Z</time>
      </trkpt>
      <trkpt lat="46.513859" lon="15.574668">
        <ele>1134.6</ele>
        <time>2019-07-12T07:41:27Z</time>
      </trkpt>
      <trkpt lat="46.513887" lon="15.574881">
        <ele>1134.59</ele>
        <time>2019-07-12T07:41:43Z</time>
      </trkpt>
      <trkpt lat="46.513971" lon="15.57519">
        <ele>1123.73</ele>
        <time>2019-07-12T07:42:01Z</time>
      </trkpt>
      <trkpt lat="46.514047" lon="15.575484">
        <ele>1127.6</ele>
        <time>2019-07-12T07:42:15Z</time>
      </trkpt>
      <trkpt lat="46.514223" lon="15.575626">
        <ele>1121.9</ele>
        <time>2019-07-12T07:42:30Z</time>
      </trkpt>
      <trkpt lat="46.514233" lon="15.575895">
        <ele>1119.09</ele>
        <time>2019-07-12T07:42:47Z</time>
      </trkpt>
      <trkpt lat="46.514302" lon="15.576189">
        <ele>1115.22</ele>
        <time>2019-07-12T07:43:05Z</time>
      </trkpt>
      <trkpt lat="46.51433" lon="15.576401">
        <ele>1110.46</ele>
        <time>2019-07-12T07:43:16Z</time>
      </trkpt>
      <trkpt lat="46.514325" lon="15.576632">
        <ele>1109.47</ele>
        <time>2019-07-12T07:43:28Z</time>
      </trkpt>
      <trkpt lat="46.514362" lon="15.576876">
        <ele>1110.07</ele>
        <time>2019-07-12T07:43:40Z</time>
      </trkpt>
      <trkpt lat="46.514276" lon="15.577166">
        <ele>1107.13</ele>
        <time>2019-07-12T07:43:56Z</time>
      </trkpt>
      <trkpt lat="46.514227" lon="15.577423">
        <ele>1103.61</ele>
        <time>2019-07-12T07:44:10Z</time>
      </trkpt>
      <trkpt lat="46.51423" lon="15.577736">
        <ele>1101.23</ele>
        <time>2019-07-12T07:44:25Z</time>
      </trkpt>
      <trkpt lat="46.514249" lon="15.578025">
        <ele>1102.16</ele>
        <time>2019-07-12T07:44:39Z</time>
      </trkpt>
      <trkpt lat="46.514309" lon="15.57828">
        <ele>1102.92</ele>
        <time>2019-07-12T07:44:54Z</time>
      </trkpt>
      <trkpt lat="46.514372" lon="15.578562">
        <ele>1100.98</ele>
        <time>2019-07-12T07:45:11Z</time>
      </trkpt>
      <trkpt lat="46.514338" lon="15.578819">
        <ele>1093.05</ele>
        <time>2019-07-12T07:45:26Z</time>
      </trkpt>
      <trkpt lat="46.51436" lon="15.579137">
        <ele>1094.57</ele>
        <time>2019-07-12T07:45:42Z</time>
      </trkpt>
      <trkpt lat="46.514313" lon="15.579359">
        <ele>1087.22</ele>
        <time>2019-07-12T07:45:53Z</time>
      </trkpt>
      <trkpt lat="46.514321" lon="15.579598">
        <ele>1085.15</ele>
        <time>2019-07-12T07:46:08Z</time>
      </trkpt>
      <trkpt lat="46.514369" lon="15.579771">
        <ele>1082.26</ele>
        <time>2019-07-12T07:46:20Z</time>
      </trkpt>
      <trkpt lat="46.514369" lon="15.579771">
        <ele>1082.26</ele>
        <time>2019-07-12T07:46:27Z</time>
      </trkpt>
      <trkpt lat="46.514312" lon="15.579961">
        <ele>1079.52</ele>
        <time>2019-07-12T07:46:38Z</time>
      </trkpt>
      <trkpt lat="46.514284" lon="15.580163">
        <ele>1083.44</ele>
        <time>2019-07-12T07:46:55Z</time>
      </trkpt>
      <trkpt lat="46.514249" lon="15.580378">
        <ele>1078.97</ele>
        <time>2019-07-12T07:47:09Z</time>
      </trkpt>
      <trkpt lat="46.514299" lon="15.5808">
        <ele>1075.89</ele>
        <time>2019-07-12T07:47:27Z</time>
      </trkpt>
      <trkpt lat="46.514241" lon="15.581055">
        <ele>1079.12</ele>
        <time>2019-07-12T07:47:40Z</time>
      </trkpt>
      <trkpt lat="46.514161" lon="15.581281">
        <ele>1074.39</ele>
        <time>2019-07-12T07:47:55Z</time>
      </trkpt>
      <trkpt lat="46.514094" lon="15.581514">
        <ele>1071.71</ele>
        <time>2019-07-12T07:48:16Z</time>
      </trkpt>
      <trkpt lat="46.514129" lon="15.581805">
        <ele>1071.95</ele>
        <time>2019-07-12T07:48:34Z</time>
      </trkpt>
      <trkpt lat="46.514198" lon="15.582013">
        <ele>1067.02</ele>
        <time>2019-07-12T07:48:44Z</time>
      </trkpt>
      <trkpt lat="46.51429" lon="15.582269">
        <ele>1087.14</ele>
        <time>2019-07-12T07:48:57Z</time>
      </trkpt>
      <trkpt lat="46.514397" lon="15.582593">
        <ele>1069.18</ele>
        <time>2019-07-12T07:49:11Z</time>
      </trkpt>
      <trkpt lat="46.514478" lon="15.582784">
        <ele>1065.81</ele>
        <time>2019-07-12T07:49:18Z</time>
      </trkpt>
      <trkpt lat="46.514636" lon="15.582872">
        <ele>1060.33</ele>
        <time>2019-07-12T07:49:28Z</time>
      </trkpt>
      <trkpt lat="46.51471" lon="15.582957">
        <ele>1061.28</ele>
        <time>2019-07-12T07:49:36Z</time>
      </trkpt>
      <trkpt lat="46.51485" lon="15.583276">
        <ele>1065.36</ele>
        <time>2019-07-12T07:49:54Z</time>
      </trkpt>
      <trkpt lat="46.514954" lon="15.583472">
        <ele>1052.34</ele>
        <time>2019-07-12T07:50:08Z</time>
      </trkpt>
      <trkpt lat="46.514984" lon="15.583644">
        <ele>1046.3</ele>
        <time>2019-07-12T07:50:20Z</time>
      </trkpt>
      <trkpt lat="46.515049" lon="15.583876">
        <ele>1050.86</ele>
        <time>2019-07-12T07:50:34Z</time>
      </trkpt>
      <trkpt lat="46.515164" lon="15.584092">
        <ele>1054.13</ele>
        <time>2019-07-12T07:50:49Z</time>
      </trkpt>
      <trkpt lat="46.515186" lon="15.584299">
        <ele>1052.44</ele>
        <time>2019-07-12T07:51:03Z</time>
      </trkpt>
      <trkpt lat="46.515324" lon="15.584576">
        <ele>1051.09</ele>
        <time>2019-07-12T07:51:18Z</time>
      </trkpt>
      <trkpt lat="46.515341" lon="15.584788">
        <ele>1046.66</ele>
        <time>2019-07-12T07:51:28Z</time>
      </trkpt>
      <trkpt lat="46.51541" lon="15.585034">
        <ele>1043.12</ele>
        <time>2019-07-12T07:51:43Z</time>
      </trkpt>
      <trkpt lat="46.51553" lon="15.585249">
        <ele>1043.04</ele>
        <time>2019-07-12T07:52:02Z</time>
      </trkpt>
      <trkpt lat="46.515654" lon="15.585334">
        <ele>1042.68</ele>
        <time>2019-07-12T07:52:11Z</time>
      </trkpt>
      <trkpt lat="46.515665" lon="15.585403">
        <ele>1043.29</ele>
        <time>2019-07-12T07:52:18Z</time>
      </trkpt>
      <trkpt lat="46.515704" lon="15.585436">
        <ele>1040.43</ele>
        <time>2019-07-12T07:52:27Z</time>
      </trkpt>
      <trkpt lat="46.515671" lon="15.585615">
        <ele>1035.09</ele>
        <time>2019-07-12T07:53:10Z</time>
      </trkpt>
      <trkpt lat="46.515632" lon="15.585762">
        <ele>1034.49</ele>
        <time>2019-07-12T07:53:22Z</time>
      </trkpt>
      <trkpt lat="46.515617" lon="15.585831">
        <ele>1033.48</ele>
        <time>2019-07-12T07:53:26Z</time>
      </trkpt>
      <trkpt lat="46.515667" lon="15.585976">
        <ele>1030.7</ele>
        <time>2019-07-12T07:53:39Z</time>
      </trkpt>
      <trkpt lat="46.515819" lon="15.586275">
        <ele>1030.49</ele>
        <time>2019-07-12T07:53:53Z</time>
      </trkpt>
      <trkpt lat="46.515854" lon="15.586452">
        <ele>1022.87</ele>
        <time>2019-07-12T07:54:02Z</time>
      </trkpt>
      <trkpt lat="46.515875" lon="15.586642">
        <ele>1022.84</ele>
        <time>2019-07-12T07:54:21Z</time>
      </trkpt>
      <trkpt lat="46.515908" lon="15.587098">
        <ele>1012.98</ele>
        <time>2019-07-12T07:55:01Z</time>
      </trkpt>
      <trkpt lat="46.515988" lon="15.587384">
        <ele>1007.74</ele>
        <time>2019-07-12T07:55:17Z</time>
      </trkpt>
      <trkpt lat="46.516032" lon="15.587568">
        <ele>1009.22</ele>
        <time>2019-07-12T07:55:31Z</time>
      </trkpt>
      <trkpt lat="46.516105" lon="15.5878">
        <ele>999.121</ele>
        <time>2019-07-12T07:55:50Z</time>
      </trkpt>
      <trkpt lat="46.5161" lon="15.588056">
        <ele>982.51</ele>
        <time>2019-07-12T07:56:07Z</time>
      </trkpt>
      <trkpt lat="46.516058" lon="15.588187">
        <ele>977.947</ele>
        <time>2019-07-12T07:56:16Z</time>
      </trkpt>
      <trkpt lat="46.516093" lon="15.588437">
        <ele>976.96</ele>
        <time>2019-07-12T07:56:32Z</time>
      </trkpt>
      <trkpt lat="46.516163" lon="15.588653">
        <ele>977.445</ele>
        <time>2019-07-12T07:56:45Z</time>
      </trkpt>
      <trkpt lat="46.516192" lon="15.588899">
        <ele>976.738</ele>
        <time>2019-07-12T07:56:59Z</time>
      </trkpt>
      <trkpt lat="46.5162" lon="15.589077">
        <ele>972.509</ele>
        <time>2019-07-12T07:57:09Z</time>
      </trkpt>
      <trkpt lat="46.516182" lon="15.589424">
        <ele>976.794</ele>
        <time>2019-07-12T07:57:23Z</time>
      </trkpt>
      <trkpt lat="46.51619" lon="15.589547">
        <ele>973.889</ele>
        <time>2019-07-12T07:57:29Z</time>
      </trkpt>
      <trkpt lat="46.51622" lon="15.589973">
        <ele>975.419</ele>
        <time>2019-07-12T07:57:47Z</time>
      </trkpt>
      <trkpt lat="46.516237" lon="15.590192">
        <ele>970.31</ele>
        <time>2019-07-12T07:58:00Z</time>
      </trkpt>
      <trkpt lat="46.516293" lon="15.590541">
        <ele>974.231</ele>
        <time>2019-07-12T07:58:18Z</time>
      </trkpt>
      <trkpt lat="46.516424" lon="15.590855">
        <ele>966.383</ele>
        <time>2019-07-12T07:58:35Z</time>
      </trkpt>
      <trkpt lat="46.516475" lon="15.591078">
        <ele>962.081</ele>
        <time>2019-07-12T07:58:47Z</time>
      </trkpt>
      <trkpt lat="46.516576" lon="15.591373">
        <ele>958.7</ele>
        <time>2019-07-12T07:59:04Z</time>
      </trkpt>
      <trkpt lat="46.516666" lon="15.591647">
        <ele>961.13</ele>
        <time>2019-07-12T07:59:17Z</time>
      </trkpt>
      <trkpt lat="46.516689" lon="15.591721">
        <ele>959.379</ele>
        <time>2019-07-12T07:59:20Z</time>
      </trkpt>
      <trkpt lat="46.516701" lon="15.591778">
        <ele>956.758</ele>
        <time>2019-07-12T07:59:34Z</time>
      </trkpt>
      <trkpt lat="46.516742" lon="15.591808">
        <ele>954.752</ele>
        <time>2019-07-12T07:59:40Z</time>
      </trkpt>
      <trkpt lat="46.516701" lon="15.591778">
        <ele>956.758</ele>
        <time>2019-07-12T07:59:49Z</time>
      </trkpt>
      <trkpt lat="46.516837" lon="15.59203">
        <ele>954.535</ele>
        <time>2019-07-12T08:01:36Z</time>
      </trkpt>
      <trkpt lat="46.516938" lon="15.592159">
        <ele>950.998</ele>
        <time>2019-07-12T08:01:51Z</time>
      </trkpt>
      <trkpt lat="46.517037" lon="15.592238">
        <ele>947.36</ele>
        <time>2019-07-12T08:02:01Z</time>
      </trkpt>
      <trkpt lat="46.517177" lon="15.592375">
        <ele>941.057</ele>
        <time>2019-07-12T08:02:18Z</time>
      </trkpt>
      <trkpt lat="46.517302" lon="15.592476">
        <ele>934.297</ele>
        <time>2019-07-12T08:02:33Z</time>
      </trkpt>
      <trkpt lat="46.517474" lon="15.592596">
        <ele>928.736</ele>
        <time>2019-07-12T08:02:54Z</time>
      </trkpt>
      <trkpt lat="46.517607" lon="15.592711">
        <ele>923.797</ele>
        <time>2019-07-12T08:03:09Z</time>
      </trkpt>
      <trkpt lat="46.517741" lon="15.592805">
        <ele>917.712</ele>
        <time>2019-07-12T08:03:24Z</time>
      </trkpt>
      <trkpt lat="46.517873" lon="15.592889">
        <ele>907.575</ele>
        <time>2019-07-12T08:03:42Z</time>
      </trkpt>
      <trkpt lat="46.518103" lon="15.593098">
        <ele>907.692</ele>
        <time>2019-07-12T08:04:12Z</time>
      </trkpt>
      <trkpt lat="46.518215" lon="15.593204">
        <ele>903.042</ele>
        <time>2019-07-12T08:04:27Z</time>
      </trkpt>
      <trkpt lat="46.518306" lon="15.593377">
        <ele>887.609</ele>
        <time>2019-07-12T08:04:40Z</time>
      </trkpt>
      <trkpt lat="46.518319" lon="15.593446">
        <ele>928.21</ele>
        <time>2019-07-12T08:04:45Z</time>
      </trkpt>
      <trkpt lat="46.518326" lon="15.593609">
        <ele>885.643</ele>
        <time>2019-07-12T08:04:59Z</time>
      </trkpt>
      <trkpt lat="46.518434" lon="15.593941">
        <ele>881.653</ele>
        <time>2019-07-12T08:05:16Z</time>
      </trkpt>
      <trkpt lat="46.518468" lon="15.594161">
        <ele>877.86</ele>
        <time>2019-07-12T08:05:25Z</time>
      </trkpt>
      <trkpt lat="46.518498" lon="15.594367">
        <ele>879.687</ele>
        <time>2019-07-12T08:05:37Z</time>
      </trkpt>
      <trkpt lat="46.518483" lon="15.594535">
        <ele>878.806</ele>
        <time>2019-07-12T08:05:47Z</time>
      </trkpt>
      <trkpt lat="46.518498" lon="15.594706">
        <ele>876.047</ele>
        <time>2019-07-12T08:05:57Z</time>
      </trkpt>
      <trkpt lat="46.518471" lon="15.594981">
        <ele>878.239</ele>
        <time>2019-07-12T08:06:14Z</time>
      </trkpt>
      <trkpt lat="46.518461" lon="15.595117">
        <ele>877.06</ele>
        <time>2019-07-12T08:06:22Z</time>
      </trkpt>
      <trkpt lat="46.518501" lon="15.595426">
        <ele>867.104</ele>
        <time>2019-07-12T08:06:37Z</time>
      </trkpt>
      <trkpt lat="46.518523" lon="15.595628">
        <ele>864.636</ele>
        <time>2019-07-12T08:06:50Z</time>
      </trkpt>
      <trkpt lat="46.518628" lon="15.596008">
        <ele>860.732</ele>
        <time>2019-07-12T08:07:37Z</time>
      </trkpt>
      <trkpt lat="46.518704" lon="15.596232">
        <ele>859.122</ele>
        <time>2019-07-12T08:07:55Z</time>
      </trkpt>
      <trkpt lat="46.518859" lon="15.596405">
        <ele>852.18</ele>
        <time>2019-07-12T08:08:14Z</time>
      </trkpt>
      <trkpt lat="46.519026" lon="15.596489">
        <ele>847.293</ele>
        <time>2019-07-12T08:08:30Z</time>
      </trkpt>
      <trkpt lat="46.519229" lon="15.596793">
        <ele>826.994</ele>
        <time>2019-07-12T08:09:11Z</time>
      </trkpt>
      <trkpt lat="46.519191" lon="15.597116">
        <ele>828.36</ele>
        <time>2019-07-12T08:09:28Z</time>
      </trkpt>
      <trkpt lat="46.519195" lon="15.597435">
        <ele>823.827</ele>
        <time>2019-07-12T08:09:46Z</time>
      </trkpt>
      <trkpt lat="46.519182" lon="15.597687">
        <ele>825.217</ele>
        <time>2019-07-12T08:09:57Z</time>
      </trkpt>
      <trkpt lat="46.519263" lon="15.598002">
        <ele>871.443</ele>
        <time>2019-07-12T08:10:09Z</time>
      </trkpt>
      <trkpt lat="46.519232" lon="15.59814">
        <ele>896.294</ele>
        <time>2019-07-12T08:10:18Z</time>
      </trkpt>
      <trkpt lat="46.5193" lon="15.598444">
        <ele>872.59</ele>
        <time>2019-07-12T08:10:36Z</time>
      </trkpt>
      <trkpt lat="46.51932" lon="15.598694">
        <ele>813.075</ele>
        <time>2019-07-12T08:10:50Z</time>
      </trkpt>
      <trkpt lat="46.519354" lon="15.598816">
        <ele>808.536</ele>
        <time>2019-07-12T08:10:57Z</time>
      </trkpt>
      <trkpt lat="46.519292" lon="15.598974">
        <ele>805.82</ele>
        <time>2019-07-12T08:11:12Z</time>
      </trkpt>
      <trkpt lat="46.519218" lon="15.599351">
        <ele>804.921</ele>
        <time>2019-07-12T08:11:28Z</time>
      </trkpt>
      <trkpt lat="46.519145" lon="15.599507">
        <ele>857.332</ele>
        <time>2019-07-12T08:11:40Z</time>
      </trkpt>
      <trkpt lat="46.519049" lon="15.59982">
        <ele>821.106</ele>
        <time>2019-07-12T08:11:52Z</time>
      </trkpt>
      <trkpt lat="46.519016" lon="15.600065">
        <ele>810.325</ele>
        <time>2019-07-12T08:12:03Z</time>
      </trkpt>
      <trkpt lat="46.51906" lon="15.600513">
        <ele>818.967</ele>
        <time>2019-07-12T08:12:18Z</time>
      </trkpt>
      <trkpt lat="46.519083" lon="15.600668">
        <ele>807.584</ele>
        <time>2019-07-12T08:12:29Z</time>
      </trkpt>
      <trkpt lat="46.519083" lon="15.601029">
        <ele>810.945</ele>
        <time>2019-07-12T08:12:45Z</time>
      </trkpt>
      <trkpt lat="46.51912" lon="15.601248">
        <ele>809.468</ele>
        <time>2019-07-12T08:12:56Z</time>
      </trkpt>
      <trkpt lat="46.51921" lon="15.601479">
        <ele>806.641</ele>
        <time>2019-07-12T08:13:07Z</time>
      </trkpt>
      <trkpt lat="46.519213" lon="15.601718">
        <ele>811.085</ele>
        <time>2019-07-12T08:13:20Z</time>
      </trkpt>
      <trkpt lat="46.519147" lon="15.601908">
        <ele>813.67</ele>
        <time>2019-07-12T08:13:34Z</time>
      </trkpt>
      <trkpt lat="46.519166" lon="15.602149">
        <ele>853.841</ele>
        <time>2019-07-12T08:13:51Z</time>
      </trkpt>
      <trkpt lat="46.519129" lon="15.602405">
        <ele>817.354</ele>
        <time>2019-07-12T08:14:01Z</time>
      </trkpt>
      <trkpt lat="46.51913" lon="15.602598">
        <ele>808.865</ele>
        <time>2019-07-12T08:14:10Z</time>
      </trkpt>
      <trkpt lat="46.519182" lon="15.602917">
        <ele>810.694</ele>
        <time>2019-07-12T08:14:25Z</time>
      </trkpt>
      <trkpt lat="46.519203" lon="15.603211">
        <ele>806.747</ele>
        <time>2019-07-12T08:14:38Z</time>
      </trkpt>
      <trkpt lat="46.519268" lon="15.603448">
        <ele>817.788</ele>
        <time>2019-07-12T08:14:50Z</time>
      </trkpt>
      <trkpt lat="46.519388" lon="15.60377">
        <ele>804.29</ele>
        <time>2019-07-12T08:15:05Z</time>
      </trkpt>
      <trkpt lat="46.519429" lon="15.603944">
        <ele>802.951</ele>
        <time>2019-07-12T08:15:15Z</time>
      </trkpt>
      <trkpt lat="46.519508" lon="15.604139">
        <ele>819.952</ele>
        <time>2019-07-12T08:15:25Z</time>
      </trkpt>
      <trkpt lat="46.519556" lon="15.604457">
        <ele>815.097</ele>
        <time>2019-07-12T08:15:40Z</time>
      </trkpt>
      <trkpt lat="46.519608" lon="15.604643">
        <ele>790.766</ele>
        <time>2019-07-12T08:15:53Z</time>
      </trkpt>
      <trkpt lat="46.519552" lon="15.604904">
        <ele>782.825</ele>
        <time>2019-07-12T08:16:11Z</time>
      </trkpt>
      <trkpt lat="46.519493" lon="15.605177">
        <ele>813.221</ele>
        <time>2019-07-12T08:16:30Z</time>
      </trkpt>
      <trkpt lat="46.51962" lon="15.605429">
        <ele>835.829</ele>
        <time>2019-07-12T08:16:45Z</time>
      </trkpt>
      <trkpt lat="46.519605" lon="15.605648">
        <ele>815.712</ele>
        <time>2019-07-12T08:16:57Z</time>
      </trkpt>
      <trkpt lat="46.519605" lon="15.605648">
        <ele>815.712</ele>
        <time>2019-07-12T08:17:04Z</time>
      </trkpt>
      <trkpt lat="46.519696" lon="15.605854">
        <ele>843.843</ele>
        <time>2019-07-12T08:17:11Z</time>
      </trkpt>
      <trkpt lat="46.519714" lon="15.605942">
        <ele>814.172</ele>
        <time>2019-07-12T08:17:16Z</time>
      </trkpt>
      <trkpt lat="46.519768" lon="15.60597">
        <ele>767.863</ele>
        <time>2019-07-12T08:17:26Z</time>
      </trkpt>
      <trkpt lat="46.519864" lon="15.60617">
        <ele>755.091</ele>
        <time>2019-07-12T08:17:46Z</time>
      </trkpt>
      <trkpt lat="46.519939" lon="15.60641">
        <ele>791.682</ele>
        <time>2019-07-12T08:17:57Z</time>
      </trkpt>
      <trkpt lat="46.519996" lon="15.606631">
        <ele>810.753</ele>
        <time>2019-07-12T08:18:12Z</time>
      </trkpt>
      <trkpt lat="46.520048" lon="15.606873">
        <ele>768.725</ele>
        <time>2019-07-12T08:18:25Z</time>
      </trkpt>
      <trkpt lat="46.520156" lon="15.607027">
        <ele>758.887</ele>
        <time>2019-07-12T08:18:36Z</time>
      </trkpt>
      <trkpt lat="46.520357" lon="15.607199">
        <ele>768.46</ele>
        <time>2019-07-12T08:18:54Z</time>
      </trkpt>
      <trkpt lat="46.520438" lon="15.607439">
        <ele>790.003</ele>
        <time>2019-07-12T08:19:10Z</time>
      </trkpt>
      <trkpt lat="46.520493" lon="15.607667">
        <ele>908.273</ele>
        <time>2019-07-12T08:19:22Z</time>
      </trkpt>
      <trkpt lat="46.520522" lon="15.607883">
        <ele>794.783</ele>
        <time>2019-07-12T08:19:36Z</time>
      </trkpt>
      <trkpt lat="46.520663" lon="15.608129">
        <ele>754.881</ele>
        <time>2019-07-12T08:19:53Z</time>
      </trkpt>
      <trkpt lat="46.520856" lon="15.608415">
        <ele>747.25</ele>
        <time>2019-07-12T08:20:10Z</time>
      </trkpt>
      <trkpt lat="46.520887" lon="15.608428">
        <ele>740.859</ele>
        <time>2019-07-12T08:20:13Z</time>
      </trkpt>
      <trkpt lat="46.521011" lon="15.608434">
        <ele>745.823</ele>
        <time>2019-07-12T08:20:25Z</time>
      </trkpt>
      <trkpt lat="46.521219" lon="15.608554">
        <ele>730.029</ele>
        <time>2019-07-12T08:20:40Z</time>
      </trkpt>
      <trkpt lat="46.521376" lon="15.608675">
        <ele>749.661</ele>
        <time>2019-07-12T08:20:56Z</time>
      </trkpt>
      <trkpt lat="46.521575" lon="15.608808">
        <ele>716.233</ele>
        <time>2019-07-12T08:21:11Z</time>
      </trkpt>
      <trkpt lat="46.521709" lon="15.608949">
        <ele>701.286</ele>
        <time>2019-07-12T08:21:27Z</time>
      </trkpt>
      <trkpt lat="46.521787" lon="15.609179">
        <ele>697.54</ele>
        <time>2019-07-12T08:21:41Z</time>
      </trkpt>
      <trkpt lat="46.521825" lon="15.609467">
        <ele>696.447</ele>
        <time>2019-07-12T08:21:58Z</time>
      </trkpt>
      <trkpt lat="46.521973" lon="15.609667">
        <ele>696.445</ele>
        <time>2019-07-12T08:22:15Z</time>
      </trkpt>
      <trkpt lat="46.522125" lon="15.609749">
        <ele>689.917</ele>
        <time>2019-07-12T08:22:31Z</time>
      </trkpt>
      <trkpt lat="46.522219" lon="15.609819">
        <ele>689.472</ele>
        <time>2019-07-12T08:22:38Z</time>
      </trkpt>
      <trkpt lat="46.522413" lon="15.609922">
        <ele>686.797</ele>
        <time>2019-07-12T08:22:50Z</time>
      </trkpt>
      <trkpt lat="46.522507" lon="15.610018">
        <ele>686.584</ele>
        <time>2019-07-12T08:22:59Z</time>
      </trkpt>
      <trkpt lat="46.522612" lon="15.610114">
        <ele>679.914</ele>
        <time>2019-07-12T08:23:12Z</time>
      </trkpt>
      <trkpt lat="46.522814" lon="15.610258">
        <ele>759.196</ele>
        <time>2019-07-12T08:23:28Z</time>
      </trkpt>
      <trkpt lat="46.522979" lon="15.610355">
        <ele>728.358</ele>
        <time>2019-07-12T08:23:40Z</time>
      </trkpt>
      <trkpt lat="46.523104" lon="15.610536">
        <ele>679.393</ele>
        <time>2019-07-12T08:23:53Z</time>
      </trkpt>
      <trkpt lat="46.52319" lon="15.610727">
        <ele>668.243</ele>
        <time>2019-07-12T08:24:08Z</time>
      </trkpt>
      <trkpt lat="46.523233" lon="15.610779">
        <ele>667.373</ele>
        <time>2019-07-12T08:24:12Z</time>
      </trkpt>
      <trkpt lat="46.523302" lon="15.610859">
        <ele>676.606</ele>
        <time>2019-07-12T08:24:26Z</time>
      </trkpt>
      <trkpt lat="46.52349" lon="15.611046">
        <ele>667.432</ele>
        <time>2019-07-12T08:24:45Z</time>
      </trkpt>
      <trkpt lat="46.523565" lon="15.611153">
        <ele>762.139</ele>
        <time>2019-07-12T08:24:56Z</time>
      </trkpt>
      <trkpt lat="46.523671" lon="15.611344">
        <ele>656.783</ele>
        <time>2019-07-12T08:25:15Z</time>
      </trkpt>
      <trkpt lat="46.523726" lon="15.611451">
        <ele>695.129</ele>
        <time>2019-07-12T08:25:27Z</time>
      </trkpt>
      <trkpt lat="46.523806" lon="15.611634">
        <ele>659.945</ele>
        <time>2019-07-12T08:25:42Z</time>
      </trkpt>
      <trkpt lat="46.523898" lon="15.611816">
        <ele>681.408</ele>
        <time>2019-07-12T08:25:57Z</time>
      </trkpt>
      <trkpt lat="46.524052" lon="15.612012">
        <ele>670.143</ele>
        <time>2019-07-12T08:26:11Z</time>
      </trkpt>
      <trkpt lat="46.524154" lon="15.612241">
        <ele>638.771</ele>
        <time>2019-07-12T08:26:26Z</time>
      </trkpt>
      <trkpt lat="46.524252" lon="15.612504">
        <ele>669.638</ele>
        <time>2019-07-12T08:26:43Z</time>
      </trkpt>
      <trkpt lat="46.524377" lon="15.612684">
        <ele>635.558</ele>
        <time>2019-07-12T08:26:58Z</time>
      </trkpt>
      <trkpt lat="46.524377" lon="15.612684">
        <ele>635.558</ele>
        <time>2019-07-12T08:27:05Z</time>
      </trkpt>
      <trkpt lat="46.524377" lon="15.612684">
        <ele>635.558</ele>
        <time>2019-07-12T08:27:07Z</time>
      </trkpt>
      <trkpt lat="46.524519" lon="15.613025">
        <ele>620.125</ele>
        <time>2019-07-12T08:27:47Z</time>
      </trkpt>
      <trkpt lat="46.52456" lon="15.613281">
        <ele>611.677</ele>
        <time>2019-07-12T08:28:05Z</time>
      </trkpt>
      <trkpt lat="46.524647" lon="15.613492">
        <ele>608.426</ele>
        <time>2019-07-12T08:28:20Z</time>
      </trkpt>
      <trkpt lat="46.524711" lon="15.613551">
        <ele>611.57</ele>
        <time>2019-07-12T08:28:23Z</time>
      </trkpt>
      <trkpt lat="46.524796" lon="15.613701">
        <ele>607.636</ele>
        <time>2019-07-12T08:28:40Z</time>
      </trkpt>
      <trkpt lat="46.524921" lon="15.613853">
        <ele>610.285</ele>
        <time>2019-07-12T08:28:57Z</time>
      </trkpt>
      <trkpt lat="46.525054" lon="15.614016">
        <ele>609.498</ele>
        <time>2019-07-12T08:29:11Z</time>
      </trkpt>
      <trkpt lat="46.525149" lon="15.614146">
        <ele>595.937</ele>
        <time>2019-07-12T08:29:24Z</time>
      </trkpt>
      <trkpt lat="46.525231" lon="15.614327">
        <ele>638.482</ele>
        <time>2019-07-12T08:29:37Z</time>
      </trkpt>
      <trkpt lat="46.525231" lon="15.614327">
        <ele>638.482</ele>
        <time>2019-07-12T08:29:42Z</time>
      </trkpt>
      <trkpt lat="46.525231" lon="15.614327">
        <ele>638.482</ele>
        <time>2019-07-12T08:29:43Z</time>
      </trkpt>
      <trkpt lat="46.525193" lon="15.614551">
        <ele>598.502</ele>
        <time>2019-07-12T08:29:53Z</time>
      </trkpt>
      <trkpt lat="46.525306" lon="15.614657">
        <ele>700.651</ele>
        <time>2019-07-12T08:30:01Z</time>
      </trkpt>
      <trkpt lat="46.525362" lon="15.614802">
        <ele>617.961</ele>
        <time>2019-07-12T08:30:10Z</time>
      </trkpt>
      <trkpt lat="46.525396" lon="15.61495">
        <ele>643.736</ele>
        <time>2019-07-12T08:30:28Z</time>
      </trkpt>
      <trkpt lat="46.525514" lon="15.615253">
        <ele>601.46</ele>
        <time>2019-07-12T08:30:44Z</time>
      </trkpt>
      <trkpt lat="46.525523" lon="15.615291">
        <ele>593.84</ele>
        <time>2019-07-12T08:30:47Z</time>
      </trkpt>
      <trkpt lat="46.525552" lon="15.615407">
        <ele>578.012</ele>
        <time>2019-07-12T08:30:59Z</time>
      </trkpt>
      <trkpt lat="46.525657" lon="15.615595">
        <ele>559.382</ele>
        <time>2019-07-12T08:31:17Z</time>
      </trkpt>
      <trkpt lat="46.52564" lon="15.61576">
        <ele>794.992</ele>
        <time>2019-07-12T08:31:25Z</time>
      </trkpt>
      <trkpt lat="46.525734" lon="15.615857">
        <ele>602.043</ele>
        <time>2019-07-12T08:31:37Z</time>
      </trkpt>
      <trkpt lat="46.525841" lon="15.616074">
        <ele>709.396</ele>
        <time>2019-07-12T08:31:49Z</time>
      </trkpt>
      <trkpt lat="46.525929" lon="15.616328">
        <ele>573.474</ele>
        <time>2019-07-12T08:32:05Z</time>
      </trkpt>
      <trkpt lat="46.526043" lon="15.61622">
        <ele>664.399</ele>
        <time>2019-07-12T08:32:18Z</time>
      </trkpt>
      <trkpt lat="46.526214" lon="15.615996">
        <ele>735.55</ele>
        <time>2019-07-12T08:32:34Z</time>
      </trkpt>
      <trkpt lat="46.526312" lon="15.615723">
        <ele>580.542</ele>
        <time>2019-07-12T08:32:53Z</time>
      </trkpt>
      <trkpt lat="46.526369" lon="15.615577">
        <ele>541.39</ele>
        <time>2019-07-12T08:33:03Z</time>
      </trkpt>
      <trkpt lat="46.526402" lon="15.615438">
        <ele>812.797</ele>
        <time>2019-07-12T08:33:18Z</time>
      </trkpt>
      <trkpt lat="46.526491" lon="15.615303">
        <ele>638.05</ele>
        <time>2019-07-12T08:33:27Z</time>
      </trkpt>
      <trkpt lat="46.52657" lon="15.615092">
        <ele>541.925</ele>
        <time>2019-07-12T08:33:45Z</time>
      </trkpt>
      <trkpt lat="46.526665" lon="15.614958">
        <ele>659.586</ele>
        <time>2019-07-12T08:33:56Z</time>
      </trkpt>
      <trkpt lat="46.526665" lon="15.614958">
        <ele>659.586</ele>
        <time>2019-07-12T08:34:03Z</time>
      </trkpt>
      <trkpt lat="46.526665" lon="15.614958">
        <ele>659.586</ele>
        <time>2019-07-12T08:34:04Z</time>
      </trkpt>
      <trkpt lat="46.526802" lon="15.614657">
        <ele>583.374</ele>
        <time>2019-07-12T08:35:33Z</time>
      </trkpt>
      <trkpt lat="46.526953" lon="15.614315">
        <ele>778.613</ele>
        <time>2019-07-12T08:36:10Z</time>
      </trkpt>
      <trkpt lat="46.527028" lon="15.614151">
        <ele>564.037</ele>
        <time>2019-07-12T08:36:24Z</time>
      </trkpt>
      <trkpt lat="46.527043" lon="15.61392">
        <ele>498.182</ele>
        <time>2019-07-12T08:36:42Z</time>
      </trkpt>
      <trkpt lat="46.527073" lon="15.613865">
        <ele>493.7</ele>
        <time>2019-07-12T08:36:47Z</time>
      </trkpt>
      <trkpt lat="46.527166" lon="15.613792">
        <ele>494.08</ele>
        <time>2019-07-12T08:37:05Z</time>
      </trkpt>
      <trkpt lat="46.527238" lon="15.613616">
        <ele>490.639</ele>
        <time>2019-07-12T08:37:19Z</time>
      </trkpt>
      <trkpt lat="46.52726" lon="15.613409">
        <ele>488.726</ele>
        <time>2019-07-12T08:37:28Z</time>
      </trkpt>
      <trkpt lat="46.527299" lon="15.613214">
        <ele>484.026</ele>
        <time>2019-07-12T08:37:40Z</time>
      </trkpt>
      <trkpt lat="46.527314" lon="15.612984">
        <ele>556.483</ele>
        <time>2019-07-12T08:37:54Z</time>
      </trkpt>
      <trkpt lat="46.527428" lon="15.612709">
        <ele>490.432</ele>
        <time>2019-07-12T08:38:13Z</time>
      </trkpt>
      <trkpt lat="46.527521" lon="15.612538">
        <ele>513.912</ele>
        <time>2019-07-12T08:38:31Z</time>
      </trkpt>
      <trkpt lat="46.527628" lon="15.612394">
        <ele>694.647</ele>
        <time>2019-07-12T08:38:43Z</time>
      </trkpt>
      <trkpt lat="46.527725" lon="15.612322">
        <ele>510.713</ele>
        <time>2019-07-12T08:38:51Z</time>
      </trkpt>
      <trkpt lat="46.527782" lon="15.612334">
        <ele>636.649</ele>
        <time>2019-07-12T08:39:00Z</time>
      </trkpt>
      <trkpt lat="46.528043" lon="15.612406">
        <ele>474.661</ele>
        <time>2019-07-12T08:39:50Z</time>
      </trkpt>
      <trkpt lat="46.528348" lon="15.61249">
        <ele>496.427</ele>
        <time>2019-07-12T08:40:34Z</time>
      </trkpt>
      <trkpt lat="46.528381" lon="15.61255">
        <ele>505.69</ele>
        <time>2019-07-12T08:40:40Z</time>
      </trkpt>
      <trkpt lat="46.528461" lon="15.612578">
        <ele>584.891</ele>
        <time>2019-07-12T08:40:54Z</time>
      </trkpt>
      <trkpt lat="46.528549" lon="15.612654">
        <ele>443.671</ele>
        <time>2019-07-12T08:41:07Z</time>
      </trkpt>
      <trkpt lat="46.528588" lon="15.61286">
        <ele>440.334</ele>
        <time>2019-07-12T08:41:23Z</time>
      </trkpt>
      <trkpt lat="46.528588" lon="15.61286">
        <ele>440.334</ele>
        <time>2019-07-12T08:41:31Z</time>
      </trkpt>
      <trkpt lat="46.528659" lon="15.613057">
        <ele>429.13</ele>
        <time>2019-07-12T08:41:42Z</time>
      </trkpt>
      <trkpt lat="46.528801" lon="15.613112">
        <ele>425.25</ele>
        <time>2019-07-12T08:41:56Z</time>
      </trkpt>
      <trkpt lat="46.528871" lon="15.613166">
        <ele>459.027</ele>
        <time>2019-07-12T08:42:09Z</time>
      </trkpt>
      <trkpt lat="46.529067" lon="15.613264">
        <ele>426.431</ele>
        <time>2019-07-12T08:42:28Z</time>
      </trkpt>
      <trkpt lat="46.529225" lon="15.613272">
        <ele>420.3</ele>
        <time>2019-07-12T08:42:51Z</time>
      </trkpt>
      <trkpt lat="46.529369" lon="15.613253">
        <ele>410.926</ele>
        <time>2019-07-12T08:43:02Z</time>
      </trkpt>
      <trkpt lat="46.529504" lon="15.613295">
        <ele>424.586</ele>
        <time>2019-07-12T08:43:15Z</time>
      </trkpt>
      <trkpt lat="46.52967" lon="15.61327">
        <ele>401.03</ele>
        <time>2019-07-12T08:43:31Z</time>
      </trkpt>
      <trkpt lat="46.529827" lon="15.613276">
        <ele>399.586</ele>
        <time>2019-07-12T08:43:45Z</time>
      </trkpt>
      <trkpt lat="46.530055" lon="15.613208">
        <ele>397.88</ele>
        <time>2019-07-12T08:44:04Z</time>
      </trkpt>
      <trkpt lat="46.5302" lon="15.613306">
        <ele>387.578</ele>
        <time>2019-07-12T08:44:20Z</time>
      </trkpt>
      <trkpt lat="46.530247" lon="15.613336">
        <ele>384.857</ele>
        <time>2019-07-12T08:44:25Z</time>
      </trkpt>
      <trkpt lat="46.530358" lon="15.613283">
        <ele>552.137</ele>
        <time>2019-07-12T08:44:38Z</time>
      </trkpt>
      <trkpt lat="46.530496" lon="15.613272">
        <ele>390.434</ele>
        <time>2019-07-12T08:44:55Z</time>
      </trkpt>
      <trkpt lat="46.530772" lon="15.61342">
        <ele>391.967</ele>
        <time>2019-07-12T08:46:45Z</time>
      </trkpt>
      <trkpt lat="46.530825" lon="15.613573">
        <ele>384.746</ele>
        <time>2019-07-12T08:46:54Z</time>
      </trkpt>
      <trkpt lat="46.530942" lon="15.613686">
        <ele>377.756</ele>
        <time>2019-07-12T08:47:06Z</time>
      </trkpt>
      <trkpt lat="46.531051" lon="15.613802">
        <ele>374.165</ele>
        <time>2019-07-12T08:47:18Z</time>
      </trkpt>
      <trkpt lat="46.53114" lon="15.614026">
        <ele>371.91</ele>
        <time>2019-07-12T08:47:31Z</time>
      </trkpt>
      <trkpt lat="46.531099" lon="15.614269">
        <ele>370.449</ele>
        <time>2019-07-12T08:47:44Z</time>
      </trkpt>
      <trkpt lat="46.531106" lon="15.614576">
        <ele>377.298</ele>
        <time>2019-07-12T08:47:58Z</time>
      </trkpt>
      <trkpt lat="46.531185" lon="15.614722">
        <ele>763.676</ele>
        <time>2019-07-12T08:48:09Z</time>
      </trkpt>
      <trkpt lat="46.531257" lon="15.615058">
        <ele>405.693</ele>
        <time>2019-07-12T08:48:28Z</time>
      </trkpt>
      <trkpt lat="46.531369" lon="15.615281">
        <ele>369.934</ele>
        <time>2019-07-12T08:48:40Z</time>
      </trkpt>
      <trkpt lat="46.531487" lon="15.615445">
        <ele>362.868</ele>
        <time>2019-07-12T08:48:47Z</time>
      </trkpt>
      <trkpt lat="46.531543" lon="15.615578">
        <ele>779.711</ele>
        <time>2019-07-12T08:48:53Z</time>
      </trkpt>
      <trkpt lat="46.531543" lon="15.615578">
        <ele>779.711</ele>
        <time>2019-07-12T08:48:59Z</time>
      </trkpt>
      <trkpt lat="46.531658" lon="15.615665">
        <ele>421.756</ele>
        <time>2019-07-12T08:49:04Z</time>
      </trkpt>
      <trkpt lat="46.531822" lon="15.615774">
        <ele>379.733</ele>
        <time>2019-07-12T08:49:13Z</time>
      </trkpt>
      <trkpt lat="46.531934" lon="15.615758">
        <ele>369.886</ele>
        <time>2019-07-12T08:49:21Z</time>
      </trkpt>
      <trkpt lat="46.532195" lon="15.615929">
        <ele>703.709</ele>
        <time>2019-07-12T08:49:39Z</time>
      </trkpt>
      <trkpt lat="46.532195" lon="15.615929">
        <ele>703.709</ele>
        <time>2019-07-12T08:49:46Z</time>
      </trkpt>
      <trkpt lat="46.532291" lon="15.615983">
        <ele>587.438</ele>
        <time>2019-07-12T08:49:51Z</time>
      </trkpt>
      <trkpt lat="46.532438" lon="15.616042">
        <ele>654.931</ele>
        <time>2019-07-12T08:50:01Z</time>
      </trkpt>
      <trkpt lat="46.532585" lon="15.616123">
        <ele>373.439</ele>
        <time>2019-07-12T08:50:15Z</time>
      </trkpt>
      <trkpt lat="46.532737" lon="15.616198">
        <ele>354.591</ele>
        <time>2019-07-12T08:50:28Z</time>
      </trkpt>
      <trkpt lat="46.532942" lon="15.616325">
        <ele>342.686</ele>
        <time>2019-07-12T08:50:43Z</time>
      </trkpt>
      <trkpt lat="46.533077" lon="15.616274">
        <ele>339.189</ele>
        <time>2019-07-12T08:50:54Z</time>
      </trkpt>
      <trkpt lat="46.533254" lon="15.616162">
        <ele>339.228</ele>
        <time>2019-07-12T08:51:07Z</time>
      </trkpt>
      <trkpt lat="46.533407" lon="15.616066">
        <ele>342.533</ele>
        <time>2019-07-12T08:51:20Z</time>
      </trkpt>
      <trkpt lat="46.533606" lon="15.61603">
        <ele>335.128</ele>
        <time>2019-07-12T08:51:34Z</time>
      </trkpt>
      <trkpt lat="46.533772" lon="15.616047">
        <ele>333.735</ele>
        <time>2019-07-12T08:51:45Z</time>
      </trkpt>
      <trkpt lat="46.533772" lon="15.616047">
        <time>2019-07-12T08:51:53Z</time>
      </trkpt>
    </trkseg>
    <trkseg>
      <trkpt lat="46.533772" lon="15.616047">
        <time>2019-07-12T08:51:55Z</time>
      </trkpt>
    </trkseg>
  </trk>
</gpx>
